<?xml version="1.0" encoding="utf-8"?>
<gpx xmlns:xsi="http://www.w3.org/2001/XMLSchema-instance" xmlns:xsd="http://www.w3.org/2001/XMLSchema" version="1.1" creator="Shapelink.com" xmlns="http://www.topografix.com/GPX/1/1" xmlns:gpxtpx="http://www.garmin.com/xmlschemas/TrackPointExtension/v1">
  <metadata>
    <name>Löpning 10.08 km, 2017-12-24</name>
    <desc></desc>
    <author><name>Bengt-Åke Forslund</name></author> 
    <time>2017-12-24T10:09:45Z</time>
  </metadata>
  <trk>
    <name>Löpning 10.08 km, 2017-12-24</name>
    <trkseg>
      <trkpt lat="62.641783226073" lon="17.899043027258">
        <ele>98.8</ele>
        <time>2017-12-24T10:09:45Z</time>
      </trkpt>
      <trkpt lat="62.641761852228" lon="17.899027939838">
        <ele>96.8</ele>
        <time>2017-12-24T10:09:46Z</time>
      </trkpt>
      <trkpt lat="62.641755649622" lon="17.899000782482">
        <ele>93</ele>
        <time>2017-12-24T10:09:48Z</time>
      </trkpt>
      <trkpt lat="62.641761768409" lon="17.898953592385">
        <ele>93.8</ele>
        <time>2017-12-24T10:09:49Z</time>
      </trkpt>
      <trkpt lat="62.641769731214" lon="17.89891126379">
        <ele>93.6</ele>
        <time>2017-12-24T10:09:50Z</time>
      </trkpt>
      <trkpt lat="62.641777358743" lon="17.898876730362">
        <ele>93.4</ele>
        <time>2017-12-24T10:09:51Z</time>
      </trkpt>
      <trkpt lat="62.641787333204" lon="17.898843873314">
        <ele>93.2</ele>
        <time>2017-12-24T10:09:52Z</time>
      </trkpt>
      <trkpt lat="62.641796553294" lon="17.898789474783">
        <ele>93.2</ele>
        <time>2017-12-24T10:09:53Z</time>
      </trkpt>
      <trkpt lat="62.641803007357" lon="17.898729628017">
        <ele>93.2</ele>
        <time>2017-12-24T10:09:54Z</time>
      </trkpt>
      <trkpt lat="62.641812059809" lon="17.898671625269">
        <ele>93</ele>
        <time>2017-12-24T10:09:55Z</time>
      </trkpt>
      <trkpt lat="62.641820106433" lon="17.898605911173">
        <ele>93.2</ele>
        <time>2017-12-24T10:09:56Z</time>
      </trkpt>
      <trkpt lat="62.641823459193" lon="17.898544388027">
        <ele>93</ele>
        <time>2017-12-24T10:09:57Z</time>
      </trkpt>
      <trkpt lat="62.641825806125" lon="17.898486720555">
        <ele>93</ele>
        <time>2017-12-24T10:09:58Z</time>
      </trkpt>
      <trkpt lat="62.641834104206" lon="17.898405416125">
        <ele>93.2</ele>
        <time>2017-12-24T10:09:59Z</time>
      </trkpt>
      <trkpt lat="62.641835780586" lon="17.898311538845">
        <ele>93.2</ele>
        <time>2017-12-24T10:10:00Z</time>
      </trkpt>
      <trkpt lat="62.641841647916" lon="17.898235179736">
        <ele>93</ele>
        <time>2017-12-24T10:10:01Z</time>
      </trkpt>
      <trkpt lat="62.641847766703" lon="17.898155300229">
        <ele>93</ele>
        <time>2017-12-24T10:10:02Z</time>
      </trkpt>
      <trkpt lat="62.641855478051" lon="17.898074414894">
        <ele>93</ele>
        <time>2017-12-24T10:10:03Z</time>
      </trkpt>
      <trkpt lat="62.641861848295" lon="17.897994954482">
        <ele>92.8</ele>
        <time>2017-12-24T10:10:04Z</time>
      </trkpt>
      <trkpt lat="62.641864698141" lon="17.897950278955">
        <ele>92.8</ele>
        <time>2017-12-24T10:10:05Z</time>
      </trkpt>
      <trkpt lat="62.641873666774" lon="17.897776522168">
        <ele>92.6</ele>
        <time>2017-12-24T10:10:06Z</time>
      </trkpt>
      <trkpt lat="62.641872241851" lon="17.897686165286">
        <ele>92</ele>
        <time>2017-12-24T10:10:07Z</time>
      </trkpt>
      <trkpt lat="62.641869056729" lon="17.897601759553">
        <ele>91.6</ele>
        <time>2017-12-24T10:10:08Z</time>
      </trkpt>
      <trkpt lat="62.641865955426" lon="17.897517437639">
        <ele>91.6</ele>
        <time>2017-12-24T10:10:09Z</time>
      </trkpt>
      <trkpt lat="62.641822369546" lon="17.897492711034">
        <ele>91.6</ele>
        <time>2017-12-24T10:10:10Z</time>
      </trkpt>
      <trkpt lat="62.641789596317" lon="17.897456585045">
        <ele>91.2</ele>
        <time>2017-12-24T10:10:11Z</time>
      </trkpt>
      <trkpt lat="62.641764115341" lon="17.897466894782">
        <ele>90.8</ele>
        <time>2017-12-24T10:10:12Z</time>
      </trkpt>
      <trkpt lat="62.641739556374" lon="17.897469074076">
        <ele>90.6</ele>
        <time>2017-12-24T10:10:13Z</time>
      </trkpt>
      <trkpt lat="62.641716589968" lon="17.897496231432">
        <ele>90.4</ele>
        <time>2017-12-24T10:10:14Z</time>
      </trkpt>
      <trkpt lat="62.641691947182" lon="17.897522466779">
        <ele>90.4</ele>
        <time>2017-12-24T10:10:15Z</time>
      </trkpt>
      <trkpt lat="62.641667639672" lon="17.897548618307">
        <ele>90.4</ele>
        <time>2017-12-24T10:10:16Z</time>
      </trkpt>
      <trkpt lat="62.64165607265" lon="17.89756848341">
        <ele>90.4</ele>
        <time>2017-12-24T10:10:17Z</time>
      </trkpt>
      <trkpt lat="62.641621120127" lon="17.89762045119">
        <ele>90.4</ele>
        <time>2017-12-24T10:10:18Z</time>
      </trkpt>
      <trkpt lat="62.641599411006" lon="17.897659091749">
        <ele>90.4</ele>
        <time>2017-12-24T10:10:19Z</time>
      </trkpt>
      <trkpt lat="62.641573594754" lon="17.897695469195">
        <ele>90.4</ele>
        <time>2017-12-24T10:10:20Z</time>
      </trkpt>
      <trkpt lat="62.641554400203" lon="17.897722207456">
        <ele>90.2</ele>
        <time>2017-12-24T10:10:21Z</time>
      </trkpt>
      <trkpt lat="62.641534032186" lon="17.897741904921">
        <ele>90.2</ele>
        <time>2017-12-24T10:10:22Z</time>
      </trkpt>
      <trkpt lat="62.641509976133" lon="17.897756321789">
        <ele>90.2</ele>
        <time>2017-12-24T10:10:23Z</time>
      </trkpt>
      <trkpt lat="62.641492457962" lon="17.897785239344">
        <ele>90.4</ele>
        <time>2017-12-24T10:10:24Z</time>
      </trkpt>
      <trkpt lat="62.641473095773" lon="17.897804769171">
        <ele>90.4</ele>
        <time>2017-12-24T10:10:25Z</time>
      </trkpt>
      <trkpt lat="62.641454152679" lon="17.897824885731">
        <ele>90.6</ele>
        <time>2017-12-24T10:10:26Z</time>
      </trkpt>
      <trkpt lat="62.641436550689" lon="17.897846008119">
        <ele>90.8</ele>
        <time>2017-12-24T10:10:27Z</time>
      </trkpt>
      <trkpt lat="62.641420708898" lon="17.897863945385">
        <ele>90.8</ele>
        <time>2017-12-24T10:10:28Z</time>
      </trkpt>
      <trkpt lat="62.64140377746" lon="17.897885067773">
        <ele>91</ele>
        <time>2017-12-24T10:10:29Z</time>
      </trkpt>
      <trkpt lat="62.641383325624" lon="17.897901161021">
        <ele>91.2</ele>
        <time>2017-12-24T10:10:30Z</time>
      </trkpt>
      <trkpt lat="62.641364047254" lon="17.897919265925">
        <ele>91.2</ele>
        <time>2017-12-24T10:10:31Z</time>
      </trkpt>
      <trkpt lat="62.641344685065" lon="17.897939466304">
        <ele>91.4</ele>
        <time>2017-12-24T10:10:32Z</time>
      </trkpt>
      <trkpt lat="62.64132582579" lon="17.897957822665">
        <ele>91.6</ele>
        <time>2017-12-24T10:10:33Z</time>
      </trkpt>
      <trkpt lat="62.641305625411" lon="17.89797249099">
        <ele>91.8</ele>
        <time>2017-12-24T10:10:34Z</time>
      </trkpt>
      <trkpt lat="62.641279557702" lon="17.897987494591">
        <ele>92</ele>
        <time>2017-12-24T10:10:35Z</time>
      </trkpt>
      <trkpt lat="62.641264554101" lon="17.897998139604">
        <ele>92.4</ele>
        <time>2017-12-24T10:10:36Z</time>
      </trkpt>
      <trkpt lat="62.641240833324" lon="17.898013059386">
        <ele>92.6</ele>
        <time>2017-12-24T10:10:37Z</time>
      </trkpt>
      <trkpt lat="62.641219543298" lon="17.89802864972">
        <ele>92.8</ele>
        <time>2017-12-24T10:10:38Z</time>
      </trkpt>
      <trkpt lat="62.641194397598" lon="17.898029236453">
        <ele>92.8</ele>
        <time>2017-12-24T10:10:39Z</time>
      </trkpt>
      <trkpt lat="62.64117076064" lon="17.898030242281">
        <ele>93</ele>
        <time>2017-12-24T10:10:40Z</time>
      </trkpt>
      <trkpt lat="62.641162797835" lon="17.898028482082">
        <ele>93</ele>
        <time>2017-12-24T10:10:41Z</time>
      </trkpt>
      <trkpt lat="62.641129940787" lon="17.898015909232">
        <ele>93.2</ele>
        <time>2017-12-24T10:10:42Z</time>
      </trkpt>
      <trkpt lat="62.64111376372" lon="17.89800350402">
        <ele>93.2</ele>
        <time>2017-12-24T10:10:43Z</time>
      </trkpt>
      <trkpt lat="62.641101861422" lon="17.897988165143">
        <ele>93.4</ele>
        <time>2017-12-24T10:10:44Z</time>
      </trkpt>
      <trkpt lat="62.641089707667" lon="17.897965282556">
        <ele>93.4</ele>
        <time>2017-12-24T10:10:45Z</time>
      </trkpt>
      <trkpt lat="62.64107855974" lon="17.897940053037">
        <ele>93.4</ele>
        <time>2017-12-24T10:10:46Z</time>
      </trkpt>
      <trkpt lat="62.641070094021" lon="17.897917924821">
        <ele>93.4</ele>
        <time>2017-12-24T10:10:47Z</time>
      </trkpt>
      <trkpt lat="62.641062801768" lon="17.897893868768">
        <ele>93.4</ele>
        <time>2017-12-24T10:10:48Z</time>
      </trkpt>
      <trkpt lat="62.641058359361" lon="17.897868052516">
        <ele>93.8</ele>
        <time>2017-12-24T10:10:49Z</time>
      </trkpt>
      <trkpt lat="62.641053916954" lon="17.897842152445">
        <ele>93.8</ele>
        <time>2017-12-24T10:10:50Z</time>
      </trkpt>
      <trkpt lat="62.641049306909" lon="17.897814827451">
        <ele>94</ele>
        <time>2017-12-24T10:10:51Z</time>
      </trkpt>
      <trkpt lat="62.641045283597" lon="17.897786328991">
        <ele>94</ele>
        <time>2017-12-24T10:10:52Z</time>
      </trkpt>
      <trkpt lat="62.641040757371" lon="17.897759926006">
        <ele>94.2</ele>
        <time>2017-12-24T10:10:53Z</time>
      </trkpt>
      <trkpt lat="62.641036231145" lon="17.89773779779">
        <ele>94.4</ele>
        <time>2017-12-24T10:10:54Z</time>
      </trkpt>
      <trkpt lat="62.641032794566" lon="17.897715837212">
        <ele>94.8</ele>
        <time>2017-12-24T10:10:55Z</time>
      </trkpt>
      <trkpt lat="62.641028016883" lon="17.897691194426">
        <ele>95</ele>
        <time>2017-12-24T10:10:56Z</time>
      </trkpt>
      <trkpt lat="62.641023574476" lon="17.897664707622">
        <ele>95.6</ele>
        <time>2017-12-24T10:10:57Z</time>
      </trkpt>
      <trkpt lat="62.641020389354" lon="17.897636544438">
        <ele>95.8</ele>
        <time>2017-12-24T10:10:58Z</time>
      </trkpt>
      <trkpt lat="62.641019551164" lon="17.897607710702">
        <ele>96</ele>
        <time>2017-12-24T10:10:59Z</time>
      </trkpt>
      <trkpt lat="62.641016617499" lon="17.897562783718">
        <ele>96</ele>
        <time>2017-12-24T10:11:00Z</time>
      </trkpt>
      <trkpt lat="62.641012678006" lon="17.897529172299">
        <ele>96.2</ele>
        <time>2017-12-24T10:11:01Z</time>
      </trkpt>
      <trkpt lat="62.641007984142" lon="17.897497488717">
        <ele>96.4</ele>
        <time>2017-12-24T10:11:02Z</time>
      </trkpt>
      <trkpt lat="62.641004296106" lon="17.89746454785">
        <ele>96</ele>
        <time>2017-12-24T10:11:03Z</time>
      </trkpt>
      <trkpt lat="62.64099474074" lon="17.897446191489">
        <ele>96.2</ele>
        <time>2017-12-24T10:11:04Z</time>
      </trkpt>
      <trkpt lat="62.640989041048" lon="17.897400761591">
        <ele>96.4</ele>
        <time>2017-12-24T10:11:05Z</time>
      </trkpt>
      <trkpt lat="62.640978479854" lon="17.897365306154">
        <ele>96.6</ele>
        <time>2017-12-24T10:11:06Z</time>
      </trkpt>
      <trkpt lat="62.640969846497" lon="17.897329766898">
        <ele>96.6</ele>
        <time>2017-12-24T10:11:07Z</time>
      </trkpt>
      <trkpt lat="62.640964062986" lon="17.897296742212">
        <ele>96.8</ele>
        <time>2017-12-24T10:11:08Z</time>
      </trkpt>
      <trkpt lat="62.640959452941" lon="17.897268076114">
        <ele>96.8</ele>
        <time>2017-12-24T10:11:09Z</time>
      </trkpt>
      <trkpt lat="62.640953585611" lon="17.897238152731">
        <ele>97</ele>
        <time>2017-12-24T10:11:10Z</time>
      </trkpt>
      <trkpt lat="62.64094864029" lon="17.897204206036">
        <ele>97.2</ele>
        <time>2017-12-24T10:11:11Z</time>
      </trkpt>
      <trkpt lat="62.640943192055" lon="17.897174953205">
        <ele>97.6</ele>
        <time>2017-12-24T10:11:12Z</time>
      </trkpt>
      <trkpt lat="62.640937911458" lon="17.897148047306">
        <ele>97.6</ele>
        <time>2017-12-24T10:11:13Z</time>
      </trkpt>
      <trkpt lat="62.640930451567" lon="17.897115609353">
        <ele>97.8</ele>
        <time>2017-12-24T10:11:14Z</time>
      </trkpt>
      <trkpt lat="62.64092433278" lon="17.897083590495">
        <ele>98</ele>
        <time>2017-12-24T10:11:15Z</time>
      </trkpt>
      <trkpt lat="62.640919722735" lon="17.89705132018">
        <ele>98</ele>
        <time>2017-12-24T10:11:16Z</time>
      </trkpt>
      <trkpt lat="62.640913771586" lon="17.897028605231">
        <ele>98.2</ele>
        <time>2017-12-24T10:11:17Z</time>
      </trkpt>
      <trkpt lat="62.640904970591" lon="17.89698761774">
        <ele>98.2</ele>
        <time>2017-12-24T10:11:18Z</time>
      </trkpt>
      <trkpt lat="62.640895415225" lon="17.89695911928">
        <ele>98.4</ele>
        <time>2017-12-24T10:11:19Z</time>
      </trkpt>
      <trkpt lat="62.640885943678" lon="17.896930704639">
        <ele>98.6</ele>
        <time>2017-12-24T10:11:20Z</time>
      </trkpt>
      <trkpt lat="62.64087739414" lon="17.896900613618">
        <ele>98.6</ele>
        <time>2017-12-24T10:11:21Z</time>
      </trkpt>
      <trkpt lat="62.640871694448" lon="17.896869768226">
        <ele>98.6</ele>
        <time>2017-12-24T10:11:22Z</time>
      </trkpt>
      <trkpt lat="62.640862558177" lon="17.896849819304">
        <ele>98.8</ele>
        <time>2017-12-24T10:11:23Z</time>
      </trkpt>
      <trkpt lat="62.64085141025" lon="17.896822997224">
        <ele>99</ele>
        <time>2017-12-24T10:11:24Z</time>
      </trkpt>
      <trkpt lat="62.640840765237" lon="17.896793409117">
        <ele>99</ele>
        <time>2017-12-24T10:11:25Z</time>
      </trkpt>
      <trkpt lat="62.64083129369" lon="17.896762479906">
        <ele>99.4</ele>
        <time>2017-12-24T10:11:26Z</time>
      </trkpt>
      <trkpt lat="62.640823079428" lon="17.896731802152">
        <ele>99.4</ele>
        <time>2017-12-24T10:11:27Z</time>
      </trkpt>
      <trkpt lat="62.640816290089" lon="17.896701711131">
        <ele>99.6</ele>
        <time>2017-12-24T10:11:28Z</time>
      </trkpt>
      <trkpt lat="62.640807572913" lon="17.896675727241">
        <ele>99.8</ele>
        <time>2017-12-24T10:11:29Z</time>
      </trkpt>
      <trkpt lat="62.640796844081" lon="17.896648402247">
        <ele>100.2</ele>
        <time>2017-12-24T10:11:30Z</time>
      </trkpt>
      <trkpt lat="62.64078938419" lon="17.896624094737">
        <ele>100.4</ele>
        <time>2017-12-24T10:11:31Z</time>
      </trkpt>
      <trkpt lat="62.640782511032" lon="17.896601631245">
        <ele>100.6</ele>
        <time>2017-12-24T10:11:32Z</time>
      </trkpt>
      <trkpt lat="62.640776476064" lon="17.89657774283">
        <ele>100.8</ele>
        <time>2017-12-24T10:11:33Z</time>
      </trkpt>
      <trkpt lat="62.640766920698" lon="17.89655846446">
        <ele>101</ele>
        <time>2017-12-24T10:11:34Z</time>
      </trkpt>
      <trkpt lat="62.640759796083" lon="17.896511190544">
        <ele>101.2</ele>
        <time>2017-12-24T10:11:35Z</time>
      </trkpt>
      <trkpt lat="62.640750492174" lon="17.896485793387">
        <ele>101.4</ele>
        <time>2017-12-24T10:11:36Z</time>
      </trkpt>
      <trkpt lat="62.64074076917" lon="17.896453606891">
        <ele>101.6</ele>
        <time>2017-12-24T10:11:37Z</time>
      </trkpt>
      <trkpt lat="62.640732554908" lon="17.896425946621">
        <ele>101.6</ele>
        <time>2017-12-24T10:11:38Z</time>
      </trkpt>
      <trkpt lat="62.640725597931" lon="17.896394849772">
        <ele>101.8</ele>
        <time>2017-12-24T10:11:39Z</time>
      </trkpt>
      <trkpt lat="62.640718389497" lon="17.896371380452">
        <ele>101.8</ele>
        <time>2017-12-24T10:11:40Z</time>
      </trkpt>
      <trkpt lat="62.640710007597" lon="17.896316395188">
        <ele>102</ele>
        <time>2017-12-24T10:11:41Z</time>
      </trkpt>
      <trkpt lat="62.640700452231" lon="17.896278676638">
        <ele>102.2</ele>
        <time>2017-12-24T10:11:42Z</time>
      </trkpt>
      <trkpt lat="62.640693579073" lon="17.89624246683">
        <ele>102.2</ele>
        <time>2017-12-24T10:11:43Z</time>
      </trkpt>
      <trkpt lat="62.640689388123" lon="17.896215309474">
        <ele>102.2</ele>
        <time>2017-12-24T10:11:44Z</time>
      </trkpt>
      <trkpt lat="62.64068377225" lon="17.896178010019">
        <ele>102.4</ele>
        <time>2017-12-24T10:11:45Z</time>
      </trkpt>
      <trkpt lat="62.640680838585" lon="17.896137776899">
        <ele>102.4</ele>
        <time>2017-12-24T10:11:46Z</time>
      </trkpt>
      <trkpt lat="62.640676647635" lon="17.896100309806">
        <ele>102.6</ele>
        <time>2017-12-24T10:11:47Z</time>
      </trkpt>
      <trkpt lat="62.640674635979" lon="17.896060831057">
        <ele>102.6</ele>
        <time>2017-12-24T10:11:48Z</time>
      </trkpt>
      <trkpt lat="62.640671283219" lon="17.896035014805">
        <ele>102.8</ele>
        <time>2017-12-24T10:11:49Z</time>
      </trkpt>
      <trkpt lat="62.64066952302" lon="17.896003750318">
        <ele>103</ele>
        <time>2017-12-24T10:11:50Z</time>
      </trkpt>
      <trkpt lat="62.640669187744" lon="17.89597256965">
        <ele>103.2</ele>
        <time>2017-12-24T10:11:51Z</time>
      </trkpt>
      <trkpt lat="62.640670025934" lon="17.89594239481">
        <ele>103.2</ele>
        <time>2017-12-24T10:11:52Z</time>
      </trkpt>
      <trkpt lat="62.640666254079" lon="17.895912722884">
        <ele>103.4</ele>
        <time>2017-12-24T10:11:53Z</time>
      </trkpt>
      <trkpt lat="62.640664242423" lon="17.895869975194">
        <ele>103.6</ele>
        <time>2017-12-24T10:11:54Z</time>
      </trkpt>
      <trkpt lat="62.640664242423" lon="17.895829574436">
        <ele>103.8</ele>
        <time>2017-12-24T10:11:55Z</time>
      </trkpt>
      <trkpt lat="62.6406628175" lon="17.895786742927">
        <ele>104</ele>
        <time>2017-12-24T10:11:56Z</time>
      </trkpt>
      <trkpt lat="62.640660386749" lon="17.895750030205">
        <ele>104</ele>
        <time>2017-12-24T10:11:57Z</time>
      </trkpt>
      <trkpt lat="62.640658375093" lon="17.895717927528">
        <ele>104.2</ele>
        <time>2017-12-24T10:11:58Z</time>
      </trkpt>
      <trkpt lat="62.640654687057" lon="17.895670569793">
        <ele>104.2</ele>
        <time>2017-12-24T10:11:59Z</time>
      </trkpt>
      <trkpt lat="62.640652591582" lon="17.895631174863">
        <ele>104.2</ele>
        <time>2017-12-24T10:12:00Z</time>
      </trkpt>
      <trkpt lat="62.640651501935" lon="17.895590103553">
        <ele>104.2</ele>
        <time>2017-12-24T10:12:01Z</time>
      </trkpt>
      <trkpt lat="62.640649909374" lon="17.89554341637">
        <ele>104.4</ele>
        <time>2017-12-24T10:12:02Z</time>
      </trkpt>
      <trkpt lat="62.64064856827" lon="17.895496393911">
        <ele>104.2</ele>
        <time>2017-12-24T10:12:03Z</time>
      </trkpt>
      <trkpt lat="62.640644125863" lon="17.895467811632">
        <ele>104.4</ele>
        <time>2017-12-24T10:12:04Z</time>
      </trkpt>
      <trkpt lat="62.640642030388" lon="17.895450712556">
        <ele>104.4</ele>
        <time>2017-12-24T10:12:05Z</time>
      </trkpt>
      <trkpt lat="62.64063264266" lon="17.895365887728">
        <ele>104.4</ele>
        <time>2017-12-24T10:12:06Z</time>
      </trkpt>
      <trkpt lat="62.640628535529" lon="17.89531207593">
        <ele>104.6</ele>
        <time>2017-12-24T10:12:07Z</time>
      </trkpt>
      <trkpt lat="62.640626942968" lon="17.895242170884">
        <ele>104.6</ele>
        <time>2017-12-24T10:12:08Z</time>
      </trkpt>
      <trkpt lat="62.640615711222" lon="17.895188275267">
        <ele>104.6</ele>
        <time>2017-12-24T10:12:09Z</time>
      </trkpt>
      <trkpt lat="62.640612777557" lon="17.895117867307">
        <ele>104.6</ele>
        <time>2017-12-24T10:12:10Z</time>
      </trkpt>
      <trkpt lat="62.640597187223" lon="17.895070174296">
        <ele>104.6</ele>
        <time>2017-12-24T10:12:11Z</time>
      </trkpt>
      <trkpt lat="62.640591906626" lon="17.894996497395">
        <ele>104.6</ele>
        <time>2017-12-24T10:12:12Z</time>
      </trkpt>
      <trkpt lat="62.640583440907" lon="17.894932878774">
        <ele>104.6</ele>
        <time>2017-12-24T10:12:13Z</time>
      </trkpt>
      <trkpt lat="62.640582602717" lon="17.894883090288">
        <ele>104.6</ele>
        <time>2017-12-24T10:12:14Z</time>
      </trkpt>
      <trkpt lat="62.640578663224" lon="17.894833720897">
        <ele>104.6</ele>
        <time>2017-12-24T10:12:15Z</time>
      </trkpt>
      <trkpt lat="62.640572628256" lon="17.894794325967">
        <ele>104.4</ele>
        <time>2017-12-24T10:12:16Z</time>
      </trkpt>
      <trkpt lat="62.640573214989" lon="17.894728192776">
        <ele>104.4</ele>
        <time>2017-12-24T10:12:17Z</time>
      </trkpt>
      <trkpt lat="62.640567682935" lon="17.894682343783">
        <ele>104.4</ele>
        <time>2017-12-24T10:12:18Z</time>
      </trkpt>
      <trkpt lat="62.640568353487" lon="17.894624257216">
        <ele>104.6</ele>
        <time>2017-12-24T10:12:19Z</time>
      </trkpt>
      <trkpt lat="62.640565838917" lon="17.894571032151">
        <ele>104.8</ele>
        <time>2017-12-24T10:12:20Z</time>
      </trkpt>
      <trkpt lat="62.640562737614" lon="17.894525099339">
        <ele>104.8</ele>
        <time>2017-12-24T10:12:21Z</time>
      </trkpt>
      <trkpt lat="62.640560390682" lon="17.894478998889">
        <ele>104.8</ele>
        <time>2017-12-24T10:12:22Z</time>
      </trkpt>
      <trkpt lat="62.640557289379" lon="17.894421163779">
        <ele>104.6</ele>
        <time>2017-12-24T10:12:23Z</time>
      </trkpt>
      <trkpt lat="62.640548739841" lon="17.89437246494">
        <ele>104.8</ele>
        <time>2017-12-24T10:12:24Z</time>
      </trkpt>
      <trkpt lat="62.640543962158" lon="17.894329884888">
        <ele>104.8</ele>
        <time>2017-12-24T10:12:25Z</time>
      </trkpt>
      <trkpt lat="62.640538346285" lon="17.894286718103">
        <ele>104.8</ele>
        <time>2017-12-24T10:12:26Z</time>
      </trkpt>
      <trkpt lat="62.640528539462" lon="17.894237935445">
        <ele>104.6</ele>
        <time>2017-12-24T10:12:27Z</time>
      </trkpt>
      <trkpt lat="62.640518481182" lon="17.89418471038">
        <ele>104.8</ele>
        <time>2017-12-24T10:12:28Z</time>
      </trkpt>
      <trkpt lat="62.640515547517" lon="17.894163085078">
        <ele>105</ele>
        <time>2017-12-24T10:12:29Z</time>
      </trkpt>
      <trkpt lat="62.640503309943" lon="17.894115392067">
        <ele>105.2</ele>
        <time>2017-12-24T10:12:30Z</time>
      </trkpt>
      <trkpt lat="62.640493754577" lon="17.89407155473">
        <ele>105.4</ele>
        <time>2017-12-24T10:12:31Z</time>
      </trkpt>
      <trkpt lat="62.640483109564" lon="17.894027549755">
        <ele>105.4</ele>
        <time>2017-12-24T10:12:32Z</time>
      </trkpt>
      <trkpt lat="62.640470620533" lon="17.893978683278">
        <ele>105.4</ele>
        <time>2017-12-24T10:12:33Z</time>
      </trkpt>
      <trkpt lat="62.640462322452" lon="17.893964182591">
        <ele>105.4</ele>
        <time>2017-12-24T10:12:34Z</time>
      </trkpt>
      <trkpt lat="62.640450587792" lon="17.893901150703">
        <ele>105.6</ele>
        <time>2017-12-24T10:12:35Z</time>
      </trkpt>
      <trkpt lat="62.640431560879" lon="17.893865192352">
        <ele>105.6</ele>
        <time>2017-12-24T10:12:36Z</time>
      </trkpt>
      <trkpt lat="62.640415886726" lon="17.89382177411">
        <ele>105.6</ele>
        <time>2017-12-24T10:12:37Z</time>
      </trkpt>
      <trkpt lat="62.64041303688" lon="17.893812470201">
        <ele>105.8</ele>
        <time>2017-12-24T10:12:38Z</time>
      </trkpt>
      <trkpt lat="62.64039711127" lon="17.893766369751">
        <ele>105.8</ele>
        <time>2017-12-24T10:12:39Z</time>
      </trkpt>
      <trkpt lat="62.640386466257" lon="17.89372622045">
        <ele>106</ele>
        <time>2017-12-24T10:12:40Z</time>
      </trkpt>
      <trkpt lat="62.640376575615" lon="17.893690681194">
        <ele>106</ele>
        <time>2017-12-24T10:12:41Z</time>
      </trkpt>
      <trkpt lat="62.640369031905" lon="17.893657991784">
        <ele>106</ele>
        <time>2017-12-24T10:12:42Z</time>
      </trkpt>
      <trkpt lat="62.640363499851" lon="17.893622201071">
        <ele>106</ele>
        <time>2017-12-24T10:12:43Z</time>
      </trkpt>
      <trkpt lat="62.640361320557" lon="17.893600324312">
        <ele>106.2</ele>
        <time>2017-12-24T10:12:44Z</time>
      </trkpt>
      <trkpt lat="62.640357548702" lon="17.893569059825">
        <ele>106.4</ele>
        <time>2017-12-24T10:12:45Z</time>
      </trkpt>
      <trkpt lat="62.640356375236" lon="17.893549278541">
        <ele>106.8</ele>
        <time>2017-12-24T10:12:46Z</time>
      </trkpt>
      <trkpt lat="62.640352603381" lon="17.893532095646">
        <ele>106.8</ele>
        <time>2017-12-24T10:12:47Z</time>
      </trkpt>
      <trkpt lat="62.640348999164" lon="17.893498148951">
        <ele>107.2</ele>
        <time>2017-12-24T10:12:48Z</time>
      </trkpt>
      <trkpt lat="62.640346484594" lon="17.893469650491">
        <ele>107.4</ele>
        <time>2017-12-24T10:12:49Z</time>
      </trkpt>
      <trkpt lat="62.640346652232" lon="17.893438218366">
        <ele>107.6</ele>
        <time>2017-12-24T10:12:50Z</time>
      </trkpt>
      <trkpt lat="62.640345897861" lon="17.893406786241">
        <ele>107.8</ele>
        <time>2017-12-24T10:12:51Z</time>
      </trkpt>
      <trkpt lat="62.640348831526" lon="17.893372839546">
        <ele>108</ele>
        <time>2017-12-24T10:12:52Z</time>
      </trkpt>
      <trkpt lat="62.640351178458" lon="17.893334869539">
        <ele>108</ele>
        <time>2017-12-24T10:12:53Z</time>
      </trkpt>
      <trkpt lat="62.640354447399" lon="17.893305868165">
        <ele>108.2</ele>
        <time>2017-12-24T10:12:54Z</time>
      </trkpt>
      <trkpt lat="62.640355034132" lon="17.893262449923">
        <ele>108.4</ele>
        <time>2017-12-24T10:12:55Z</time>
      </trkpt>
      <trkpt lat="62.640356375236" lon="17.893229509056">
        <ele>108.4</ele>
        <time>2017-12-24T10:12:56Z</time>
      </trkpt>
      <trkpt lat="62.640357464883" lon="17.893197909293">
        <ele>108.6</ele>
        <time>2017-12-24T10:12:57Z</time>
      </trkpt>
      <trkpt lat="62.640359979453" lon="17.893163878779">
        <ele>108.6</ele>
        <time>2017-12-24T10:12:58Z</time>
      </trkpt>
      <trkpt lat="62.640360985281" lon="17.89313697288">
        <ele>108.8</ele>
        <time>2017-12-24T10:12:59Z</time>
      </trkpt>
      <trkpt lat="62.640360482367" lon="17.893099170511">
        <ele>109</ele>
        <time>2017-12-24T10:13:00Z</time>
      </trkpt>
      <trkpt lat="62.640361236738" lon="17.893076790838">
        <ele>109</ele>
        <time>2017-12-24T10:13:01Z</time>
      </trkpt>
      <trkpt lat="62.64035855453" lon="17.89304812474">
        <ele>109.2</ele>
        <time>2017-12-24T10:13:02Z</time>
      </trkpt>
      <trkpt lat="62.640359141263" lon="17.893020548289">
        <ele>109.4</ele>
        <time>2017-12-24T10:13:03Z</time>
      </trkpt>
      <trkpt lat="62.640359560358" lon="17.89299196601">
        <ele>109.6</ele>
        <time>2017-12-24T10:13:04Z</time>
      </trkpt>
      <trkpt lat="62.640360063272" lon="17.89296933488">
        <ele>109.8</ele>
        <time>2017-12-24T10:13:05Z</time>
      </trkpt>
      <trkpt lat="62.640358051616" lon="17.892937902755">
        <ele>110.2</ele>
        <time>2017-12-24T10:13:06Z</time>
      </trkpt>
      <trkpt lat="62.640358303073" lon="17.892911080675">
        <ele>110.6</ele>
        <time>2017-12-24T10:13:07Z</time>
      </trkpt>
      <trkpt lat="62.640356710512" lon="17.892878055989">
        <ele>110.8</ele>
        <time>2017-12-24T10:13:08Z</time>
      </trkpt>
      <trkpt lat="62.640355704684" lon="17.892856346868">
        <ele>111</ele>
        <time>2017-12-24T10:13:09Z</time>
      </trkpt>
      <trkpt lat="62.6403526872" lon="17.892826591123">
        <ele>111.4</ele>
        <time>2017-12-24T10:13:10Z</time>
      </trkpt>
      <trkpt lat="62.640348412431" lon="17.892800607233">
        <ele>111.6</ele>
        <time>2017-12-24T10:13:11Z</time>
      </trkpt>
      <trkpt lat="62.640348160974" lon="17.892763643054">
        <ele>111.6</ele>
        <time>2017-12-24T10:13:12Z</time>
      </trkpt>
      <trkpt lat="62.640341455454" lon="17.892712513464">
        <ele>111.8</ele>
        <time>2017-12-24T10:13:13Z</time>
      </trkpt>
      <trkpt lat="62.640338186513" lon="17.892683428271">
        <ele>112</ele>
        <time>2017-12-24T10:13:14Z</time>
      </trkpt>
      <trkpt lat="62.640333492649" lon="17.892638585106">
        <ele>112</ele>
        <time>2017-12-24T10:13:15Z</time>
      </trkpt>
      <trkpt lat="62.640321338894" lon="17.89258795843">
        <ele>112.2</ele>
        <time>2017-12-24T10:13:16Z</time>
      </trkpt>
      <trkpt lat="62.640318908143" lon="17.892555604296">
        <ele>112.2</ele>
        <time>2017-12-24T10:13:17Z</time>
      </trkpt>
      <trkpt lat="62.640310190967" lon="17.892505983448">
        <ele>112.2</ele>
        <time>2017-12-24T10:13:18Z</time>
      </trkpt>
      <trkpt lat="62.640305497103" lon="17.892461894654">
        <ele>112.4</ele>
        <time>2017-12-24T10:13:19Z</time>
      </trkpt>
      <trkpt lat="62.640302144343" lon="17.892430546348">
        <ele>112.4</ele>
        <time>2017-12-24T10:13:20Z</time>
      </trkpt>
      <trkpt lat="62.640298288669" lon="17.892394085083">
        <ele>112.4</ele>
        <time>2017-12-24T10:13:21Z</time>
      </trkpt>
      <trkpt lat="62.640293930081" lon="17.892358881103">
        <ele>112.4</ele>
        <time>2017-12-24T10:13:22Z</time>
      </trkpt>
      <trkpt lat="62.640281524869" lon="17.892322587476">
        <ele>112.8</ele>
        <time>2017-12-24T10:13:23Z</time>
      </trkpt>
      <trkpt lat="62.640284123258" lon="17.892283863098">
        <ele>112.8</ele>
        <time>2017-12-24T10:13:24Z</time>
      </trkpt>
      <trkpt lat="62.640277753014" lon="17.892226363264">
        <ele>113</ele>
        <time>2017-12-24T10:13:25Z</time>
      </trkpt>
      <trkpt lat="62.640274567892" lon="17.892172048552">
        <ele>113.2</ele>
        <time>2017-12-24T10:13:26Z</time>
      </trkpt>
      <trkpt lat="62.640274232616" lon="17.892125780464">
        <ele>113.4</ele>
        <time>2017-12-24T10:13:27Z</time>
      </trkpt>
      <trkpt lat="62.640274819349" lon="17.892093929244">
        <ele>113.6</ele>
        <time>2017-12-24T10:13:28Z</time>
      </trkpt>
      <trkpt lat="62.640281860145" lon="17.892059144359">
        <ele>113.4</ele>
        <time>2017-12-24T10:13:29Z</time>
      </trkpt>
      <trkpt lat="62.640282446878" lon="17.892023688922">
        <ele>113.4</ele>
        <time>2017-12-24T10:13:30Z</time>
      </trkpt>
      <trkpt lat="62.640296025556" lon="17.891970882952">
        <ele>113.6</ele>
        <time>2017-12-24T10:13:31Z</time>
      </trkpt>
      <trkpt lat="62.640307592578" lon="17.89193500842">
        <ele>113.6</ele>
        <time>2017-12-24T10:13:32Z</time>
      </trkpt>
      <trkpt lat="62.640319662514" lon="17.891903827752">
        <ele>113.4</ele>
        <time>2017-12-24T10:13:33Z</time>
      </trkpt>
      <trkpt lat="62.640335336667" lon="17.891867785582">
        <ele>113.6</ele>
        <time>2017-12-24T10:13:34Z</time>
      </trkpt>
      <trkpt lat="62.640354112123" lon="17.891828390652">
        <ele>113.6</ele>
        <time>2017-12-24T10:13:35Z</time>
      </trkpt>
      <trkpt lat="62.640389148465" lon="17.891777847795">
        <ele>113.6</ele>
        <time>2017-12-24T10:13:36Z</time>
      </trkpt>
      <trkpt lat="62.640421083504" lon="17.891745912756">
        <ele>113.6</ele>
        <time>2017-12-24T10:13:37Z</time>
      </trkpt>
      <trkpt lat="62.640454694923" lon="17.891731747345">
        <ele>113.4</ele>
        <time>2017-12-24T10:13:38Z</time>
      </trkpt>
      <trkpt lat="62.640474560026" lon="17.891719928866">
        <ele>113.4</ele>
        <time>2017-12-24T10:13:39Z</time>
      </trkpt>
      <trkpt lat="62.640505153961" lon="17.891716911382">
        <ele>113.2</ele>
        <time>2017-12-24T10:13:40Z</time>
      </trkpt>
      <trkpt lat="62.640563240528" lon="17.891699979944">
        <ele>113</ele>
        <time>2017-12-24T10:13:41Z</time>
      </trkpt>
      <trkpt lat="62.640606994046" lon="17.891715486459">
        <ele>113</ele>
        <time>2017-12-24T10:13:42Z</time>
      </trkpt>
      <trkpt lat="62.640694836358" lon="17.891720012685">
        <ele>112.8</ele>
        <time>2017-12-24T10:13:43Z</time>
      </trkpt>
      <trkpt lat="62.640764489947" lon="17.891733423725">
        <ele>112.6</ele>
        <time>2017-12-24T10:13:44Z</time>
      </trkpt>
      <trkpt lat="62.640825677817" lon="17.891773992121">
        <ele>112.4</ele>
        <time>2017-12-24T10:13:45Z</time>
      </trkpt>
      <trkpt lat="62.640880998357" lon="17.891838113656">
        <ele>112</ele>
        <time>2017-12-24T10:13:46Z</time>
      </trkpt>
      <trkpt lat="62.64092852373" lon="17.891920004819">
        <ele>110.8</ele>
        <time>2017-12-24T10:13:47Z</time>
      </trkpt>
      <trkpt lat="62.640976971112" lon="17.892006422208">
        <ele>110</ele>
        <time>2017-12-24T10:13:48Z</time>
      </trkpt>
      <trkpt lat="62.641025837589" lon="17.892100802402">
        <ele>108.4</ele>
        <time>2017-12-24T10:13:49Z</time>
      </trkpt>
      <trkpt lat="62.641071351306" lon="17.892166935593">
        <ele>107.4</ele>
        <time>2017-12-24T10:13:50Z</time>
      </trkpt>
      <trkpt lat="62.641121642706" lon="17.892212281672">
        <ele>106.8</ele>
        <time>2017-12-24T10:13:51Z</time>
      </trkpt>
      <trkpt lat="62.64116992245" lon="17.892233152603">
        <ele>106.8</ele>
        <time>2017-12-24T10:13:52Z</time>
      </trkpt>
      <trkpt lat="62.641199426738" lon="17.892220076839">
        <ele>107</ele>
        <time>2017-12-24T10:13:53Z</time>
      </trkpt>
      <trkpt lat="62.641252232708" lon="17.892197780985">
        <ele>107</ele>
        <time>2017-12-24T10:13:54Z</time>
      </trkpt>
      <trkpt lat="62.641285927946" lon="17.892183196479">
        <ele>107.2</ele>
        <time>2017-12-24T10:13:55Z</time>
      </trkpt>
      <trkpt lat="62.641311744198" lon="17.892175736588">
        <ele>107.2</ele>
        <time>2017-12-24T10:13:56Z</time>
      </trkpt>
      <trkpt lat="62.641341248486" lon="17.892152351087">
        <ele>107.2</ele>
        <time>2017-12-24T10:13:57Z</time>
      </trkpt>
      <trkpt lat="62.641368405842" lon="17.892123684989">
        <ele>107.2</ele>
        <time>2017-12-24T10:13:58Z</time>
      </trkpt>
      <trkpt lat="62.641406794944" lon="17.892095689443">
        <ele>107.2</ele>
        <time>2017-12-24T10:13:59Z</time>
      </trkpt>
      <trkpt lat="62.641448536806" lon="17.892074231779">
        <ele>107.4</ele>
        <time>2017-12-24T10:14:00Z</time>
      </trkpt>
      <trkpt lat="62.641483489329" lon="17.892055791599">
        <ele>107.6</ele>
        <time>2017-12-24T10:14:01Z</time>
      </trkpt>
      <trkpt lat="62.641510562866" lon="17.892043721663">
        <ele>107.6</ele>
        <time>2017-12-24T10:14:02Z</time>
      </trkpt>
      <trkpt lat="62.641530763245" lon="17.892032909012">
        <ele>107.6</ele>
        <time>2017-12-24T10:14:03Z</time>
      </trkpt>
      <trkpt lat="62.641558088239" lon="17.892022850732">
        <ele>107.4</ele>
        <time>2017-12-24T10:14:04Z</time>
      </trkpt>
      <trkpt lat="62.641582479568" lon="17.892013211547">
        <ele>107.4</ele>
        <time>2017-12-24T10:14:05Z</time>
      </trkpt>
      <trkpt lat="62.641619946661" lon="17.891996028652">
        <ele>107.2</ele>
        <time>2017-12-24T10:14:06Z</time>
      </trkpt>
      <trkpt lat="62.641672165898" lon="17.891977923748">
        <ele>107</ele>
        <time>2017-12-24T10:14:07Z</time>
      </trkpt>
      <trkpt lat="62.641708543344" lon="17.891965937631">
        <ele>106.6</ele>
        <time>2017-12-24T10:14:08Z</time>
      </trkpt>
      <trkpt lat="62.641757074545" lon="17.891953616238">
        <ele>106.2</ele>
        <time>2017-12-24T10:14:09Z</time>
      </trkpt>
      <trkpt lat="62.641797056208" lon="17.891938696456">
        <ele>105.2</ele>
        <time>2017-12-24T10:14:10Z</time>
      </trkpt>
      <trkpt lat="62.64182035789" lon="17.89192495014">
        <ele>104.6</ele>
        <time>2017-12-24T10:14:11Z</time>
      </trkpt>
      <trkpt lat="62.641876600439" lon="17.891894356205">
        <ele>103.4</ele>
        <time>2017-12-24T10:14:12Z</time>
      </trkpt>
      <trkpt lat="62.641916330645" lon="17.891877676224">
        <ele>102.2</ele>
        <time>2017-12-24T10:14:13Z</time>
      </trkpt>
      <trkpt lat="62.641960251801" lon="17.891859319863">
        <ele>101.2</ele>
        <time>2017-12-24T10:14:14Z</time>
      </trkpt>
      <trkpt lat="62.642001155473" lon="17.891829480299">
        <ele>100.4</ele>
        <time>2017-12-24T10:14:15Z</time>
      </trkpt>
      <trkpt lat="62.642029486295" lon="17.89181430906">
        <ele>100</ele>
        <time>2017-12-24T10:14:16Z</time>
      </trkpt>
      <trkpt lat="62.642082962817" lon="17.891787570799">
        <ele>99.6</ele>
        <time>2017-12-24T10:14:17Z</time>
      </trkpt>
      <trkpt lat="62.642126716335" lon="17.891769130619">
        <ele>99.2</ele>
        <time>2017-12-24T10:14:18Z</time>
      </trkpt>
      <trkpt lat="62.642176756278" lon="17.891740213064">
        <ele>98.8</ele>
        <time>2017-12-24T10:14:19Z</time>
      </trkpt>
      <trkpt lat="62.642228975515" lon="17.891702326876">
        <ele>98.2</ele>
        <time>2017-12-24T10:14:20Z</time>
      </trkpt>
      <trkpt lat="62.64228220058" lon="17.891660165919">
        <ele>97.4</ele>
        <time>2017-12-24T10:14:21Z</time>
      </trkpt>
      <trkpt lat="62.642335760921" lon="17.891611718537">
        <ele>96.8</ele>
        <time>2017-12-24T10:14:22Z</time>
      </trkpt>
      <trkpt lat="62.642381861371" lon="17.89156201387">
        <ele>96.2</ele>
        <time>2017-12-24T10:14:23Z</time>
      </trkpt>
      <trkpt lat="62.642442965422" lon="17.891483391648">
        <ele>95.6</ele>
        <time>2017-12-24T10:14:24Z</time>
      </trkpt>
      <trkpt lat="62.642482444171" lon="17.891418012828">
        <ele>94.8</ele>
        <time>2017-12-24T10:14:25Z</time>
      </trkpt>
      <trkpt lat="62.642514463029" lon="17.891347521049">
        <ele>94.2</ele>
        <time>2017-12-24T10:14:26Z</time>
      </trkpt>
      <trkpt lat="62.642536675064" lon="17.891284656799">
        <ele>93.8</ele>
        <time>2017-12-24T10:14:27Z</time>
      </trkpt>
      <trkpt lat="62.642549499371" lon="17.891233108114">
        <ele>93.4</ele>
        <time>2017-12-24T10:14:28Z</time>
      </trkpt>
      <trkpt lat="62.642560395841" lon="17.891174602452">
        <ele>93.4</ele>
        <time>2017-12-24T10:14:29Z</time>
      </trkpt>
      <trkpt lat="62.642567604275" lon="17.891112911668">
        <ele>93.2</ele>
        <time>2017-12-24T10:14:30Z</time>
      </trkpt>
      <trkpt lat="62.642568610103" lon="17.891069493426">
        <ele>93.4</ele>
        <time>2017-12-24T10:14:31Z</time>
      </trkpt>
      <trkpt lat="62.64256886156" lon="17.891015430171">
        <ele>93.8</ele>
        <time>2017-12-24T10:14:32Z</time>
      </trkpt>
      <trkpt lat="62.642555785796" lon="17.89097779544">
        <ele>94.2</ele>
        <time>2017-12-24T10:14:33Z</time>
      </trkpt>
      <trkpt lat="62.642537764711" lon="17.890920044149">
        <ele>94.2</ele>
        <time>2017-12-24T10:14:34Z</time>
      </trkpt>
      <trkpt lat="62.642513289563" lon="17.890880481581">
        <ele>94.4</ele>
        <time>2017-12-24T10:14:35Z</time>
      </trkpt>
      <trkpt lat="62.642481605981" lon="17.890839410271">
        <ele>94.4</ele>
        <time>2017-12-24T10:14:36Z</time>
      </trkpt>
      <trkpt lat="62.642439109748" lon="17.890800602074">
        <ele>94.2</ele>
        <time>2017-12-24T10:14:37Z</time>
      </trkpt>
      <trkpt lat="62.642400553008" lon="17.890784592645">
        <ele>94.2</ele>
        <time>2017-12-24T10:14:38Z</time>
      </trkpt>
      <trkpt lat="62.642348333771" lon="17.890758022022">
        <ele>94</ele>
        <time>2017-12-24T10:14:39Z</time>
      </trkpt>
      <trkpt lat="62.642291588308" lon="17.890730026476">
        <ele>93.6</ele>
        <time>2017-12-24T10:14:40Z</time>
      </trkpt>
      <trkpt lat="62.642253366844" lon="17.890703036758">
        <ele>93.4</ele>
        <time>2017-12-24T10:14:41Z</time>
      </trkpt>
      <trkpt lat="62.642229646067" lon="17.890690463908">
        <ele>93.2</ele>
        <time>2017-12-24T10:14:42Z</time>
      </trkpt>
      <trkpt lat="62.642191005508" lon="17.89066515057">
        <ele>92.8</ele>
        <time>2017-12-24T10:14:43Z</time>
      </trkpt>
      <trkpt lat="62.642161165944" lon="17.890649979331">
        <ele>92.8</ele>
        <time>2017-12-24T10:14:44Z</time>
      </trkpt>
      <trkpt lat="62.642141133203" lon="17.890637574119">
        <ele>92.6</ele>
        <time>2017-12-24T10:14:45Z</time>
      </trkpt>
      <trkpt lat="62.642123866489" lon="17.890626090916">
        <ele>92.6</ele>
        <time>2017-12-24T10:14:46Z</time>
      </trkpt>
      <trkpt lat="62.642108527612" lon="17.890614691532">
        <ele>92.8</ele>
        <time>2017-12-24T10:14:47Z</time>
      </trkpt>
      <trkpt lat="62.642093943106" lon="17.89060480089">
        <ele>93.2</ele>
        <time>2017-12-24T10:14:48Z</time>
      </trkpt>
      <trkpt lat="62.642080532066" lon="17.890598514465">
        <ele>93.8</ele>
        <time>2017-12-24T10:14:49Z</time>
      </trkpt>
      <trkpt lat="62.642068713587" lon="17.890602453958">
        <ele>94.6</ele>
        <time>2017-12-24T10:14:50Z</time>
      </trkpt>
      <trkpt lat="62.642055973099" lon="17.890597760094">
        <ele>94.8</ele>
        <time>2017-12-24T10:14:51Z</time>
      </trkpt>
      <trkpt lat="62.642044406077" lon="17.890587869452">
        <ele>95.2</ele>
        <time>2017-12-24T10:14:52Z</time>
      </trkpt>
      <trkpt lat="62.642034683073" lon="17.890581583027">
        <ele>95.2</ele>
        <time>2017-12-24T10:14:53Z</time>
      </trkpt>
      <trkpt lat="62.642020014748" lon="17.890564986865">
        <ele>95.4</ele>
        <time>2017-12-24T10:14:54Z</time>
      </trkpt>
      <trkpt lat="62.642007441898" lon="17.89055450949">
        <ele>95.6</ele>
        <time>2017-12-24T10:14:55Z</time>
      </trkpt>
      <trkpt lat="62.64199470141" lon="17.890543110106">
        <ele>95.8</ele>
        <time>2017-12-24T10:14:56Z</time>
      </trkpt>
      <trkpt lat="62.641981458008" lon="17.890532381274">
        <ele>96</ele>
        <time>2017-12-24T10:14:57Z</time>
      </trkpt>
      <trkpt lat="62.641970729176" lon="17.890523412641">
        <ele>96.2</ele>
        <time>2017-12-24T10:14:58Z</time>
      </trkpt>
      <trkpt lat="62.641959329792" lon="17.890519556967">
        <ele>96.4</ele>
        <time>2017-12-24T10:14:59Z</time>
      </trkpt>
      <trkpt lat="62.641945918752" lon="17.890506816479">
        <ele>96.6</ele>
        <time>2017-12-24T10:15:00Z</time>
      </trkpt>
      <trkpt lat="62.641934687006" lon="17.890497009656">
        <ele>96.8</ele>
        <time>2017-12-24T10:15:01Z</time>
      </trkpt>
      <trkpt lat="62.64192177888" lon="17.890482592788">
        <ele>97.2</ele>
        <time>2017-12-24T10:15:02Z</time>
      </trkpt>
      <trkpt lat="62.641908786935" lon="17.890469349386">
        <ele>97.4</ele>
        <time>2017-12-24T10:15:03Z</time>
      </trkpt>
      <trkpt lat="62.641895711171" lon="17.890459123468">
        <ele>97.6</ele>
        <time>2017-12-24T10:15:04Z</time>
      </trkpt>
      <trkpt lat="62.641880959027" lon="17.89044303022">
        <ele>97.8</ele>
        <time>2017-12-24T10:15:05Z</time>
      </trkpt>
      <trkpt lat="62.641867128892" lon="17.890428864809">
        <ele>98</ele>
        <time>2017-12-24T10:15:06Z</time>
      </trkpt>
      <trkpt lat="62.641856735336" lon="17.890412101009">
        <ele>98.2</ele>
        <time>2017-12-24T10:15:07Z</time>
      </trkpt>
      <trkpt lat="62.641847431427" lon="17.890396762132">
        <ele>98.2</ele>
        <time>2017-12-24T10:15:08Z</time>
      </trkpt>
      <trkpt lat="62.641832763102" lon="17.890378657228">
        <ele>98.4</ele>
        <time>2017-12-24T10:15:09Z</time>
      </trkpt>
      <trkpt lat="62.641820190252" lon="17.890358708306">
        <ele>98.6</ele>
        <time>2017-12-24T10:15:10Z</time>
      </trkpt>
      <trkpt lat="62.64180862323" lon="17.890337837375">
        <ele>99</ele>
        <time>2017-12-24T10:15:11Z</time>
      </trkpt>
      <trkpt lat="62.641796637113" lon="17.890313026951">
        <ele>99.2</ele>
        <time>2017-12-24T10:15:12Z</time>
      </trkpt>
      <trkpt lat="62.641784064263" lon="17.890292575115">
        <ele>99.4</ele>
        <time>2017-12-24T10:15:13Z</time>
      </trkpt>
      <trkpt lat="62.641773335431" lon="17.890257287316">
        <ele>99.6</ele>
        <time>2017-12-24T10:15:14Z</time>
      </trkpt>
      <trkpt lat="62.641759337658" lon="17.890224094992">
        <ele>99.8</ele>
        <time>2017-12-24T10:15:15Z</time>
      </trkpt>
      <trkpt lat="62.641746680989" lon="17.890193752514">
        <ele>100</ele>
        <time>2017-12-24T10:15:16Z</time>
      </trkpt>
      <trkpt lat="62.641740394564" lon="17.890155782507">
        <ele>100.2</ele>
        <time>2017-12-24T10:15:17Z</time>
      </trkpt>
      <trkpt lat="62.641729581913" lon="17.890118985966">
        <ele>100.4</ele>
        <time>2017-12-24T10:15:18Z</time>
      </trkpt>
      <trkpt lat="62.641719523633" lon="17.890083698167">
        <ele>100.6</ele>
        <time>2017-12-24T10:15:19Z</time>
      </trkpt>
      <trkpt lat="62.641710303543" lon="17.890043967961">
        <ele>100.6</ele>
        <time>2017-12-24T10:15:20Z</time>
      </trkpt>
      <trkpt lat="62.641705442041" lon="17.890007255239">
        <ele>100.8</ele>
        <time>2017-12-24T10:15:21Z</time>
      </trkpt>
      <trkpt lat="62.641697730693" lon="17.889972051259">
        <ele>100.8</ele>
        <time>2017-12-24T10:15:22Z</time>
      </trkpt>
      <trkpt lat="62.641688510603" lon="17.889946654102">
        <ele>100.8</ele>
        <time>2017-12-24T10:15:23Z</time>
      </trkpt>
      <trkpt lat="62.641676775943" lon="17.88990742681">
        <ele>100.8</ele>
        <time>2017-12-24T10:15:24Z</time>
      </trkpt>
      <trkpt lat="62.641667304396" lon="17.889867612785">
        <ele>101</ele>
        <time>2017-12-24T10:15:25Z</time>
      </trkpt>
      <trkpt lat="62.64166110179" lon="17.889827882579">
        <ele>101</ele>
        <time>2017-12-24T10:15:26Z</time>
      </trkpt>
      <trkpt lat="62.641656407926" lon="17.889781949767">
        <ele>101</ele>
        <time>2017-12-24T10:15:27Z</time>
      </trkpt>
      <trkpt lat="62.641652803709" lon="17.889736855145">
        <ele>101</ele>
        <time>2017-12-24T10:15:28Z</time>
      </trkpt>
      <trkpt lat="62.641647523112" lon="17.889684719727">
        <ele>100.8</ele>
        <time>2017-12-24T10:15:29Z</time>
      </trkpt>
      <trkpt lat="62.641642577791" lon="17.889628058083">
        <ele>100.6</ele>
        <time>2017-12-24T10:15:30Z</time>
      </trkpt>
      <trkpt lat="62.641638386841" lon="17.889574413923">
        <ele>100</ele>
        <time>2017-12-24T10:15:31Z</time>
      </trkpt>
      <trkpt lat="62.64163930885" lon="17.889523284333">
        <ele>99.8</ele>
        <time>2017-12-24T10:15:32Z</time>
      </trkpt>
      <trkpt lat="62.641638135384" lon="17.889454133658">
        <ele>99.4</ele>
        <time>2017-12-24T10:15:33Z</time>
      </trkpt>
      <trkpt lat="62.641639811764" lon="17.889381714042">
        <ele>98.6</ele>
        <time>2017-12-24T10:15:34Z</time>
      </trkpt>
      <trkpt lat="62.641642410153" lon="17.889311976634">
        <ele>97.8</ele>
        <time>2017-12-24T10:15:35Z</time>
      </trkpt>
      <trkpt lat="62.641646684922" lon="17.889232013308">
        <ele>97</ele>
        <time>2017-12-24T10:15:36Z</time>
      </trkpt>
      <trkpt lat="62.641653055166" lon="17.889147104661">
        <ele>96.4</ele>
        <time>2017-12-24T10:15:37Z</time>
      </trkpt>
      <trkpt lat="62.641660850333" lon="17.889061022548">
        <ele>95.8</ele>
        <time>2017-12-24T10:15:38Z</time>
      </trkpt>
      <trkpt lat="62.641674093735" lon="17.888941496654">
        <ele>95</ele>
        <time>2017-12-24T10:15:39Z</time>
      </trkpt>
      <trkpt lat="62.641689097336" lon="17.888831107031">
        <ele>94.2</ele>
        <time>2017-12-24T10:15:40Z</time>
      </trkpt>
      <trkpt lat="62.641707621335" lon="17.888722142331">
        <ele>93.6</ele>
        <time>2017-12-24T10:15:41Z</time>
      </trkpt>
      <trkpt lat="62.64173067156" lon="17.888609489595">
        <ele>92.4</ele>
        <time>2017-12-24T10:15:42Z</time>
      </trkpt>
      <trkpt lat="62.641754224699" lon="17.888511086089">
        <ele>91.6</ele>
        <time>2017-12-24T10:15:43Z</time>
      </trkpt>
      <trkpt lat="62.641782471702" lon="17.888408491633">
        <ele>90.8</ele>
        <time>2017-12-24T10:15:44Z</time>
      </trkpt>
      <trkpt lat="62.641808036497" lon="17.888328612126">
        <ele>89.8</ele>
        <time>2017-12-24T10:15:45Z</time>
      </trkpt>
      <trkpt lat="62.641839049527" lon="17.888257449795">
        <ele>89</ele>
        <time>2017-12-24T10:15:46Z</time>
      </trkpt>
      <trkpt lat="62.641862686485" lon="17.8881983574">
        <ele>88.4</ele>
        <time>2017-12-24T10:15:47Z</time>
      </trkpt>
      <trkpt lat="62.641881042846" lon="17.888150077656">
        <ele>87.8</ele>
        <time>2017-12-24T10:15:48Z</time>
      </trkpt>
      <trkpt lat="62.641903590157" lon="17.888093416012">
        <ele>87.6</ele>
        <time>2017-12-24T10:15:49Z</time>
      </trkpt>
      <trkpt lat="62.641925047821" lon="17.888047399381">
        <ele>87.2</ele>
        <time>2017-12-24T10:15:50Z</time>
      </trkpt>
      <trkpt lat="62.641945080562" lon="17.888005154605">
        <ele>87</ele>
        <time>2017-12-24T10:15:51Z</time>
      </trkpt>
      <trkpt lat="62.641965867674" lon="17.887965424399">
        <ele>87.2</ele>
        <time>2017-12-24T10:15:52Z</time>
      </trkpt>
      <trkpt lat="62.64198212856" lon="17.887933740817">
        <ele>87.2</ele>
        <time>2017-12-24T10:15:53Z</time>
      </trkpt>
      <trkpt lat="62.64200140693" lon="17.887883868512">
        <ele>87.4</ele>
        <time>2017-12-24T10:15:54Z</time>
      </trkpt>
      <trkpt lat="62.64202236168" lon="17.887848329256">
        <ele>87.6</ele>
        <time>2017-12-24T10:15:55Z</time>
      </trkpt>
      <trkpt lat="62.642035185987" lon="17.887810945982">
        <ele>87.6</ele>
        <time>2017-12-24T10:15:56Z</time>
      </trkpt>
      <trkpt lat="62.642055218728" lon="17.887767443921">
        <ele>87.8</ele>
        <time>2017-12-24T10:15:57Z</time>
      </trkpt>
      <trkpt lat="62.642067875397" lon="17.887733245769">
        <ele>87.8</ele>
        <time>2017-12-24T10:15:58Z</time>
      </trkpt>
      <trkpt lat="62.642086818491" lon="17.887700891635">
        <ele>88</ele>
        <time>2017-12-24T10:15:59Z</time>
      </trkpt>
      <trkpt lat="62.642102995558" lon="17.887675075383">
        <ele>88</ele>
        <time>2017-12-24T10:16:00Z</time>
      </trkpt>
      <trkpt lat="62.642118669711" lon="17.887656132289">
        <ele>88.2</ele>
        <time>2017-12-24T10:16:01Z</time>
      </trkpt>
      <trkpt lat="62.642129985276" lon="17.88764012286">
        <ele>88.2</ele>
        <time>2017-12-24T10:16:02Z</time>
      </trkpt>
      <trkpt lat="62.642141719936" lon="17.887622017956">
        <ele>88.4</ele>
        <time>2017-12-24T10:16:03Z</time>
      </trkpt>
      <trkpt lat="62.642155885347" lon="17.887592932763">
        <ele>88.6</ele>
        <time>2017-12-24T10:16:04Z</time>
      </trkpt>
      <trkpt lat="62.642168290559" lon="17.887547419046">
        <ele>88.6</ele>
        <time>2017-12-24T10:16:05Z</time>
      </trkpt>
      <trkpt lat="62.642191256965" lon="17.887506263917">
        <ele>88.6</ele>
        <time>2017-12-24T10:16:06Z</time>
      </trkpt>
      <trkpt lat="62.642216318846" lon="17.887476424353">
        <ele>88.6</ele>
        <time>2017-12-24T10:16:07Z</time>
      </trkpt>
      <trkpt lat="62.642232328275" lon="17.887436107414">
        <ele>88.6</ele>
        <time>2017-12-24T10:16:08Z</time>
      </trkpt>
      <trkpt lat="62.64225286393" lon="17.887404675289">
        <ele>88.4</ele>
        <time>2017-12-24T10:16:09Z</time>
      </trkpt>
      <trkpt lat="62.642270046825" lon="17.887391431887">
        <ele>88.4</ele>
        <time>2017-12-24T10:16:10Z</time>
      </trkpt>
      <trkpt lat="62.642278177268" lon="17.887376679743">
        <ele>88.6</ele>
        <time>2017-12-24T10:16:11Z</time>
      </trkpt>
      <trkpt lat="62.642292594136" lon="17.887361508504">
        <ele>88.6</ele>
        <time>2017-12-24T10:16:12Z</time>
      </trkpt>
      <trkpt lat="62.642304077339" lon="17.887341559582">
        <ele>88.6</ele>
        <time>2017-12-24T10:16:13Z</time>
      </trkpt>
      <trkpt lat="62.642321008777" lon="17.887322784126">
        <ele>88.8</ele>
        <time>2017-12-24T10:16:14Z</time>
      </trkpt>
      <trkpt lat="62.642333078713" lon="17.887310378914">
        <ele>89</ele>
        <time>2017-12-24T10:16:15Z</time>
      </trkpt>
      <trkpt lat="62.642343220812" lon="17.887300404453">
        <ele>89</ele>
        <time>2017-12-24T10:16:16Z</time>
      </trkpt>
      <trkpt lat="62.642350261608" lon="17.887291016725">
        <ele>89.2</ele>
        <time>2017-12-24T10:16:17Z</time>
      </trkpt>
      <trkpt lat="62.642357553861" lon="17.887279952617">
        <ele>89.4</ele>
        <time>2017-12-24T10:16:18Z</time>
      </trkpt>
      <trkpt lat="62.642364678476" lon="17.887266541577">
        <ele>89.6</ele>
        <time>2017-12-24T10:16:19Z</time>
      </trkpt>
      <trkpt lat="62.6423727251" lon="17.887255309831">
        <ele>89.6</ele>
        <time>2017-12-24T10:16:20Z</time>
      </trkpt>
      <trkpt lat="62.64238362157" lon="17.887237288746">
        <ele>89.8</ele>
        <time>2017-12-24T10:16:21Z</time>
      </trkpt>
      <trkpt lat="62.642392757841" lon="17.887222955697">
        <ele>89.8</ele>
        <time>2017-12-24T10:16:22Z</time>
      </trkpt>
      <trkpt lat="62.642398960447" lon="17.887207113906">
        <ele>90</ele>
        <time>2017-12-24T10:16:23Z</time>
      </trkpt>
      <trkpt lat="62.642400888284" lon="17.887210634304">
        <ele>90</ele>
        <time>2017-12-24T10:16:24Z</time>
      </trkpt>
      <trkpt lat="62.642400553008" lon="17.887215244349">
        <ele>90.2</ele>
        <time>2017-12-24T10:16:25Z</time>
      </trkpt>
      <trkpt lat="62.642321092596" lon="17.887131173892">
        <ele>90.6</ele>
        <time>2017-12-24T10:16:32Z</time>
      </trkpt>
      <trkpt lat="62.642316398732" lon="17.887094377351">
        <ele>90.4</ele>
        <time>2017-12-24T10:16:33Z</time>
      </trkpt>
      <trkpt lat="62.64231321361" lon="17.887041990476">
        <ele>90.4</ele>
        <time>2017-12-24T10:16:34Z</time>
      </trkpt>
      <trkpt lat="62.642308016832" lon="17.887004271926">
        <ele>90.2</ele>
        <time>2017-12-24T10:16:35Z</time>
      </trkpt>
      <trkpt lat="62.642304747891" lon="17.88696202715">
        <ele>90.4</ele>
        <time>2017-12-24T10:16:36Z</time>
      </trkpt>
      <trkpt lat="62.642303322968" lon="17.886922967496">
        <ele>90.6</ele>
        <time>2017-12-24T10:16:37Z</time>
      </trkpt>
      <trkpt lat="62.642299132018" lon="17.88689161919">
        <ele>90.6</ele>
        <time>2017-12-24T10:16:38Z</time>
      </trkpt>
      <trkpt lat="62.642292761774" lon="17.88683965141">
        <ele>90.8</ele>
        <time>2017-12-24T10:16:39Z</time>
      </trkpt>
      <trkpt lat="62.642286810625" lon="17.886797322815">
        <ele>91</ele>
        <time>2017-12-24T10:16:40Z</time>
      </trkpt>
      <trkpt lat="62.642279937467" lon="17.886754491306">
        <ele>91</ele>
        <time>2017-12-24T10:16:41Z</time>
      </trkpt>
      <trkpt lat="62.64226878954" lon="17.886722053353">
        <ele>91</ele>
        <time>2017-12-24T10:16:42Z</time>
      </trkpt>
      <trkpt lat="62.642262335477" lon="17.886684083346">
        <ele>91</ele>
        <time>2017-12-24T10:16:43Z</time>
      </trkpt>
      <trkpt lat="62.642258898898" lon="17.886649801375">
        <ele>91.2</ele>
        <time>2017-12-24T10:16:44Z</time>
      </trkpt>
      <trkpt lat="62.642257306337" lon="17.88661753106">
        <ele>91.6</ele>
        <time>2017-12-24T10:16:45Z</time>
      </trkpt>
      <trkpt lat="62.642255797595" lon="17.886601856907">
        <ele>91.6</ele>
        <time>2017-12-24T10:16:46Z</time>
      </trkpt>
      <trkpt lat="62.642249343532" lon="17.886570005687">
        <ele>91.8</ele>
        <time>2017-12-24T10:16:47Z</time>
      </trkpt>
      <trkpt lat="62.642242302736" lon="17.886540669037">
        <ele>92</ele>
        <time>2017-12-24T10:16:48Z</time>
      </trkpt>
      <trkpt lat="62.642234172293" lon="17.886505800333">
        <ele>92</ele>
        <time>2017-12-24T10:16:49Z</time>
      </trkpt>
      <trkpt lat="62.642227131497" lon="17.886475793131">
        <ele>92.2</ele>
        <time>2017-12-24T10:16:50Z</time>
      </trkpt>
      <trkpt lat="62.642218246683" lon="17.886454670743">
        <ele>92.2</ele>
        <time>2017-12-24T10:16:51Z</time>
      </trkpt>
      <trkpt lat="62.642209613326" lon="17.886430027957">
        <ele>92.4</ele>
        <time>2017-12-24T10:16:52Z</time>
      </trkpt>
      <trkpt lat="62.642201315245" lon="17.886408151198">
        <ele>92.6</ele>
        <time>2017-12-24T10:16:53Z</time>
      </trkpt>
      <trkpt lat="62.642193436259" lon="17.886383424593">
        <ele>92.6</ele>
        <time>2017-12-24T10:16:54Z</time>
      </trkpt>
      <trkpt lat="62.642187233653" lon="17.886364732956">
        <ele>93</ele>
        <time>2017-12-24T10:16:55Z</time>
      </trkpt>
      <trkpt lat="62.642181031047" lon="17.886353249753">
        <ele>93.4</ele>
        <time>2017-12-24T10:16:56Z</time>
      </trkpt>
      <trkpt lat="62.642170805129" lon="17.886342688559">
        <ele>93.6</ele>
        <time>2017-12-24T10:16:57Z</time>
      </trkpt>
      <trkpt lat="62.642158483736" lon="17.88633589922">
        <ele>93.8</ele>
        <time>2017-12-24T10:16:58Z</time>
      </trkpt>
      <trkpt lat="62.642147503447" lon="17.886312513719">
        <ele>93.8</ele>
        <time>2017-12-24T10:16:59Z</time>
      </trkpt>
      <trkpt lat="62.642139121547" lon="17.886291056055">
        <ele>94</ele>
        <time>2017-12-24T10:17:00Z</time>
      </trkpt>
      <trkpt lat="62.642128476534" lon="17.886271442409">
        <ele>94.4</ele>
        <time>2017-12-24T10:17:01Z</time>
      </trkpt>
      <trkpt lat="62.642119507901" lon="17.886248140727">
        <ele>94.8</ele>
        <time>2017-12-24T10:17:02Z</time>
      </trkpt>
      <trkpt lat="62.642111796553" lon="17.886227102158">
        <ele>95.2</ele>
        <time>2017-12-24T10:17:03Z</time>
      </trkpt>
      <trkpt lat="62.642104839576" lon="17.886198352241">
        <ele>95.4</ele>
        <time>2017-12-24T10:17:04Z</time>
      </trkpt>
      <trkpt lat="62.642097044409" lon="17.886177565129">
        <ele>95.6</ele>
        <time>2017-12-24T10:17:05Z</time>
      </trkpt>
      <trkpt lat="62.642081789351" lon="17.886151581239">
        <ele>95.6</ele>
        <time>2017-12-24T10:17:06Z</time>
      </trkpt>
      <trkpt lat="62.642067540121" lon="17.886123669512">
        <ele>95.6</ele>
        <time>2017-12-24T10:17:07Z</time>
      </trkpt>
      <trkpt lat="62.642055470185" lon="17.886109336463">
        <ele>95.6</ele>
        <time>2017-12-24T10:17:08Z</time>
      </trkpt>
      <trkpt lat="62.642035940358" lon="17.886073964845">
        <ele>95.6</ele>
        <time>2017-12-24T10:17:09Z</time>
      </trkpt>
      <trkpt lat="62.6420206853" lon="17.886050998439">
        <ele>95.8</ele>
        <time>2017-12-24T10:17:10Z</time>
      </trkpt>
      <trkpt lat="62.642007441898" lon="17.886035575743">
        <ele>95.8</ele>
        <time>2017-12-24T10:17:11Z</time>
      </trkpt>
      <trkpt lat="62.641988750261" lon="17.886001712867">
        <ele>95.8</ele>
        <time>2017-12-24T10:17:12Z</time>
      </trkpt>
      <trkpt lat="62.641973998117" lon="17.885978243547">
        <ele>96</ele>
        <time>2017-12-24T10:17:13Z</time>
      </trkpt>
      <trkpt lat="62.641960587077" lon="17.885959803367">
        <ele>96</ele>
        <time>2017-12-24T10:17:14Z</time>
      </trkpt>
      <trkpt lat="62.641944577648" lon="17.885923928835">
        <ele>96.2</ele>
        <time>2017-12-24T10:17:15Z</time>
      </trkpt>
      <trkpt lat="62.641930579875" lon="17.885902890266">
        <ele>96.4</ele>
        <time>2017-12-24T10:17:16Z</time>
      </trkpt>
      <trkpt lat="62.641911385324" lon="17.885867602467">
        <ele>96.4</ele>
        <time>2017-12-24T10:17:17Z</time>
      </trkpt>
      <trkpt lat="62.641899231569" lon="17.885844636061">
        <ele>96.6</ele>
        <time>2017-12-24T10:17:18Z</time>
      </trkpt>
      <trkpt lat="62.641877857724" lon="17.885804738217">
        <ele>96.6</ele>
        <time>2017-12-24T10:17:19Z</time>
      </trkpt>
      <trkpt lat="62.641859836639" lon="17.885787471503">
        <ele>96.6</ele>
        <time>2017-12-24T10:17:20Z</time>
      </trkpt>
      <trkpt lat="62.641835529129" lon="17.885739610854">
        <ele>96.6</ele>
        <time>2017-12-24T10:17:21Z</time>
      </trkpt>
      <trkpt lat="62.641813233275" lon="17.885694600051">
        <ele>96.8</ele>
        <time>2017-12-24T10:17:22Z</time>
      </trkpt>
      <trkpt lat="62.64179605038" lon="17.885664006116">
        <ele>96.8</ele>
        <time>2017-12-24T10:17:23Z</time>
      </trkpt>
      <trkpt lat="62.641766881368" lon="17.885610948689">
        <ele>96.8</ele>
        <time>2017-12-24T10:17:24Z</time>
      </trkpt>
      <trkpt lat="62.641746094256" lon="17.885579181288">
        <ele>96.6</ele>
        <time>2017-12-24T10:17:25Z</time>
      </trkpt>
      <trkpt lat="62.641728324628" lon="17.885549928457">
        <ele>96.6</ele>
        <time>2017-12-24T10:17:26Z</time>
      </trkpt>
      <trkpt lat="62.641712482837" lon="17.885525620947">
        <ele>96.6</ele>
        <time>2017-12-24T10:17:27Z</time>
      </trkpt>
      <trkpt lat="62.641700831996" lon="17.885497541582">
        <ele>96.6</ele>
        <time>2017-12-24T10:17:28Z</time>
      </trkpt>
      <trkpt lat="62.641690522259" lon="17.885468707846">
        <ele>96.6</ele>
        <time>2017-12-24T10:17:29Z</time>
      </trkpt>
      <trkpt lat="62.641680128703" lon="17.885439455015">
        <ele>96.6</ele>
        <time>2017-12-24T10:17:30Z</time>
      </trkpt>
      <trkpt lat="62.641668142586" lon="17.885409196356">
        <ele>96.8</ele>
        <time>2017-12-24T10:17:31Z</time>
      </trkpt>
      <trkpt lat="62.641654983003" lon="17.885386146131">
        <ele>97</ele>
        <time>2017-12-24T10:17:32Z</time>
      </trkpt>
      <trkpt lat="62.641642577791" lon="17.885360078422">
        <ele>97.2</ele>
        <time>2017-12-24T10:17:33Z</time>
      </trkpt>
      <trkpt lat="62.641629502027" lon="17.885332418152">
        <ele>97.2</ele>
        <time>2017-12-24T10:17:34Z</time>
      </trkpt>
      <trkpt lat="62.641617348272" lon="17.885309787022">
        <ele>97.4</ele>
        <time>2017-12-24T10:17:35Z</time>
      </trkpt>
      <trkpt lat="62.641606451802" lon="17.885292017394">
        <ele>97.6</ele>
        <time>2017-12-24T10:17:36Z</time>
      </trkpt>
      <trkpt lat="62.641595639151" lon="17.885271565558">
        <ele>97.8</ele>
        <time>2017-12-24T10:17:37Z</time>
      </trkpt>
      <trkpt lat="62.641587843984" lon="17.885257819242">
        <ele>98</ele>
        <time>2017-12-24T10:17:38Z</time>
      </trkpt>
      <trkpt lat="62.641570744908" lon="17.885228398773">
        <ele>98</ele>
        <time>2017-12-24T10:17:39Z</time>
      </trkpt>
      <trkpt lat="62.641560099895" lon="17.885206941109">
        <ele>98.2</ele>
        <time>2017-12-24T10:17:40Z</time>
      </trkpt>
      <trkpt lat="62.641548616692" lon="17.885186321635">
        <ele>98.4</ele>
        <time>2017-12-24T10:17:41Z</time>
      </trkpt>
      <trkpt lat="62.641537804041" lon="17.885165450704">
        <ele>98.8</ele>
        <time>2017-12-24T10:17:42Z</time>
      </trkpt>
      <trkpt lat="62.641528081037" lon="17.885144579773">
        <ele>99</ele>
        <time>2017-12-24T10:17:43Z</time>
      </trkpt>
      <trkpt lat="62.641515340549" lon="17.885123205928">
        <ele>99.2</ele>
        <time>2017-12-24T10:17:44Z</time>
      </trkpt>
      <trkpt lat="62.641506455735" lon="17.885104011377">
        <ele>99.6</ele>
        <time>2017-12-24T10:17:45Z</time>
      </trkpt>
      <trkpt lat="62.641495056351" lon="17.885086660844">
        <ele>99.6</ele>
        <time>2017-12-24T10:17:46Z</time>
      </trkpt>
      <trkpt lat="62.641484159881" lon="17.885066460465">
        <ele>99.8</ele>
        <time>2017-12-24T10:17:47Z</time>
      </trkpt>
      <trkpt lat="62.641472760497" lon="17.885042488231">
        <ele>100</ele>
        <time>2017-12-24T10:17:48Z</time>
      </trkpt>
      <trkpt lat="62.641457840715" lon="17.885012816305">
        <ele>100.2</ele>
        <time>2017-12-24T10:17:49Z</time>
      </trkpt>
      <trkpt lat="62.641443759123" lon="17.884989263166">
        <ele>100.2</ele>
        <time>2017-12-24T10:17:50Z</time>
      </trkpt>
      <trkpt lat="62.641429090798" lon="17.884972415547">
        <ele>100.4</ele>
        <time>2017-12-24T10:17:51Z</time>
      </trkpt>
      <trkpt lat="62.641412578455" lon="17.884942156888">
        <ele>100.4</ele>
        <time>2017-12-24T10:17:52Z</time>
      </trkpt>
      <trkpt lat="62.641403526003" lon="17.884925728364">
        <ele>100.6</ele>
        <time>2017-12-24T10:17:53Z</time>
      </trkpt>
      <trkpt lat="62.64138701366" lon="17.884906617632">
        <ele>100.6</ele>
        <time>2017-12-24T10:17:54Z</time>
      </trkpt>
      <trkpt lat="62.641371674783" lon="17.884875520783">
        <ele>100.6</ele>
        <time>2017-12-24T10:17:55Z</time>
      </trkpt>
      <trkpt lat="62.641354659526" lon="17.884849369255">
        <ele>100.6</ele>
        <time>2017-12-24T10:17:56Z</time>
      </trkpt>
      <trkpt lat="62.641339823563" lon="17.884824726469">
        <ele>100.8</ele>
        <time>2017-12-24T10:17:57Z</time>
      </trkpt>
      <trkpt lat="62.641321802478" lon="17.884791534145">
        <ele>100.8</ele>
        <time>2017-12-24T10:17:58Z</time>
      </trkpt>
      <trkpt lat="62.641301350642" lon="17.884756330165">
        <ele>100.8</ele>
        <time>2017-12-24T10:17:59Z</time>
      </trkpt>
      <trkpt lat="62.641286682317" lon="17.884728334619">
        <ele>100.8</ele>
        <time>2017-12-24T10:18:00Z</time>
      </trkpt>
      <trkpt lat="62.641269583241" lon="17.884695142295">
        <ele>101</ele>
        <time>2017-12-24T10:18:01Z</time>
      </trkpt>
      <trkpt lat="62.641256172201" lon="17.884666727654">
        <ele>101.2</ele>
        <time>2017-12-24T10:18:02Z</time>
      </trkpt>
      <trkpt lat="62.641243850808" lon="17.884643006877">
        <ele>101.4</ele>
        <time>2017-12-24T10:18:03Z</time>
      </trkpt>
      <trkpt lat="62.64123027213" lon="17.884616017159">
        <ele>101.6</ele>
        <time>2017-12-24T10:18:04Z</time>
      </trkpt>
      <trkpt lat="62.641215100891" lon="17.884592296382">
        <ele>102</ele>
        <time>2017-12-24T10:18:05Z</time>
      </trkpt>
      <trkpt lat="62.641198588548" lon="17.884559690791">
        <ele>102.2</ele>
        <time>2017-12-24T10:18:06Z</time>
      </trkpt>
      <trkpt lat="62.641184926051" lon="17.884531443788">
        <ele>102.4</ele>
        <time>2017-12-24T10:18:07Z</time>
      </trkpt>
      <trkpt lat="62.641172269382" lon="17.884498335283">
        <ele>102.4</ele>
        <time>2017-12-24T10:18:08Z</time>
      </trkpt>
      <trkpt lat="62.641155840858" lon="17.88445919181">
        <ele>102.6</ele>
        <time>2017-12-24T10:18:09Z</time>
      </trkpt>
      <trkpt lat="62.641141507809" lon="17.884436979775">
        <ele>102.6</ele>
        <time>2017-12-24T10:18:10Z</time>
      </trkpt>
      <trkpt lat="62.641129018778" lon="17.884409068048">
        <ele>102.8</ele>
        <time>2017-12-24T10:18:11Z</time>
      </trkpt>
      <trkpt lat="62.641112003521" lon="17.884370092213">
        <ele>102.8</ele>
        <time>2017-12-24T10:18:12Z</time>
      </trkpt>
      <trkpt lat="62.641100687956" lon="17.884343186314">
        <ele>103</ele>
        <time>2017-12-24T10:18:13Z</time>
      </trkpt>
      <trkpt lat="62.641088031287" lon="17.884310580723">
        <ele>103.2</ele>
        <time>2017-12-24T10:18:14Z</time>
      </trkpt>
      <trkpt lat="62.641071770401" lon="17.884279567693">
        <ele>103</ele>
        <time>2017-12-24T10:18:15Z</time>
      </trkpt>
      <trkpt lat="62.64105844318" lon="17.88424964431">
        <ele>103</ele>
        <time>2017-12-24T10:18:16Z</time>
      </trkpt>
      <trkpt lat="62.641040003" lon="17.884204046774">
        <ele>103.2</ele>
        <time>2017-12-24T10:18:17Z</time>
      </trkpt>
      <trkpt lat="62.641023658295" lon="17.884165322396">
        <ele>103.2</ele>
        <time>2017-12-24T10:18:18Z</time>
      </trkpt>
      <trkpt lat="62.641011672178" lon="17.88412391581">
        <ele>103.4</ele>
        <time>2017-12-24T10:18:19Z</time>
      </trkpt>
      <trkpt lat="62.640998261138" lon="17.884095752626">
        <ele>103.4</ele>
        <time>2017-12-24T10:18:20Z</time>
      </trkpt>
      <trkpt lat="62.64098468246" lon="17.884041270276">
        <ele>103.6</ele>
        <time>2017-12-24T10:18:21Z</time>
      </trkpt>
      <trkpt lat="62.640972528705" lon="17.884010424884">
        <ele>103.8</ele>
        <time>2017-12-24T10:18:22Z</time>
      </trkpt>
      <trkpt lat="62.640965152633" lon="17.883990978876">
        <ele>104</ele>
        <time>2017-12-24T10:18:23Z</time>
      </trkpt>
      <trkpt lat="62.640948388833" lon="17.883941525666">
        <ele>104.2</ele>
        <time>2017-12-24T10:18:24Z</time>
      </trkpt>
      <trkpt lat="62.640936486535" lon="17.883909758265">
        <ele>104.4</ele>
        <time>2017-12-24T10:18:25Z</time>
      </trkpt>
      <trkpt lat="62.640925003332" lon="17.88388084071">
        <ele>104.4</ele>
        <time>2017-12-24T10:18:26Z</time>
      </trkpt>
      <trkpt lat="62.640912346663" lon="17.883837003373">
        <ele>104.4</ele>
        <time>2017-12-24T10:18:27Z</time>
      </trkpt>
      <trkpt lat="62.640912933396" lon="17.883787214887">
        <ele>104.4</ele>
        <time>2017-12-24T10:18:28Z</time>
      </trkpt>
      <trkpt lat="62.640906982247" lon="17.883733738365">
        <ele>104.4</ele>
        <time>2017-12-24T10:18:29Z</time>
      </trkpt>
      <trkpt lat="62.640903461849" lon="17.88369560072">
        <ele>104.4</ele>
        <time>2017-12-24T10:18:30Z</time>
      </trkpt>
      <trkpt lat="62.640901953107" lon="17.883665928794">
        <ele>104.6</ele>
        <time>2017-12-24T10:18:31Z</time>
      </trkpt>
      <trkpt lat="62.640898432709" lon="17.883632065918">
        <ele>104.8</ele>
        <time>2017-12-24T10:18:32Z</time>
      </trkpt>
      <trkpt lat="62.640898013614" lon="17.883604908562">
        <ele>105</ele>
        <time>2017-12-24T10:18:33Z</time>
      </trkpt>
      <trkpt lat="62.640896169596" lon="17.88357657774">
        <ele>105.2</ele>
        <time>2017-12-24T10:18:34Z</time>
      </trkpt>
      <trkpt lat="62.640893906483" lon="17.883553443696">
        <ele>105.2</ele>
        <time>2017-12-24T10:18:35Z</time>
      </trkpt>
      <trkpt lat="62.640890972818" lon="17.88352796272">
        <ele>105.4</ele>
        <time>2017-12-24T10:18:36Z</time>
      </trkpt>
      <trkpt lat="62.640888709705" lon="17.883496195319">
        <ele>105.6</ele>
        <time>2017-12-24T10:18:37Z</time>
      </trkpt>
      <trkpt lat="62.640886027497" lon="17.883470462886">
        <ele>105.8</ele>
        <time>2017-12-24T10:18:38Z</time>
      </trkpt>
      <trkpt lat="62.640887200963" lon="17.883436013277">
        <ele>105.8</ele>
        <time>2017-12-24T10:18:39Z</time>
      </trkpt>
      <trkpt lat="62.640887284782" lon="17.883417908373">
        <ele>106</ele>
        <time>2017-12-24T10:18:40Z</time>
      </trkpt>
      <trkpt lat="62.640885273126" lon="17.883384464592">
        <ele>106.2</ele>
        <time>2017-12-24T10:18:41Z</time>
      </trkpt>
      <trkpt lat="62.640883177651" lon="17.88335864834">
        <ele>106.6</ele>
        <time>2017-12-24T10:18:42Z</time>
      </trkpt>
      <trkpt lat="62.640879405796" lon="17.883334759925">
        <ele>106.6</ele>
        <time>2017-12-24T10:18:43Z</time>
      </trkpt>
      <trkpt lat="62.640877226502" lon="17.883306429103">
        <ele>107</ele>
        <time>2017-12-24T10:18:44Z</time>
      </trkpt>
      <trkpt lat="62.640876472131" lon="17.883277595367">
        <ele>107.2</ele>
        <time>2017-12-24T10:18:45Z</time>
      </trkpt>
      <trkpt lat="62.640873119371" lon="17.883247085251">
        <ele>107.6</ele>
        <time>2017-12-24T10:18:46Z</time>
      </trkpt>
      <trkpt lat="62.640871442991" lon="17.883214395841">
        <ele>107.8</ele>
        <time>2017-12-24T10:18:47Z</time>
      </trkpt>
      <trkpt lat="62.64086482129" lon="17.883196793851">
        <ele>108</ele>
        <time>2017-12-24T10:18:48Z</time>
      </trkpt>
      <trkpt lat="62.640864318376" lon="17.883164104441">
        <ele>108.2</ele>
        <time>2017-12-24T10:18:49Z</time>
      </trkpt>
      <trkpt lat="62.640865827118" lon="17.883132085583">
        <ele>108.4</ele>
        <time>2017-12-24T10:18:50Z</time>
      </trkpt>
      <trkpt lat="62.640867671136" lon="17.883104341494">
        <ele>108.6</ele>
        <time>2017-12-24T10:18:51Z</time>
      </trkpt>
      <trkpt lat="62.640871610629" lon="17.883069808066">
        <ele>108.6</ele>
        <time>2017-12-24T10:18:52Z</time>
      </trkpt>
      <trkpt lat="62.640875801579" lon="17.883034687905">
        <ele>108.8</ele>
        <time>2017-12-24T10:18:53Z</time>
      </trkpt>
      <trkpt lat="62.640880076348" lon="17.883011218585">
        <ele>109.2</ele>
        <time>2017-12-24T10:18:54Z</time>
      </trkpt>
      <trkpt lat="62.640886949506" lon="17.882970314913">
        <ele>109.2</ele>
        <time>2017-12-24T10:18:55Z</time>
      </trkpt>
      <trkpt lat="62.640897343062" lon="17.882931758173">
        <ele>109.4</ele>
        <time>2017-12-24T10:18:56Z</time>
      </trkpt>
      <trkpt lat="62.64090337803" lon="17.882902840618">
        <ele>109.6</ele>
        <time>2017-12-24T10:18:57Z</time>
      </trkpt>
      <trkpt lat="62.640908826265" lon="17.882873420149">
        <ele>109.6</ele>
        <time>2017-12-24T10:18:58Z</time>
      </trkpt>
      <trkpt lat="62.640913101034" lon="17.882827906432">
        <ele>109.8</ele>
        <time>2017-12-24T10:18:59Z</time>
      </trkpt>
      <trkpt lat="62.640917711079" lon="17.882782727991">
        <ele>110</ele>
        <time>2017-12-24T10:19:00Z</time>
      </trkpt>
      <trkpt lat="62.640929697196" lon="17.88272162394">
        <ele>110</ele>
        <time>2017-12-24T10:19:01Z</time>
      </trkpt>
      <trkpt lat="62.640941264218" lon="17.882664543201">
        <ele>110</ele>
        <time>2017-12-24T10:19:02Z</time>
      </trkpt>
      <trkpt lat="62.640956770733" lon="17.882589944291">
        <ele>110.2</ele>
        <time>2017-12-24T10:19:03Z</time>
      </trkpt>
      <trkpt lat="62.640967499565" lon="17.882509813327">
        <ele>110.2</ele>
        <time>2017-12-24T10:19:04Z</time>
      </trkpt>
      <trkpt lat="62.640969511221" lon="17.882446529982">
        <ele>110.2</ele>
        <time>2017-12-24T10:19:05Z</time>
      </trkpt>
      <trkpt lat="62.640971522877" lon="17.882371931072">
        <ele>110.2</ele>
        <time>2017-12-24T10:19:06Z</time>
      </trkpt>
      <trkpt lat="62.640968673031" lon="17.882318957464">
        <ele>110</ele>
        <time>2017-12-24T10:19:07Z</time>
      </trkpt>
      <trkpt lat="62.640964314443" lon="17.882273443747">
        <ele>109.8</ele>
        <time>2017-12-24T10:19:08Z</time>
      </trkpt>
      <trkpt lat="62.640957608923" lon="17.882224744908">
        <ele>109.8</ele>
        <time>2017-12-24T10:19:09Z</time>
      </trkpt>
      <trkpt lat="62.640952663602" lon="17.882192306955">
        <ele>110</ele>
        <time>2017-12-24T10:19:10Z</time>
      </trkpt>
      <trkpt lat="62.640946880091" lon="17.882159533726">
        <ele>110.2</ele>
        <time>2017-12-24T10:19:11Z</time>
      </trkpt>
      <trkpt lat="62.640939504019" lon="17.882121563719">
        <ele>110.4</ele>
        <time>2017-12-24T10:19:12Z</time>
      </trkpt>
      <trkpt lat="62.640932966137" lon="17.882088203757">
        <ele>110.4</ele>
        <time>2017-12-24T10:19:13Z</time>
      </trkpt>
      <trkpt lat="62.640924416599" lon="17.882048473551">
        <ele>110.6</ele>
        <time>2017-12-24T10:19:14Z</time>
      </trkpt>
      <trkpt lat="62.640917040527" lon="17.882013772485">
        <ele>110.6</ele>
        <time>2017-12-24T10:19:15Z</time>
      </trkpt>
      <trkpt lat="62.640907401342" lon="17.881976221573">
        <ele>110.8</ele>
        <time>2017-12-24T10:19:16Z</time>
      </trkpt>
      <trkpt lat="62.64090086346" lon="17.881954093357">
        <ele>110.8</ele>
        <time>2017-12-24T10:19:17Z</time>
      </trkpt>
      <trkpt lat="62.640890972818" lon="17.881917212997">
        <ele>110.8</ele>
        <time>2017-12-24T10:19:18Z</time>
      </trkpt>
      <trkpt lat="62.64088158509" lon="17.881884523587">
        <ele>111</ele>
        <time>2017-12-24T10:19:19Z</time>
      </trkpt>
      <trkpt lat="62.640874795751" lon="17.881853845833">
        <ele>111.2</ele>
        <time>2017-12-24T10:19:20Z</time>
      </trkpt>
      <trkpt lat="62.640868509326" lon="17.881816965473">
        <ele>111.2</ele>
        <time>2017-12-24T10:19:21Z</time>
      </trkpt>
      <trkpt lat="62.64085895396" lon="17.881787461185">
        <ele>111.4</ele>
        <time>2017-12-24T10:19:22Z</time>
      </trkpt>
      <trkpt lat="62.640850152965" lon="17.8817610582">
        <ele>111.6</ele>
        <time>2017-12-24T10:19:23Z</time>
      </trkpt>
      <trkpt lat="62.640840178504" lon="17.881726189496">
        <ele>111.8</ele>
        <time>2017-12-24T10:19:24Z</time>
      </trkpt>
      <trkpt lat="62.640831628966" lon="17.881695763199">
        <ele>112.2</ele>
        <time>2017-12-24T10:19:25Z</time>
      </trkpt>
      <trkpt lat="62.640823917618" lon="17.881661145952">
        <ele>112.4</ele>
        <time>2017-12-24T10:19:26Z</time>
      </trkpt>
      <trkpt lat="62.640814865166" lon="17.881629127094">
        <ele>112.6</ele>
        <time>2017-12-24T10:19:27Z</time>
      </trkpt>
      <trkpt lat="62.640804723067" lon="17.881598616978">
        <ele>113</ele>
        <time>2017-12-24T10:19:28Z</time>
      </trkpt>
      <trkpt lat="62.640791312027" lon="17.881556036926">
        <ele>113</ele>
        <time>2017-12-24T10:19:29Z</time>
      </trkpt>
      <trkpt lat="62.640780415557" lon="17.881520330032">
        <ele>113.2</ele>
        <time>2017-12-24T10:19:30Z</time>
      </trkpt>
      <trkpt lat="62.640768345621" lon="17.881495100513">
        <ele>113.2</ele>
        <time>2017-12-24T10:19:31Z</time>
      </trkpt>
      <trkpt lat="62.640754766943" lon="17.881458806886">
        <ele>113.2</ele>
        <time>2017-12-24T10:19:32Z</time>
      </trkpt>
      <trkpt lat="62.640741020627" lon="17.881421423612">
        <ele>113.2</ele>
        <time>2017-12-24T10:19:33Z</time>
      </trkpt>
      <trkpt lat="62.640731381442" lon="17.881377586275">
        <ele>113.4</ele>
        <time>2017-12-24T10:19:34Z</time>
      </trkpt>
      <trkpt lat="62.640724927379" lon="17.881335425318">
        <ele>113.4</ele>
        <time>2017-12-24T10:19:35Z</time>
      </trkpt>
      <trkpt lat="62.640715874927" lon="17.881299383148">
        <ele>113.4</ele>
        <time>2017-12-24T10:19:36Z</time>
      </trkpt>
      <trkpt lat="62.640708415036" lon="17.881266442281">
        <ele>113.6</ele>
        <time>2017-12-24T10:19:37Z</time>
      </trkpt>
      <trkpt lat="62.640700703688" lon="17.881220090374">
        <ele>113.6</ele>
        <time>2017-12-24T10:19:38Z</time>
      </trkpt>
      <trkpt lat="62.640691986512" lon="17.881173151734">
        <ele>114</ele>
        <time>2017-12-24T10:19:39Z</time>
      </trkpt>
      <trkpt lat="62.64068377225" lon="17.881133421528">
        <ele>114</ele>
        <time>2017-12-24T10:19:40Z</time>
      </trkpt>
      <trkpt lat="62.640680251852" lon="17.88109721172">
        <ele>114.2</ele>
        <time>2017-12-24T10:19:41Z</time>
      </trkpt>
      <trkpt lat="62.640676479997" lon="17.881054044935">
        <ele>114.2</ele>
        <time>2017-12-24T10:19:42Z</time>
      </trkpt>
      <trkpt lat="62.640671953771" lon="17.881021187887">
        <ele>114.4</ele>
        <time>2017-12-24T10:19:43Z</time>
      </trkpt>
      <trkpt lat="62.640672289047" lon="17.880972405229">
        <ele>114.4</ele>
        <time>2017-12-24T10:19:44Z</time>
      </trkpt>
      <trkpt lat="62.640675306531" lon="17.880932172109">
        <ele>114.4</ele>
        <time>2017-12-24T10:19:45Z</time>
      </trkpt>
      <trkpt lat="62.640677150549" lon="17.880892274265">
        <ele>114.4</ele>
        <time>2017-12-24T10:19:46Z</time>
      </trkpt>
      <trkpt lat="62.640678240196" lon="17.880864027262">
        <ele>114.6</ele>
        <time>2017-12-24T10:19:47Z</time>
      </trkpt>
      <trkpt lat="62.640685700087" lon="17.880823794142">
        <ele>114.8</ele>
        <time>2017-12-24T10:19:48Z</time>
      </trkpt>
      <trkpt lat="62.640694836358" lon="17.880788087248">
        <ele>115</ele>
        <time>2017-12-24T10:19:49Z</time>
      </trkpt>
      <trkpt lat="62.640700955145" lon="17.880749614327">
        <ele>115</ele>
        <time>2017-12-24T10:19:50Z</time>
      </trkpt>
      <trkpt lat="62.640706068104" lon="17.880713991252">
        <ele>115.2</ele>
        <time>2017-12-24T10:19:51Z</time>
      </trkpt>
      <trkpt lat="62.6407131089" lon="17.880680379833">
        <ele>115.4</ele>
        <time>2017-12-24T10:19:52Z</time>
      </trkpt>
      <trkpt lat="62.640721323162" lon="17.880641152541">
        <ele>115.4</ele>
        <time>2017-12-24T10:19:53Z</time>
      </trkpt>
      <trkpt lat="62.64073657822" lon="17.880590274408">
        <ele>115.6</ele>
        <time>2017-12-24T10:19:54Z</time>
      </trkpt>
      <trkpt lat="62.640750492174" lon="17.88055322641">
        <ele>115.6</ele>
        <time>2017-12-24T10:19:55Z</time>
      </trkpt>
      <trkpt lat="62.640761388644" lon="17.880521878104">
        <ele>115.8</ele>
        <time>2017-12-24T10:19:56Z</time>
      </trkpt>
      <trkpt lat="62.640771614562" lon="17.880492625273">
        <ele>116</ele>
        <time>2017-12-24T10:19:57Z</time>
      </trkpt>
      <trkpt lat="62.640779745005" lon="17.880466557564">
        <ele>116.2</ele>
        <time>2017-12-24T10:19:58Z</time>
      </trkpt>
      <trkpt lat="62.640793156045" lon="17.880432275593">
        <ele>116.2</ele>
        <time>2017-12-24T10:19:59Z</time>
      </trkpt>
      <trkpt lat="62.640805477438" lon="17.880397825984">
        <ele>116.2</ele>
        <time>2017-12-24T10:20:00Z</time>
      </trkpt>
      <trkpt lat="62.640816122451" lon="17.880364214565">
        <ele>116.4</ele>
        <time>2017-12-24T10:20:01Z</time>
      </trkpt>
      <trkpt lat="62.64082794093" lon="17.880329513499">
        <ele>116.6</ele>
        <time>2017-12-24T10:20:02Z</time>
      </trkpt>
      <trkpt lat="62.640841687246" lon="17.88028752018">
        <ele>116.6</ele>
        <time>2017-12-24T10:20:03Z</time>
      </trkpt>
      <trkpt lat="62.64085141025" lon="17.880251897105">
        <ele>116.6</ele>
        <time>2017-12-24T10:20:04Z</time>
      </trkpt>
      <trkpt lat="62.640865072747" lon="17.880215519659">
        <ele>116.8</ele>
        <time>2017-12-24T10:20:05Z</time>
      </trkpt>
      <trkpt lat="62.640880327805" lon="17.880172436693">
        <ele>116.8</ele>
        <time>2017-12-24T10:20:06Z</time>
      </trkpt>
      <trkpt lat="62.640887117144" lon="17.880142764767">
        <ele>116.8</ele>
        <time>2017-12-24T10:20:07Z</time>
      </trkpt>
      <trkpt lat="62.640901450193" lon="17.880101693457">
        <ele>116.8</ele>
        <time>2017-12-24T10:20:08Z</time>
      </trkpt>
      <trkpt lat="62.640915699423" lon="17.880057520844">
        <ele>116.8</ele>
        <time>2017-12-24T10:20:09Z</time>
      </trkpt>
      <trkpt lat="62.640927014988" lon="17.880021981588">
        <ele>116.8</ele>
        <time>2017-12-24T10:20:10Z</time>
      </trkpt>
      <trkpt lat="62.640941683313" lon="17.87997738988">
        <ele>116.8</ele>
        <time>2017-12-24T10:20:11Z</time>
      </trkpt>
      <trkpt lat="62.640953166516" lon="17.879939419873">
        <ele>117</ele>
        <time>2017-12-24T10:20:12Z</time>
      </trkpt>
      <trkpt lat="62.640961799873" lon="17.879904215893">
        <ele>117</ele>
        <time>2017-12-24T10:20:13Z</time>
      </trkpt>
      <trkpt lat="62.64097462418" lon="17.879856941977">
        <ele>117</ele>
        <time>2017-12-24T10:20:14Z</time>
      </trkpt>
      <trkpt lat="62.640987280849" lon="17.879820061617">
        <ele>117.2</ele>
        <time>2017-12-24T10:20:15Z</time>
      </trkpt>
      <trkpt lat="62.640996920034" lon="17.879781337239">
        <ele>117.4</ele>
        <time>2017-12-24T10:20:16Z</time>
      </trkpt>
      <trkpt lat="62.64100479902" lon="17.87974856401">
        <ele>117.2</ele>
        <time>2017-12-24T10:20:17Z</time>
      </trkpt>
      <trkpt lat="62.641015863128" lon="17.879703888483">
        <ele>117.4</ele>
        <time>2017-12-24T10:20:18Z</time>
      </trkpt>
      <trkpt lat="62.641026256684" lon="17.879656698386">
        <ele>117.4</ele>
        <time>2017-12-24T10:20:19Z</time>
      </trkpt>
      <trkpt lat="62.641033046023" lon="17.879621326768">
        <ele>117.4</ele>
        <time>2017-12-24T10:20:20Z</time>
      </trkpt>
      <trkpt lat="62.641043523398" lon="17.879583524399">
        <ele>117.4</ele>
        <time>2017-12-24T10:20:21Z</time>
      </trkpt>
      <trkpt lat="62.641052911126" lon="17.87954153108">
        <ele>117.6</ele>
        <time>2017-12-24T10:20:22Z</time>
      </trkpt>
      <trkpt lat="62.641062047397" lon="17.879507668204">
        <ele>117.6</ele>
        <time>2017-12-24T10:20:23Z</time>
      </trkpt>
      <trkpt lat="62.641072943867" lon="17.879462322125">
        <ele>117.6</ele>
        <time>2017-12-24T10:20:24Z</time>
      </trkpt>
      <trkpt lat="62.641082583052" lon="17.879421586091">
        <ele>117.8</ele>
        <time>2017-12-24T10:20:25Z</time>
      </trkpt>
      <trkpt lat="62.641093814798" lon="17.879377581116">
        <ele>117.8</ele>
        <time>2017-12-24T10:20:26Z</time>
      </trkpt>
      <trkpt lat="62.641104795087" lon="17.879336509806">
        <ele>118</ele>
        <time>2017-12-24T10:20:27Z</time>
      </trkpt>
      <trkpt lat="62.641113009349" lon="17.879300719093">
        <ele>118.2</ele>
        <time>2017-12-24T10:20:28Z</time>
      </trkpt>
      <trkpt lat="62.641122313258" lon="17.879261743258">
        <ele>118.2</ele>
        <time>2017-12-24T10:20:29Z</time>
      </trkpt>
      <trkpt lat="62.641132036262" lon="17.879228802391">
        <ele>118.4</ele>
        <time>2017-12-24T10:20:30Z</time>
      </trkpt>
      <trkpt lat="62.641142597456" lon="17.879193430773">
        <ele>118.6</ele>
        <time>2017-12-24T10:20:31Z</time>
      </trkpt>
      <trkpt lat="62.641151649908" lon="17.879169290901">
        <ele>118.8</ele>
        <time>2017-12-24T10:20:32Z</time>
      </trkpt>
      <trkpt lat="62.641158020152" lon="17.879143642287">
        <ele>118.8</ele>
        <time>2017-12-24T10:20:33Z</time>
      </trkpt>
      <trkpt lat="62.641165647681" lon="17.879113467447">
        <ele>119</ele>
        <time>2017-12-24T10:20:34Z</time>
      </trkpt>
      <trkpt lat="62.641178136712" lon="17.879073653422">
        <ele>119.2</ele>
        <time>2017-12-24T10:20:35Z</time>
      </trkpt>
      <trkpt lat="62.641191212476" lon="17.879037695071">
        <ele>119.4</ele>
        <time>2017-12-24T10:20:36Z</time>
      </trkpt>
      <trkpt lat="62.641199091462" lon="17.879008693697">
        <ele>119.6</ele>
        <time>2017-12-24T10:20:37Z</time>
      </trkpt>
      <trkpt lat="62.641214430339" lon="17.878969382586">
        <ele>119.6</ele>
        <time>2017-12-24T10:20:38Z</time>
      </trkpt>
      <trkpt lat="62.641227170827" lon="17.878925964344">
        <ele>119.8</ele>
        <time>2017-12-24T10:20:39Z</time>
      </trkpt>
      <trkpt lat="62.641232367605" lon="17.878897130608">
        <ele>119.8</ele>
        <time>2017-12-24T10:20:40Z</time>
      </trkpt>
      <trkpt lat="62.641245694826" lon="17.878857316583">
        <ele>119.8</ele>
        <time>2017-12-24T10:20:41Z</time>
      </trkpt>
      <trkpt lat="62.641259105866" lon="17.878816664368">
        <ele>120</ele>
        <time>2017-12-24T10:20:42Z</time>
      </trkpt>
      <trkpt lat="62.641266984852" lon="17.878790345202">
        <ele>120</ele>
        <time>2017-12-24T10:20:43Z</time>
      </trkpt>
      <trkpt lat="62.641281317901" lon="17.878752878109">
        <ele>120</ele>
        <time>2017-12-24T10:20:44Z</time>
      </trkpt>
      <trkpt lat="62.641292046733" lon="17.87872345764">
        <ele>120.2</ele>
        <time>2017-12-24T10:20:45Z</time>
      </trkpt>
      <trkpt lat="62.641305876868" lon="17.878694204809">
        <ele>120.2</ele>
        <time>2017-12-24T10:20:46Z</time>
      </trkpt>
      <trkpt lat="62.641311492741" lon="17.878668807652">
        <ele>120.4</ele>
        <time>2017-12-24T10:20:47Z</time>
      </trkpt>
      <trkpt lat="62.641325574333" lon="17.878631424378">
        <ele>120.4</ele>
        <time>2017-12-24T10:20:48Z</time>
      </trkpt>
      <trkpt lat="62.641335129699" lon="17.878597812959">
        <ele>120.6</ele>
        <time>2017-12-24T10:20:49Z</time>
      </trkpt>
      <trkpt lat="62.641351306766" lon="17.878560345866">
        <ele>120.6</ele>
        <time>2017-12-24T10:20:50Z</time>
      </trkpt>
      <trkpt lat="62.641360275399" lon="17.87852983575">
        <ele>120.8</ele>
        <time>2017-12-24T10:20:51Z</time>
      </trkpt>
      <trkpt lat="62.641375279" lon="17.878493206847">
        <ele>121</ele>
        <time>2017-12-24T10:20:52Z</time>
      </trkpt>
      <trkpt lat="62.641387684212" lon="17.878463786378">
        <ele>121</ele>
        <time>2017-12-24T10:20:53Z</time>
      </trkpt>
      <trkpt lat="62.641404364193" lon="17.878416763919">
        <ele>121.2</ele>
        <time>2017-12-24T10:20:54Z</time>
      </trkpt>
      <trkpt lat="62.641416517948" lon="17.878380386473">
        <ele>121.4</ele>
        <time>2017-12-24T10:20:55Z</time>
      </trkpt>
      <trkpt lat="62.641431521549" lon="17.878342584104">
        <ele>121.6</ele>
        <time>2017-12-24T10:20:56Z</time>
      </trkpt>
      <trkpt lat="62.641439651992" lon="17.878306458115">
        <ele>121.8</ele>
        <time>2017-12-24T10:20:57Z</time>
      </trkpt>
      <trkpt lat="62.641453733584" lon="17.87827502599">
        <ele>122</ele>
        <time>2017-12-24T10:20:58Z</time>
      </trkpt>
      <trkpt lat="62.641468569547" lon="17.878234709051">
        <ele>121.8</ele>
        <time>2017-12-24T10:20:59Z</time>
      </trkpt>
      <trkpt lat="62.641480471845" lon="17.878196152311">
        <ele>121.8</ele>
        <time>2017-12-24T10:21:00Z</time>
      </trkpt>
      <trkpt lat="62.641495643084" lon="17.878159774865">
        <ele>121.8</ele>
        <time>2017-12-24T10:21:01Z</time>
      </trkpt>
      <trkpt lat="62.641510479047" lon="17.878125157618">
        <ele>121.8</ele>
        <time>2017-12-24T10:21:02Z</time>
      </trkpt>
      <trkpt lat="62.641526739933" lon="17.878089366905">
        <ele>121.8</ele>
        <time>2017-12-24T10:21:03Z</time>
      </trkpt>
      <trkpt lat="62.64154040243" lon="17.87805290564">
        <ele>121.8</ele>
        <time>2017-12-24T10:21:04Z</time>
      </trkpt>
      <trkpt lat="62.641550293072" lon="17.878024239542">
        <ele>121.8</ele>
        <time>2017-12-24T10:21:05Z</time>
      </trkpt>
      <trkpt lat="62.641569152347" lon="17.877996495453">
        <ele>122</ele>
        <time>2017-12-24T10:21:06Z</time>
      </trkpt>
      <trkpt lat="62.641580551731" lon="17.877954669772">
        <ele>122</ele>
        <time>2017-12-24T10:21:07Z</time>
      </trkpt>
      <trkpt lat="62.641593124581" lon="17.877925416941">
        <ele>122</ele>
        <time>2017-12-24T10:21:08Z</time>
      </trkpt>
      <trkpt lat="62.641604607784" lon="17.877888033667">
        <ele>122.2</ele>
        <time>2017-12-24T10:21:09Z</time>
      </trkpt>
      <trkpt lat="62.641612822046" lon="17.877859870483">
        <ele>122.2</ele>
        <time>2017-12-24T10:21:10Z</time>
      </trkpt>
      <trkpt lat="62.64162589781" lon="17.877829276548">
        <ele>122.4</ele>
        <time>2017-12-24T10:21:11Z</time>
      </trkpt>
      <trkpt lat="62.641641404325" lon="17.877799939898">
        <ele>122.6</ele>
        <time>2017-12-24T10:21:12Z</time>
      </trkpt>
      <trkpt lat="62.64165774903" lon="17.877759958235">
        <ele>122.8</ele>
        <time>2017-12-24T10:21:13Z</time>
      </trkpt>
      <trkpt lat="62.641673926097" lon="17.877724251341">
        <ele>123</ele>
        <time>2017-12-24T10:21:14Z</time>
      </trkpt>
      <trkpt lat="62.641691528087" lon="17.877686197515">
        <ele>123.2</ele>
        <time>2017-12-24T10:21:16Z</time>
      </trkpt>
      <trkpt lat="62.641697898331" lon="17.877669685172">
        <ele>123.2</ele>
        <time>2017-12-24T10:21:17Z</time>
      </trkpt>
      <trkpt lat="62.641712063742" lon="17.877626099292">
        <ele>123.6</ele>
        <time>2017-12-24T10:21:18Z</time>
      </trkpt>
      <trkpt lat="62.641718182529" lon="17.877603049067">
        <ele>123.8</ele>
        <time>2017-12-24T10:21:19Z</time>
      </trkpt>
      <trkpt lat="62.641726396791" lon="17.877577568091">
        <ele>124</ele>
        <time>2017-12-24T10:21:20Z</time>
      </trkpt>
      <trkpt lat="62.641735533062" lon="17.877551248925">
        <ele>124.2</ele>
        <time>2017-12-24T10:21:21Z</time>
      </trkpt>
      <trkpt lat="62.641744334057" lon="17.877523840112">
        <ele>124.4</ele>
        <time>2017-12-24T10:21:22Z</time>
      </trkpt>
      <trkpt lat="62.641753470328" lon="17.877495760747">
        <ele>124.6</ele>
        <time>2017-12-24T10:21:23Z</time>
      </trkpt>
      <trkpt lat="62.64176419916" lon="17.877469357762">
        <ele>124.8</ele>
        <time>2017-12-24T10:21:24Z</time>
      </trkpt>
      <trkpt lat="62.641774592716" lon="17.877440943121">
        <ele>124.8</ele>
        <time>2017-12-24T10:21:25Z</time>
      </trkpt>
      <trkpt lat="62.641783728987" lon="17.877412193204">
        <ele>125</ele>
        <time>2017-12-24T10:21:26Z</time>
      </trkpt>
      <trkpt lat="62.641795044552" lon="17.877379671432">
        <ele>125.2</ele>
        <time>2017-12-24T10:21:27Z</time>
      </trkpt>
      <trkpt lat="62.641809629058" lon="17.877347736393">
        <ele>125.2</ele>
        <time>2017-12-24T10:21:28Z</time>
      </trkpt>
      <trkpt lat="62.641817927139" lon="17.877303144685">
        <ele>125.4</ele>
        <time>2017-12-24T10:21:29Z</time>
      </trkpt>
      <trkpt lat="62.641825135573" lon="17.877289398369">
        <ele>125.4</ele>
        <time>2017-12-24T10:21:30Z</time>
      </trkpt>
      <trkpt lat="62.641841228821" lon="17.877247572688">
        <ele>125.4</ele>
        <time>2017-12-24T10:21:31Z</time>
      </trkpt>
      <trkpt lat="62.641855310413" lon="17.877212033432">
        <ele>125.6</ele>
        <time>2017-12-24T10:21:32Z</time>
      </trkpt>
      <trkpt lat="62.641867967082" lon="17.877177416185">
        <ele>125.6</ele>
        <time>2017-12-24T10:21:33Z</time>
      </trkpt>
      <trkpt lat="62.641877103353" lon="17.87714682225">
        <ele>125.6</ele>
        <time>2017-12-24T10:21:34Z</time>
      </trkpt>
      <trkpt lat="62.641888502737" lon="17.877123101473">
        <ele>125.8</ele>
        <time>2017-12-24T10:21:35Z</time>
      </trkpt>
      <trkpt lat="62.641899734483" lon="17.877098374868">
        <ele>125.8</ele>
        <time>2017-12-24T10:21:36Z</time>
      </trkpt>
      <trkpt lat="62.641913816075" lon="17.87706551782">
        <ele>126</ele>
        <time>2017-12-24T10:21:37Z</time>
      </trkpt>
      <trkpt lat="62.641927897667" lon="17.877029894745">
        <ele>126.2</ele>
        <time>2017-12-24T10:21:38Z</time>
      </trkpt>
      <trkpt lat="62.641937620671" lon="17.877010281099">
        <ele>126.4</ele>
        <time>2017-12-24T10:21:39Z</time>
      </trkpt>
      <trkpt lat="62.641948181865" lon="17.87698253701">
        <ele>126.8</ele>
        <time>2017-12-24T10:21:40Z</time>
      </trkpt>
      <trkpt lat="62.641959245973" lon="17.876952697446">
        <ele>127</ele>
        <time>2017-12-24T10:21:41Z</time>
      </trkpt>
      <trkpt lat="62.641977602334" lon="17.876913889249">
        <ele>127</ele>
        <time>2017-12-24T10:21:42Z</time>
      </trkpt>
      <trkpt lat="62.641994282315" lon="17.876892431585">
        <ele>127</ele>
        <time>2017-12-24T10:21:43Z</time>
      </trkpt>
      <trkpt lat="62.642006771346" lon="17.876845241488">
        <ele>127.2</ele>
        <time>2017-12-24T10:21:44Z</time>
      </trkpt>
      <trkpt lat="62.642023786603" lon="17.876804421635">
        <ele>127.2</ele>
        <time>2017-12-24T10:21:45Z</time>
      </trkpt>
      <trkpt lat="62.642036527091" lon="17.876762428316">
        <ele>127.2</ele>
        <time>2017-12-24T10:21:46Z</time>
      </trkpt>
      <trkpt lat="62.642051614511" lon="17.876729738906">
        <ele>127.4</ele>
        <time>2017-12-24T10:21:47Z</time>
      </trkpt>
      <trkpt lat="62.64205086014" lon="17.8766900087">
        <ele>127.4</ele>
        <time>2017-12-24T10:21:48Z</time>
      </trkpt>
      <trkpt lat="62.642061924248" lon="17.87664474644">
        <ele>127.4</ele>
        <time>2017-12-24T10:21:49Z</time>
      </trkpt>
      <trkpt lat="62.642076424935" lon="17.876599065085">
        <ele>127.6</ele>
        <time>2017-12-24T10:21:50Z</time>
      </trkpt>
      <trkpt lat="62.642087489043" lon="17.876555395386">
        <ele>127.6</ele>
        <time>2017-12-24T10:21:51Z</time>
      </trkpt>
      <trkpt lat="62.642098301694" lon="17.876515162266">
        <ele>127.6</ele>
        <time>2017-12-24T10:21:52Z</time>
      </trkpt>
      <trkpt lat="62.642110874544" lon="17.87647543206">
        <ele>127.6</ele>
        <time>2017-12-24T10:21:53Z</time>
      </trkpt>
      <trkpt lat="62.642129901457" lon="17.876434863664">
        <ele>127.6</ele>
        <time>2017-12-24T10:21:54Z</time>
      </trkpt>
      <trkpt lat="62.642139875918" lon="17.876400665512">
        <ele>127.8</ele>
        <time>2017-12-24T10:21:55Z</time>
      </trkpt>
      <trkpt lat="62.642149934198" lon="17.876367892283">
        <ele>127.8</ele>
        <time>2017-12-24T10:21:56Z</time>
      </trkpt>
      <trkpt lat="62.642166865636" lon="17.876327156249">
        <ele>128</ele>
        <time>2017-12-24T10:21:57Z</time>
      </trkpt>
      <trkpt lat="62.642187820386" lon="17.876282815998">
        <ele>128.2</ele>
        <time>2017-12-24T10:21:58Z</time>
      </trkpt>
      <trkpt lat="62.642188742395" lon="17.876251132416">
        <ele>128.2</ele>
        <time>2017-12-24T10:21:59Z</time>
      </trkpt>
      <trkpt lat="62.64220089615" lon="17.876212575676">
        <ele>128.6</ele>
        <time>2017-12-24T10:22:00Z</time>
      </trkpt>
      <trkpt lat="62.642214474828" lon="17.876180892094">
        <ele>129</ele>
        <time>2017-12-24T10:22:01Z</time>
      </trkpt>
      <trkpt lat="62.642231992999" lon="17.87614434701">
        <ele>129</ele>
        <time>2017-12-24T10:22:02Z</time>
      </trkpt>
      <trkpt lat="62.64224867298" lon="17.876107801926">
        <ele>129.2</ele>
        <time>2017-12-24T10:22:03Z</time>
      </trkpt>
      <trkpt lat="62.642262503115" lon="17.876084081149">
        <ele>129.4</ele>
        <time>2017-12-24T10:22:04Z</time>
      </trkpt>
      <trkpt lat="62.642283374046" lon="17.876048877169">
        <ele>129.4</ele>
        <time>2017-12-24T10:22:05Z</time>
      </trkpt>
      <trkpt lat="62.642295527801" lon="17.87602448584">
        <ele>129.2</ele>
        <time>2017-12-24T10:22:06Z</time>
      </trkpt>
      <trkpt lat="62.642312962153" lon="17.875992131706">
        <ele>129.4</ele>
        <time>2017-12-24T10:22:07Z</time>
      </trkpt>
      <trkpt lat="62.642335090369" lon="17.875959526115">
        <ele>129.4</ele>
        <time>2017-12-24T10:22:08Z</time>
      </trkpt>
      <trkpt lat="62.642344142821" lon="17.875921891384">
        <ele>129.4</ele>
        <time>2017-12-24T10:22:09Z</time>
      </trkpt>
      <trkpt lat="62.642361660992" lon="17.875894398752">
        <ele>129.4</ele>
        <time>2017-12-24T10:22:10Z</time>
      </trkpt>
      <trkpt lat="62.642379849715" lon="17.875867576672">
        <ele>129.4</ele>
        <time>2017-12-24T10:22:11Z</time>
      </trkpt>
      <trkpt lat="62.642395942963" lon="17.875841257506">
        <ele>129.6</ele>
        <time>2017-12-24T10:22:12Z</time>
      </trkpt>
      <trkpt lat="62.642408934908" lon="17.875818961652">
        <ele>129.6</ele>
        <time>2017-12-24T10:22:13Z</time>
      </trkpt>
      <trkpt lat="62.642440115576" lon="17.87578643988">
        <ele>129.6</ele>
        <time>2017-12-24T10:22:14Z</time>
      </trkpt>
      <trkpt lat="62.642461321783" lon="17.8757596178">
        <ele>129.8</ele>
        <time>2017-12-24T10:22:15Z</time>
      </trkpt>
      <trkpt lat="62.642485713112" lon="17.875722569802">
        <ele>129.6</ele>
        <time>2017-12-24T10:22:16Z</time>
      </trkpt>
      <trkpt lat="62.642504069473" lon="17.875686276175">
        <ele>129.8</ele>
        <time>2017-12-24T10:22:17Z</time>
      </trkpt>
      <trkpt lat="62.642530807734" lon="17.875648557625">
        <ele>129.8</ele>
        <time>2017-12-24T10:22:18Z</time>
      </trkpt>
      <trkpt lat="62.64256131785" lon="17.875603882098">
        <ele>129.8</ele>
        <time>2017-12-24T10:22:19Z</time>
      </trkpt>
      <trkpt lat="62.642595264545" lon="17.875556943458">
        <ele>129.6</ele>
        <time>2017-12-24T10:22:20Z</time>
      </trkpt>
      <trkpt lat="62.642630636163" lon="17.875511178284">
        <ele>129.4</ele>
        <time>2017-12-24T10:22:21Z</time>
      </trkpt>
      <trkpt lat="62.64266441522" lon="17.875466921852">
        <ele>129</ele>
        <time>2017-12-24T10:22:22Z</time>
      </trkpt>
      <trkpt lat="62.642697523725" lon="17.875420653764">
        <ele>128.6</ele>
        <time>2017-12-24T10:22:23Z</time>
      </trkpt>
      <trkpt lat="62.642728452936" lon="17.875380839739">
        <ele>128</ele>
        <time>2017-12-24T10:22:24Z</time>
      </trkpt>
      <trkpt lat="62.642761226165" lon="17.875339014058">
        <ele>127.6</ele>
        <time>2017-12-24T10:22:25Z</time>
      </trkpt>
      <trkpt lat="62.642789389349" lon="17.875286627183">
        <ele>127.6</ele>
        <time>2017-12-24T10:22:26Z</time>
      </trkpt>
      <trkpt lat="62.642818390723" lon="17.87523742543">
        <ele>127.8</ele>
        <time>2017-12-24T10:22:27Z</time>
      </trkpt>
      <trkpt lat="62.642846805364" lon="17.875197359948">
        <ele>128</ele>
        <time>2017-12-24T10:22:28Z</time>
      </trkpt>
      <trkpt lat="62.642876142014" lon="17.875154947534">
        <ele>128.2</ele>
        <time>2017-12-24T10:22:29Z</time>
      </trkpt>
      <trkpt lat="62.642906149216" lon="17.875112116025">
        <ele>128</ele>
        <time>2017-12-24T10:22:30Z</time>
      </trkpt>
      <trkpt lat="62.642939425359" lon="17.875064339195">
        <ele>127.8</ele>
        <time>2017-12-24T10:22:31Z</time>
      </trkpt>
      <trkpt lat="62.642973455873" lon="17.875018490202">
        <ele>127.4</ele>
        <time>2017-12-24T10:22:32Z</time>
      </trkpt>
      <trkpt lat="62.643007654025" lon="17.874972892666">
        <ele>127.2</ele>
        <time>2017-12-24T10:22:33Z</time>
      </trkpt>
      <trkpt lat="62.643050234077" lon="17.874912459167">
        <ele>126.6</ele>
        <time>2017-12-24T10:22:34Z</time>
      </trkpt>
      <trkpt lat="62.643090299559" lon="17.874853702048">
        <ele>126.2</ele>
        <time>2017-12-24T10:22:35Z</time>
      </trkpt>
      <trkpt lat="62.643139082217" lon="17.874782455898">
        <ele>126</ele>
        <time>2017-12-24T10:22:36Z</time>
      </trkpt>
      <trkpt lat="62.643187781056" lon="17.874711545024">
        <ele>125.8</ele>
        <time>2017-12-24T10:22:37Z</time>
      </trkpt>
      <trkpt lat="62.643234300601" lon="17.874642729625">
        <ele>125.6</ele>
        <time>2017-12-24T10:22:38Z</time>
      </trkpt>
      <trkpt lat="62.643284927277" lon="17.874564694136">
        <ele>125.2</ele>
        <time>2017-12-24T10:22:39Z</time>
      </trkpt>
      <trkpt lat="62.64332993808" lon="17.874491687787">
        <ele>124.8</ele>
        <time>2017-12-24T10:22:40Z</time>
      </trkpt>
      <trkpt lat="62.643370003562" lon="17.874424632587">
        <ele>124.2</ele>
        <time>2017-12-24T10:22:41Z</time>
      </trkpt>
      <trkpt lat="62.64341124251" lon="17.874352967342">
        <ele>123.8</ele>
        <time>2017-12-24T10:22:42Z</time>
      </trkpt>
      <trkpt lat="62.643447787594" lon="17.874285744504">
        <ele>123.4</ele>
        <time>2017-12-24T10:22:43Z</time>
      </trkpt>
      <trkpt lat="62.64348332685" lon="17.87423159743">
        <ele>123</ele>
        <time>2017-12-24T10:22:44Z</time>
      </trkpt>
      <trkpt lat="62.643520291029" lon="17.874169990465">
        <ele>123</ele>
        <time>2017-12-24T10:22:45Z</time>
      </trkpt>
      <trkpt lat="62.643548370394" lon="17.874119950522">
        <ele>123.4</ele>
        <time>2017-12-24T10:22:46Z</time>
      </trkpt>
      <trkpt lat="62.643579886338" lon="17.874068904751">
        <ele>123.6</ele>
        <time>2017-12-24T10:22:47Z</time>
      </trkpt>
      <trkpt lat="62.643608720074" lon="17.874016936971">
        <ele>123.8</ele>
        <time>2017-12-24T10:22:48Z</time>
      </trkpt>
      <trkpt lat="62.643631435023" lon="17.873976200937">
        <ele>124.2</ele>
        <time>2017-12-24T10:22:49Z</time>
      </trkpt>
      <trkpt lat="62.643652892687" lon="17.873929094659">
        <ele>124.4</ele>
        <time>2017-12-24T10:22:50Z</time>
      </trkpt>
      <trkpt lat="62.643673679799" lon="17.87388877772">
        <ele>124.4</ele>
        <time>2017-12-24T10:22:51Z</time>
      </trkpt>
      <trkpt lat="62.643695724196" lon="17.873853825197">
        <ele>124.6</ele>
        <time>2017-12-24T10:22:52Z</time>
      </trkpt>
      <trkpt lat="62.643715756937" lon="17.873817615389">
        <ele>124.6</ele>
        <time>2017-12-24T10:22:53Z</time>
      </trkpt>
      <trkpt lat="62.643730844357" lon="17.8737898713">
        <ele>124.6</ele>
        <time>2017-12-24T10:22:54Z</time>
      </trkpt>
      <trkpt lat="62.643750206546" lon="17.873754415863">
        <ele>124.8</ele>
        <time>2017-12-24T10:22:55Z</time>
      </trkpt>
      <trkpt lat="62.64376914964" lon="17.873718289874">
        <ele>124.8</ele>
        <time>2017-12-24T10:22:56Z</time>
      </trkpt>
      <trkpt lat="62.643785410526" lon="17.873679733134">
        <ele>124.8</ele>
        <time>2017-12-24T10:22:57Z</time>
      </trkpt>
      <trkpt lat="62.643798570109" lon="17.873640086747">
        <ele>124.8</ele>
        <time>2017-12-24T10:22:58Z</time>
      </trkpt>
      <trkpt lat="62.643804772715" lon="17.873607900251">
        <ele>124.8</ele>
        <time>2017-12-24T10:22:59Z</time>
      </trkpt>
      <trkpt lat="62.643823464352" lon="17.873558279403">
        <ele>125</ele>
        <time>2017-12-24T10:23:00Z</time>
      </trkpt>
      <trkpt lat="62.643836875392" lon="17.873510921668">
        <ele>125</ele>
        <time>2017-12-24T10:23:01Z</time>
      </trkpt>
      <trkpt lat="62.643849532061" lon="17.87346884453">
        <ele>125</ele>
        <time>2017-12-24T10:23:02Z</time>
      </trkpt>
      <trkpt lat="62.64385967416" lon="17.873429281962">
        <ele>125</ele>
        <time>2017-12-24T10:23:03Z</time>
      </trkpt>
      <trkpt lat="62.643873420476" lon="17.873393239792">
        <ele>125.4</ele>
        <time>2017-12-24T10:23:04Z</time>
      </trkpt>
      <trkpt lat="62.643888759353" lon="17.873349989188">
        <ele>125.4</ele>
        <time>2017-12-24T10:23:05Z</time>
      </trkpt>
      <trkpt lat="62.643899739642" lon="17.87331629395">
        <ele>125.6</ele>
        <time>2017-12-24T10:23:06Z</time>
      </trkpt>
      <trkpt lat="62.643913653596" lon="17.873274300631">
        <ele>125.8</ele>
        <time>2017-12-24T10:23:07Z</time>
      </trkpt>
      <trkpt lat="62.643924550066" lon="17.87322996038">
        <ele>125.8</ele>
        <time>2017-12-24T10:23:08Z</time>
      </trkpt>
      <trkpt lat="62.643940559495" lon="17.873194169667">
        <ele>125.8</ele>
        <time>2017-12-24T10:23:09Z</time>
      </trkpt>
      <trkpt lat="62.643952880888" lon="17.873157121669">
        <ele>126</ele>
        <time>2017-12-24T10:23:10Z</time>
      </trkpt>
      <trkpt lat="62.643965369919" lon="17.873122001508">
        <ele>126</ele>
        <time>2017-12-24T10:23:11Z</time>
      </trkpt>
      <trkpt lat="62.643981798443" lon="17.873083025673">
        <ele>126.2</ele>
        <time>2017-12-24T10:23:12Z</time>
      </trkpt>
      <trkpt lat="62.64399713732" lon="17.873046815865">
        <ele>126.2</ele>
        <time>2017-12-24T10:23:13Z</time>
      </trkpt>
      <trkpt lat="62.64400803379" lon="17.873013204446">
        <ele>126.2</ele>
        <time>2017-12-24T10:23:14Z</time>
      </trkpt>
      <trkpt lat="62.644020355183" lon="17.872979593027">
        <ele>126.2</ele>
        <time>2017-12-24T10:23:15Z</time>
      </trkpt>
      <trkpt lat="62.644027647436" lon="17.872943886133">
        <ele>126.4</ele>
        <time>2017-12-24T10:23:16Z</time>
      </trkpt>
      <trkpt lat="62.644037957173" lon="17.872906167583">
        <ele>126.4</ele>
        <time>2017-12-24T10:23:17Z</time>
      </trkpt>
      <trkpt lat="62.644056229715" lon="17.872863000798">
        <ele>126.6</ele>
        <time>2017-12-24T10:23:18Z</time>
      </trkpt>
      <trkpt lat="62.644057989914" lon="17.87281673271">
        <ele>126.8</ele>
        <time>2017-12-24T10:23:19Z</time>
      </trkpt>
      <trkpt lat="62.644063521968" lon="17.872768872061">
        <ele>126.8</ele>
        <time>2017-12-24T10:23:20Z</time>
      </trkpt>
      <trkpt lat="62.644067712918" lon="17.87272453181">
        <ele>127</ele>
        <time>2017-12-24T10:23:21Z</time>
      </trkpt>
      <trkpt lat="62.644068299651" lon="17.872680694473">
        <ele>127.2</ele>
        <time>2017-12-24T10:23:22Z</time>
      </trkpt>
      <trkpt lat="62.644066371814" lon="17.872632163272">
        <ele>127.4</ele>
        <time>2017-12-24T10:23:23Z</time>
      </trkpt>
      <trkpt lat="62.644073161153" lon="17.872600395871">
        <ele>127.6</ele>
        <time>2017-12-24T10:23:24Z</time>
      </trkpt>
      <trkpt lat="62.64407760356" lon="17.872560162751">
        <ele>127.8</ele>
        <time>2017-12-24T10:23:25Z</time>
      </trkpt>
      <trkpt lat="62.644081375415" lon="17.872520432545">
        <ele>128</ele>
        <time>2017-12-24T10:23:26Z</time>
      </trkpt>
      <trkpt lat="62.644082800338" lon="17.872476343751">
        <ele>128.4</ele>
        <time>2017-12-24T10:23:27Z</time>
      </trkpt>
      <trkpt lat="62.644083722347" lon="17.872429237473">
        <ele>128.4</ele>
        <time>2017-12-24T10:23:28Z</time>
      </trkpt>
      <trkpt lat="62.6440826327" lon="17.87240518142">
        <ele>128.6</ele>
        <time>2017-12-24T10:23:29Z</time>
      </trkpt>
      <trkpt lat="62.644083722347" lon="17.872327481207">
        <ele>128.8</ele>
        <time>2017-12-24T10:23:30Z</time>
      </trkpt>
      <trkpt lat="62.644081626872" lon="17.872274759056">
        <ele>128.8</ele>
        <time>2017-12-24T10:23:31Z</time>
      </trkpt>
      <trkpt lat="62.644080201949" lon="17.87221994143">
        <ele>128.8</ele>
        <time>2017-12-24T10:23:32Z</time>
      </trkpt>
      <trkpt lat="62.644079699035" lon="17.87215372442">
        <ele>128.8</ele>
        <time>2017-12-24T10:23:33Z</time>
      </trkpt>
      <trkpt lat="62.644076430094" lon="17.872109803264">
        <ele>129</ele>
        <time>2017-12-24T10:23:34Z</time>
      </trkpt>
      <trkpt lat="62.644075424266" lon="17.872041993693">
        <ele>129</ele>
        <time>2017-12-24T10:23:35Z</time>
      </trkpt>
      <trkpt lat="62.644067293823" lon="17.871992289026">
        <ele>129</ele>
        <time>2017-12-24T10:23:36Z</time>
      </trkpt>
      <trkpt lat="62.644058911923" lon="17.871936214115">
        <ele>129</ele>
        <time>2017-12-24T10:23:37Z</time>
      </trkpt>
      <trkpt lat="62.644046841987" lon="17.87189053276">
        <ele>129.2</ele>
        <time>2017-12-24T10:23:38Z</time>
      </trkpt>
      <trkpt lat="62.644042734856" lon="17.87181593385">
        <ele>129.2</ele>
        <time>2017-12-24T10:23:39Z</time>
      </trkpt>
      <trkpt lat="62.644033011852" lon="17.871751644677">
        <ele>129</ele>
        <time>2017-12-24T10:23:40Z</time>
      </trkpt>
      <trkpt lat="62.644021780106" lon="17.871681488174">
        <ele>129</ele>
        <time>2017-12-24T10:23:41Z</time>
      </trkpt>
      <trkpt lat="62.644000909175" lon="17.871623066331">
        <ele>129</ele>
        <time>2017-12-24T10:23:42Z</time>
      </trkpt>
      <trkpt lat="62.64398540266" lon="17.871555340579">
        <ele>128.8</ele>
        <time>2017-12-24T10:23:43Z</time>
      </trkpt>
      <trkpt lat="62.643968722679" lon="17.87150328898">
        <ele>128.8</ele>
        <time>2017-12-24T10:23:44Z</time>
      </trkpt>
      <trkpt lat="62.64395187506" lon="17.871445872965">
        <ele>128.8</ele>
        <time>2017-12-24T10:23:45Z</time>
      </trkpt>
      <trkpt lat="62.643939469848" lon="17.871390636244">
        <ele>128.8</ele>
        <time>2017-12-24T10:23:46Z</time>
      </trkpt>
      <trkpt lat="62.643927232274" lon="17.871333639324">
        <ele>128.6</ele>
        <time>2017-12-24T10:23:47Z</time>
      </trkpt>
      <trkpt lat="62.643913150682" lon="17.871277061499">
        <ele>128.6</ele>
        <time>2017-12-24T10:23:48Z</time>
      </trkpt>
      <trkpt lat="62.643899655823" lon="17.871217214733">
        <ele>128.6</ele>
        <time>2017-12-24T10:23:49Z</time>
      </trkpt>
      <trkpt lat="62.643888004982" lon="17.871157367967">
        <ele>128.8</ele>
        <time>2017-12-24T10:23:50Z</time>
      </trkpt>
      <trkpt lat="62.64387811434" lon="17.871094503717">
        <ele>128.6</ele>
        <time>2017-12-24T10:23:51Z</time>
      </trkpt>
      <trkpt lat="62.643868558974" lon="17.871041697747">
        <ele>128.6</ele>
        <time>2017-12-24T10:23:52Z</time>
      </trkpt>
      <trkpt lat="62.643860009436" lon="17.870992244537">
        <ele>128.6</ele>
        <time>2017-12-24T10:23:53Z</time>
      </trkpt>
      <trkpt lat="62.643844922016" lon="17.87090985046">
        <ele>128.4</ele>
        <time>2017-12-24T10:23:54Z</time>
      </trkpt>
      <trkpt lat="62.643830253691" lon="17.870842627622">
        <ele>128.4</ele>
        <time>2017-12-24T10:23:55Z</time>
      </trkpt>
      <trkpt lat="62.643815669185" lon="17.870774231318">
        <ele>128.6</ele>
        <time>2017-12-24T10:23:56Z</time>
      </trkpt>
      <trkpt lat="62.643803683068" lon="17.870708936317">
        <ele>128.6</ele>
        <time>2017-12-24T10:23:57Z</time>
      </trkpt>
      <trkpt lat="62.643792870417" lon="17.870643808954">
        <ele>128.6</ele>
        <time>2017-12-24T10:23:58Z</time>
      </trkpt>
      <trkpt lat="62.643786164897" lon="17.870573820089">
        <ele>128.4</ele>
        <time>2017-12-24T10:23:59Z</time>
      </trkpt>
      <trkpt lat="62.643777782997" lon="17.870501149016">
        <ele>128.6</ele>
        <time>2017-12-24T10:24:00Z</time>
      </trkpt>
      <trkpt lat="62.643771496572" lon="17.870425879554">
        <ele>128.6</ele>
        <time>2017-12-24T10:24:01Z</time>
      </trkpt>
      <trkpt lat="62.643764455776" lon="17.870352537929">
        <ele>128.6</ele>
        <time>2017-12-24T10:24:02Z</time>
      </trkpt>
      <trkpt lat="62.643757163523" lon="17.870277771381">
        <ele>128.4</ele>
        <time>2017-12-24T10:24:03Z</time>
      </trkpt>
      <trkpt lat="62.64374651851" lon="17.870205016489">
        <ele>128.6</ele>
        <time>2017-12-24T10:24:04Z</time>
      </trkpt>
      <trkpt lat="62.643740148266" lon="17.870128070647">
        <ele>128.6</ele>
        <time>2017-12-24T10:24:05Z</time>
      </trkpt>
      <trkpt lat="62.643736124954" lon="17.870058836153">
        <ele>128.4</ele>
        <time>2017-12-24T10:24:06Z</time>
      </trkpt>
      <trkpt lat="62.643736795506" lon="17.869989853116">
        <ele>128.4</ele>
        <time>2017-12-24T10:24:07Z</time>
      </trkpt>
      <trkpt lat="62.643739142438" lon="17.869922043545">
        <ele>128.4</ele>
        <time>2017-12-24T10:24:08Z</time>
      </trkpt>
      <trkpt lat="62.643737885153" lon="17.86985373106">
        <ele>128.2</ele>
        <time>2017-12-24T10:24:09Z</time>
      </trkpt>
      <trkpt lat="62.643740567361" lon="17.869787681688">
        <ele>128.4</ele>
        <time>2017-12-24T10:24:10Z</time>
      </trkpt>
      <trkpt lat="62.643747189062" lon="17.869729259845">
        <ele>128.4</ele>
        <time>2017-12-24T10:24:11Z</time>
      </trkpt>
      <trkpt lat="62.64375490041" lon="17.869666144138">
        <ele>128.4</ele>
        <time>2017-12-24T10:24:12Z</time>
      </trkpt>
      <trkpt lat="62.643762360301" lon="17.86960897958">
        <ele>128.4</ele>
        <time>2017-12-24T10:24:13Z</time>
      </trkpt>
      <trkpt lat="62.643771748029" lon="17.869545612416">
        <ele>128.6</ele>
        <time>2017-12-24T10:24:14Z</time>
      </trkpt>
      <trkpt lat="62.643779962291" lon="17.869480317415">
        <ele>128.4</ele>
        <time>2017-12-24T10:24:15Z</time>
      </trkpt>
      <trkpt lat="62.643786667811" lon="17.86940865217">
        <ele>128.4</ele>
        <time>2017-12-24T10:24:16Z</time>
      </trkpt>
      <trkpt lat="62.643792199865" lon="17.869345452644">
        <ele>128.4</ele>
        <time>2017-12-24T10:24:17Z</time>
      </trkpt>
      <trkpt lat="62.643797312824" lon="17.869285270602">
        <ele>128.4</ele>
        <time>2017-12-24T10:24:18Z</time>
      </trkpt>
      <trkpt lat="62.643800246489" lon="17.869216874298">
        <ele>128.4</ele>
        <time>2017-12-24T10:24:19Z</time>
      </trkpt>
      <trkpt lat="62.643802509602" lon="17.869158117179">
        <ele>128.4</ele>
        <time>2017-12-24T10:24:20Z</time>
      </trkpt>
      <trkpt lat="62.64380351543" lon="17.869105311209">
        <ele>128.2</ele>
        <time>2017-12-24T10:24:21Z</time>
      </trkpt>
      <trkpt lat="62.643803263973" lon="17.86905325961">
        <ele>128.2</ele>
        <time>2017-12-24T10:24:22Z</time>
      </trkpt>
      <trkpt lat="62.643802006688" lon="17.86900296821">
        <ele>128.2</ele>
        <time>2017-12-24T10:24:23Z</time>
      </trkpt>
      <trkpt lat="62.643798402471" lon="17.868951084249">
        <ele>128.2</ele>
        <time>2017-12-24T10:24:24Z</time>
      </trkpt>
      <trkpt lat="62.643793540969" lon="17.868893835872">
        <ele>128.4</ele>
        <time>2017-12-24T10:24:25Z</time>
      </trkpt>
      <trkpt lat="62.643788595648" lon="17.868836922771">
        <ele>128.4</ele>
        <time>2017-12-24T10:24:26Z</time>
      </trkpt>
      <trkpt lat="62.643783734146" lon="17.868776824548">
        <ele>128.6</ele>
        <time>2017-12-24T10:24:27Z</time>
      </trkpt>
      <trkpt lat="62.643778872644" lon="17.868715301402">
        <ele>128.8</ele>
        <time>2017-12-24T10:24:28Z</time>
      </trkpt>
      <trkpt lat="62.643781890128" lon="17.868657885387">
        <ele>128.8</ele>
        <time>2017-12-24T10:24:29Z</time>
      </trkpt>
      <trkpt lat="62.643767892355" lon="17.868558559872">
        <ele>128.8</ele>
        <time>2017-12-24T10:24:30Z</time>
      </trkpt>
      <trkpt lat="62.643754984229" lon="17.868469711732">
        <ele>128.8</ele>
        <time>2017-12-24T10:24:31Z</time>
      </trkpt>
      <trkpt lat="62.643739729171" lon="17.868387401474">
        <ele>128.8</ele>
        <time>2017-12-24T10:24:32Z</time>
      </trkpt>
      <trkpt lat="62.64372388738" lon="17.868304169207">
        <ele>128.8</ele>
        <time>2017-12-24T10:24:33Z</time>
      </trkpt>
      <trkpt lat="62.643715337842" lon="17.868233006876">
        <ele>128.4</ele>
        <time>2017-12-24T10:24:34Z</time>
      </trkpt>
      <trkpt lat="62.64370460901" lon="17.868159413794">
        <ele>128.4</ele>
        <time>2017-12-24T10:24:35Z</time>
      </trkpt>
      <trkpt lat="62.643693628721" lon="17.8680985612">
        <ele>128.2</ele>
        <time>2017-12-24T10:24:36Z</time>
      </trkpt>
      <trkpt lat="62.643688599581" lon="17.86801641858">
        <ele>127.8</ele>
        <time>2017-12-24T10:24:37Z</time>
      </trkpt>
      <trkpt lat="62.643683235165" lon="17.867937963996">
        <ele>127.8</ele>
        <time>2017-12-24T10:24:38Z</time>
      </trkpt>
      <trkpt lat="62.643678876577" lon="17.867860934335">
        <ele>127.8</ele>
        <time>2017-12-24T10:24:39Z</time>
      </trkpt>
      <trkpt lat="62.643668231564" lon="17.867783737036">
        <ele>127.8</ele>
        <time>2017-12-24T10:24:40Z</time>
      </trkpt>
      <trkpt lat="62.643657251275" lon="17.867707461746">
        <ele>127.8</ele>
        <time>2017-12-24T10:24:41Z</time>
      </trkpt>
      <trkpt lat="62.643634284869" lon="17.867658762907">
        <ele>127.8</ele>
        <time>2017-12-24T10:24:42Z</time>
      </trkpt>
      <trkpt lat="62.643612994843" lon="17.86759816177">
        <ele>127.8</ele>
        <time>2017-12-24T10:24:43Z</time>
      </trkpt>
      <trkpt lat="62.643592123912" lon="17.867516522064">
        <ele>127.8</ele>
        <time>2017-12-24T10:24:44Z</time>
      </trkpt>
      <trkpt lat="62.643568486954" lon="17.867445024457">
        <ele>127.8</ele>
        <time>2017-12-24T10:24:45Z</time>
      </trkpt>
      <trkpt lat="62.643535462268" lon="17.867424824078">
        <ele>127.6</ele>
        <time>2017-12-24T10:24:46Z</time>
      </trkpt>
      <trkpt lat="62.643512495862" lon="17.867394146324">
        <ele>127.4</ele>
        <time>2017-12-24T10:24:47Z</time>
      </trkpt>
      <trkpt lat="62.643481063737" lon="17.867358690887">
        <ele>127.4</ele>
        <time>2017-12-24T10:24:48Z</time>
      </trkpt>
      <trkpt lat="62.643462791195" lon="17.867348632607">
        <ele>127.4</ele>
        <time>2017-12-24T10:24:49Z</time>
      </trkpt>
      <trkpt lat="62.643441836445" lon="17.867337903775">
        <ele>127.2</ele>
        <time>2017-12-24T10:24:50Z</time>
      </trkpt>
      <trkpt lat="62.643421133152" lon="17.867326672029">
        <ele>127.4</ele>
        <time>2017-12-24T10:24:51Z</time>
      </trkpt>
      <trkpt lat="62.643401351868" lon="17.86731736812">
        <ele>127.4</ele>
        <time>2017-12-24T10:24:52Z</time>
      </trkpt>
      <trkpt lat="62.64338106767" lon="17.867304627632">
        <ele>127.4</ele>
        <time>2017-12-24T10:24:53Z</time>
      </trkpt>
      <trkpt lat="62.643356173427" lon="17.867290881316">
        <ele>127.4</ele>
        <time>2017-12-24T10:24:54Z</time>
      </trkpt>
      <trkpt lat="62.643339409627" lon="17.867286103633">
        <ele>127.6</ele>
        <time>2017-12-24T10:24:55Z</time>
      </trkpt>
      <trkpt lat="62.643321807637" lon="17.867274117516">
        <ele>127.6</ele>
        <time>2017-12-24T10:24:56Z</time>
      </trkpt>
      <trkpt lat="62.643300685249" lon="17.867260455019">
        <ele>127.8</ele>
        <time>2017-12-24T10:24:57Z</time>
      </trkpt>
      <trkpt lat="62.643279562861" lon="17.867250564377">
        <ele>128</ele>
        <time>2017-12-24T10:24:58Z</time>
      </trkpt>
      <trkpt lat="62.643269504581" lon="17.867240841373">
        <ele>128</ele>
        <time>2017-12-24T10:24:59Z</time>
      </trkpt>
      <trkpt lat="62.643235976981" lon="17.867221982098">
        <ele>128</ele>
        <time>2017-12-24T10:25:00Z</time>
      </trkpt>
      <trkpt lat="62.643205718322" lon="17.867221395365">
        <ele>128</ele>
        <time>2017-12-24T10:25:01Z</time>
      </trkpt>
      <trkpt lat="62.643178728604" lon="17.867213013465">
        <ele>128.2</ele>
        <time>2017-12-24T10:25:02Z</time>
      </trkpt>
      <trkpt lat="62.643150900696" lon="17.867205385936">
        <ele>128.2</ele>
        <time>2017-12-24T10:25:03Z</time>
      </trkpt>
      <trkpt lat="62.643125922634" lon="17.867186359023">
        <ele>128.2</ele>
        <time>2017-12-24T10:25:04Z</time>
      </trkpt>
      <trkpt lat="62.643097172717" lon="17.867166996834">
        <ele>128.2</ele>
        <time>2017-12-24T10:25:05Z</time>
      </trkpt>
      <trkpt lat="62.643066914058" lon="17.867152663785">
        <ele>128.4</ele>
        <time>2017-12-24T10:25:06Z</time>
      </trkpt>
      <trkpt lat="62.643034559924" lon="17.867136905813">
        <ele>128.4</ele>
        <time>2017-12-24T10:25:07Z</time>
      </trkpt>
      <trkpt lat="62.642996254641" lon="17.8671178789">
        <ele>128.4</ele>
        <time>2017-12-24T10:25:08Z</time>
      </trkpt>
      <trkpt lat="62.642953004037" lon="17.867103797308">
        <ele>128.4</ele>
        <time>2017-12-24T10:25:09Z</time>
      </trkpt>
      <trkpt lat="62.642909753433" lon="17.867095499227">
        <ele>128.4</ele>
        <time>2017-12-24T10:25:10Z</time>
      </trkpt>
      <trkpt lat="62.642867005743" lon="17.867088290793">
        <ele>128</ele>
        <time>2017-12-24T10:25:11Z</time>
      </trkpt>
      <trkpt lat="62.642820737655" lon="17.867101198919">
        <ele>127.2</ele>
        <time>2017-12-24T10:25:12Z</time>
      </trkpt>
      <trkpt lat="62.64278176182" lon="17.867108742629">
        <ele>126.8</ele>
        <time>2017-12-24T10:25:13Z</time>
      </trkpt>
      <trkpt lat="62.642739433225" lon="17.867128356275">
        <ele>125.8</ele>
        <time>2017-12-24T10:25:14Z</time>
      </trkpt>
      <trkpt lat="62.642701211761" lon="17.867142270229">
        <ele>125.4</ele>
        <time>2017-12-24T10:25:15Z</time>
      </trkpt>
      <trkpt lat="62.642663157935" lon="17.867170936327">
        <ele>125.4</ele>
        <time>2017-12-24T10:25:16Z</time>
      </trkpt>
      <trkpt lat="62.64262669667" lon="17.867188035403">
        <ele>125.4</ele>
        <time>2017-12-24T10:25:17Z</time>
      </trkpt>
      <trkpt lat="62.642594929269" lon="17.867205134479">
        <ele>125.6</ele>
        <time>2017-12-24T10:25:18Z</time>
      </trkpt>
      <trkpt lat="62.642552013941" lon="17.867223909935">
        <ele>125.6</ele>
        <time>2017-12-24T10:25:19Z</time>
      </trkpt>
      <trkpt lat="62.642512954287" lon="17.867241847201">
        <ele>125.8</ele>
        <time>2017-12-24T10:25:20Z</time>
      </trkpt>
      <trkpt lat="62.642471212425" lon="17.867252576033">
        <ele>125.6</ele>
        <time>2017-12-24T10:25:21Z</time>
      </trkpt>
      <trkpt lat="62.642427458907" lon="17.867249642368">
        <ele>125.4</ele>
        <time>2017-12-24T10:25:22Z</time>
      </trkpt>
      <trkpt lat="62.642381526095" lon="17.867241176649">
        <ele>125.4</ele>
        <time>2017-12-24T10:25:23Z</time>
      </trkpt>
      <trkpt lat="62.642328552487" lon="17.867217958786">
        <ele>125.2</ele>
        <time>2017-12-24T10:25:24Z</time>
      </trkpt>
      <trkpt lat="62.642274573051" lon="17.867197926045">
        <ele>125.2</ele>
        <time>2017-12-24T10:25:25Z</time>
      </trkpt>
      <trkpt lat="62.642216989398" lon="17.867177558028">
        <ele>125</ele>
        <time>2017-12-24T10:25:26Z</time>
      </trkpt>
      <trkpt lat="62.642154879519" lon="17.867160039857">
        <ele>124.6</ele>
        <time>2017-12-24T10:25:27Z</time>
      </trkpt>
      <trkpt lat="62.642093021097" lon="17.867142773143">
        <ele>124.6</ele>
        <time>2017-12-24T10:25:28Z</time>
      </trkpt>
      <trkpt lat="62.642023954241" lon="17.867123075678">
        <ele>124</ele>
        <time>2017-12-24T10:25:29Z</time>
      </trkpt>
      <trkpt lat="62.641943404182" lon="17.867101785652">
        <ele>123.2</ele>
        <time>2017-12-24T10:25:30Z</time>
      </trkpt>
      <trkpt lat="62.641855813327" lon="17.867085860042">
        <ele>122.2</ele>
        <time>2017-12-24T10:25:31Z</time>
      </trkpt>
      <trkpt lat="62.641785656824" lon="17.8670759694">
        <ele>121</ele>
        <time>2017-12-24T10:25:32Z</time>
      </trkpt>
      <trkpt lat="62.641724468954" lon="17.867065408206">
        <ele>119.6</ele>
        <time>2017-12-24T10:25:33Z</time>
      </trkpt>
      <trkpt lat="62.641661185609" lon="17.867051578071">
        <ele>118.4</ele>
        <time>2017-12-24T10:25:34Z</time>
      </trkpt>
      <trkpt lat="62.64160913401" lon="17.867033473167">
        <ele>117.6</ele>
        <time>2017-12-24T10:25:35Z</time>
      </trkpt>
      <trkpt lat="62.641554903117" lon="17.867009668571">
        <ele>117</ele>
        <time>2017-12-24T10:25:36Z</time>
      </trkpt>
      <trkpt lat="62.641504108803" lon="17.866985612518">
        <ele>116.6</ele>
        <time>2017-12-24T10:25:37Z</time>
      </trkpt>
      <trkpt lat="62.641452560118" lon="17.866959796266">
        <ele>116.6</ele>
        <time>2017-12-24T10:25:38Z</time>
      </trkpt>
      <trkpt lat="62.641404196555" lon="17.866932471272">
        <ele>116.2</ele>
        <time>2017-12-24T10:25:39Z</time>
      </trkpt>
      <trkpt lat="62.641351977318" lon="17.866904308088">
        <ele>116.2</ele>
        <time>2017-12-24T10:25:40Z</time>
      </trkpt>
      <trkpt lat="62.64130151828" lon="17.866873714153">
        <ele>116.2</ele>
        <time>2017-12-24T10:25:41Z</time>
      </trkpt>
      <trkpt lat="62.641263715911" lon="17.866847311168">
        <ele>116.2</ele>
        <time>2017-12-24T10:25:42Z</time>
      </trkpt>
      <trkpt lat="62.641225829723" lon="17.86682115964">
        <ele>116</ele>
        <time>2017-12-24T10:25:43Z</time>
      </trkpt>
      <trkpt lat="62.641185093689" lon="17.866800540166">
        <ele>116</ele>
        <time>2017-12-24T10:25:44Z</time>
      </trkpt>
      <trkpt lat="62.64114310037" lon="17.866783692547">
        <ele>115.8</ele>
        <time>2017-12-24T10:25:45Z</time>
      </trkpt>
      <trkpt lat="62.641096413187" lon="17.866781597072">
        <ele>115.6</ele>
        <time>2017-12-24T10:25:46Z</time>
      </trkpt>
      <trkpt lat="62.641052743488" lon="17.866792996456">
        <ele>115.6</ele>
        <time>2017-12-24T10:25:47Z</time>
      </trkpt>
      <trkpt lat="62.641012761825" lon="17.866804312021">
        <ele>115.4</ele>
        <time>2017-12-24T10:25:48Z</time>
      </trkpt>
      <trkpt lat="62.64096288952" lon="17.866831720834">
        <ele>115</ele>
        <time>2017-12-24T10:25:49Z</time>
      </trkpt>
      <trkpt lat="62.640919890373" lon="17.866864326425">
        <ele>114.8</ele>
        <time>2017-12-24T10:25:50Z</time>
      </trkpt>
      <trkpt lat="62.640876639769" lon="17.866896010007">
        <ele>114.4</ele>
        <time>2017-12-24T10:25:51Z</time>
      </trkpt>
      <trkpt lat="62.640835149364" lon="17.866916880938">
        <ele>114</ele>
        <time>2017-12-24T10:25:52Z</time>
      </trkpt>
      <trkpt lat="62.640797011719" lon="17.866931130168">
        <ele>113.6</ele>
        <time>2017-12-24T10:25:53Z</time>
      </trkpt>
      <trkpt lat="62.64076256211" lon="17.866909085771">
        <ele>113.4</ele>
        <time>2017-12-24T10:25:54Z</time>
      </trkpt>
      <trkpt lat="62.640732554908" lon="17.866879749121">
        <ele>113.2</ele>
        <time>2017-12-24T10:25:55Z</time>
      </trkpt>
      <trkpt lat="62.64070807976" lon="17.866838007259">
        <ele>112.8</ele>
        <time>2017-12-24T10:25:56Z</time>
      </trkpt>
      <trkpt lat="62.640686789734" lon="17.866780507425">
        <ele>112.6</ele>
        <time>2017-12-24T10:25:57Z</time>
      </trkpt>
      <trkpt lat="62.640667762821" lon="17.866718229908">
        <ele>112.4</ele>
        <time>2017-12-24T10:25:58Z</time>
      </trkpt>
      <trkpt lat="62.640655525247" lon="17.866643882455">
        <ele>111.8</ele>
        <time>2017-12-24T10:25:59Z</time>
      </trkpt>
      <trkpt lat="62.640646221338" lon="17.866553357935">
        <ele>111.2</ele>
        <time>2017-12-24T10:26:00Z</time>
      </trkpt>
      <trkpt lat="62.640652843039" lon="17.86645319423">
        <ele>110.6</ele>
        <time>2017-12-24T10:26:01Z</time>
      </trkpt>
      <trkpt lat="62.640663907147" lon="17.8663718898">
        <ele>110</ele>
        <time>2017-12-24T10:26:02Z</time>
      </trkpt>
      <trkpt lat="62.640677402006" lon="17.866300308374">
        <ele>109.6</ele>
        <time>2017-12-24T10:26:03Z</time>
      </trkpt>
      <trkpt lat="62.640692237969" lon="17.866246915671">
        <ele>109</ele>
        <time>2017-12-24T10:26:04Z</time>
      </trkpt>
      <trkpt lat="62.640705229914" lon="17.866209783854">
        <ele>108.8</ele>
        <time>2017-12-24T10:26:05Z</time>
      </trkpt>
      <trkpt lat="62.640717886583" lon="17.866177848815">
        <ele>108.6</ele>
        <time>2017-12-24T10:26:06Z</time>
      </trkpt>
      <trkpt lat="62.640728280139" lon="17.866148512165">
        <ele>108.6</ele>
        <time>2017-12-24T10:26:07Z</time>
      </trkpt>
      <trkpt lat="62.640739008971" lon="17.8661204328">
        <ele>108.6</ele>
        <time>2017-12-24T10:26:08Z</time>
      </trkpt>
      <trkpt lat="62.640739511885" lon="17.86608606701">
        <ele>108.6</ele>
        <time>2017-12-24T10:26:09Z</time>
      </trkpt>
      <trkpt lat="62.64074160736" lon="17.8660617595">
        <ele>108.8</ele>
        <time>2017-12-24T10:26:10Z</time>
      </trkpt>
      <trkpt lat="62.640744289568" lon="17.866043403139">
        <ele>108.8</ele>
        <time>2017-12-24T10:26:11Z</time>
      </trkpt>
      <trkpt lat="62.640745211577" lon="17.866033680135">
        <ele>108.8</ele>
        <time>2017-12-24T10:26:12Z</time>
      </trkpt>
      <trkpt lat="62.640748564337" lon="17.866028399538">
        <ele>108.8</ele>
        <time>2017-12-24T10:26:13Z</time>
      </trkpt>
      <trkpt lat="62.640750156898" lon="17.866022196932">
        <ele>108.6</ele>
        <time>2017-12-24T10:26:14Z</time>
      </trkpt>
      <trkpt lat="62.640947634462" lon="17.865430267154">
        <ele>102.8</ele>
        <time>2017-12-24T10:27:18Z</time>
      </trkpt>
      <trkpt lat="62.640994070188" lon="17.8653157704">
        <ele>102.2</ele>
        <time>2017-12-24T10:27:19Z</time>
      </trkpt>
      <trkpt lat="62.641036063507" lon="17.865209571727">
        <ele>101.6</ele>
        <time>2017-12-24T10:27:20Z</time>
      </trkpt>
      <trkpt lat="62.641080319939" lon="17.865094572059">
        <ele>100.8</ele>
        <time>2017-12-24T10:27:21Z</time>
      </trkpt>
      <trkpt lat="62.641122397077" lon="17.864985439721">
        <ele>100</ele>
        <time>2017-12-24T10:27:22Z</time>
      </trkpt>
      <trkpt lat="62.64116321693" lon="17.864887706767">
        <ele>98.8</ele>
        <time>2017-12-24T10:27:23Z</time>
      </trkpt>
      <trkpt lat="62.641208982104" lon="17.864790476727">
        <ele>97.4</ele>
        <time>2017-12-24T10:27:24Z</time>
      </trkpt>
      <trkpt lat="62.641249969595" lon="17.864714871989">
        <ele>96</ele>
        <time>2017-12-24T10:27:25Z</time>
      </trkpt>
      <trkpt lat="62.641294896579" lon="17.864653767938">
        <ele>95</ele>
        <time>2017-12-24T10:27:26Z</time>
      </trkpt>
      <trkpt lat="62.641341164667" lon="17.864603225081">
        <ele>94.6</ele>
        <time>2017-12-24T10:27:27Z</time>
      </trkpt>
      <trkpt lat="62.641382152158" lon="17.864574726621">
        <ele>94.2</ele>
        <time>2017-12-24T10:27:28Z</time>
      </trkpt>
      <trkpt lat="62.641408555143" lon="17.864571876775">
        <ele>93.8</ele>
        <time>2017-12-24T10:27:29Z</time>
      </trkpt>
      <trkpt lat="62.64143227592" lon="17.864575983906">
        <ele>93.8</ele>
        <time>2017-12-24T10:27:30Z</time>
      </trkpt>
      <trkpt lat="62.641470748841" lon="17.864571122404">
        <ele>94.2</ele>
        <time>2017-12-24T10:27:31Z</time>
      </trkpt>
      <trkpt lat="62.641492206505" lon="17.864572463508">
        <ele>94.4</ele>
        <time>2017-12-24T10:27:32Z</time>
      </trkpt>
      <trkpt lat="62.641508215934" lon="17.864577827924">
        <ele>94.6</ele>
        <time>2017-12-24T10:27:33Z</time>
      </trkpt>
      <trkpt lat="62.641523051897" lon="17.864579252847">
        <ele>94.8</ele>
        <time>2017-12-24T10:27:34Z</time>
      </trkpt>
      <trkpt lat="62.641536630575" lon="17.864583779073">
        <ele>95.2</ele>
        <time>2017-12-24T10:27:35Z</time>
      </trkpt>
      <trkpt lat="62.641551801814" lon="17.864579420485">
        <ele>95.6</ele>
        <time>2017-12-24T10:27:36Z</time>
      </trkpt>
      <trkpt lat="62.641564123207" lon="17.864589646403">
        <ele>95.8</ele>
        <time>2017-12-24T10:27:37Z</time>
      </trkpt>
      <trkpt lat="62.641574097668" lon="17.864603979452">
        <ele>96</ele>
        <time>2017-12-24T10:27:38Z</time>
      </trkpt>
      <trkpt lat="62.641584910319" lon="17.864592580068">
        <ele>96.4</ele>
        <time>2017-12-24T10:27:39Z</time>
      </trkpt>
      <trkpt lat="62.641596393522" lon="17.86459744157">
        <ele>96.6</ele>
        <time>2017-12-24T10:27:40Z</time>
      </trkpt>
      <trkpt lat="62.641606787078" lon="17.864598866493">
        <ele>97</ele>
        <time>2017-12-24T10:27:41Z</time>
      </trkpt>
      <trkpt lat="62.641618940833" lon="17.864599620864">
        <ele>97.2</ele>
        <time>2017-12-24T10:27:42Z</time>
      </trkpt>
      <trkpt lat="62.641630256398" lon="17.86460749985">
        <ele>97.4</ele>
        <time>2017-12-24T10:27:43Z</time>
      </trkpt>
      <trkpt lat="62.641649534768" lon="17.864597190113">
        <ele>97.6</ele>
        <time>2017-12-24T10:27:44Z</time>
      </trkpt>
      <trkpt lat="62.641662861989" lon="17.864603895633">
        <ele>97.8</ele>
        <time>2017-12-24T10:27:45Z</time>
      </trkpt>
      <trkpt lat="62.641675183382" lon="17.864602805986">
        <ele>98</ele>
        <time>2017-12-24T10:27:46Z</time>
      </trkpt>
      <trkpt lat="62.641688845879" lon="17.864596351923">
        <ele>98.2</ele>
        <time>2017-12-24T10:27:47Z</time>
      </trkpt>
      <trkpt lat="62.641702843652" lon="17.864600039959">
        <ele>98.2</ele>
        <time>2017-12-24T10:27:48Z</time>
      </trkpt>
      <trkpt lat="62.64170971681" lon="17.864601548701">
        <ele>98.6</ele>
        <time>2017-12-24T10:27:49Z</time>
      </trkpt>
      <trkpt lat="62.641717679615" lon="17.864597357751">
        <ele>98.6</ele>
        <time>2017-12-24T10:27:50Z</time>
      </trkpt>
      <trkpt lat="62.641730084827" lon="17.864602889805">
        <ele>98.8</ele>
        <time>2017-12-24T10:27:51Z</time>
      </trkpt>
      <trkpt lat="62.64173989165" lon="17.864601213425">
        <ele>98.8</ele>
        <time>2017-12-24T10:27:52Z</time>
      </trkpt>
      <trkpt lat="62.641750620482" lon="17.864594256448">
        <ele>99</ele>
        <time>2017-12-24T10:27:53Z</time>
      </trkpt>
      <trkpt lat="62.641762355142" lon="17.864606745479">
        <ele>99.2</ele>
        <time>2017-12-24T10:27:54Z</time>
      </trkpt>
      <trkpt lat="62.641772916336" lon="17.86461504356">
        <ele>99.2</ele>
        <time>2017-12-24T10:27:55Z</time>
      </trkpt>
      <trkpt lat="62.641782806978" lon="17.864614540646">
        <ele>99.4</ele>
        <time>2017-12-24T10:27:56Z</time>
      </trkpt>
      <trkpt lat="62.641793368172" lon="17.864607667488">
        <ele>99.4</ele>
        <time>2017-12-24T10:27:57Z</time>
      </trkpt>
      <trkpt lat="62.64179940314" lon="17.864618647777">
        <ele>99.6</ele>
        <time>2017-12-24T10:27:58Z</time>
      </trkpt>
      <trkpt lat="62.641803929366" lon="17.864609008592">
        <ele>100</ele>
        <time>2017-12-24T10:27:59Z</time>
      </trkpt>
      <trkpt lat="62.641815580207" lon="17.864611104067">
        <ele>100.4</ele>
        <time>2017-12-24T10:28:00Z</time>
      </trkpt>
      <trkpt lat="62.641827817781" lon="17.864598531217">
        <ele>100.6</ele>
        <time>2017-12-24T10:28:01Z</time>
      </trkpt>
      <trkpt lat="62.641840558269" lon="17.864590484593">
        <ele>101</ele>
        <time>2017-12-24T10:28:02Z</time>
      </trkpt>
      <trkpt lat="62.641852963481" lon="17.864592580068">
        <ele>101.2</ele>
        <time>2017-12-24T10:28:03Z</time>
      </trkpt>
      <trkpt lat="62.641860088096" lon="17.86459325062">
        <ele>101.4</ele>
        <time>2017-12-24T10:28:04Z</time>
      </trkpt>
      <trkpt lat="62.641870062557" lon="17.864588472937">
        <ele>101.6</ele>
        <time>2017-12-24T10:28:05Z</time>
      </trkpt>
      <trkpt lat="62.641871822756" lon="17.864590987507">
        <ele>101.6</ele>
        <time>2017-12-24T10:28:06Z</time>
      </trkpt>
      <trkpt lat="62.64189076585" lon="17.864597106294">
        <ele>101.8</ele>
        <time>2017-12-24T10:28:07Z</time>
      </trkpt>
      <trkpt lat="62.641901578501" lon="17.86459241243">
        <ele>102</ele>
        <time>2017-12-24T10:28:08Z</time>
      </trkpt>
      <trkpt lat="62.641904009252" lon="17.864602889805">
        <ele>102.2</ele>
        <time>2017-12-24T10:28:09Z</time>
      </trkpt>
      <trkpt lat="62.641913229342" lon="17.864597609208">
        <ele>102.4</ele>
        <time>2017-12-24T10:28:10Z</time>
      </trkpt>
      <trkpt lat="62.641923874355" lon="17.864590149317">
        <ele>102.6</ele>
        <time>2017-12-24T10:28:11Z</time>
      </trkpt>
      <trkpt lat="62.641934100273" lon="17.864586377462">
        <ele>102.8</ele>
        <time>2017-12-24T10:28:12Z</time>
      </trkpt>
      <trkpt lat="62.641945080562" lon="17.864583946711">
        <ele>103</ele>
        <time>2017-12-24T10:28:13Z</time>
      </trkpt>
      <trkpt lat="62.64195279191" lon="17.864573385517">
        <ele>103.2</ele>
        <time>2017-12-24T10:28:14Z</time>
      </trkpt>
      <trkpt lat="62.64195614467" lon="17.864570451852">
        <ele>103.4</ele>
        <time>2017-12-24T10:28:15Z</time>
      </trkpt>
      <trkpt lat="62.641963269285" lon="17.864564333065">
        <ele>103.6</ele>
        <time>2017-12-24T10:28:16Z</time>
      </trkpt>
      <trkpt lat="62.641971483547" lon="17.864562740504">
        <ele>103.6</ele>
        <time>2017-12-24T10:28:17Z</time>
      </trkpt>
      <trkpt lat="62.641981122732" lon="17.864560812667">
        <ele>103.6</ele>
        <time>2017-12-24T10:28:18Z</time>
      </trkpt>
      <trkpt lat="62.641986738605" lon="17.864562321409">
        <ele>103.8</ele>
        <time>2017-12-24T10:28:19Z</time>
      </trkpt>
      <trkpt lat="62.641992605935" lon="17.864560058296">
        <ele>104</ele>
        <time>2017-12-24T10:28:20Z</time>
      </trkpt>
      <trkpt lat="62.642001993663" lon="17.864554861518">
        <ele>104.4</ele>
        <time>2017-12-24T10:28:21Z</time>
      </trkpt>
      <trkpt lat="62.64201146521" lon="17.86455134112">
        <ele>104.6</ele>
        <time>2017-12-24T10:28:22Z</time>
      </trkpt>
      <trkpt lat="62.642020182386" lon="17.864550419111">
        <ele>104.8</ele>
        <time>2017-12-24T10:28:23Z</time>
      </trkpt>
      <trkpt lat="62.642029402476" lon="17.86454966474">
        <ele>105.2</ele>
        <time>2017-12-24T10:28:24Z</time>
      </trkpt>
      <trkpt lat="62.642037868195" lon="17.864547653084">
        <ele>105.2</ele>
        <time>2017-12-24T10:28:25Z</time>
      </trkpt>
      <trkpt lat="62.64204415462" lon="17.864547066351">
        <ele>105.4</ele>
        <time>2017-12-24T10:28:26Z</time>
      </trkpt>
      <trkpt lat="62.642050273407" lon="17.864545892885">
        <ele>105.4</ele>
        <time>2017-12-24T10:28:27Z</time>
      </trkpt>
      <trkpt lat="62.642061002239" lon="17.86454379741">
        <ele>105.6</ele>
        <time>2017-12-24T10:28:28Z</time>
      </trkpt>
      <trkpt lat="62.642068881225" lon="17.864541785754">
        <ele>105.8</ele>
        <time>2017-12-24T10:28:29Z</time>
      </trkpt>
      <trkpt lat="62.642078017496" lon="17.864542204849">
        <ele>106</ele>
        <time>2017-12-24T10:28:30Z</time>
      </trkpt>
      <trkpt lat="62.642081370256" lon="17.864545809066">
        <ele>106.2</ele>
        <time>2017-12-24T10:28:31Z</time>
      </trkpt>
      <trkpt lat="62.642089081604" lon="17.864544132686">
        <ele>106.4</ele>
        <time>2017-12-24T10:28:32Z</time>
      </trkpt>
      <trkpt lat="62.6420961224" lon="17.864542875401">
        <ele>106.6</ele>
        <time>2017-12-24T10:28:33Z</time>
      </trkpt>
      <trkpt lat="62.642109030526" lon="17.864540277012">
        <ele>106.6</ele>
        <time>2017-12-24T10:28:34Z</time>
      </trkpt>
      <trkpt lat="62.642119004987" lon="17.864539941736">
        <ele>106.8</ele>
        <time>2017-12-24T10:28:35Z</time>
      </trkpt>
      <trkpt lat="62.642120765186" lon="17.864538181537">
        <ele>107</ele>
        <time>2017-12-24T10:28:36Z</time>
      </trkpt>
      <trkpt lat="62.642127889801" lon="17.864534158225">
        <ele>107.2</ele>
        <time>2017-12-24T10:28:37Z</time>
      </trkpt>
      <trkpt lat="62.64213384095" lon="17.864531559836">
        <ele>107.2</ele>
        <time>2017-12-24T10:28:38Z</time>
      </trkpt>
      <trkpt lat="62.64214389923" lon="17.864527620343">
        <ele>107.6</ele>
        <time>2017-12-24T10:28:39Z</time>
      </trkpt>
      <trkpt lat="62.642150772388" lon="17.864525273411">
        <ele>107.6</ele>
        <time>2017-12-24T10:28:40Z</time>
      </trkpt>
      <trkpt lat="62.642156807356" lon="17.864521920651">
        <ele>108</ele>
        <time>2017-12-24T10:28:41Z</time>
      </trkpt>
      <trkpt lat="62.642163429057" lon="17.864515969502">
        <ele>108.2</ele>
        <time>2017-12-24T10:28:42Z</time>
      </trkpt>
      <trkpt lat="62.642164267247" lon="17.864517729701">
        <ele>108.2</ele>
        <time>2017-12-24T10:28:43Z</time>
      </trkpt>
      <trkpt lat="62.642173152061" lon="17.864515969502">
        <ele>108.2</ele>
        <time>2017-12-24T10:28:44Z</time>
      </trkpt>
      <trkpt lat="62.642437181911" lon="17.864473976183">
        <ele>112</ele>
        <time>2017-12-24T10:29:07Z</time>
      </trkpt>
      <trkpt lat="62.642446150544" lon="17.864473054174">
        <ele>112.2</ele>
        <time>2017-12-24T10:29:08Z</time>
      </trkpt>
      <trkpt lat="62.642461657059" lon="17.864463247351">
        <ele>112.4</ele>
        <time>2017-12-24T10:29:09Z</time>
      </trkpt>
      <trkpt lat="62.642475571013" lon="17.864465259007">
        <ele>112.6</ele>
        <time>2017-12-24T10:29:10Z</time>
      </trkpt>
      <trkpt lat="62.642489317329" lon="17.864471293975">
        <ele>112.6</ele>
        <time>2017-12-24T10:29:11Z</time>
      </trkpt>
      <trkpt lat="62.642503985654" lon="17.864471126337">
        <ele>112.8</ele>
        <time>2017-12-24T10:29:12Z</time>
      </trkpt>
      <trkpt lat="62.642515636495" lon="17.864465259007">
        <ele>113</ele>
        <time>2017-12-24T10:29:13Z</time>
      </trkpt>
      <trkpt lat="62.642536591245" lon="17.864471629251">
        <ele>113.2</ele>
        <time>2017-12-24T10:29:14Z</time>
      </trkpt>
      <trkpt lat="62.642552768312" lon="17.864472132165">
        <ele>113.4</ele>
        <time>2017-12-24T10:29:15Z</time>
      </trkpt>
      <trkpt lat="62.642568945379" lon="17.864465342826">
        <ele>113.6</ele>
        <time>2017-12-24T10:29:16Z</time>
      </trkpt>
      <trkpt lat="62.642590822138" lon="17.86447506583">
        <ele>113.6</ele>
        <time>2017-12-24T10:29:17Z</time>
      </trkpt>
      <trkpt lat="62.642606244834" lon="17.8644691985">
        <ele>113.8</ele>
        <time>2017-12-24T10:29:18Z</time>
      </trkpt>
      <trkpt lat="62.642628121593" lon="17.864478837685">
        <ele>114</ele>
        <time>2017-12-24T10:29:19Z</time>
      </trkpt>
      <trkpt lat="62.642644466298" lon="17.864476993667">
        <ele>114.4</ele>
        <time>2017-12-24T10:29:20Z</time>
      </trkpt>
      <trkpt lat="62.64266273884" lon="17.864475568744">
        <ele>114.6</ele>
        <time>2017-12-24T10:29:21Z</time>
      </trkpt>
      <trkpt lat="62.642685872884" lon="17.864484788834">
        <ele>114.8</ele>
        <time>2017-12-24T10:29:22Z</time>
      </trkpt>
      <trkpt lat="62.642707498186" lon="17.864476993667">
        <ele>115.2</ele>
        <time>2017-12-24T10:29:23Z</time>
      </trkpt>
      <trkpt lat="62.64273482318" lon="17.864491913449">
        <ele>115.2</ele>
        <time>2017-12-24T10:29:24Z</time>
      </trkpt>
      <trkpt lat="62.642752592808" lon="17.864505156851">
        <ele>115.4</ele>
        <time>2017-12-24T10:29:25Z</time>
      </trkpt>
      <trkpt lat="62.642770697712" lon="17.864509515439">
        <ele>115.4</ele>
        <time>2017-12-24T10:29:26Z</time>
      </trkpt>
      <trkpt lat="62.642783270562" lon="17.864516472416">
        <ele>115.6</ele>
        <time>2017-12-24T10:29:27Z</time>
      </trkpt>
      <trkpt lat="62.642795759593" lon="17.864523513212">
        <ele>115.6</ele>
        <time>2017-12-24T10:29:28Z</time>
      </trkpt>
      <trkpt lat="62.642809170633" lon="17.864530721646">
        <ele>115.6</ele>
        <time>2017-12-24T10:29:29Z</time>
      </trkpt>
      <trkpt lat="62.642823922777" lon="17.864528961447">
        <ele>115.6</ele>
        <time>2017-12-24T10:29:30Z</time>
      </trkpt>
      <trkpt lat="62.642838004369" lon="17.864543043039">
        <ele>115.8</ele>
        <time>2017-12-24T10:29:31Z</time>
      </trkpt>
      <trkpt lat="62.642853343246" lon="17.864552095491">
        <ele>116</ele>
        <time>2017-12-24T10:29:32Z</time>
      </trkpt>
      <trkpt lat="62.642866335191" lon="17.864550670568">
        <ele>116</ele>
        <time>2017-12-24T10:29:33Z</time>
      </trkpt>
      <trkpt lat="62.642883769543" lon="17.864559471563">
        <ele>116.2</ele>
        <time>2017-12-24T10:29:34Z</time>
      </trkpt>
      <trkpt lat="62.642894246918" lon="17.864574307526">
        <ele>116.4</ele>
        <time>2017-12-24T10:29:35Z</time>
      </trkpt>
      <trkpt lat="62.642909334338" lon="17.864570284214">
        <ele>116.4</ele>
        <time>2017-12-24T10:29:36Z</time>
      </trkpt>
      <trkpt lat="62.642924673215" lon="17.864577827924">
        <ele>116.6</ele>
        <time>2017-12-24T10:29:37Z</time>
      </trkpt>
      <trkpt lat="62.642934731495" lon="17.86458486872">
        <ele>116.8</ele>
        <time>2017-12-24T10:29:38Z</time>
      </trkpt>
      <trkpt lat="62.642943448671" lon="17.864587886204">
        <ele>117</ele>
        <time>2017-12-24T10:29:39Z</time>
      </trkpt>
      <trkpt lat="62.642953004037" lon="17.864603644176">
        <ele>117.2</ele>
        <time>2017-12-24T10:29:40Z</time>
      </trkpt>
      <trkpt lat="62.642962391765" lon="17.864607835126">
        <ele>117.6</ele>
        <time>2017-12-24T10:29:41Z</time>
      </trkpt>
      <trkpt lat="62.642970941303" lon="17.864610601153">
        <ele>118</ele>
        <time>2017-12-24T10:29:42Z</time>
      </trkpt>
      <trkpt lat="62.642992231329" lon="17.864616971397">
        <ele>118.2</ele>
        <time>2017-12-24T10:29:43Z</time>
      </trkpt>
      <trkpt lat="62.643011258242" lon="17.864610349696">
        <ele>118.4</ele>
        <time>2017-12-24T10:29:44Z</time>
      </trkpt>
      <trkpt lat="62.643040930168" lon="17.864616133207">
        <ele>118.6</ele>
        <time>2017-12-24T10:29:45Z</time>
      </trkpt>
      <trkpt lat="62.643053670656" lon="17.864613283361">
        <ele>118.6</ele>
        <time>2017-12-24T10:29:46Z</time>
      </trkpt>
      <trkpt lat="62.643073619578" lon="17.86461671994">
        <ele>118.4</ele>
        <time>2017-12-24T10:29:47Z</time>
      </trkpt>
      <trkpt lat="62.643091137749" lon="17.864618983053">
        <ele>118.4</ele>
        <time>2017-12-24T10:29:48Z</time>
      </trkpt>
      <trkpt lat="62.643115696716" lon="17.864621665261">
        <ele>118.4</ele>
        <time>2017-12-24T10:29:49Z</time>
      </trkpt>
      <trkpt lat="62.64314134533" lon="17.864624515107">
        <ele>118.4</ele>
        <time>2017-12-24T10:29:50Z</time>
      </trkpt>
      <trkpt lat="62.643164395555" lon="17.864613953913">
        <ele>118.4</ele>
        <time>2017-12-24T10:29:51Z</time>
      </trkpt>
      <trkpt lat="62.643208987263" lon="17.86462510184">
        <ele>118.2</ele>
        <time>2017-12-24T10:29:52Z</time>
      </trkpt>
      <trkpt lat="62.643232540402" lon="17.864612193714">
        <ele>118.2</ele>
        <time>2017-12-24T10:29:53Z</time>
      </trkpt>
      <trkpt lat="62.643271348599" lon="17.864608086583">
        <ele>118</ele>
        <time>2017-12-24T10:29:54Z</time>
      </trkpt>
      <trkpt lat="62.643316024126" lon="17.864600207597">
        <ele>118</ele>
        <time>2017-12-24T10:29:55Z</time>
      </trkpt>
      <trkpt lat="62.643338152342" lon="17.864580426313">
        <ele>117.8</ele>
        <time>2017-12-24T10:29:56Z</time>
      </trkpt>
      <trkpt lat="62.643358352721" lon="17.864577911743">
        <ele>117.6</ele>
        <time>2017-12-24T10:29:57Z</time>
      </trkpt>
      <trkpt lat="62.643371679942" lon="17.864583695254">
        <ele>117.4</ele>
        <time>2017-12-24T10:29:58Z</time>
      </trkpt>
      <trkpt lat="62.643381989679" lon="17.864580510132">
        <ele>117.4</ele>
        <time>2017-12-24T10:29:59Z</time>
      </trkpt>
      <trkpt lat="62.643392886149" lon="17.864578833752">
        <ele>117.4</ele>
        <time>2017-12-24T10:30:00Z</time>
      </trkpt>
      <trkpt lat="62.643401854782" lon="17.864585203996">
        <ele>117.4</ele>
        <time>2017-12-24T10:30:01Z</time>
      </trkpt>
      <trkpt lat="62.643409817587" lon="17.864585874548">
        <ele>117.6</ele>
        <time>2017-12-24T10:30:02Z</time>
      </trkpt>
      <trkpt lat="62.643415349641" lon="17.864589311127">
        <ele>117.6</ele>
        <time>2017-12-24T10:30:03Z</time>
      </trkpt>
      <trkpt lat="62.643424402093" lon="17.864595597552">
        <ele>118</ele>
        <time>2017-12-24T10:30:04Z</time>
      </trkpt>
      <trkpt lat="62.643436052934" lon="17.864598782674">
        <ele>118.4</ele>
        <time>2017-12-24T10:30:05Z</time>
      </trkpt>
      <trkpt lat="62.643448374327" lon="17.864607918945">
        <ele>118.4</ele>
        <time>2017-12-24T10:30:06Z</time>
      </trkpt>
      <trkpt lat="62.64345901934" lon="17.864608254221">
        <ele>118.8</ele>
        <time>2017-12-24T10:30:07Z</time>
      </trkpt>
      <trkpt lat="62.643465641041" lon="17.864608757135">
        <ele>119</ele>
        <time>2017-12-24T10:30:08Z</time>
      </trkpt>
      <trkpt lat="62.643472765656" lon="17.864612445171">
        <ele>119</ele>
        <time>2017-12-24T10:30:09Z</time>
      </trkpt>
      <trkpt lat="62.643484751773" lon="17.864620240338">
        <ele>119.2</ele>
        <time>2017-12-24T10:30:10Z</time>
      </trkpt>
      <trkpt lat="62.643494977691" lon="17.864624012193">
        <ele>119.6</ele>
        <time>2017-12-24T10:30:11Z</time>
      </trkpt>
      <trkpt lat="62.643509394559" lon="17.86462677822">
        <ele>119.6</ele>
        <time>2017-12-24T10:30:12Z</time>
      </trkpt>
      <trkpt lat="62.643520374848" lon="17.864628622238">
        <ele>119.8</ele>
        <time>2017-12-24T10:30:13Z</time>
      </trkpt>
      <trkpt lat="62.643530014033" lon="17.864628370781">
        <ele>120</ele>
        <time>2017-12-24T10:30:14Z</time>
      </trkpt>
      <trkpt lat="62.64353948558" lon="17.864631136808">
        <ele>120</ele>
        <time>2017-12-24T10:30:15Z</time>
      </trkpt>
      <trkpt lat="62.643549376222" lon="17.864637758509">
        <ele>120.2</ele>
        <time>2017-12-24T10:30:16Z</time>
      </trkpt>
      <trkpt lat="62.643561865253" lon="17.86463599831">
        <ele>120.2</ele>
        <time>2017-12-24T10:30:17Z</time>
      </trkpt>
      <trkpt lat="62.643572091171" lon="17.864641698002">
        <ele>120.2</ele>
        <time>2017-12-24T10:30:18Z</time>
      </trkpt>
      <trkpt lat="62.643584496383" lon="17.864646391866">
        <ele>120.4</ele>
        <time>2017-12-24T10:30:19Z</time>
      </trkpt>
      <trkpt lat="62.643593884111" lon="17.864652678291">
        <ele>120.6</ele>
        <time>2017-12-24T10:30:20Z</time>
      </trkpt>
      <trkpt lat="62.643605954047" lon="17.86465443849">
        <ele>120.8</ele>
        <time>2017-12-24T10:30:21Z</time>
      </trkpt>
      <trkpt lat="62.643615509413" lon="17.864652594472">
        <ele>121</ele>
        <time>2017-12-24T10:30:22Z</time>
      </trkpt>
      <trkpt lat="62.643625232417" lon="17.864656198689">
        <ele>121.2</ele>
        <time>2017-12-24T10:30:23Z</time>
      </trkpt>
      <trkpt lat="62.643637972905" lon="17.864659299992">
        <ele>121.2</ele>
        <time>2017-12-24T10:30:24Z</time>
      </trkpt>
      <trkpt lat="62.643649372289" lon="17.864664329132">
        <ele>121.4</ele>
        <time>2017-12-24T10:30:25Z</time>
      </trkpt>
      <trkpt lat="62.643662531872" lon="17.864675896154">
        <ele>121.4</ele>
        <time>2017-12-24T10:30:26Z</time>
      </trkpt>
      <trkpt lat="62.643673344523" lon="17.864677991629">
        <ele>121.6</ele>
        <time>2017-12-24T10:30:27Z</time>
      </trkpt>
      <trkpt lat="62.643685079183" lon="17.86468042238">
        <ele>121.6</ele>
        <time>2017-12-24T10:30:28Z</time>
      </trkpt>
      <trkpt lat="62.643693041988" lon="17.864685702977">
        <ele>121.8</ele>
        <time>2017-12-24T10:30:29Z</time>
      </trkpt>
      <trkpt lat="62.643699831327" lon="17.864689307194">
        <ele>122</ele>
        <time>2017-12-24T10:30:30Z</time>
      </trkpt>
      <trkpt lat="62.643716678946" lon="17.864700203664">
        <ele>122.4</ele>
        <time>2017-12-24T10:30:31Z</time>
      </trkpt>
      <trkpt lat="62.643725982855" lon="17.86469383342">
        <ele>122.4</ele>
        <time>2017-12-24T10:30:32Z</time>
      </trkpt>
      <trkpt lat="62.643733442746" lon="17.864694839248">
        <ele>122.6</ele>
        <time>2017-12-24T10:30:33Z</time>
      </trkpt>
      <trkpt lat="62.64374065118" lon="17.864700371302">
        <ele>122.8</ele>
        <time>2017-12-24T10:30:34Z</time>
      </trkpt>
      <trkpt lat="62.643753643125" lon="17.864701796225">
        <ele>122.8</ele>
        <time>2017-12-24T10:30:35Z</time>
      </trkpt>
      <trkpt lat="62.643763952862" lon="17.86470556808">
        <ele>123</ele>
        <time>2017-12-24T10:30:36Z</time>
      </trkpt>
      <trkpt lat="62.643770239287" lon="17.864707747374">
        <ele>123.2</ele>
        <time>2017-12-24T10:30:37Z</time>
      </trkpt>
      <trkpt lat="62.643774597875" lon="17.864703556424">
        <ele>123.4</ele>
        <time>2017-12-24T10:30:38Z</time>
      </trkpt>
      <trkpt lat="62.643784320879" lon="17.864705735718">
        <ele>123.4</ele>
        <time>2017-12-24T10:30:39Z</time>
      </trkpt>
      <trkpt lat="62.643793289512" lon="17.864704478433">
        <ele>123.6</ele>
        <time>2017-12-24T10:30:40Z</time>
      </trkpt>
      <trkpt lat="62.643801419955" lon="17.864703807881">
        <ele>123.8</ele>
        <time>2017-12-24T10:30:41Z</time>
      </trkpt>
      <trkpt lat="62.643810556226" lon="17.864710429582">
        <ele>124</ele>
        <time>2017-12-24T10:30:42Z</time>
      </trkpt>
      <trkpt lat="62.643818435212" lon="17.864705903356">
        <ele>124</ele>
        <time>2017-12-24T10:30:43Z</time>
      </trkpt>
      <trkpt lat="62.643825224551" lon="17.864715877817">
        <ele>124.2</ele>
        <time>2017-12-24T10:30:44Z</time>
      </trkpt>
      <trkpt lat="62.643837629763" lon="17.864726690468">
        <ele>124.4</ele>
        <time>2017-12-24T10:30:45Z</time>
      </trkpt>
      <trkpt lat="62.643849532061" lon="17.864738425128">
        <ele>124.8</ele>
        <time>2017-12-24T10:30:46Z</time>
      </trkpt>
      <trkpt lat="62.643858668332" lon="17.864744376277">
        <ele>125</ele>
        <time>2017-12-24T10:30:47Z</time>
      </trkpt>
      <trkpt lat="62.64387140882" lon="17.864744543915">
        <ele>125.2</ele>
        <time>2017-12-24T10:30:48Z</time>
      </trkpt>
      <trkpt lat="62.64388314348" lon="17.864747729037">
        <ele>125.4</ele>
        <time>2017-12-24T10:30:49Z</time>
      </trkpt>
      <trkpt lat="62.643889932819" lon="17.864750746521">
        <ele>125.6</ele>
        <time>2017-12-24T10:30:50Z</time>
      </trkpt>
      <trkpt lat="62.643900074918" lon="17.864751584711">
        <ele>125.8</ele>
        <time>2017-12-24T10:30:51Z</time>
      </trkpt>
      <trkpt lat="62.64390493642" lon="17.864751417073">
        <ele>126</ele>
        <time>2017-12-24T10:30:52Z</time>
      </trkpt>
      <trkpt lat="62.643913234501" lon="17.864753847824">
        <ele>126</ele>
        <time>2017-12-24T10:30:53Z</time>
      </trkpt>
      <trkpt lat="62.643921951677" lon="17.864755440385">
        <ele>126.2</ele>
        <time>2017-12-24T10:30:54Z</time>
      </trkpt>
      <trkpt lat="62.643938631658" lon="17.864746974666">
        <ele>126.4</ele>
        <time>2017-12-24T10:30:55Z</time>
      </trkpt>
      <trkpt lat="62.643945840092" lon="17.864733815083">
        <ele>126.4</ele>
        <time>2017-12-24T10:30:56Z</time>
      </trkpt>
      <trkpt lat="62.643957071838" lon="17.864741777888">
        <ele>126.6</ele>
        <time>2017-12-24T10:30:57Z</time>
      </trkpt>
      <trkpt lat="62.643966208109" lon="17.864736497291">
        <ele>126.8</ele>
        <time>2017-12-24T10:30:58Z</time>
      </trkpt>
      <trkpt lat="62.643974003276" lon="17.864733731264">
        <ele>126.8</ele>
        <time>2017-12-24T10:30:59Z</time>
      </trkpt>
      <trkpt lat="62.64399378456" lon="17.864727444839">
        <ele>127</ele>
        <time>2017-12-24T10:31:00Z</time>
      </trkpt>
      <trkpt lat="62.644006189772" lon="17.864729707952">
        <ele>127.2</ele>
        <time>2017-12-24T10:31:01Z</time>
      </trkpt>
      <trkpt lat="62.644020019907" lon="17.864722834794">
        <ele>127.6</ele>
        <time>2017-12-24T10:31:02Z</time>
      </trkpt>
      <trkpt lat="62.644029072359" lon="17.864716129274">
        <ele>127.6</ele>
        <time>2017-12-24T10:31:03Z</time>
      </trkpt>
      <trkpt lat="62.644042902494" lon="17.864712608876">
        <ele>127.8</ele>
        <time>2017-12-24T10:31:04Z</time>
      </trkpt>
      <trkpt lat="62.644051871127" lon="17.864713866161">
        <ele>127.8</ele>
        <time>2017-12-24T10:31:05Z</time>
      </trkpt>
      <trkpt lat="62.644063270511" lon="17.864711854505">
        <ele>128</ele>
        <time>2017-12-24T10:31:06Z</time>
      </trkpt>
      <trkpt lat="62.644076262456" lon="17.864714620532">
        <ele>128.2</ele>
        <time>2017-12-24T10:31:07Z</time>
      </trkpt>
      <trkpt lat="62.644093696808" lon="17.864711183953">
        <ele>128.2</ele>
        <time>2017-12-24T10:31:08Z</time>
      </trkpt>
      <trkpt lat="62.644108029857" lon="17.864713027971">
        <ele>128.4</ele>
        <time>2017-12-24T10:31:09Z</time>
      </trkpt>
      <trkpt lat="62.644119177784" lon="17.864706825365">
        <ele>128.4</ele>
        <time>2017-12-24T10:31:10Z</time>
      </trkpt>
      <trkpt lat="62.644133091738" lon="17.864705735718">
        <ele>128.4</ele>
        <time>2017-12-24T10:31:11Z</time>
      </trkpt>
      <trkpt lat="62.644147005692" lon="17.864708669383">
        <ele>128.6</ele>
        <time>2017-12-24T10:31:12Z</time>
      </trkpt>
      <trkpt lat="62.644158321257" lon="17.864706741546">
        <ele>128.6</ele>
        <time>2017-12-24T10:31:13Z</time>
      </trkpt>
      <trkpt lat="62.644170977926" lon="17.864703975519">
        <ele>128.8</ele>
        <time>2017-12-24T10:31:14Z</time>
      </trkpt>
      <trkpt lat="62.64418237731" lon="17.864700706578">
        <ele>129</ele>
        <time>2017-12-24T10:31:15Z</time>
      </trkpt>
      <trkpt lat="62.644193441418" lon="17.864692827592">
        <ele>129.2</ele>
        <time>2017-12-24T10:31:16Z</time>
      </trkpt>
      <trkpt lat="62.644208696476" lon="17.86468628971">
        <ele>129.6</ele>
        <time>2017-12-24T10:31:17Z</time>
      </trkpt>
      <trkpt lat="62.644219173851" lon="17.864675057964">
        <ele>129.8</ele>
        <time>2017-12-24T10:31:18Z</time>
      </trkpt>
      <trkpt lat="62.644232417253" lon="17.864662233657">
        <ele>130</ele>
        <time>2017-12-24T10:31:19Z</time>
      </trkpt>
      <trkpt lat="62.644241134429" lon="17.864651337187">
        <ele>130.4</ele>
        <time>2017-12-24T10:31:20Z</time>
      </trkpt>
      <trkpt lat="62.644258317324" lon="17.864637507052">
        <ele>130.6</ele>
        <time>2017-12-24T10:31:21Z</time>
      </trkpt>
      <trkpt lat="62.644265693396" lon="17.86462510184">
        <ele>130.6</ele>
        <time>2017-12-24T10:31:22Z</time>
      </trkpt>
      <trkpt lat="62.644279439712" lon="17.864612696628">
        <ele>130.8</ele>
        <time>2017-12-24T10:31:23Z</time>
      </trkpt>
      <trkpt lat="62.64429050382" lon="17.864593418258">
        <ele>131</ele>
        <time>2017-12-24T10:31:24Z</time>
      </trkpt>
      <trkpt lat="62.644298131349" lon="17.864569865119">
        <ele>131</ele>
        <time>2017-12-24T10:31:25Z</time>
      </trkpt>
      <trkpt lat="62.644307854353" lon="17.864544970876">
        <ele>131.2</ele>
        <time>2017-12-24T10:31:26Z</time>
      </trkpt>
      <trkpt lat="62.644314224597" lon="17.864521501556">
        <ele>131.4</ele>
        <time>2017-12-24T10:31:27Z</time>
      </trkpt>
      <trkpt lat="62.644319169918" lon="17.864501552634">
        <ele>131.6</ele>
        <time>2017-12-24T10:31:28Z</time>
      </trkpt>
      <trkpt lat="62.644327048904" lon="17.864477831857">
        <ele>131.6</ele>
        <time>2017-12-24T10:31:29Z</time>
      </trkpt>
      <trkpt lat="62.644333502967" lon="17.864451764148">
        <ele>131.8</ele>
        <time>2017-12-24T10:31:30Z</time>
      </trkpt>
      <trkpt lat="62.644340962858" lon="17.864429635932">
        <ele>132</ele>
        <time>2017-12-24T10:31:31Z</time>
      </trkpt>
      <trkpt lat="62.644349512396" lon="17.864411698666">
        <ele>132</ele>
        <time>2017-12-24T10:31:32Z</time>
      </trkpt>
      <trkpt lat="62.644356804649" lon="17.864392839391">
        <ele>132.2</ele>
        <time>2017-12-24T10:31:33Z</time>
      </trkpt>
      <trkpt lat="62.644365270368" lon="17.864368280424">
        <ele>132.4</ele>
        <time>2017-12-24T10:31:34Z</time>
      </trkpt>
      <trkpt lat="62.644375580105" lon="17.864350091701">
        <ele>132.4</ele>
        <time>2017-12-24T10:31:35Z</time>
      </trkpt>
      <trkpt lat="62.644386308937" lon="17.864322766707">
        <ele>132.4</ele>
        <time>2017-12-24T10:31:36Z</time>
      </trkpt>
      <trkpt lat="62.64439779214" lon="17.864300051758">
        <ele>132.6</ele>
        <time>2017-12-24T10:31:37Z</time>
      </trkpt>
      <trkpt lat="62.644408604791" lon="17.864282449768">
        <ele>132.8</ele>
        <time>2017-12-24T10:31:38Z</time>
      </trkpt>
      <trkpt lat="62.644422434926" lon="17.86426048919">
        <ele>133.2</ele>
        <time>2017-12-24T10:31:39Z</time>
      </trkpt>
      <trkpt lat="62.644433331396" lon="17.864244898856">
        <ele>133.2</ele>
        <time>2017-12-24T10:31:40Z</time>
      </trkpt>
      <trkpt lat="62.644444479323" lon="17.8642345053">
        <ele>133.6</ele>
        <time>2017-12-24T10:31:41Z</time>
      </trkpt>
      <trkpt lat="62.644456884535" lon="17.864215562206">
        <ele>133.6</ele>
        <time>2017-12-24T10:31:42Z</time>
      </trkpt>
      <trkpt lat="62.644464260607" lon="17.864215143111">
        <ele>133.6</ele>
        <time>2017-12-24T10:31:43Z</time>
      </trkpt>
      <trkpt lat="62.644473732154" lon="17.864204917193">
        <ele>133.6</ele>
        <time>2017-12-24T10:31:44Z</time>
      </trkpt>
      <trkpt lat="62.644486137366" lon="17.864197876397">
        <ele>133.8</ele>
        <time>2017-12-24T10:31:45Z</time>
      </trkpt>
      <trkpt lat="62.644495608913" lon="17.864189997411">
        <ele>133.8</ele>
        <time>2017-12-24T10:31:46Z</time>
      </trkpt>
      <trkpt lat="62.644501476243" lon="17.864183627167">
        <ele>134</ele>
        <time>2017-12-24T10:31:47Z</time>
      </trkpt>
      <trkpt lat="62.644506840659" lon="17.864172982154">
        <ele>134</ele>
        <time>2017-12-24T10:31:48Z</time>
      </trkpt>
      <trkpt lat="62.644517066577" lon="17.864166360453">
        <ele>134.4</ele>
        <time>2017-12-24T10:31:49Z</time>
      </trkpt>
      <trkpt lat="62.644529471789" lon="17.864158732924">
        <ele>134.4</ele>
        <time>2017-12-24T10:31:50Z</time>
      </trkpt>
      <trkpt lat="62.64453693168" lon="17.864149177558">
        <ele>134.6</ele>
        <time>2017-12-24T10:31:51Z</time>
      </trkpt>
      <trkpt lat="62.644543804838" lon="17.864143645504">
        <ele>134.8</ele>
        <time>2017-12-24T10:31:52Z</time>
      </trkpt>
      <trkpt lat="62.644553024928" lon="17.864138700183">
        <ele>134.8</ele>
        <time>2017-12-24T10:31:53Z</time>
      </trkpt>
      <trkpt lat="62.64456459195" lon="17.864132078482">
        <ele>135</ele>
        <time>2017-12-24T10:31:54Z</time>
      </trkpt>
      <trkpt lat="62.644573141488" lon="17.864129060998">
        <ele>135.2</ele>
        <time>2017-12-24T10:31:55Z</time>
      </trkpt>
      <trkpt lat="62.644575739877" lon="17.864130485921">
        <ele>135.4</ele>
        <time>2017-12-24T10:31:56Z</time>
      </trkpt>
      <trkpt lat="62.644585798157" lon="17.864121936383">
        <ele>135.6</ele>
        <time>2017-12-24T10:31:57Z</time>
      </trkpt>
      <trkpt lat="62.644593844781" lon="17.8641171587">
        <ele>136</ele>
        <time>2017-12-24T10:31:58Z</time>
      </trkpt>
      <trkpt lat="62.64459811955" lon="17.864111039913">
        <ele>136.2</ele>
        <time>2017-12-24T10:31:59Z</time>
      </trkpt>
      <trkpt lat="62.644611195314" lon="17.864101400728">
        <ele>136.4</ele>
        <time>2017-12-24T10:32:00Z</time>
      </trkpt>
      <trkpt lat="62.644620080128" lon="17.864090504258">
        <ele>136.6</ele>
        <time>2017-12-24T10:32:01Z</time>
      </trkpt>
      <trkpt lat="62.644625863639" lon="17.864086564765">
        <ele>136.8</ele>
        <time>2017-12-24T10:32:02Z</time>
      </trkpt>
      <trkpt lat="62.644632736797" lon="17.864087905869">
        <ele>137</ele>
        <time>2017-12-24T10:32:03Z</time>
      </trkpt>
      <trkpt lat="62.644645393466" lon="17.864084134014">
        <ele>137.2</ele>
        <time>2017-12-24T10:32:04Z</time>
      </trkpt>
      <trkpt lat="62.644652769538" lon="17.864080026883">
        <ele>137.4</ele>
        <time>2017-12-24T10:32:05Z</time>
      </trkpt>
      <trkpt lat="62.644662241085" lon="17.864068795137">
        <ele>137.8</ele>
        <time>2017-12-24T10:32:06Z</time>
      </trkpt>
      <trkpt lat="62.644669281881" lon="17.864065777653">
        <ele>138</ele>
        <time>2017-12-24T10:32:07Z</time>
      </trkpt>
      <trkpt lat="62.644675652125" lon="17.864057311934">
        <ele>138</ele>
        <time>2017-12-24T10:32:08Z</time>
      </trkpt>
      <trkpt lat="62.644685207491" lon="17.864052031337">
        <ele>138.2</ele>
        <time>2017-12-24T10:32:09Z</time>
      </trkpt>
      <trkpt lat="62.644692248287" lon="17.864053707717">
        <ele>138.4</ele>
        <time>2017-12-24T10:32:10Z</time>
      </trkpt>
      <trkpt lat="62.644698283255" lon="17.864045241998">
        <ele>138.4</ele>
        <time>2017-12-24T10:32:11Z</time>
      </trkpt>
      <trkpt lat="62.644706748974" lon="17.864038285021">
        <ele>138.6</ele>
        <time>2017-12-24T10:32:12Z</time>
      </trkpt>
      <trkpt lat="62.644716555797" lon="17.864032752967">
        <ele>138.6</ele>
        <time>2017-12-24T10:32:13Z</time>
      </trkpt>
      <trkpt lat="62.644727955181" lon="17.864032082415">
        <ele>138.8</ele>
        <time>2017-12-24T10:32:14Z</time>
      </trkpt>
      <trkpt lat="62.644737175271" lon="17.864025879809">
        <ele>138.8</ele>
        <time>2017-12-24T10:32:15Z</time>
      </trkpt>
      <trkpt lat="62.644747149732" lon="17.864020599212">
        <ele>139</ele>
        <time>2017-12-24T10:32:16Z</time>
      </trkpt>
      <trkpt lat="62.644753855252" lon="17.864012971683">
        <ele>139.2</ele>
        <time>2017-12-24T10:32:17Z</time>
      </trkpt>
      <trkpt lat="62.644761818057" lon="17.864010038018">
        <ele>139.2</ele>
        <time>2017-12-24T10:32:18Z</time>
      </trkpt>
      <trkpt lat="62.644773636536" lon="17.864002410489">
        <ele>139.6</ele>
        <time>2017-12-24T10:32:19Z</time>
      </trkpt>
      <trkpt lat="62.644782102255" lon="17.863997129892">
        <ele>139.6</ele>
        <time>2017-12-24T10:32:20Z</time>
      </trkpt>
      <trkpt lat="62.644791825259" lon="17.863991262562">
        <ele>140</ele>
        <time>2017-12-24T10:32:21Z</time>
      </trkpt>
      <trkpt lat="62.644797189675" lon="17.863990005277">
        <ele>140.2</ele>
        <time>2017-12-24T10:32:22Z</time>
      </trkpt>
      <trkpt lat="62.644804398109" lon="17.863985646689">
        <ele>140.4</ele>
        <time>2017-12-24T10:32:23Z</time>
      </trkpt>
      <trkpt lat="62.644816970959" lon="17.863978773531">
        <ele>140.6</ele>
        <time>2017-12-24T10:32:24Z</time>
      </trkpt>
      <trkpt lat="62.644827951248" lon="17.86397215183">
        <ele>140.6</ele>
        <time>2017-12-24T10:32:25Z</time>
      </trkpt>
      <trkpt lat="62.644837338976" lon="17.863972822382">
        <ele>140.8</ele>
        <time>2017-12-24T10:32:26Z</time>
      </trkpt>
      <trkpt lat="62.644845553238" lon="17.863966368319">
        <ele>141</ele>
        <time>2017-12-24T10:32:27Z</time>
      </trkpt>
      <trkpt lat="62.644851504387" lon="17.863966200681">
        <ele>141</ele>
        <time>2017-12-24T10:32:28Z</time>
      </trkpt>
      <trkpt lat="62.644860053925" lon="17.863960081894">
        <ele>141.2</ele>
        <time>2017-12-24T10:32:29Z</time>
      </trkpt>
      <trkpt lat="62.644869106377" lon="17.863953795469">
        <ele>141.4</ele>
        <time>2017-12-24T10:32:30Z</time>
      </trkpt>
      <trkpt lat="62.644879499933" lon="17.863944910655">
        <ele>141.6</ele>
        <time>2017-12-24T10:32:31Z</time>
      </trkpt>
      <trkpt lat="62.644890396403" lon="17.863936444936">
        <ele>141.6</ele>
        <time>2017-12-24T10:32:32Z</time>
      </trkpt>
      <trkpt lat="62.644900370864" lon="17.863932002529">
        <ele>141.8</ele>
        <time>2017-12-24T10:32:33Z</time>
      </trkpt>
      <trkpt lat="62.644914200999" lon="17.863926135199">
        <ele>142</ele>
        <time>2017-12-24T10:32:34Z</time>
      </trkpt>
      <trkpt lat="62.644921074157" lon="17.863921776611">
        <ele>142.2</ele>
        <time>2017-12-24T10:32:35Z</time>
      </trkpt>
      <trkpt lat="62.644930797161" lon="17.863915322548">
        <ele>142.2</ele>
        <time>2017-12-24T10:32:36Z</time>
      </trkpt>
      <trkpt lat="62.644942531821" lon="17.86390844939">
        <ele>142.4</ele>
        <time>2017-12-24T10:32:37Z</time>
      </trkpt>
      <trkpt lat="62.644951500454" lon="17.863896211816">
        <ele>142.4</ele>
        <time>2017-12-24T10:32:38Z</time>
      </trkpt>
      <trkpt lat="62.644963318933" lon="17.863894619255">
        <ele>142.6</ele>
        <time>2017-12-24T10:32:39Z</time>
      </trkpt>
      <trkpt lat="62.644972706661" lon="17.8638908474">
        <ele>143</ele>
        <time>2017-12-24T10:32:40Z</time>
      </trkpt>
      <trkpt lat="62.64498201057" lon="17.863884560975">
        <ele>143</ele>
        <time>2017-12-24T10:32:41Z</time>
      </trkpt>
      <trkpt lat="62.644990560108" lon="17.863880453844">
        <ele>143.2</ele>
        <time>2017-12-24T10:32:42Z</time>
      </trkpt>
      <trkpt lat="62.644999444922" lon="17.863873161591">
        <ele>143.4</ele>
        <time>2017-12-24T10:32:43Z</time>
      </trkpt>
      <trkpt lat="62.645010006116" lon="17.863865785519">
        <ele>143.6</ele>
        <time>2017-12-24T10:32:44Z</time>
      </trkpt>
      <trkpt lat="62.645017717464" lon="17.86385648161">
        <ele>143.6</ele>
        <time>2017-12-24T10:32:45Z</time>
      </trkpt>
      <trkpt lat="62.645024925898" lon="17.863849189357">
        <ele>143.8</ele>
        <time>2017-12-24T10:32:46Z</time>
      </trkpt>
      <trkpt lat="62.645031547599" lon="17.863833766661">
        <ele>144</ele>
        <time>2017-12-24T10:32:47Z</time>
      </trkpt>
      <trkpt lat="62.64504152206" lon="17.863819936526">
        <ele>144.2</ele>
        <time>2017-12-24T10:32:48Z</time>
      </trkpt>
      <trkpt lat="62.645055352195" lon="17.863800825794">
        <ele>144.2</ele>
        <time>2017-12-24T10:32:50Z</time>
      </trkpt>
      <trkpt lat="62.645070188158" lon="17.863791354247">
        <ele>144.4</ele>
        <time>2017-12-24T10:32:52Z</time>
      </trkpt>
      <trkpt lat="62.645073457099" lon="17.863793449722">
        <ele>144.6</ele>
        <time>2017-12-24T10:32:53Z</time>
      </trkpt>
      <trkpt lat="62.645082761008" lon="17.863785151641">
        <ele>144.8</ele>
        <time>2017-12-24T10:32:54Z</time>
      </trkpt>
      <trkpt lat="62.645091142908" lon="17.863780122501">
        <ele>145</ele>
        <time>2017-12-24T10:32:55Z</time>
      </trkpt>
      <trkpt lat="62.64510019536" lon="17.863773165524">
        <ele>145.2</ele>
        <time>2017-12-24T10:32:56Z</time>
      </trkpt>
      <trkpt lat="62.645108241984" lon="17.863764196891">
        <ele>145.4</ele>
        <time>2017-12-24T10:32:57Z</time>
      </trkpt>
      <trkpt lat="62.645115450418" lon="17.863753468059">
        <ele>145.8</ele>
        <time>2017-12-24T10:32:58Z</time>
      </trkpt>
      <trkpt lat="62.645127604173" lon="17.863743158322">
        <ele>146</ele>
        <time>2017-12-24T10:32:59Z</time>
      </trkpt>
      <trkpt lat="62.645141350489" lon="17.863739554105">
        <ele>146.2</ele>
        <time>2017-12-24T10:33:00Z</time>
      </trkpt>
      <trkpt lat="62.645153923339" lon="17.863743661236">
        <ele>146.4</ele>
        <time>2017-12-24T10:33:01Z</time>
      </trkpt>
      <trkpt lat="62.645167585836" lon="17.863745924349">
        <ele>146.6</ele>
        <time>2017-12-24T10:33:02Z</time>
      </trkpt>
      <trkpt lat="62.645178314668" lon="17.86374416415">
        <ele>146.6</ele>
        <time>2017-12-24T10:33:03Z</time>
      </trkpt>
      <trkpt lat="62.645190803699" lon="17.863735446974">
        <ele>146.8</ele>
        <time>2017-12-24T10:33:04Z</time>
      </trkpt>
      <trkpt lat="62.645204047101" lon="17.863727903264">
        <ele>146.8</ele>
        <time>2017-12-24T10:33:05Z</time>
      </trkpt>
      <trkpt lat="62.64522173291" lon="17.863717761165">
        <ele>146.8</ele>
        <time>2017-12-24T10:33:06Z</time>
      </trkpt>
      <trkpt lat="62.645237407063" lon="17.863710217455">
        <ele>147</ele>
        <time>2017-12-24T10:33:07Z</time>
      </trkpt>
      <trkpt lat="62.645251740112" lon="17.863703176659">
        <ele>147</ele>
        <time>2017-12-24T10:33:08Z</time>
      </trkpt>
      <trkpt lat="62.645269090645" lon="17.863694878578">
        <ele>147</ele>
        <time>2017-12-24T10:33:09Z</time>
      </trkpt>
      <trkpt lat="62.645283088418" lon="17.863691609637">
        <ele>147.2</ele>
        <time>2017-12-24T10:33:10Z</time>
      </trkpt>
      <trkpt lat="62.645295325992" lon="17.863687586325">
        <ele>147.4</ele>
        <time>2017-12-24T10:33:11Z</time>
      </trkpt>
      <trkpt lat="62.645309407584" lon="17.863680294072">
        <ele>147.6</ele>
        <time>2017-12-24T10:33:12Z</time>
      </trkpt>
      <trkpt lat="62.645320471692" lon="17.86367207981">
        <ele>147.8</ele>
        <time>2017-12-24T10:33:13Z</time>
      </trkpt>
      <trkpt lat="62.645334301827" lon="17.863662524444">
        <ele>148</ele>
        <time>2017-12-24T10:33:14Z</time>
      </trkpt>
      <trkpt lat="62.645346874677" lon="17.863648945766">
        <ele>148.2</ele>
        <time>2017-12-24T10:33:15Z</time>
      </trkpt>
      <trkpt lat="62.645358776975" lon="17.863635870002">
        <ele>148.4</ele>
        <time>2017-12-24T10:33:16Z</time>
      </trkpt>
      <trkpt lat="62.64537512168" lon="17.863612735958">
        <ele>148.8</ele>
        <time>2017-12-24T10:33:17Z</time>
      </trkpt>
      <trkpt lat="62.645389706186" lon="17.863592200303">
        <ele>149</ele>
        <time>2017-12-24T10:33:18Z</time>
      </trkpt>
      <trkpt lat="62.645402530493" lon="17.863568647164">
        <ele>149.2</ele>
        <time>2017-12-24T10:33:19Z</time>
      </trkpt>
      <trkpt lat="62.645410912393" lon="17.863543920559">
        <ele>149.4</ele>
        <time>2017-12-24T10:33:20Z</time>
      </trkpt>
      <trkpt lat="62.645420551578" lon="17.863518858678">
        <ele>149.4</ele>
        <time>2017-12-24T10:33:21Z</time>
      </trkpt>
      <trkpt lat="62.6454321186" lon="17.863491701322">
        <ele>149.6</ele>
        <time>2017-12-24T10:33:22Z</time>
      </trkpt>
      <trkpt lat="62.645443434165" lon="17.863458844274">
        <ele>149.6</ele>
        <time>2017-12-24T10:33:23Z</time>
      </trkpt>
      <trkpt lat="62.645453660083" lon="17.863415677489">
        <ele>149.8</ele>
        <time>2017-12-24T10:33:24Z</time>
      </trkpt>
      <trkpt lat="62.645459275956" lon="17.863376869292">
        <ele>149.8</ele>
        <time>2017-12-24T10:33:25Z</time>
      </trkpt>
      <trkpt lat="62.645463047811" lon="17.863322386942">
        <ele>149.8</ele>
        <time>2017-12-24T10:33:26Z</time>
      </trkpt>
      <trkpt lat="62.645464137458" lon="17.863268239868">
        <ele>149.8</ele>
        <time>2017-12-24T10:33:27Z</time>
      </trkpt>
      <trkpt lat="62.645467574037" lon="17.863218032287">
        <ele>149.8</ele>
        <time>2017-12-24T10:33:28Z</time>
      </trkpt>
      <trkpt lat="62.645472267901" lon="17.863164555765">
        <ele>149.8</ele>
        <time>2017-12-24T10:33:29Z</time>
      </trkpt>
      <trkpt lat="62.645478805783" lon="17.863105631008">
        <ele>149.8</ele>
        <time>2017-12-24T10:33:30Z</time>
      </trkpt>
      <trkpt lat="62.645490372805" lon="17.863044946052">
        <ele>149.8</ele>
        <time>2017-12-24T10:33:31Z</time>
      </trkpt>
      <trkpt lat="62.645501353094" lon="17.8629939841">
        <ele>149.8</ele>
        <time>2017-12-24T10:33:32Z</time>
      </trkpt>
      <trkpt lat="62.645512333383" lon="17.862948386564">
        <ele>149.8</ele>
        <time>2017-12-24T10:33:33Z</time>
      </trkpt>
      <trkpt lat="62.645527336984" lon="17.8629101651">
        <ele>149.6</ele>
        <time>2017-12-24T10:33:34Z</time>
      </trkpt>
      <trkpt lat="62.6455410833" lon="17.862880325536">
        <ele>149.8</ele>
        <time>2017-12-24T10:33:35Z</time>
      </trkpt>
      <trkpt lat="62.645559020566" lon="17.862844702461">
        <ele>150</ele>
        <time>2017-12-24T10:33:36Z</time>
      </trkpt>
      <trkpt lat="62.645574024167" lon="17.862814108526">
        <ele>150</ele>
        <time>2017-12-24T10:33:37Z</time>
      </trkpt>
      <trkpt lat="62.645589949777" lon="17.862787705541">
        <ele>150.2</ele>
        <time>2017-12-24T10:33:38Z</time>
      </trkpt>
      <trkpt lat="62.645606545939" lon="17.862758201253">
        <ele>150.6</ele>
        <time>2017-12-24T10:33:39Z</time>
      </trkpt>
      <trkpt lat="62.645620878988" lon="17.862730876259">
        <ele>150.6</ele>
        <time>2017-12-24T10:33:40Z</time>
      </trkpt>
      <trkpt lat="62.64563496058" lon="17.862700869057">
        <ele>150.8</ele>
        <time>2017-12-24T10:33:41Z</time>
      </trkpt>
      <trkpt lat="62.645650970009" lon="17.862665748896">
        <ele>150.8</ele>
        <time>2017-12-24T10:33:42Z</time>
      </trkpt>
      <trkpt lat="62.645661531203" lon="17.862637920988">
        <ele>151</ele>
        <time>2017-12-24T10:33:43Z</time>
      </trkpt>
      <trkpt lat="62.645671505664" lon="17.862607243234">
        <ele>151.2</ele>
        <time>2017-12-24T10:33:44Z</time>
      </trkpt>
      <trkpt lat="62.645682569772" lon="17.862571368702">
        <ele>151.4</ele>
        <time>2017-12-24T10:33:45Z</time>
      </trkpt>
      <trkpt lat="62.645692879509" lon="17.862526022623">
        <ele>151.4</ele>
        <time>2017-12-24T10:33:46Z</time>
      </trkpt>
      <trkpt lat="62.645700758495" lon="17.862482352924">
        <ele>151.4</ele>
        <time>2017-12-24T10:33:47Z</time>
      </trkpt>
      <trkpt lat="62.645705871454" lon="17.862443880003">
        <ele>151.6</ele>
        <time>2017-12-24T10:33:48Z</time>
      </trkpt>
      <trkpt lat="62.645709810947" lon="17.862388140368">
        <ele>151.6</ele>
        <time>2017-12-24T10:33:49Z</time>
      </trkpt>
      <trkpt lat="62.645711906422" lon="17.862340447357">
        <ele>151.8</ele>
        <time>2017-12-24T10:33:50Z</time>
      </trkpt>
      <trkpt lat="62.645714672449" lon="17.86229577183">
        <ele>151.8</ele>
        <time>2017-12-24T10:33:51Z</time>
      </trkpt>
      <trkpt lat="62.64571794139" lon="17.862256293081">
        <ele>151.8</ele>
        <time>2017-12-24T10:33:52Z</time>
      </trkpt>
      <trkpt lat="62.64572129415" lon="17.862216562875">
        <ele>151.8</ele>
        <time>2017-12-24T10:33:53Z</time>
      </trkpt>
      <trkpt lat="62.645725652738" lon="17.862202313645">
        <ele>151.8</ele>
        <time>2017-12-24T10:33:54Z</time>
      </trkpt>
      <trkpt lat="62.64574560166" lon="17.86213400116">
        <ele>152.2</ele>
        <time>2017-12-24T10:33:55Z</time>
      </trkpt>
      <trkpt lat="62.645757671596" lon="17.862099803008">
        <ele>152.4</ele>
        <time>2017-12-24T10:33:56Z</time>
      </trkpt>
      <trkpt lat="62.645771417912" lon="17.862070717815">
        <ele>152.6</ele>
        <time>2017-12-24T10:33:57Z</time>
      </trkpt>
      <trkpt lat="62.645785583323" lon="17.86204347664">
        <ele>152.8</ele>
        <time>2017-12-24T10:33:58Z</time>
      </trkpt>
      <trkpt lat="62.645808801186" lon="17.862069628168">
        <ele>153</ele>
        <time>2017-12-24T10:33:59Z</time>
      </trkpt>
      <trkpt lat="62.645829336841" lon="17.862084799407">
        <ele>153.2</ele>
        <time>2017-12-24T10:34:00Z</time>
      </trkpt>
      <trkpt lat="62.645842161148" lon="17.862109106917">
        <ele>153.2</ele>
        <time>2017-12-24T10:34:01Z</time>
      </trkpt>
      <trkpt lat="62.645852722342" lon="17.862139700852">
        <ele>153.4</ele>
        <time>2017-12-24T10:34:02Z</time>
      </trkpt>
      <trkpt lat="62.645861690975" lon="17.862172306443">
        <ele>153.4</ele>
        <time>2017-12-24T10:34:03Z</time>
      </trkpt>
      <trkpt lat="62.645869067047" lon="17.862208516251">
        <ele>153.4</ele>
        <time>2017-12-24T10:34:04Z</time>
      </trkpt>
      <trkpt lat="62.645872252169" lon="17.862246067163">
        <ele>153.4</ele>
        <time>2017-12-24T10:34:05Z</time>
      </trkpt>
      <trkpt lat="62.645864037907" lon="17.862303399359">
        <ele>153.4</ele>
        <time>2017-12-24T10:34:06Z</time>
      </trkpt>
      <trkpt lat="62.645857835301" lon="17.862349080714">
        <ele>153.4</ele>
        <time>2017-12-24T10:34:07Z</time>
      </trkpt>
      <trkpt lat="62.645852806161" lon="17.862389732929">
        <ele>153.4</ele>
        <time>2017-12-24T10:34:08Z</time>
      </trkpt>
      <trkpt lat="62.645845010994" lon="17.86245251336">
        <ele>153.4</ele>
        <time>2017-12-24T10:34:09Z</time>
      </trkpt>
      <trkpt lat="62.64583696437" lon="17.862514287963">
        <ele>153.6</ele>
        <time>2017-12-24T10:34:10Z</time>
      </trkpt>
      <trkpt lat="62.645833946886" lon="17.862571871616">
        <ele>153.6</ele>
        <time>2017-12-24T10:34:11Z</time>
      </trkpt>
      <trkpt lat="62.645828666289" lon="17.862641441386">
        <ele>153.6</ele>
        <time>2017-12-24T10:34:12Z</time>
      </trkpt>
      <trkpt lat="62.645827660461" lon="17.862698773582">
        <ele>153.6</ele>
        <time>2017-12-24T10:34:13Z</time>
      </trkpt>
      <trkpt lat="62.645830677945" lon="17.862761554013">
        <ele>153.4</ele>
        <time>2017-12-24T10:34:14Z</time>
      </trkpt>
      <trkpt lat="62.645830845583" lon="17.862827938661">
        <ele>153.4</ele>
        <time>2017-12-24T10:34:15Z</time>
      </trkpt>
      <trkpt lat="62.645834952714" lon="17.862882840106">
        <ele>153.4</ele>
        <time>2017-12-24T10:34:16Z</time>
      </trkpt>
      <trkpt lat="62.645838473112" lon="17.862938160646">
        <ele>153</ele>
        <time>2017-12-24T10:34:17Z</time>
      </trkpt>
      <trkpt lat="62.645840820044" lon="17.862994403195">
        <ele>153.2</ele>
        <time>2017-12-24T10:34:18Z</time>
      </trkpt>
      <trkpt lat="62.64585288998" lon="17.863049807554">
        <ele>153</ele>
        <time>2017-12-24T10:34:19Z</time>
      </trkpt>
      <trkpt lat="62.645860014595" lon="17.863104206085">
        <ele>153.2</ele>
        <time>2017-12-24T10:34:20Z</time>
      </trkpt>
      <trkpt lat="62.645865714287" lon="17.863179391728">
        <ele>153.2</ele>
        <time>2017-12-24T10:34:21Z</time>
      </trkpt>
      <trkpt lat="62.645868480314" lon="17.863241501607">
        <ele>153.2</ele>
        <time>2017-12-24T10:34:22Z</time>
      </trkpt>
      <trkpt lat="62.645871497798" lon="17.863295145767">
        <ele>153.2</ele>
        <time>2017-12-24T10:34:23Z</time>
      </trkpt>
      <trkpt lat="62.645877700404" lon="17.863358680569">
        <ele>153.4</ele>
        <time>2017-12-24T10:34:24Z</time>
      </trkpt>
      <trkpt lat="62.64588390301" lon="17.863417186231">
        <ele>153.4</ele>
        <time>2017-12-24T10:34:25Z</time>
      </trkpt>
      <trkpt lat="62.645893290738" lon="17.863484995802">
        <ele>153.4</ele>
        <time>2017-12-24T10:34:26Z</time>
      </trkpt>
      <trkpt lat="62.645901002086" lon="17.863541154532">
        <ele>153.6</ele>
        <time>2017-12-24T10:34:27Z</time>
      </trkpt>
      <trkpt lat="62.645897397869" lon="17.863586416792">
        <ele>153.6</ele>
        <time>2017-12-24T10:34:28Z</time>
      </trkpt>
      <trkpt lat="62.645894715661" lon="17.863640731504">
        <ele>153.6</ele>
        <time>2017-12-24T10:34:29Z</time>
      </trkpt>
      <trkpt lat="62.645899912439" lon="17.863691777275">
        <ele>153.6</ele>
        <time>2017-12-24T10:34:30Z</time>
      </trkpt>
      <trkpt lat="62.645908545796" lon="17.863756737">
        <ele>153.8</ele>
        <time>2017-12-24T10:34:31Z</time>
      </trkpt>
      <trkpt lat="62.645915586592" lon="17.863814823567">
        <ele>153.8</ele>
        <time>2017-12-24T10:34:32Z</time>
      </trkpt>
      <trkpt lat="62.645923046483" lon="17.863851368651">
        <ele>153.6</ele>
        <time>2017-12-24T10:34:33Z</time>
      </trkpt>
      <trkpt lat="62.645934026772" lon="17.863905431906">
        <ele>153.6</ele>
        <time>2017-12-24T10:34:34Z</time>
      </trkpt>
      <trkpt lat="62.645944587966" lon="17.863950777985">
        <ele>153.6</ele>
        <time>2017-12-24T10:34:35Z</time>
      </trkpt>
      <trkpt lat="62.64595766373" lon="17.863995872607">
        <ele>153.6</ele>
        <time>2017-12-24T10:34:36Z</time>
      </trkpt>
      <trkpt lat="62.645964536888" lon="17.864030070759">
        <ele>153.4</ele>
        <time>2017-12-24T10:34:37Z</time>
      </trkpt>
      <trkpt lat="62.645970655675" lon="17.864065526196">
        <ele>153.4</ele>
        <time>2017-12-24T10:34:38Z</time>
      </trkpt>
      <trkpt lat="62.645977612652" lon="17.864114979406">
        <ele>153.4</ele>
        <time>2017-12-24T10:34:39Z</time>
      </trkpt>
      <trkpt lat="62.645985826914" lon="17.864150770119">
        <ele>153.8</ele>
        <time>2017-12-24T10:34:40Z</time>
      </trkpt>
      <trkpt lat="62.645996639565" lon="17.864201564433">
        <ele>153.8</ele>
        <time>2017-12-24T10:34:41Z</time>
      </trkpt>
      <trkpt lat="62.646012565175" lon="17.864248251616">
        <ele>154</ele>
        <time>2017-12-24T10:34:42Z</time>
      </trkpt>
      <trkpt lat="62.646023545464" lon="17.864291083125">
        <ele>154</ele>
        <time>2017-12-24T10:34:43Z</time>
      </trkpt>
      <trkpt lat="62.646037878513" lon="17.864333579358">
        <ele>154</ele>
        <time>2017-12-24T10:34:44Z</time>
      </trkpt>
      <trkpt lat="62.646049948449" lon="17.864373141926">
        <ele>154.2</ele>
        <time>2017-12-24T10:34:45Z</time>
      </trkpt>
      <trkpt lat="62.64605992291" lon="17.864423014231">
        <ele>154</ele>
        <time>2017-12-24T10:34:46Z</time>
      </trkpt>
      <trkpt lat="62.646069143" lon="17.864463582627">
        <ele>154.2</ele>
        <time>2017-12-24T10:34:47Z</time>
      </trkpt>
      <trkpt lat="62.646079368918" lon="17.864508258154">
        <ele>154.2</ele>
        <time>2017-12-24T10:34:48Z</time>
      </trkpt>
      <trkpt lat="62.646089594836" lon="17.864553771871">
        <ele>154.2</ele>
        <time>2017-12-24T10:34:49Z</time>
      </trkpt>
      <trkpt lat="62.646095294528" lon="17.864580342494">
        <ele>154</ele>
        <time>2017-12-24T10:34:50Z</time>
      </trkpt>
      <trkpt lat="62.646100910401" lon="17.864622838727">
        <ele>154</ele>
        <time>2017-12-24T10:34:51Z</time>
      </trkpt>
      <trkpt lat="62.646102335324" lon="17.864661395467">
        <ele>154.2</ele>
        <time>2017-12-24T10:34:52Z</time>
      </trkpt>
      <trkpt lat="62.646103844066" lon="17.864692659954">
        <ele>154</ele>
        <time>2017-12-24T10:34:53Z</time>
      </trkpt>
      <trkpt lat="62.64610602336" lon="17.864739850051">
        <ele>154</ele>
        <time>2017-12-24T10:34:54Z</time>
      </trkpt>
      <trkpt lat="62.646106526274" lon="17.864777149506">
        <ele>154</ele>
        <time>2017-12-24T10:34:55Z</time>
      </trkpt>
      <trkpt lat="62.646109124663" lon="17.864835906625">
        <ele>154.4</ele>
        <time>2017-12-24T10:34:56Z</time>
      </trkpt>
      <trkpt lat="62.646105771903" lon="17.864880414514">
        <ele>154.2</ele>
        <time>2017-12-24T10:34:57Z</time>
      </trkpt>
      <trkpt lat="62.646093199053" lon="17.864918384521">
        <ele>154.4</ele>
        <time>2017-12-24T10:34:58Z</time>
      </trkpt>
      <trkpt lat="62.64607501033" lon="17.864958450003">
        <ele>154.4</ele>
        <time>2017-12-24T10:34:59Z</time>
      </trkpt>
      <trkpt lat="62.64605405558" lon="17.865002203521">
        <ele>154.4</ele>
        <time>2017-12-24T10:35:00Z</time>
      </trkpt>
      <trkpt lat="62.646033184649" lon="17.865046627591">
        <ele>154.4</ele>
        <time>2017-12-24T10:35:01Z</time>
      </trkpt>
      <trkpt lat="62.646012816632" lon="17.865087615082">
        <ele>154.2</ele>
        <time>2017-12-24T10:35:02Z</time>
      </trkpt>
      <trkpt lat="62.645992616253" lon="17.865124160166">
        <ele>154</ele>
        <time>2017-12-24T10:35:03Z</time>
      </trkpt>
      <trkpt lat="62.645965710354" lon="17.865173445738">
        <ele>153.8</ele>
        <time>2017-12-24T10:35:04Z</time>
      </trkpt>
      <trkpt lat="62.645943917414" lon="17.865213008306">
        <ele>153.4</ele>
        <time>2017-12-24T10:35:05Z</time>
      </trkpt>
      <trkpt lat="62.645912652927" lon="17.86526799357">
        <ele>152.8</ele>
        <time>2017-12-24T10:35:06Z</time>
      </trkpt>
      <trkpt lat="62.645888680693" lon="17.865303616645">
        <ele>152.4</ele>
        <time>2017-12-24T10:35:07Z</time>
      </trkpt>
      <trkpt lat="62.645865295192" lon="17.865337395702">
        <ele>151.8</ele>
        <time>2017-12-24T10:35:08Z</time>
      </trkpt>
      <trkpt lat="62.645837132008" lon="17.865379724297">
        <ele>151.4</ele>
        <time>2017-12-24T10:35:09Z</time>
      </trkpt>
      <trkpt lat="62.645809723195" lon="17.865416101743">
        <ele>151</ele>
        <time>2017-12-24T10:35:10Z</time>
      </trkpt>
      <trkpt lat="62.645783739305" lon="17.865458095062">
        <ele>150.8</ele>
        <time>2017-12-24T10:35:11Z</time>
      </trkpt>
      <trkpt lat="62.645752139542" lon="17.865514337611">
        <ele>150.4</ele>
        <time>2017-12-24T10:35:12Z</time>
      </trkpt>
      <trkpt lat="62.645730598059" lon="17.865553229627">
        <ele>150.2</ele>
        <time>2017-12-24T10:35:13Z</time>
      </trkpt>
      <trkpt lat="62.645703105427" lon="17.86559740224">
        <ele>149.8</ele>
        <time>2017-12-24T10:35:14Z</time>
      </trkpt>
      <trkpt lat="62.645678797917" lon="17.865650124391">
        <ele>149.4</ele>
        <time>2017-12-24T10:35:15Z</time>
      </trkpt>
      <trkpt lat="62.64565591533" lon="17.865701756895">
        <ele>149.2</ele>
        <time>2017-12-24T10:35:16Z</time>
      </trkpt>
      <trkpt lat="62.645631859277" lon="17.86575749653">
        <ele>148.8</ele>
        <time>2017-12-24T10:35:17Z</time>
      </trkpt>
      <trkpt lat="62.645606545939" lon="17.865814241993">
        <ele>148.6</ele>
        <time>2017-12-24T10:35:18Z</time>
      </trkpt>
      <trkpt lat="62.645577209289" lon="17.865881297193">
        <ele>148.4</ele>
        <time>2017-12-24T10:35:19Z</time>
      </trkpt>
      <trkpt lat="62.645554661978" lon="17.865926307996">
        <ele>148</ele>
        <time>2017-12-24T10:35:20Z</time>
      </trkpt>
      <trkpt lat="62.645524487138" lon="17.865992860282">
        <ele>147.6</ele>
        <time>2017-12-24T10:35:21Z</time>
      </trkpt>
      <trkpt lat="62.645495066669" lon="17.866052623229">
        <ele>147.4</ele>
        <time>2017-12-24T10:35:22Z</time>
      </trkpt>
      <trkpt lat="62.645468328408" lon="17.866102160258">
        <ele>147</ele>
        <time>2017-12-24T10:35:23Z</time>
      </trkpt>
      <trkpt lat="62.645428849659" lon="17.86616737144">
        <ele>146.8</ele>
        <time>2017-12-24T10:35:24Z</time>
      </trkpt>
      <trkpt lat="62.64539523824" lon="17.866220009772">
        <ele>146.4</ele>
        <time>2017-12-24T10:35:25Z</time>
      </trkpt>
      <trkpt lat="62.645364895762" lon="17.866273486294">
        <ele>146</ele>
        <time>2017-12-24T10:35:26Z</time>
      </trkpt>
      <trkpt lat="62.64533656494" lon="17.866325286436">
        <ele>145.4</ele>
        <time>2017-12-24T10:35:27Z</time>
      </trkpt>
      <trkpt lat="62.645314352905" lon="17.866367950307">
        <ele>144.8</ele>
        <time>2017-12-24T10:35:28Z</time>
      </trkpt>
      <trkpt lat="62.645288871929" lon="17.866418576983">
        <ele>144</ele>
        <time>2017-12-24T10:35:29Z</time>
      </trkpt>
      <trkpt lat="62.645265151152" lon="17.866467108184">
        <ele>143.4</ele>
        <time>2017-12-24T10:35:30Z</time>
      </trkpt>
      <trkpt lat="62.645248219714" lon="17.866504156182">
        <ele>142.8</ele>
        <time>2017-12-24T10:35:31Z</time>
      </trkpt>
      <trkpt lat="62.645232294104" lon="17.866542377646">
        <ele>142.4</ele>
        <time>2017-12-24T10:35:32Z</time>
      </trkpt>
      <trkpt lat="62.645214943571" lon="17.866580766748">
        <ele>142.2</ele>
        <time>2017-12-24T10:35:33Z</time>
      </trkpt>
      <trkpt lat="62.64519407264" lon="17.866632147795">
        <ele>142</ele>
        <time>2017-12-24T10:35:34Z</time>
      </trkpt>
      <trkpt lat="62.645175213365" lon="17.866672380915">
        <ele>142</ele>
        <time>2017-12-24T10:35:35Z</time>
      </trkpt>
      <trkpt lat="62.645146966362" lon="17.866747482739">
        <ele>141.6</ele>
        <time>2017-12-24T10:35:36Z</time>
      </trkpt>
      <trkpt lat="62.645125257241" lon="17.866822333106">
        <ele>141.4</ele>
        <time>2017-12-24T10:35:37Z</time>
      </trkpt>
      <trkpt lat="62.645105811233" lon="17.866890310315">
        <ele>141.2</ele>
        <time>2017-12-24T10:35:38Z</time>
      </trkpt>
      <trkpt lat="62.645082761008" lon="17.866976057152">
        <ele>140.8</ele>
        <time>2017-12-24T10:35:39Z</time>
      </trkpt>
      <trkpt lat="62.645061973896" lon="17.867052919175">
        <ele>140.4</ele>
        <time>2017-12-24T10:35:40Z</time>
      </trkpt>
      <trkpt lat="62.645038839852" lon="17.867145287713">
        <ele>140.2</ele>
        <time>2017-12-24T10:35:41Z</time>
      </trkpt>
      <trkpt lat="62.645011682496" lon="17.867254084775">
        <ele>139.8</ele>
        <time>2017-12-24T10:35:42Z</time>
      </trkpt>
      <trkpt lat="62.644992990859" lon="17.867338909603">
        <ele>139.6</ele>
        <time>2017-12-24T10:35:43Z</time>
      </trkpt>
      <trkpt lat="62.644969018625" lon="17.867437899842">
        <ele>139.2</ele>
        <time>2017-12-24T10:35:44Z</time>
      </trkpt>
      <trkpt lat="62.64494429202" lon="17.867524317231">
        <ele>138.6</ele>
        <time>2017-12-24T10:35:45Z</time>
      </trkpt>
      <trkpt lat="62.644916296474" lon="17.867626492592">
        <ele>138</ele>
        <time>2017-12-24T10:35:46Z</time>
      </trkpt>
      <trkpt lat="62.644892240421" lon="17.867721208062">
        <ele>137</ele>
        <time>2017-12-24T10:35:47Z</time>
      </trkpt>
      <trkpt lat="62.644867765273" lon="17.867817432274">
        <ele>136.2</ele>
        <time>2017-12-24T10:35:48Z</time>
      </trkpt>
      <trkpt lat="62.644840943193" lon="17.867929414458">
        <ele>135.2</ele>
        <time>2017-12-24T10:35:49Z</time>
      </trkpt>
      <trkpt lat="62.644823676479" lon="17.868017172951">
        <ele>134.4</ele>
        <time>2017-12-24T10:35:50Z</time>
      </trkpt>
      <trkpt lat="62.644811522724" lon="17.868126892022">
        <ele>134.2</ele>
        <time>2017-12-24T10:35:51Z</time>
      </trkpt>
      <trkpt lat="62.644801548263" lon="17.868215321067">
        <ele>134</ele>
        <time>2017-12-24T10:35:52Z</time>
      </trkpt>
      <trkpt lat="62.644791657621" lon="17.86830056499">
        <ele>134</ele>
        <time>2017-12-24T10:35:53Z</time>
      </trkpt>
      <trkpt lat="62.644781347884" lon="17.868417576314">
        <ele>134.4</ele>
        <time>2017-12-24T10:35:54Z</time>
      </trkpt>
      <trkpt lat="62.644778078943" lon="17.868514471078">
        <ele>134.6</ele>
        <time>2017-12-24T10:35:55Z</time>
      </trkpt>
      <trkpt lat="62.644769194129" lon="17.868600217915">
        <ele>135</ele>
        <time>2017-12-24T10:35:56Z</time>
      </trkpt>
      <trkpt lat="62.644759974039" lon="17.86868277963">
        <ele>135.4</ele>
        <time>2017-12-24T10:35:57Z</time>
      </trkpt>
      <trkpt lat="62.64476324298" lon="17.86874648207">
        <ele>135.4</ele>
        <time>2017-12-24T10:35:58Z</time>
      </trkpt>
      <trkpt lat="62.644757627107" lon="17.868840526988">
        <ele>135.4</ele>
        <time>2017-12-24T10:35:59Z</time>
      </trkpt>
      <trkpt lat="62.644753436157" lon="17.868942115616">
        <ele>135.4</ele>
        <time>2017-12-24T10:36:00Z</time>
      </trkpt>
      <trkpt lat="62.644752514148" lon="17.869021073114">
        <ele>135.4</ele>
        <time>2017-12-24T10:36:01Z</time>
      </trkpt>
      <trkpt lat="62.644748239379" lon="17.869109083064">
        <ele>135.4</ele>
        <time>2017-12-24T10:36:02Z</time>
      </trkpt>
      <trkpt lat="62.644744970438" lon="17.869188459657">
        <ele>135.2</ele>
        <time>2017-12-24T10:36:03Z</time>
      </trkpt>
      <trkpt lat="62.644743042601" lon="17.869290886475">
        <ele>135.2</ele>
        <time>2017-12-24T10:36:04Z</time>
      </trkpt>
      <trkpt lat="62.644738264918" lon="17.869375795122">
        <ele>135.2</ele>
        <time>2017-12-24T10:36:05Z</time>
      </trkpt>
      <trkpt lat="62.644728541914" lon="17.869474952999">
        <ele>135</ele>
        <time>2017-12-24T10:36:06Z</time>
      </trkpt>
      <trkpt lat="62.644715047055" lon="17.869578469464">
        <ele>135</ele>
        <time>2017-12-24T10:36:07Z</time>
      </trkpt>
      <trkpt lat="62.644706413698" lon="17.869670670364">
        <ele>134.8</ele>
        <time>2017-12-24T10:36:08Z</time>
      </trkpt>
      <trkpt lat="62.644689398441" lon="17.869775108838">
        <ele>134.8</ele>
        <time>2017-12-24T10:36:09Z</time>
      </trkpt>
      <trkpt lat="62.64467188027" lon="17.869879798769">
        <ele>134.4</ele>
        <time>2017-12-24T10:36:10Z</time>
      </trkpt>
      <trkpt lat="62.64465679285" lon="17.869984656338">
        <ele>134.2</ele>
        <time>2017-12-24T10:36:11Z</time>
      </trkpt>
      <trkpt lat="62.644659977972" lon="17.87009093883">
        <ele>133.8</ele>
        <time>2017-12-24T10:36:12Z</time>
      </trkpt>
      <trkpt lat="62.644654697375" lon="17.87017978697">
        <ele>133.8</ele>
        <time>2017-12-24T10:36:13Z</time>
      </trkpt>
      <trkpt lat="62.644647153665" lon="17.870300067235">
        <ele>133.6</ele>
        <time>2017-12-24T10:36:14Z</time>
      </trkpt>
      <trkpt lat="62.644636760109" lon="17.870395285619">
        <ele>133.4</ele>
        <time>2017-12-24T10:36:15Z</time>
      </trkpt>
      <trkpt lat="62.644625528363" lon="17.870504669414">
        <ele>133</ele>
        <time>2017-12-24T10:36:16Z</time>
      </trkpt>
      <trkpt lat="62.644614631893" lon="17.870613298838">
        <ele>132.6</ele>
        <time>2017-12-24T10:36:17Z</time>
      </trkpt>
      <trkpt lat="62.644601639948" lon="17.870748247428">
        <ele>132.4</ele>
        <time>2017-12-24T10:36:18Z</time>
      </trkpt>
      <trkpt lat="62.644591330211" lon="17.870885040036">
        <ele>131.6</ele>
        <time>2017-12-24T10:36:19Z</time>
      </trkpt>
      <trkpt lat="62.644580349922" lon="17.870992915089">
        <ele>131.2</ele>
        <time>2017-12-24T10:36:20Z</time>
      </trkpt>
      <trkpt lat="62.64456710652" lon="17.871129372421">
        <ele>130.2</ele>
        <time>2017-12-24T10:36:21Z</time>
      </trkpt>
      <trkpt lat="62.644552522014" lon="17.871245042641">
        <ele>129.4</ele>
        <time>2017-12-24T10:36:22Z</time>
      </trkpt>
      <trkpt lat="62.644537686051" lon="17.871330454202">
        <ele>129.2</ele>
        <time>2017-12-24T10:36:23Z</time>
      </trkpt>
      <trkpt lat="62.644519748785" lon="17.87144964482">
        <ele>128.8</ele>
        <time>2017-12-24T10:36:24Z</time>
      </trkpt>
      <trkpt lat="62.644502146795" lon="17.871552406914">
        <ele>128.6</ele>
        <time>2017-12-24T10:36:25Z</time>
      </trkpt>
      <trkpt lat="62.644485550633" lon="17.871648966402">
        <ele>128.4</ele>
        <time>2017-12-24T10:36:26Z</time>
      </trkpt>
      <trkpt lat="62.644467864824" lon="17.871733958868">
        <ele>128.4</ele>
        <time>2017-12-24T10:36:27Z</time>
      </trkpt>
      <trkpt lat="62.644450514291" lon="17.871809479787">
        <ele>128.2</ele>
        <time>2017-12-24T10:36:28Z</time>
      </trkpt>
      <trkpt lat="62.644430649188" lon="17.871901177773">
        <ele>128.2</ele>
        <time>2017-12-24T10:36:29Z</time>
      </trkpt>
      <trkpt lat="62.64441204137" lon="17.871991869931">
        <ele>128.2</ele>
        <time>2017-12-24T10:36:30Z</time>
      </trkpt>
      <trkpt lat="62.644391170439" lon="17.872082059175">
        <ele>128.4</ele>
        <time>2017-12-24T10:36:31Z</time>
      </trkpt>
      <trkpt lat="62.644373819906" lon="17.872174595351">
        <ele>128.6</ele>
        <time>2017-12-24T10:36:32Z</time>
      </trkpt>
      <trkpt lat="62.644359486857" lon="17.872241566732">
        <ele>128.8</ele>
        <time>2017-12-24T10:36:33Z</time>
      </trkpt>
      <trkpt lat="62.644337945374" lon="17.872332761804">
        <ele>129</ele>
        <time>2017-12-24T10:36:34Z</time>
      </trkpt>
      <trkpt lat="62.644320008108" lon="17.872401325746">
        <ele>129.2</ele>
        <time>2017-12-24T10:36:35Z</time>
      </trkpt>
      <trkpt lat="62.644294527132" lon="17.872485312384">
        <ele>129.4</ele>
        <time>2017-12-24T10:36:36Z</time>
      </trkpt>
      <trkpt lat="62.644272315097" lon="17.872552283765">
        <ele>129.2</ele>
        <time>2017-12-24T10:36:37Z</time>
      </trkpt>
      <trkpt lat="62.644253958736" lon="17.872607771943">
        <ele>129</ele>
        <time>2017-12-24T10:36:38Z</time>
      </trkpt>
      <trkpt lat="62.6442335069" lon="17.872669630365">
        <ele>128.8</ele>
        <time>2017-12-24T10:36:39Z</time>
      </trkpt>
      <trkpt lat="62.644217413652" lon="17.872717742471">
        <ele>128.6</ele>
        <time>2017-12-24T10:36:40Z</time>
      </trkpt>
      <trkpt lat="62.64420417025" lon="17.872757137401">
        <ele>128.4</ele>
        <time>2017-12-24T10:36:41Z</time>
      </trkpt>
      <trkpt lat="62.644189418106" lon="17.872799214539">
        <ele>128</ele>
        <time>2017-12-24T10:36:42Z</time>
      </trkpt>
      <trkpt lat="62.64417986274" lon="17.872829808474">
        <ele>128</ele>
        <time>2017-12-24T10:36:43Z</time>
      </trkpt>
      <trkpt lat="62.644165864967" lon="17.872862749341">
        <ele>127.8</ele>
        <time>2017-12-24T10:36:44Z</time>
      </trkpt>
      <trkpt lat="62.644147424787" lon="17.872871969431">
        <ele>127.6</ele>
        <time>2017-12-24T10:36:45Z</time>
      </trkpt>
      <trkpt lat="62.64412789496" lon="17.872868449033">
        <ele>127.6</ele>
        <time>2017-12-24T10:36:46Z</time>
      </trkpt>
      <trkpt lat="62.644113981006" lon="17.87285193669">
        <ele>127.6</ele>
        <time>2017-12-24T10:36:47Z</time>
      </trkpt>
      <trkpt lat="62.644105850563" lon="17.87282846737">
        <ele>127.6</ele>
        <time>2017-12-24T10:36:48Z</time>
      </trkpt>
      <trkpt lat="62.644107107848" lon="17.872792676657">
        <ele>127.6</ele>
        <time>2017-12-24T10:36:49Z</time>
      </trkpt>
      <trkpt lat="62.644110209151" lon="17.872771638088">
        <ele>127.6</ele>
        <time>2017-12-24T10:36:50Z</time>
      </trkpt>
      <trkpt lat="62.644112639902" lon="17.872738361945">
        <ele>127.6</ele>
        <time>2017-12-24T10:36:51Z</time>
      </trkpt>
      <trkpt lat="62.644116579395" lon="17.872706678363">
        <ele>127.8</ele>
        <time>2017-12-24T10:36:52Z</time>
      </trkpt>
      <trkpt lat="62.64412202763" lon="17.872675413876">
        <ele>127.8</ele>
        <time>2017-12-24T10:36:53Z</time>
      </trkpt>
      <trkpt lat="62.644124206924" lon="17.872622859363">
        <ele>128</ele>
        <time>2017-12-24T10:36:54Z</time>
      </trkpt>
      <trkpt lat="62.644123452553" lon="17.872581452777">
        <ele>128</ele>
        <time>2017-12-24T10:36:55Z</time>
      </trkpt>
      <trkpt lat="62.644121105621" lon="17.872534597956">
        <ele>128.2</ele>
        <time>2017-12-24T10:36:56Z</time>
      </trkpt>
      <trkpt lat="62.644121859992" lon="17.872475337923">
        <ele>128.6</ele>
        <time>2017-12-24T10:36:57Z</time>
      </trkpt>
      <trkpt lat="62.644120686526" lon="17.872424878885">
        <ele>128.6</ele>
        <time>2017-12-24T10:36:58Z</time>
      </trkpt>
      <trkpt lat="62.644118842508" lon="17.87237584477">
        <ele>128.4</ele>
        <time>2017-12-24T10:36:59Z</time>
      </trkpt>
      <trkpt lat="62.644118171956" lon="17.87230543681">
        <ele>128.6</ele>
        <time>2017-12-24T10:37:00Z</time>
      </trkpt>
      <trkpt lat="62.64411532211" lon="17.872244919492">
        <ele>128.6</ele>
        <time>2017-12-24T10:37:01Z</time>
      </trkpt>
      <trkpt lat="62.644112472264" lon="17.872181971423">
        <ele>129</ele>
        <time>2017-12-24T10:37:02Z</time>
      </trkpt>
      <trkpt lat="62.644107694581" lon="17.872129500729">
        <ele>128.8</ele>
        <time>2017-12-24T10:37:03Z</time>
      </trkpt>
      <trkpt lat="62.644100905242" lon="17.872053393077">
        <ele>129</ele>
        <time>2017-12-24T10:37:04Z</time>
      </trkpt>
      <trkpt lat="62.644097301025" lon="17.871992372845">
        <ele>129</ele>
        <time>2017-12-24T10:37:05Z</time>
      </trkpt>
      <trkpt lat="62.644086153098" lon="17.87189388552">
        <ele>129</ele>
        <time>2017-12-24T10:37:06Z</time>
      </trkpt>
      <trkpt lat="62.644071149497" lon="17.87181928661">
        <ele>129.2</ele>
        <time>2017-12-24T10:37:07Z</time>
      </trkpt>
      <trkpt lat="62.644058073733" lon="17.871751141763">
        <ele>129.2</ele>
        <time>2017-12-24T10:37:08Z</time>
      </trkpt>
      <trkpt lat="62.644038040992" lon="17.871666400754">
        <ele>129.2</ele>
        <time>2017-12-24T10:37:09Z</time>
      </trkpt>
      <trkpt lat="62.644020439002" lon="17.87159716626">
        <ele>129</ele>
        <time>2017-12-24T10:37:10Z</time>
      </trkpt>
      <trkpt lat="62.644002837012" lon="17.871532960906">
        <ele>128.6</ele>
        <time>2017-12-24T10:37:11Z</time>
      </trkpt>
      <trkpt lat="62.643987246678" lon="17.871460122195">
        <ele>128.6</ele>
        <time>2017-12-24T10:37:12Z</time>
      </trkpt>
      <trkpt lat="62.643975092923" lon="17.871398096135">
        <ele>128.4</ele>
        <time>2017-12-24T10:37:13Z</time>
      </trkpt>
      <trkpt lat="62.643957155657" lon="17.871319976827">
        <ele>128.4</ele>
        <time>2017-12-24T10:37:14Z</time>
      </trkpt>
      <trkpt lat="62.64394265497" lon="17.871265075382">
        <ele>128.4</ele>
        <time>2017-12-24T10:37:15Z</time>
      </trkpt>
      <trkpt lat="62.643930501215" lon="17.871200199476">
        <ele>128.4</ele>
        <time>2017-12-24T10:37:16Z</time>
      </trkpt>
      <trkpt lat="62.643912899225" lon="17.871146555316">
        <ele>128.4</ele>
        <time>2017-12-24T10:37:17Z</time>
      </trkpt>
      <trkpt lat="62.643898063262" lon="17.871083104333">
        <ele>128.4</ele>
        <time>2017-12-24T10:37:18Z</time>
      </trkpt>
      <trkpt lat="62.643882556747" lon="17.871012444916">
        <ele>128.4</ele>
        <time>2017-12-24T10:37:19Z</time>
      </trkpt>
      <trkpt lat="62.643870402992" lon="17.870966595923">
        <ele>128.4</ele>
        <time>2017-12-24T10:37:20Z</time>
      </trkpt>
      <trkpt lat="62.64385213045" lon="17.870890236814">
        <ele>128.4</ele>
        <time>2017-12-24T10:37:21Z</time>
      </trkpt>
      <trkpt lat="62.643835450469" lon="17.870828713668">
        <ele>128.4</ele>
        <time>2017-12-24T10:37:22Z</time>
      </trkpt>
      <trkpt lat="62.64382447018" lon="17.870772471119">
        <ele>128.4</ele>
        <time>2017-12-24T10:37:23Z</time>
      </trkpt>
      <trkpt lat="62.643810807683" lon="17.870688233024">
        <ele>128.4</ele>
        <time>2017-12-24T10:37:24Z</time>
      </trkpt>
      <trkpt lat="62.643804102163" lon="17.870625201136">
        <ele>128.4</ele>
        <time>2017-12-24T10:37:25Z</time>
      </trkpt>
      <trkpt lat="62.643796223177" lon="17.870562085429">
        <ele>128.6</ele>
        <time>2017-12-24T10:37:26Z</time>
      </trkpt>
      <trkpt lat="62.64378675163" lon="17.870497796256">
        <ele>128.6</ele>
        <time>2017-12-24T10:37:27Z</time>
      </trkpt>
      <trkpt lat="62.643773592047" lon="17.870426382468">
        <ele>128.4</ele>
        <time>2017-12-24T10:37:28Z</time>
      </trkpt>
      <trkpt lat="62.64376328231" lon="17.870348933712">
        <ele>128.4</ele>
        <time>2017-12-24T10:37:29Z</time>
      </trkpt>
      <trkpt lat="62.643753391668" lon="17.870274921535">
        <ele>128.2</ele>
        <time>2017-12-24T10:37:30Z</time>
      </trkpt>
      <trkpt lat="62.643745847958" lon="17.870200238806">
        <ele>128.4</ele>
        <time>2017-12-24T10:37:31Z</time>
      </trkpt>
      <trkpt lat="62.643739980628" lon="17.87013201014">
        <ele>128.2</ele>
        <time>2017-12-24T10:37:32Z</time>
      </trkpt>
      <trkpt lat="62.643737885153" lon="17.870069816442">
        <ele>128.2</ele>
        <time>2017-12-24T10:37:33Z</time>
      </trkpt>
      <trkpt lat="62.643740064447" lon="17.869989266383">
        <ele>128.2</ele>
        <time>2017-12-24T10:37:34Z</time>
      </trkpt>
      <trkpt lat="62.643740148266" lon="17.869935203128">
        <ele>128.2</ele>
        <time>2017-12-24T10:37:35Z</time>
      </trkpt>
      <trkpt lat="62.643737549877" lon="17.869858844019">
        <ele>128.2</ele>
        <time>2017-12-24T10:37:36Z</time>
      </trkpt>
      <trkpt lat="62.643740986456" lon="17.869795979769">
        <ele>128.2</ele>
        <time>2017-12-24T10:37:37Z</time>
      </trkpt>
      <trkpt lat="62.643747775795" lon="17.869735630089">
        <ele>128.4</ele>
        <time>2017-12-24T10:37:38Z</time>
      </trkpt>
      <trkpt lat="62.643756325333" lon="17.869651894908">
        <ele>128.4</ele>
        <time>2017-12-24T10:37:39Z</time>
      </trkpt>
      <trkpt lat="62.643762779396" lon="17.86958970121">
        <ele>128.2</ele>
        <time>2017-12-24T10:37:40Z</time>
      </trkpt>
      <trkpt lat="62.643772586219" lon="17.869529938263">
        <ele>128.4</ele>
        <time>2017-12-24T10:37:41Z</time>
      </trkpt>
      <trkpt lat="62.643789182381" lon="17.86945726719">
        <ele>128.4</ele>
        <time>2017-12-24T10:37:42Z</time>
      </trkpt>
      <trkpt lat="62.643800581765" lon="17.869396582234">
        <ele>128.4</ele>
        <time>2017-12-24T10:37:43Z</time>
      </trkpt>
      <trkpt lat="62.643812567882" lon="17.86931812765">
        <ele>128.4</ele>
        <time>2017-12-24T10:37:44Z</time>
      </trkpt>
      <trkpt lat="62.643818686669" lon="17.869255347219">
        <ele>128.4</ele>
        <time>2017-12-24T10:37:45Z</time>
      </trkpt>
      <trkpt lat="62.643822458524" lon="17.869191728598">
        <ele>128.4</ele>
        <time>2017-12-24T10:37:46Z</time>
      </trkpt>
      <trkpt lat="62.643827906759" lon="17.869134731678">
        <ele>128.4</ele>
        <time>2017-12-24T10:37:47Z</time>
      </trkpt>
      <trkpt lat="62.643831008062" lon="17.869074549636">
        <ele>128.4</ele>
        <time>2017-12-24T10:37:48Z</time>
      </trkpt>
      <trkpt lat="62.643830421329" lon="17.869012607395">
        <ele>128.4</ele>
        <time>2017-12-24T10:37:49Z</time>
      </trkpt>
      <trkpt lat="62.643825559827" lon="17.8689702788">
        <ele>128.6</ele>
        <time>2017-12-24T10:37:50Z</time>
      </trkpt>
      <trkpt lat="62.643821536515" lon="17.868911773138">
        <ele>128.6</ele>
        <time>2017-12-24T10:37:51Z</time>
      </trkpt>
      <trkpt lat="62.643822039429" lon="17.868859050987">
        <ele>128.6</ele>
        <time>2017-12-24T10:37:52Z</time>
      </trkpt>
      <trkpt lat="62.643818099936" lon="17.868813201994">
        <ele>128.6</ele>
        <time>2017-12-24T10:37:53Z</time>
      </trkpt>
      <trkpt lat="62.643810472407" lon="17.86873977655">
        <ele>128.6</ele>
        <time>2017-12-24T10:37:54Z</time>
      </trkpt>
      <trkpt lat="62.643810807683" lon="17.868677582852">
        <ele>128.8</ele>
        <time>2017-12-24T10:37:55Z</time>
      </trkpt>
      <trkpt lat="62.643803347792" lon="17.868604744141">
        <ele>128.8</ele>
        <time>2017-12-24T10:37:56Z</time>
      </trkpt>
      <trkpt lat="62.643794379159" lon="17.86852939086">
        <ele>128.8</ele>
        <time>2017-12-24T10:37:57Z</time>
      </trkpt>
      <trkpt lat="62.643787003087" lon="17.868455713959">
        <ele>128.8</ele>
        <time>2017-12-24T10:37:58Z</time>
      </trkpt>
      <trkpt lat="62.643774765513" lon="17.86836762019">
        <ele>128.8</ele>
        <time>2017-12-24T10:37:59Z</time>
      </trkpt>
      <trkpt lat="62.643763114672" lon="17.868285980484">
        <ele>128.6</ele>
        <time>2017-12-24T10:38:00Z</time>
      </trkpt>
      <trkpt lat="62.643756828247" lon="17.868196377973">
        <ele>128.6</ele>
        <time>2017-12-24T10:38:01Z</time>
      </trkpt>
      <trkpt lat="62.643755822419" lon="17.868120437959">
        <ele>128.4</ele>
        <time>2017-12-24T10:38:02Z</time>
      </trkpt>
      <trkpt lat="62.643753810763" lon="17.868058663356">
        <ele>128.4</ele>
        <time>2017-12-24T10:38:03Z</time>
      </trkpt>
      <trkpt lat="62.643748530166" lon="17.867973587071">
        <ele>128.4</ele>
        <time>2017-12-24T10:38:04Z</time>
      </trkpt>
      <trkpt lat="62.643745177406" lon="17.867908040613">
        <ele>128.4</ele>
        <time>2017-12-24T10:38:05Z</time>
      </trkpt>
      <trkpt lat="62.643737968972" lon="17.867815001523">
        <ele>128.2</ele>
        <time>2017-12-24T10:38:06Z</time>
      </trkpt>
      <trkpt lat="62.643735957316" lon="17.867753562196">
        <ele>128.2</ele>
        <time>2017-12-24T10:38:07Z</time>
      </trkpt>
      <trkpt lat="62.643724138837" lon="17.867697152009">
        <ele>128.2</ele>
        <time>2017-12-24T10:38:08Z</time>
      </trkpt>
      <trkpt lat="62.643704944286" lon="17.867622050185">
        <ele>128.2</ele>
        <time>2017-12-24T10:38:09Z</time>
      </trkpt>
      <trkpt lat="62.643684827726" lon="17.867552815691">
        <ele>128</ele>
        <time>2017-12-24T10:38:10Z</time>
      </trkpt>
      <trkpt lat="62.643666303727" lon="17.867496154047">
        <ele>127.8</ele>
        <time>2017-12-24T10:38:11Z</time>
      </trkpt>
      <trkpt lat="62.643646019529" lon="17.867430356132">
        <ele>127.8</ele>
        <time>2017-12-24T10:38:12Z</time>
      </trkpt>
      <trkpt lat="62.643632273213" lon="17.867378975085">
        <ele>127.6</ele>
        <time>2017-12-24T10:38:13Z</time>
      </trkpt>
      <trkpt lat="62.643620873829" lon="17.867311333152">
        <ele>127.6</ele>
        <time>2017-12-24T10:38:14Z</time>
      </trkpt>
      <trkpt lat="62.643615341775" lon="17.86724528378">
        <ele>127.6</ele>
        <time>2017-12-24T10:38:15Z</time>
      </trkpt>
      <trkpt lat="62.643616850517" lon="17.867181078426">
        <ele>127.4</ele>
        <time>2017-12-24T10:38:16Z</time>
      </trkpt>
      <trkpt lat="62.643625483874" lon="17.867127015171">
        <ele>127.2</ele>
        <time>2017-12-24T10:38:17Z</time>
      </trkpt>
      <trkpt lat="62.643640152199" lon="17.867058954143">
        <ele>127.2</ele>
        <time>2017-12-24T10:38:18Z</time>
      </trkpt>
      <trkpt lat="62.643664208252" lon="17.86696616651">
        <ele>127</ele>
        <time>2017-12-24T10:38:19Z</time>
      </trkpt>
      <trkpt lat="62.643691617065" lon="17.866889807401">
        <ele>126.8</ele>
        <time>2017-12-24T10:38:20Z</time>
      </trkpt>
      <trkpt lat="62.643728329787" lon="17.866820572907">
        <ele>126.4</ele>
        <time>2017-12-24T10:38:21Z</time>
      </trkpt>
      <trkpt lat="62.64375741498" lon="17.866762151064">
        <ele>126</ele>
        <time>2017-12-24T10:38:22Z</time>
      </trkpt>
      <trkpt lat="62.643787003087" lon="17.866711608207">
        <ele>125.6</ele>
        <time>2017-12-24T10:38:23Z</time>
      </trkpt>
      <trkpt lat="62.643822207067" lon="17.866649665966">
        <ele>125.2</ele>
        <time>2017-12-24T10:38:24Z</time>
      </trkpt>
      <trkpt lat="62.643842742722" lon="17.866611109226">
        <ele>124.8</ele>
        <time>2017-12-24T10:38:25Z</time>
      </trkpt>
      <trkpt lat="62.643859506522" lon="17.866575905246">
        <ele>124.6</ele>
        <time>2017-12-24T10:38:26Z</time>
      </trkpt>
      <trkpt lat="62.643875515951" lon="17.866543467293">
        <ele>124.4</ele>
        <time>2017-12-24T10:38:27Z</time>
      </trkpt>
      <trkpt lat="62.643886160964" lon="17.866522931638">
        <ele>124.6</ele>
        <time>2017-12-24T10:38:28Z</time>
      </trkpt>
      <trkpt lat="62.643897057434" lon="17.866503569449">
        <ele>124.8</ele>
        <time>2017-12-24T10:38:29Z</time>
      </trkpt>
      <trkpt lat="62.64390745099" lon="17.866483201432">
        <ele>124.8</ele>
        <time>2017-12-24T10:38:30Z</time>
      </trkpt>
      <trkpt lat="62.643918012184" lon="17.866463839243">
        <ele>125</ele>
        <time>2017-12-24T10:38:31Z</time>
      </trkpt>
      <trkpt lat="62.643926645541" lon="17.866442549217">
        <ele>125.4</ele>
        <time>2017-12-24T10:38:32Z</time>
      </trkpt>
      <trkpt lat="62.643933351061" lon="17.866422935571">
        <ele>125.6</ele>
        <time>2017-12-24T10:38:33Z</time>
      </trkpt>
      <trkpt lat="62.643944582807" lon="17.866397706052">
        <ele>125.8</ele>
        <time>2017-12-24T10:38:34Z</time>
      </trkpt>
      <trkpt lat="62.643955982191" lon="17.866377924768">
        <ele>126</ele>
        <time>2017-12-24T10:38:35Z</time>
      </trkpt>
      <trkpt lat="62.643966459566" lon="17.866354958362">
        <ele>126.4</ele>
        <time>2017-12-24T10:38:36Z</time>
      </trkpt>
      <trkpt lat="62.643979870606" lon="17.866337943105">
        <ele>126.6</ele>
        <time>2017-12-24T10:38:37Z</time>
      </trkpt>
      <trkpt lat="62.643986073212" lon="17.866312965043">
        <ele>127</ele>
        <time>2017-12-24T10:38:38Z</time>
      </trkpt>
      <trkpt lat="62.643994036017" lon="17.866283628393">
        <ele>127.2</ele>
        <time>2017-12-24T10:38:39Z</time>
      </trkpt>
      <trkpt lat="62.643999735709" lon="17.866249681698">
        <ele>127.4</ele>
        <time>2017-12-24T10:38:40Z</time>
      </trkpt>
      <trkpt lat="62.644010045446" lon="17.866219674496">
        <ele>127.8</ele>
        <time>2017-12-24T10:38:41Z</time>
      </trkpt>
      <trkpt lat="62.644022031563" lon="17.866189248199">
        <ele>128.2</ele>
        <time>2017-12-24T10:38:42Z</time>
      </trkpt>
      <trkpt lat="62.644028485626" lon="17.866158654264">
        <ele>128.4</ele>
        <time>2017-12-24T10:38:43Z</time>
      </trkpt>
      <trkpt lat="62.644033766223" lon="17.866119426972">
        <ele>128.8</ele>
        <time>2017-12-24T10:38:44Z</time>
      </trkpt>
      <trkpt lat="62.644039298277" lon="17.866084306811">
        <ele>128.8</ele>
        <time>2017-12-24T10:38:45Z</time>
      </trkpt>
      <trkpt lat="62.644049188919" lon="17.866030830289">
        <ele>129</ele>
        <time>2017-12-24T10:38:46Z</time>
      </trkpt>
      <trkpt lat="62.644058241371" lon="17.865966960211">
        <ele>129.2</ele>
        <time>2017-12-24T10:38:48Z</time>
      </trkpt>
      <trkpt lat="62.644065533624" lon="17.865921697951">
        <ele>129.4</ele>
        <time>2017-12-24T10:38:49Z</time>
      </trkpt>
      <trkpt lat="62.644066539452" lon="17.865900659382">
        <ele>129.6</ele>
        <time>2017-12-24T10:38:50Z</time>
      </trkpt>
      <trkpt lat="62.644076010999" lon="17.865860677719">
        <ele>129.8</ele>
        <time>2017-12-24T10:38:51Z</time>
      </trkpt>
      <trkpt lat="62.644084728175" lon="17.865821869522">
        <ele>130.2</ele>
        <time>2017-12-24T10:38:52Z</time>
      </trkpt>
      <trkpt lat="62.644088080935" lon="17.865788341922">
        <ele>130.4</ele>
        <time>2017-12-24T10:38:53Z</time>
      </trkpt>
      <trkpt lat="62.644102162527" lon="17.865748779354">
        <ele>130.6</ele>
        <time>2017-12-24T10:38:54Z</time>
      </trkpt>
      <trkpt lat="62.644113226635" lon="17.865698236497">
        <ele>130.6</ele>
        <time>2017-12-24T10:38:55Z</time>
      </trkpt>
      <trkpt lat="62.644125548028" lon="17.865666804372">
        <ele>130.8</ele>
        <time>2017-12-24T10:38:56Z</time>
      </trkpt>
      <trkpt lat="62.644141306" lon="17.86563847355">
        <ele>130.8</ele>
        <time>2017-12-24T10:38:57Z</time>
      </trkpt>
      <trkpt lat="62.644145580769" lon="17.865600419724">
        <ele>131</ele>
        <time>2017-12-24T10:38:58Z</time>
      </trkpt>
      <trkpt lat="62.644166116424" lon="17.865578207689">
        <ele>131.2</ele>
        <time>2017-12-24T10:38:59Z</time>
      </trkpt>
      <trkpt lat="62.644175001238" lon="17.865541327329">
        <ele>131.2</ele>
        <time>2017-12-24T10:39:00Z</time>
      </trkpt>
      <trkpt lat="62.644190423934" lon="17.865518193285">
        <ele>131.4</ele>
        <time>2017-12-24T10:39:01Z</time>
      </trkpt>
      <trkpt lat="62.644202158594" lon="17.865479888002">
        <ele>131.6</ele>
        <time>2017-12-24T10:39:02Z</time>
      </trkpt>
      <trkpt lat="62.644214815263" lon="17.865455161397">
        <ele>131.8</ele>
        <time>2017-12-24T10:39:03Z</time>
      </trkpt>
      <trkpt lat="62.644235770013" lon="17.865417610485">
        <ele>131.8</ele>
        <time>2017-12-24T10:39:04Z</time>
      </trkpt>
      <trkpt lat="62.644250605976" lon="17.865392129509">
        <ele>131.8</ele>
        <time>2017-12-24T10:39:05Z</time>
      </trkpt>
      <trkpt lat="62.64427290183" lon="17.865361284117">
        <ele>131.8</ele>
        <time>2017-12-24T10:39:06Z</time>
      </trkpt>
      <trkpt lat="62.644288492164" lon="17.865309986889">
        <ele>132</ele>
        <time>2017-12-24T10:39:07Z</time>
      </trkpt>
      <trkpt lat="62.64430642943" lon="17.865289870329">
        <ele>132</ele>
        <time>2017-12-24T10:39:08Z</time>
      </trkpt>
      <trkpt lat="62.644325288705" lon="17.865241087671">
        <ele>132</ele>
        <time>2017-12-24T10:39:09Z</time>
      </trkpt>
      <trkpt lat="62.644343477428" lon="17.865218959455">
        <ele>132</ele>
        <time>2017-12-24T10:39:10Z</time>
      </trkpt>
      <trkpt lat="62.644358481029" lon="17.865184258389">
        <ele>132</ele>
        <time>2017-12-24T10:39:11Z</time>
      </trkpt>
      <trkpt lat="62.64437097006" lon="17.865145534011">
        <ele>132</ele>
        <time>2017-12-24T10:39:12Z</time>
      </trkpt>
      <trkpt lat="62.644387314765" lon="17.865111419678">
        <ele>132</ele>
        <time>2017-12-24T10:39:13Z</time>
      </trkpt>
      <trkpt lat="62.644406593135" lon="17.865073030576">
        <ele>132</ele>
        <time>2017-12-24T10:39:14Z</time>
      </trkpt>
      <trkpt lat="62.644420926184" lon="17.865038497148">
        <ele>132</ele>
        <time>2017-12-24T10:39:15Z</time>
      </trkpt>
      <trkpt lat="62.644445149875" lon="17.865021817167">
        <ele>132</ele>
        <time>2017-12-24T10:39:16Z</time>
      </trkpt>
      <trkpt lat="62.644468786833" lon="17.865020224606">
        <ele>132</ele>
        <time>2017-12-24T10:39:17Z</time>
      </trkpt>
      <trkpt lat="62.644488819574" lon="17.865016201294">
        <ele>132</ele>
        <time>2017-12-24T10:39:18Z</time>
      </trkpt>
      <trkpt lat="62.644512372713" lon="17.86503581494">
        <ele>132.2</ele>
        <time>2017-12-24T10:39:19Z</time>
      </trkpt>
      <trkpt lat="62.644527795409" lon="17.86506179883">
        <ele>132.2</ele>
        <time>2017-12-24T10:39:20Z</time>
      </trkpt>
      <trkpt lat="62.644542966648" lon="17.865093398593">
        <ele>132.4</ele>
        <time>2017-12-24T10:39:21Z</time>
      </trkpt>
      <trkpt lat="62.644560065724" lon="17.865129021668">
        <ele>132.4</ele>
        <time>2017-12-24T10:39:22Z</time>
      </trkpt>
      <trkpt lat="62.6445687829" lon="17.865174451566">
        <ele>132.6</ele>
        <time>2017-12-24T10:39:23Z</time>
      </trkpt>
      <trkpt lat="62.644587725994" lon="17.865205464596">
        <ele>132.6</ele>
        <time>2017-12-24T10:39:24Z</time>
      </trkpt>
      <trkpt lat="62.644598287188" lon="17.865251732684">
        <ele>132.8</ele>
        <time>2017-12-24T10:39:25Z</time>
      </trkpt>
      <trkpt lat="62.644609770391" lon="17.865285930836">
        <ele>133</ele>
        <time>2017-12-24T10:39:26Z</time>
      </trkpt>
      <trkpt lat="62.64462242706" lon="17.865325158128">
        <ele>133</ele>
        <time>2017-12-24T10:39:27Z</time>
      </trkpt>
      <trkpt lat="62.64462997077" lon="17.865367235266">
        <ele>133.2</ele>
        <time>2017-12-24T10:39:28Z</time>
      </trkpt>
      <trkpt lat="62.64464422" lon="17.865397242468">
        <ele>133.2</ele>
        <time>2017-12-24T10:39:29Z</time>
      </trkpt>
      <trkpt lat="62.644655703203" lon="17.865445270755">
        <ele>133.4</ele>
        <time>2017-12-24T10:39:30Z</time>
      </trkpt>
      <trkpt lat="62.644670539166" lon="17.86547586469">
        <ele>133.6</ele>
        <time>2017-12-24T10:39:31Z</time>
      </trkpt>
      <trkpt lat="62.644682022369" lon="17.865507296815">
        <ele>133.6</ele>
        <time>2017-12-24T10:39:32Z</time>
      </trkpt>
      <trkpt lat="62.644690152812" lon="17.865543338985">
        <ele>133.8</ele>
        <time>2017-12-24T10:39:33Z</time>
      </trkpt>
      <trkpt lat="62.644703647671" lon="17.865565634839">
        <ele>133.8</ele>
        <time>2017-12-24T10:39:34Z</time>
      </trkpt>
      <trkpt lat="62.644716807254" lon="17.865592876014">
        <ele>134</ele>
        <time>2017-12-24T10:39:35Z</time>
      </trkpt>
      <trkpt lat="62.644733738692" lon="17.865626571252">
        <ele>134</ele>
        <time>2017-12-24T10:39:36Z</time>
      </trkpt>
      <trkpt lat="62.644752178872" lon="17.865652806599">
        <ele>134.2</ele>
        <time>2017-12-24T10:39:37Z</time>
      </trkpt>
      <trkpt lat="62.644763494437" lon="17.865663032517">
        <ele>134.2</ele>
        <time>2017-12-24T10:39:38Z</time>
      </trkpt>
      <trkpt lat="62.644775312916" lon="17.865678455213">
        <ele>134.4</ele>
        <time>2017-12-24T10:39:39Z</time>
      </trkpt>
      <trkpt lat="62.644785622653" lon="17.865692620624">
        <ele>134.6</ele>
        <time>2017-12-24T10:39:40Z</time>
      </trkpt>
      <trkpt lat="62.644799117512" lon="17.865699912877">
        <ele>135</ele>
        <time>2017-12-24T10:39:41Z</time>
      </trkpt>
      <trkpt lat="62.644816216588" lon="17.865715000297">
        <ele>135.2</ele>
        <time>2017-12-24T10:39:42Z</time>
      </trkpt>
      <trkpt lat="62.64482694542" lon="17.865733356658">
        <ele>135.6</ele>
        <time>2017-12-24T10:39:43Z</time>
      </trkpt>
      <trkpt lat="62.644839769727" lon="17.865745342775">
        <ele>135.8</ele>
        <time>2017-12-24T10:39:44Z</time>
      </trkpt>
      <trkpt lat="62.644853432224" lon="17.865745678051">
        <ele>136.2</ele>
        <time>2017-12-24T10:39:45Z</time>
      </trkpt>
      <trkpt lat="62.644865669798" lon="17.865754730503">
        <ele>136.4</ele>
        <time>2017-12-24T10:39:46Z</time>
      </trkpt>
      <trkpt lat="62.644877823553" lon="17.865763531498">
        <ele>136.6</ele>
        <time>2017-12-24T10:39:47Z</time>
      </trkpt>
      <trkpt lat="62.644893330068" lon="17.865767387172">
        <ele>136.8</ele>
        <time>2017-12-24T10:39:48Z</time>
      </trkpt>
      <trkpt lat="62.644912273162" lon="17.865781887859">
        <ele>137</ele>
        <time>2017-12-24T10:39:49Z</time>
      </trkpt>
      <trkpt lat="62.644922834356" lon="17.865800328039">
        <ele>137</ele>
        <time>2017-12-24T10:39:50Z</time>
      </trkpt>
      <trkpt lat="62.644938340871" lon="17.865801585324">
        <ele>137.2</ele>
        <time>2017-12-24T10:39:51Z</time>
      </trkpt>
      <trkpt lat="62.644953428291" lon="17.865822372436">
        <ele>137.2</ele>
        <time>2017-12-24T10:39:52Z</time>
      </trkpt>
      <trkpt lat="62.644967426064" lon="17.865829329413">
        <ele>137.4</ele>
        <time>2017-12-24T10:39:53Z</time>
      </trkpt>
      <trkpt lat="62.644979244543" lon="17.865841064073">
        <ele>137.6</ele>
        <time>2017-12-24T10:39:54Z</time>
      </trkpt>
      <trkpt lat="62.64499877437" lon="17.865863276108">
        <ele>137.8</ele>
        <time>2017-12-24T10:39:55Z</time>
      </trkpt>
      <trkpt lat="62.645016963093" lon="17.865878614985">
        <ele>137.8</ele>
        <time>2017-12-24T10:39:56Z</time>
      </trkpt>
      <trkpt lat="62.645028362477" lon="17.86588741598">
        <ele>138</ele>
        <time>2017-12-24T10:39:57Z</time>
      </trkpt>
      <trkpt lat="62.645039594223" lon="17.865901497572">
        <ele>138.2</ele>
        <time>2017-12-24T10:39:58Z</time>
      </trkpt>
      <trkpt lat="62.645053508177" lon="17.865904766513">
        <ele>138.4</ele>
        <time>2017-12-24T10:39:59Z</time>
      </trkpt>
      <trkpt lat="62.64507085871" lon="17.865920692123">
        <ele>138.6</ele>
        <time>2017-12-24T10:40:00Z</time>
      </trkpt>
      <trkpt lat="62.645083599198" lon="17.865943407072">
        <ele>138.8</ele>
        <time>2017-12-24T10:40:01Z</time>
      </trkpt>
      <trkpt lat="62.645099273351" lon="17.865944329081">
        <ele>138.8</ele>
        <time>2017-12-24T10:40:02Z</time>
      </trkpt>
      <trkpt lat="62.64511109183" lon="17.865969390962">
        <ele>139.2</ele>
        <time>2017-12-24T10:40:03Z</time>
      </trkpt>
      <trkpt lat="62.645128526182" lon="17.865993279377">
        <ele>139.4</ele>
        <time>2017-12-24T10:40:04Z</time>
      </trkpt>
      <trkpt lat="62.64514126667" lon="17.865996464499">
        <ele>139.8</ele>
        <time>2017-12-24T10:40:05Z</time>
      </trkpt>
      <trkpt lat="62.645157779013" lon="17.866032003755">
        <ele>140</ele>
        <time>2017-12-24T10:40:06Z</time>
      </trkpt>
      <trkpt lat="62.64517395608" lon="17.866055640713">
        <ele>140.6</ele>
        <time>2017-12-24T10:40:07Z</time>
      </trkpt>
      <trkpt lat="62.645186612749" lon="17.866079948223">
        <ele>140.8</ele>
        <time>2017-12-24T10:40:08Z</time>
      </trkpt>
      <trkpt lat="62.645198934142" lon="17.866120097524">
        <ele>141</ele>
        <time>2017-12-24T10:40:09Z</time>
      </trkpt>
      <trkpt lat="62.645212931915" lon="17.866150942916">
        <ele>141</ele>
        <time>2017-12-24T10:40:10Z</time>
      </trkpt>
      <trkpt lat="62.645226426774" lon="17.866182542679">
        <ele>141.2</ele>
        <time>2017-12-24T10:40:11Z</time>
      </trkpt>
      <trkpt lat="62.645237909977" lon="17.866206514913">
        <ele>141</ele>
        <time>2017-12-24T10:40:12Z</time>
      </trkpt>
      <trkpt lat="62.645243190574" lon="17.866248759689">
        <ele>141.2</ele>
        <time>2017-12-24T10:40:13Z</time>
      </trkpt>
      <trkpt lat="62.645248387352" lon="17.866287735524">
        <ele>141.2</ele>
        <time>2017-12-24T10:40:14Z</time>
      </trkpt>
      <trkpt lat="62.64525190775" lon="17.866324029151">
        <ele>141.4</ele>
        <time>2017-12-24T10:40:15Z</time>
      </trkpt>
      <trkpt lat="62.6452477168" lon="17.866361244787">
        <ele>141.6</ele>
        <time>2017-12-24T10:40:16Z</time>
      </trkpt>
      <trkpt lat="62.645241095099" lon="17.866397119319">
        <ele>141.8</ele>
        <time>2017-12-24T10:40:17Z</time>
      </trkpt>
      <trkpt lat="62.645228019335" lon="17.86644397414">
        <ele>141.8</ele>
        <time>2017-12-24T10:40:18Z</time>
      </trkpt>
      <trkpt lat="62.645216452313" lon="17.86647163441">
        <ele>142</ele>
        <time>2017-12-24T10:40:19Z</time>
      </trkpt>
      <trkpt lat="62.645197676857" lon="17.866511364616">
        <ele>142.2</ele>
        <time>2017-12-24T10:40:20Z</time>
      </trkpt>
      <trkpt lat="62.645179320496" lon="17.866560147274">
        <ele>142.4</ele>
        <time>2017-12-24T10:40:21Z</time>
      </trkpt>
      <trkpt lat="62.645158784841" lon="17.866613791434">
        <ele>142.4</ele>
        <time>2017-12-24T10:40:22Z</time>
      </trkpt>
      <trkpt lat="62.645137578634" lon="17.866677242417">
        <ele>142.2</ele>
        <time>2017-12-24T10:40:23Z</time>
      </trkpt>
      <trkpt lat="62.645108409622" lon="17.866767934575">
        <ele>141.6</ele>
        <time>2017-12-24T10:40:24Z</time>
      </trkpt>
      <trkpt lat="62.645089131252" lon="17.866866505719">
        <ele>141</ele>
        <time>2017-12-24T10:40:25Z</time>
      </trkpt>
      <trkpt lat="62.645066835398" lon="17.866970441279">
        <ele>140.2</ele>
        <time>2017-12-24T10:40:26Z</time>
      </trkpt>
      <trkpt lat="62.645039426585" lon="17.867090637725">
        <ele>139.2</ele>
        <time>2017-12-24T10:40:27Z</time>
      </trkpt>
      <trkpt lat="62.645017046912" lon="17.867193735095">
        <ele>138.4</ele>
        <time>2017-12-24T10:40:28Z</time>
      </trkpt>
      <trkpt lat="62.644985950063" lon="17.867316110835">
        <ele>137.6</ele>
        <time>2017-12-24T10:40:29Z</time>
      </trkpt>
      <trkpt lat="62.644950578445" lon="17.867440833507">
        <ele>137</ele>
        <time>2017-12-24T10:40:30Z</time>
      </trkpt>
      <trkpt lat="62.644919230139" lon="17.867563712161">
        <ele>136.2</ele>
        <time>2017-12-24T10:40:31Z</time>
      </trkpt>
      <trkpt lat="62.644883858521" lon="17.86769455362">
        <ele>135.6</ele>
        <time>2017-12-24T10:40:32Z</time>
      </trkpt>
      <trkpt lat="62.644857204079" lon="17.867791113108">
        <ele>135.2</ele>
        <time>2017-12-24T10:40:33Z</time>
      </trkpt>
      <trkpt lat="62.644828705619" lon="17.867910974278">
        <ele>134.8</ele>
        <time>2017-12-24T10:40:34Z</time>
      </trkpt>
      <trkpt lat="62.644813115285" lon="17.868005103015">
        <ele>134.6</ele>
        <time>2017-12-24T10:40:35Z</time>
      </trkpt>
      <trkpt lat="62.644796435304" lon="17.868124796547">
        <ele>134.4</ele>
        <time>2017-12-24T10:40:36Z</time>
      </trkpt>
      <trkpt lat="62.644787131395" lon="17.868225882261">
        <ele>134.4</ele>
        <time>2017-12-24T10:40:37Z</time>
      </trkpt>
      <trkpt lat="62.644778749495" lon="17.868327135613">
        <ele>134.2</ele>
        <time>2017-12-24T10:40:38Z</time>
      </trkpt>
      <trkpt lat="62.644760141677" lon="17.868439536892">
        <ele>134</ele>
        <time>2017-12-24T10:40:39Z</time>
      </trkpt>
      <trkpt lat="62.64474647918" lon="17.868541879891">
        <ele>134</ele>
        <time>2017-12-24T10:40:40Z</time>
      </trkpt>
      <trkpt lat="62.644753687614" lon="17.86860566615">
        <ele>134.2</ele>
        <time>2017-12-24T10:40:41Z</time>
      </trkpt>
      <trkpt lat="62.644739941298" lon="17.868703315285">
        <ele>134.4</ele>
        <time>2017-12-24T10:40:42Z</time>
      </trkpt>
      <trkpt lat="62.644737510547" lon="17.868801132058">
        <ele>134.6</ele>
        <time>2017-12-24T10:40:43Z</time>
      </trkpt>
      <trkpt lat="62.644737426728" lon="17.868889309646">
        <ele>134.8</ele>
        <time>2017-12-24T10:40:44Z</time>
      </trkpt>
      <trkpt lat="62.644726614077" lon="17.868990479179">
        <ele>135.2</ele>
        <time>2017-12-24T10:40:45Z</time>
      </trkpt>
      <trkpt lat="62.644726697896" lon="17.869050577402">
        <ele>135.2</ele>
        <time>2017-12-24T10:40:46Z</time>
      </trkpt>
      <trkpt lat="62.64471881891" lon="17.86912366757">
        <ele>135.4</ele>
        <time>2017-12-24T10:40:47Z</time>
      </trkpt>
      <trkpt lat="62.644712616304" lon="17.869218802135">
        <ele>135.2</ele>
        <time>2017-12-24T10:40:48Z</time>
      </trkpt>
      <trkpt lat="62.644715885245" lon="17.869300860936">
        <ele>135.2</ele>
        <time>2017-12-24T10:40:49Z</time>
      </trkpt>
      <trkpt lat="62.644703982947" lon="17.869394486759">
        <ele>135</ele>
        <time>2017-12-24T10:40:50Z</time>
      </trkpt>
      <trkpt lat="62.644701468377" lon="17.869498422319">
        <ele>135</ele>
        <time>2017-12-24T10:40:51Z</time>
      </trkpt>
      <trkpt lat="62.644708676811" lon="17.869588946839">
        <ele>135</ele>
        <time>2017-12-24T10:40:52Z</time>
      </trkpt>
      <trkpt lat="62.644695936323" lon="17.869689781096">
        <ele>134.8</ele>
        <time>2017-12-24T10:40:53Z</time>
      </trkpt>
      <trkpt lat="62.644682357645" lon="17.869785502394">
        <ele>134.8</ele>
        <time>2017-12-24T10:40:54Z</time>
      </trkpt>
      <trkpt lat="62.644664923293" lon="17.869900585881">
        <ele>134.6</ele>
        <time>2017-12-24T10:40:55Z</time>
      </trkpt>
      <trkpt lat="62.644662576361" lon="17.870010640228">
        <ele>134.4</ele>
        <time>2017-12-24T10:40:56Z</time>
      </trkpt>
      <trkpt lat="62.644653523909" lon="17.870100326558">
        <ele>134.4</ele>
        <time>2017-12-24T10:40:57Z</time>
      </trkpt>
      <trkpt lat="62.644645561104" lon="17.870195125847">
        <ele>134.2</ele>
        <time>2017-12-24T10:40:58Z</time>
      </trkpt>
      <trkpt lat="62.644638185032" lon="17.870278861028">
        <ele>134</ele>
        <time>2017-12-24T10:40:59Z</time>
      </trkpt>
      <trkpt lat="62.644634245539" lon="17.870371481023">
        <ele>133.8</ele>
        <time>2017-12-24T10:41:00Z</time>
      </trkpt>
      <trkpt lat="62.644626785648" lon="17.870464268656">
        <ele>133.6</ele>
        <time>2017-12-24T10:41:01Z</time>
      </trkpt>
      <trkpt lat="62.644625444544" lon="17.870562085429">
        <ele>133.6</ele>
        <time>2017-12-24T10:41:02Z</time>
      </trkpt>
      <trkpt lat="62.64461991249" lon="17.870666188627">
        <ele>133.2</ele>
        <time>2017-12-24T10:41:03Z</time>
      </trkpt>
      <trkpt lat="62.644604154518" lon="17.870805411986">
        <ele>132.2</ele>
        <time>2017-12-24T10:41:04Z</time>
      </trkpt>
      <trkpt lat="62.644594934428" lon="17.870903564035">
        <ele>131.8</ele>
        <time>2017-12-24T10:41:05Z</time>
      </trkpt>
      <trkpt lat="62.644585798157" lon="17.871021916463">
        <ele>130.8</ele>
        <time>2017-12-24T10:41:06Z</time>
      </trkpt>
      <trkpt lat="62.644580014646" lon="17.871106573653">
        <ele>130</ele>
        <time>2017-12-24T10:41:07Z</time>
      </trkpt>
      <trkpt lat="62.644561993561" lon="17.871217298552">
        <ele>129.2</ele>
        <time>2017-12-24T10:41:08Z</time>
      </trkpt>
      <trkpt lat="62.644545481218" lon="17.871328191089">
        <ele>128.8</ele>
        <time>2017-12-24T10:41:09Z</time>
      </trkpt>
      <trkpt lat="62.64453944625" lon="17.871444448042">
        <ele>128.8</ele>
        <time>2017-12-24T10:41:10Z</time>
      </trkpt>
      <trkpt lat="62.644520000242" lon="17.871536984218">
        <ele>129.2</ele>
        <time>2017-12-24T10:41:11Z</time>
      </trkpt>
      <trkpt lat="62.644495273637" lon="17.871656761569">
        <ele>129.4</ele>
        <time>2017-12-24T10:41:12Z</time>
      </trkpt>
      <trkpt lat="62.644488065203" lon="17.871747705184">
        <ele>129.6</ele>
        <time>2017-12-24T10:41:13Z</time>
      </trkpt>
      <trkpt lat="62.644473732154" lon="17.871844013215">
        <ele>129.8</ele>
        <time>2017-12-24T10:41:14Z</time>
      </trkpt>
      <trkpt lat="62.644443557314" lon="17.871948870784">
        <ele>129.8</ele>
        <time>2017-12-24T10:41:15Z</time>
      </trkpt>
      <trkpt lat="62.644425536229" lon="17.872039898218">
        <ele>129.8</ele>
        <time>2017-12-24T10:41:16Z</time>
      </trkpt>
      <trkpt lat="62.644401312538" lon="17.872136457706">
        <ele>129.6</ele>
        <time>2017-12-24T10:41:17Z</time>
      </trkpt>
      <trkpt lat="62.64437516101" lon="17.872234525936">
        <ele>129.6</ele>
        <time>2017-12-24T10:41:18Z</time>
      </trkpt>
      <trkpt lat="62.644340376125" lon="17.872327565026">
        <ele>129.4</ele>
        <time>2017-12-24T10:41:19Z</time>
      </trkpt>
      <trkpt lat="62.644328054732" lon="17.872393782036">
        <ele>129.4</ele>
        <time>2017-12-24T10:41:20Z</time>
      </trkpt>
      <trkpt lat="62.644294108037" lon="17.872498304329">
        <ele>129.4</ele>
        <time>2017-12-24T10:41:21Z</time>
      </trkpt>
      <trkpt lat="62.644276506047" lon="17.87254013001">
        <ele>129.4</ele>
        <time>2017-12-24T10:41:22Z</time>
      </trkpt>
      <trkpt lat="62.644249264872" lon="17.872645322855">
        <ele>129.4</ele>
        <time>2017-12-24T10:41:23Z</time>
      </trkpt>
      <trkpt lat="62.644222358973" lon="17.872760406342">
        <ele>129.2</ele>
        <time>2017-12-24T10:41:24Z</time>
      </trkpt>
      <trkpt lat="62.644199811662" lon="17.87288127334">
        <ele>129</ele>
        <time>2017-12-24T10:41:25Z</time>
      </trkpt>
      <trkpt lat="62.644186735898" lon="17.87299526718">
        <ele>128.8</ele>
        <time>2017-12-24T10:41:26Z</time>
      </trkpt>
      <trkpt lat="62.644171983754" lon="17.873124264621">
        <ele>128.4</ele>
        <time>2017-12-24T10:41:27Z</time>
      </trkpt>
      <trkpt lat="62.644156141963" lon="17.873244628705">
        <ele>128.2</ele>
        <time>2017-12-24T10:41:28Z</time>
      </trkpt>
      <trkpt lat="62.644139126706" lon="17.873372704137">
        <ele>127.8</ele>
        <time>2017-12-24T10:41:29Z</time>
      </trkpt>
      <trkpt lat="62.644114400101" lon="17.873501282483">
        <ele>127.4</ele>
        <time>2017-12-24T10:41:30Z</time>
      </trkpt>
      <trkpt lat="62.644109035685" lon="17.873589376252">
        <ele>127</ele>
        <time>2017-12-24T10:41:31Z</time>
      </trkpt>
      <trkpt lat="62.644086991288" lon="17.873708315413">
        <ele>126.6</ele>
        <time>2017-12-24T10:41:32Z</time>
      </trkpt>
      <trkpt lat="62.64406838347" lon="17.873810155498">
        <ele>126.4</ele>
        <time>2017-12-24T10:41:33Z</time>
      </trkpt>
      <trkpt lat="62.644039214458" lon="17.873923897881">
        <ele>126</ele>
        <time>2017-12-24T10:41:34Z</time>
      </trkpt>
      <trkpt lat="62.644012643835" lon="17.874019283903">
        <ele>125.8</ele>
        <time>2017-12-24T10:41:35Z</time>
      </trkpt>
      <trkpt lat="62.643976685484" lon="17.874137301055">
        <ele>125.6</ele>
        <time>2017-12-24T10:41:36Z</time>
      </trkpt>
      <trkpt lat="62.64396025696" lon="17.874219443675">
        <ele>125.2</ele>
        <time>2017-12-24T10:41:37Z</time>
      </trkpt>
      <trkpt lat="62.64394097859" lon="17.874334359524">
        <ele>125</ele>
        <time>2017-12-24T10:41:38Z</time>
      </trkpt>
      <trkpt lat="62.643928489559" lon="17.874437456894">
        <ele>124.8</ele>
        <time>2017-12-24T10:41:39Z</time>
      </trkpt>
      <trkpt lat="62.643909295008" lon="17.874540805721">
        <ele>124.6</ele>
        <time>2017-12-24T10:41:40Z</time>
      </trkpt>
      <trkpt lat="62.643888843172" lon="17.874658822873">
        <ele>124.4</ele>
        <time>2017-12-24T10:41:41Z</time>
      </trkpt>
      <trkpt lat="62.643872917562" lon="17.874759573311">
        <ele>124.2</ele>
        <time>2017-12-24T10:41:42Z</time>
      </trkpt>
      <trkpt lat="62.643853220097" lon="17.874861245758">
        <ele>124</ele>
        <time>2017-12-24T10:41:43Z</time>
      </trkpt>
      <trkpt lat="62.643833857908" lon="17.87497591015">
        <ele>123.8</ele>
        <time>2017-12-24T10:41:44Z</time>
      </trkpt>
      <trkpt lat="62.643824805456" lon="17.875055873476">
        <ele>123.6</ele>
        <time>2017-12-24T10:41:45Z</time>
      </trkpt>
      <trkpt lat="62.64380519181" lon="17.875152432964">
        <ele>123.4</ele>
        <time>2017-12-24T10:41:46Z</time>
      </trkpt>
      <trkpt lat="62.643794882073" lon="17.875239017991">
        <ele>123.2</ele>
        <time>2017-12-24T10:41:47Z</time>
      </trkpt>
      <trkpt lat="62.643787086906" lon="17.875309845046">
        <ele>123</ele>
        <time>2017-12-24T10:41:48Z</time>
      </trkpt>
      <trkpt lat="62.64377082602" lon="17.875416881909">
        <ele>122.8</ele>
        <time>2017-12-24T10:41:49Z</time>
      </trkpt>
      <trkpt lat="62.643759007541" lon="17.875505981506">
        <ele>122.6</ele>
        <time>2017-12-24T10:41:50Z</time>
      </trkpt>
      <trkpt lat="62.643748530166" lon="17.875594829646">
        <ele>122.4</ele>
        <time>2017-12-24T10:41:51Z</time>
      </trkpt>
      <trkpt lat="62.643733358927" lon="17.87569172441">
        <ele>122.2</ele>
        <time>2017-12-24T10:41:52Z</time>
      </trkpt>
      <trkpt lat="62.64371885824" lon="17.87578141074">
        <ele>122</ele>
        <time>2017-12-24T10:41:53Z</time>
      </trkpt>
      <trkpt lat="62.643695221282" lon="17.875893895838">
        <ele>122</ele>
        <time>2017-12-24T10:41:54Z</time>
      </trkpt>
      <trkpt lat="62.64367694874" lon="17.875986264376">
        <ele>121.8</ele>
        <time>2017-12-24T10:41:55Z</time>
      </trkpt>
      <trkpt lat="62.64367108141" lon="17.876083242959">
        <ele>121.6</ele>
        <time>2017-12-24T10:41:56Z</time>
      </trkpt>
      <trkpt lat="62.643668985935" lon="17.876154572928">
        <ele>121.4</ele>
        <time>2017-12-24T10:41:57Z</time>
      </trkpt>
      <trkpt lat="62.643653060325" lon="17.876254485176">
        <ele>121.4</ele>
        <time>2017-12-24T10:41:58Z</time>
      </trkpt>
      <trkpt lat="62.643634787783" lon="17.87634802718">
        <ele>121.4</ele>
        <time>2017-12-24T10:41:59Z</time>
      </trkpt>
      <trkpt lat="62.64360234983" lon="17.876438719338">
        <ele>121.4</ele>
        <time>2017-12-24T10:42:00Z</time>
      </trkpt>
      <trkpt lat="62.64356044033" lon="17.876506612728">
        <ele>121.4</ele>
        <time>2017-12-24T10:42:01Z</time>
      </trkpt>
      <trkpt lat="62.64351182531" lon="17.876551288255">
        <ele>121.4</ele>
        <time>2017-12-24T10:42:02Z</time>
      </trkpt>
      <trkpt lat="62.643470670181" lon="17.876570566625">
        <ele>121.4</ele>
        <time>2017-12-24T10:42:03Z</time>
      </trkpt>
      <trkpt lat="62.643428090129" lon="17.876589258262">
        <ele>121.2</ele>
        <time>2017-12-24T10:42:04Z</time>
      </trkpt>
      <trkpt lat="62.643400513678" lon="17.876594538859">
        <ele>121</ele>
        <time>2017-12-24T10:42:05Z</time>
      </trkpt>
      <trkpt lat="62.643347959165" lon="17.876599400361">
        <ele>120.8</ele>
        <time>2017-12-24T10:42:06Z</time>
      </trkpt>
      <trkpt lat="62.643310575891" lon="17.876592862479">
        <ele>120.6</ele>
        <time>2017-12-24T10:42:07Z</time>
      </trkpt>
      <trkpt lat="62.643274282264" lon="17.876589593538">
        <ele>120.4</ele>
        <time>2017-12-24T10:42:08Z</time>
      </trkpt>
      <trkpt lat="62.643229103823" lon="17.876590767004">
        <ele>120</ele>
        <time>2017-12-24T10:42:09Z</time>
      </trkpt>
      <trkpt lat="62.643204461037" lon="17.876609123365">
        <ele>120</ele>
        <time>2017-12-24T10:42:10Z</time>
      </trkpt>
      <trkpt lat="62.643158779682" lon="17.876602501664">
        <ele>120</ele>
        <time>2017-12-24T10:42:11Z</time>
      </trkpt>
      <trkpt lat="62.643113601241" lon="17.876593868307">
        <ele>120</ele>
        <time>2017-12-24T10:42:12Z</time>
      </trkpt>
      <trkpt lat="62.643078229623" lon="17.876589174443">
        <ele>120</ele>
        <time>2017-12-24T10:42:13Z</time>
      </trkpt>
      <trkpt lat="62.643031207164" lon="17.876580038172">
        <ele>120.2</ele>
        <time>2017-12-24T10:42:14Z</time>
      </trkpt>
      <trkpt lat="62.642995081175" lon="17.876595796144">
        <ele>120</ele>
        <time>2017-12-24T10:42:15Z</time>
      </trkpt>
      <trkpt lat="62.642965493068" lon="17.876597221067">
        <ele>120</ele>
        <time>2017-12-24T10:42:16Z</time>
      </trkpt>
      <trkpt lat="62.642941520834" lon="17.876588671529">
        <ele>120</ele>
        <time>2017-12-24T10:42:17Z</time>
      </trkpt>
      <trkpt lat="62.642918722066" lon="17.876579954353">
        <ele>120</ele>
        <time>2017-12-24T10:42:18Z</time>
      </trkpt>
      <trkpt lat="62.642897599678" lon="17.876574757575">
        <ele>120.2</ele>
        <time>2017-12-24T10:42:19Z</time>
      </trkpt>
      <trkpt lat="62.642879327136" lon="17.876572997376">
        <ele>120.4</ele>
        <time>2017-12-24T10:42:20Z</time>
      </trkpt>
      <trkpt lat="62.642858204748" lon="17.876575260489">
        <ele>120.6</ele>
        <time>2017-12-24T10:42:21Z</time>
      </trkpt>
      <trkpt lat="62.642836747084" lon="17.876579032344">
        <ele>120.8</ele>
        <time>2017-12-24T10:42:22Z</time>
      </trkpt>
      <trkpt lat="62.642816546705" lon="17.876584648217">
        <ele>121</ele>
        <time>2017-12-24T10:42:23Z</time>
      </trkpt>
      <trkpt lat="62.642793664118" lon="17.876592611022">
        <ele>121.2</ele>
        <time>2017-12-24T10:42:24Z</time>
      </trkpt>
      <trkpt lat="62.642771200626" lon="17.876605267691">
        <ele>121.6</ele>
        <time>2017-12-24T10:42:25Z</time>
      </trkpt>
      <trkpt lat="62.642745803469" lon="17.876615661247">
        <ele>122</ele>
        <time>2017-12-24T10:42:26Z</time>
      </trkpt>
      <trkpt lat="62.64272392671" lon="17.876643321517">
        <ele>122.2</ele>
        <time>2017-12-24T10:42:27Z</time>
      </trkpt>
      <trkpt lat="62.642695092974" lon="17.876667042294">
        <ele>122.8</ele>
        <time>2017-12-24T10:42:28Z</time>
      </trkpt>
      <trkpt lat="62.642665001953" lon="17.876687997044">
        <ele>123.2</ele>
        <time>2017-12-24T10:42:29Z</time>
      </trkpt>
      <trkpt lat="62.642638263692" lon="17.876719429169">
        <ele>123.8</ele>
        <time>2017-12-24T10:42:30Z</time>
      </trkpt>
      <trkpt lat="62.642618147132" lon="17.876740132462">
        <ele>124.2</ele>
        <time>2017-12-24T10:42:31Z</time>
      </trkpt>
      <trkpt lat="62.642593923441" lon="17.876762260678">
        <ele>124.4</ele>
        <time>2017-12-24T10:42:32Z</time>
      </trkpt>
      <trkpt lat="62.642570454121" lon="17.876788496025">
        <ele>124.6</ele>
        <time>2017-12-24T10:42:33Z</time>
      </trkpt>
      <trkpt lat="62.642543129127" lon="17.876821017797">
        <ele>125</ele>
        <time>2017-12-24T10:42:34Z</time>
      </trkpt>
      <trkpt lat="62.642521671463" lon="17.876847923696">
        <ele>125</ele>
        <time>2017-12-24T10:42:35Z</time>
      </trkpt>
      <trkpt lat="62.642494514107" lon="17.876880613106">
        <ele>125</ele>
        <time>2017-12-24T10:42:36Z</time>
      </trkpt>
      <trkpt lat="62.642468530217" lon="17.876911877593">
        <ele>125.2</ele>
        <time>2017-12-24T10:42:37Z</time>
      </trkpt>
      <trkpt lat="62.642445228535" lon="17.876944064089">
        <ele>125.4</ele>
        <time>2017-12-24T10:42:38Z</time>
      </trkpt>
      <trkpt lat="62.642423938509" lon="17.876986476503">
        <ele>125.6</ele>
        <time>2017-12-24T10:42:39Z</time>
      </trkpt>
      <trkpt lat="62.642404995415" lon="17.877019668827">
        <ele>125.8</ele>
        <time>2017-12-24T10:42:40Z</time>
      </trkpt>
      <trkpt lat="62.64238026881" lon="17.877065182544">
        <ele>126</ele>
        <time>2017-12-24T10:42:41Z</time>
      </trkpt>
      <trkpt lat="62.642361074259" lon="17.877097536678">
        <ele>126</ele>
        <time>2017-12-24T10:42:42Z</time>
      </trkpt>
      <trkpt lat="62.642331067057" lon="17.877147995716">
        <ele>126</ele>
        <time>2017-12-24T10:42:43Z</time>
      </trkpt>
      <trkpt lat="62.642299886389" lon="17.877195688727">
        <ele>126</ele>
        <time>2017-12-24T10:42:44Z</time>
      </trkpt>
      <trkpt lat="62.642263173667" lon="17.877259642624">
        <ele>126</ele>
        <time>2017-12-24T10:42:45Z</time>
      </trkpt>
      <trkpt lat="62.642227634411" lon="17.877320746675">
        <ele>126</ele>
        <time>2017-12-24T10:42:46Z</time>
      </trkpt>
      <trkpt lat="62.642193603897" lon="17.877381180174">
        <ele>125.8</ele>
        <time>2017-12-24T10:42:47Z</time>
      </trkpt>
      <trkpt lat="62.642159321926" lon="17.877444798795">
        <ele>125.6</ele>
        <time>2017-12-24T10:42:48Z</time>
      </trkpt>
      <trkpt lat="62.642122776842" lon="17.8775198168">
        <ele>125</ele>
        <time>2017-12-24T10:42:49Z</time>
      </trkpt>
      <trkpt lat="62.642086483215" lon="17.877595170081">
        <ele>124.6</ele>
        <time>2017-12-24T10:42:50Z</time>
      </trkpt>
      <trkpt lat="62.642048261751" lon="17.87768074928">
        <ele>124</ele>
        <time>2017-12-24T10:42:51Z</time>
      </trkpt>
      <trkpt lat="62.6420123034" lon="17.877768004859">
        <ele>123.6</ele>
        <time>2017-12-24T10:42:52Z</time>
      </trkpt>
      <trkpt lat="62.642002580396" lon="17.877803292658">
        <ele>123.6</ele>
        <time>2017-12-24T10:42:53Z</time>
      </trkpt>
      <trkpt lat="62.641964191294" lon="17.87793807361">
        <ele>123.6</ele>
        <time>2017-12-24T10:42:54Z</time>
      </trkpt>
      <trkpt lat="62.64191842612" lon="17.878121888677">
        <ele>123.6</ele>
        <time>2017-12-24T10:42:55Z</time>
      </trkpt>
      <trkpt lat="62.641883557416" lon="17.878270751221">
        <ele>123.6</ele>
        <time>2017-12-24T10:42:56Z</time>
      </trkpt>
      <trkpt lat="62.64185640006" lon="17.878401089766">
        <ele>123.4</ele>
        <time>2017-12-24T10:42:57Z</time>
      </trkpt>
      <trkpt lat="62.641829829437" lon="17.878547773016">
        <ele>123.2</ele>
        <time>2017-12-24T10:42:58Z</time>
      </trkpt>
      <trkpt lat="62.64180527047" lon="17.878703005804">
        <ele>122.6</ele>
        <time>2017-12-24T10:42:59Z</time>
      </trkpt>
      <trkpt lat="62.64178431572" lon="17.878853460909">
        <ele>121.8</ele>
        <time>2017-12-24T10:43:00Z</time>
      </trkpt>
      <trkpt lat="62.641774927992" lon="17.878995617933">
        <ele>121.2</ele>
        <time>2017-12-24T10:43:01Z</time>
      </trkpt>
      <trkpt lat="62.641777107286" lon="17.879136852948">
        <ele>120.4</ele>
        <time>2017-12-24T10:43:02Z</time>
      </trkpt>
      <trkpt lat="62.641784148082" lon="17.879277752687">
        <ele>119.8</ele>
        <time>2017-12-24T10:43:03Z</time>
      </trkpt>
      <trkpt lat="62.641794290181" lon="17.879442959936">
        <ele>119.2</ele>
        <time>2017-12-24T10:43:04Z</time>
      </trkpt>
      <trkpt lat="62.641802420624" lon="17.879581093648">
        <ele>118.8</ele>
        <time>2017-12-24T10:43:05Z</time>
      </trkpt>
      <trkpt lat="62.641813149456" lon="17.879731632572">
        <ele>118.2</ele>
        <time>2017-12-24T10:43:06Z</time>
      </trkpt>
      <trkpt lat="62.64182287246" lon="17.87987093975">
        <ele>117.6</ele>
        <time>2017-12-24T10:43:07Z</time>
      </trkpt>
      <trkpt lat="62.641828655971" lon="17.879984346857">
        <ele>117.2</ele>
        <time>2017-12-24T10:43:08Z</time>
      </trkpt>
      <trkpt lat="62.641828907428" lon="17.880113847212">
        <ele>116.8</ele>
        <time>2017-12-24T10:43:09Z</time>
      </trkpt>
      <trkpt lat="62.641828153057" lon="17.880227086681">
        <ele>116.2</ele>
        <time>2017-12-24T10:43:10Z</time>
      </trkpt>
      <trkpt lat="62.641818849148" lon="17.880362538185">
        <ele>115.8</ele>
        <time>2017-12-24T10:43:11Z</time>
      </trkpt>
      <trkpt lat="62.641806443936" lon="17.880492625273">
        <ele>115.4</ele>
        <time>2017-12-24T10:43:12Z</time>
      </trkpt>
      <trkpt lat="62.641787165566" lon="17.880619778696">
        <ele>114.8</ele>
        <time>2017-12-24T10:43:13Z</time>
      </trkpt>
      <trkpt lat="62.641768473929" lon="17.88074768649">
        <ele>114</ele>
        <time>2017-12-24T10:43:14Z</time>
      </trkpt>
      <trkpt lat="62.641750452844" lon="17.880849358937">
        <ele>113.2</ele>
        <time>2017-12-24T10:43:15Z</time>
      </trkpt>
      <trkpt lat="62.641734275777" lon="17.880939296724">
        <ele>112.8</ele>
        <time>2017-12-24T10:43:16Z</time>
      </trkpt>
      <trkpt lat="62.641723295488" lon="17.881013895634">
        <ele>112.8</ele>
        <time>2017-12-24T10:43:17Z</time>
      </trkpt>
      <trkpt lat="62.641709632991" lon="17.881078687721">
        <ele>112.8</ele>
        <time>2017-12-24T10:43:18Z</time>
      </trkpt>
      <trkpt lat="62.64169043844" lon="17.881137612478">
        <ele>113.2</ele>
        <time>2017-12-24T10:43:19Z</time>
      </trkpt>
      <trkpt lat="62.641676105391" lon="17.881212798121">
        <ele>113.8</ele>
        <time>2017-12-24T10:43:20Z</time>
      </trkpt>
      <trkpt lat="62.641660179781" lon="17.881309441428">
        <ele>113.6</ele>
        <time>2017-12-24T10:43:21Z</time>
      </trkpt>
      <trkpt lat="62.641649450949" lon="17.881403067251">
        <ele>113.6</ele>
        <time>2017-12-24T10:43:22Z</time>
      </trkpt>
      <trkpt lat="62.641645008542" lon="17.881494765237">
        <ele>113.6</ele>
        <time>2017-12-24T10:43:23Z</time>
      </trkpt>
      <trkpt lat="62.641635704633" lon="17.881609010534">
        <ele>113.4</ele>
        <time>2017-12-24T10:43:24Z</time>
      </trkpt>
      <trkpt lat="62.641614246969" lon="17.881696601389">
        <ele>113.2</ele>
        <time>2017-12-24T10:43:25Z</time>
      </trkpt>
      <trkpt lat="62.641587089613" lon="17.881750329368">
        <ele>113</ele>
        <time>2017-12-24T10:43:26Z</time>
      </trkpt>
      <trkpt lat="62.641556579497" lon="17.881784192244">
        <ele>112.8</ele>
        <time>2017-12-24T10:43:27Z</time>
      </trkpt>
      <trkpt lat="62.641538977507" lon="17.881796429818">
        <ele>112.6</ele>
        <time>2017-12-24T10:43:28Z</time>
      </trkpt>
      <trkpt lat="62.641511233418" lon="17.881805901365">
        <ele>112.6</ele>
        <time>2017-12-24T10:43:29Z</time>
      </trkpt>
      <trkpt lat="62.641479633655" lon="17.881816797835">
        <ele>112.4</ele>
        <time>2017-12-24T10:43:30Z</time>
      </trkpt>
      <trkpt lat="62.641457840715" lon="17.881829622142">
        <ele>112.4</ele>
        <time>2017-12-24T10:43:31Z</time>
      </trkpt>
      <trkpt lat="62.641435461042" lon="17.881837249671">
        <ele>112.2</ele>
        <time>2017-12-24T10:43:32Z</time>
      </trkpt>
      <trkpt lat="62.641411907903" lon="17.881848732874">
        <ele>112.2</ele>
        <time>2017-12-24T10:43:33Z</time>
      </trkpt>
      <trkpt lat="62.641384079995" lon="17.881865245217">
        <ele>112.6</ele>
        <time>2017-12-24T10:43:34Z</time>
      </trkpt>
      <trkpt lat="62.641363460521" lon="17.881892737849">
        <ele>112.6</ele>
        <time>2017-12-24T10:43:35Z</time>
      </trkpt>
      <trkpt lat="62.641328507998" lon="17.881907238536">
        <ele>112.8</ele>
        <time>2017-12-24T10:43:36Z</time>
      </trkpt>
      <trkpt lat="62.641295399493" lon="17.881927941829">
        <ele>113</ele>
        <time>2017-12-24T10:43:37Z</time>
      </trkpt>
      <trkpt lat="62.641279054788" lon="17.881945711457">
        <ele>113.2</ele>
        <time>2017-12-24T10:43:38Z</time>
      </trkpt>
      <trkpt lat="62.641244186084" lon="17.881977478858">
        <ele>113.4</ele>
        <time>2017-12-24T10:43:39Z</time>
      </trkpt>
      <trkpt lat="62.641220130031" lon="17.882008240431">
        <ele>113.4</ele>
        <time>2017-12-24T10:43:40Z</time>
      </trkpt>
      <trkpt lat="62.641171682649" lon="17.882078480753">
        <ele>113.4</ele>
        <time>2017-12-24T10:43:41Z</time>
      </trkpt>
      <trkpt lat="62.641138657963" lon="17.882161880658">
        <ele>113.4</ele>
        <time>2017-12-24T10:43:42Z</time>
      </trkpt>
      <trkpt lat="62.641102615793" lon="17.882258523965">
        <ele>113.2</ele>
        <time>2017-12-24T10:43:43Z</time>
      </trkpt>
      <trkpt lat="62.641064561967" lon="17.8823729369">
        <ele>113</ele>
        <time>2017-12-24T10:43:44Z</time>
      </trkpt>
      <trkpt lat="62.641035057679" lon="17.882468239103">
        <ele>112.8</ele>
        <time>2017-12-24T10:43:45Z</time>
      </trkpt>
      <trkpt lat="62.641009325246" lon="17.882582400581">
        <ele>112.4</ele>
        <time>2017-12-24T10:43:46Z</time>
      </trkpt>
      <trkpt lat="62.640997422948" lon="17.882694969498">
        <ele>111.8</ele>
        <time>2017-12-24T10:43:47Z</time>
      </trkpt>
      <trkpt lat="62.640992058532" lon="17.882796977221">
        <ele>111.4</ele>
        <time>2017-12-24T10:43:48Z</time>
      </trkpt>
      <trkpt lat="62.640985939745" lon="17.882908121215">
        <ele>110.8</ele>
        <time>2017-12-24T10:43:49Z</time>
      </trkpt>
      <trkpt lat="62.640979401863" lon="17.883011302404">
        <ele>110.4</ele>
        <time>2017-12-24T10:43:50Z</time>
      </trkpt>
      <trkpt lat="62.640965236452" lon="17.883081458907">
        <ele>110.2</ele>
        <time>2017-12-24T10:43:51Z</time>
      </trkpt>
      <trkpt lat="62.640953334154" lon="17.883143401148">
        <ele>109.8</ele>
        <time>2017-12-24T10:43:52Z</time>
      </trkpt>
      <trkpt lat="62.640940509847" lon="17.883195536566">
        <ele>109.6</ele>
        <time>2017-12-24T10:43:53Z</time>
      </trkpt>
      <trkpt lat="62.640936989449" lon="17.883296119366">
        <ele>109.4</ele>
        <time>2017-12-24T10:43:54Z</time>
      </trkpt>
      <trkpt lat="62.64093355287" lon="17.883375495959">
        <ele>109.2</ele>
        <time>2017-12-24T10:43:55Z</time>
      </trkpt>
      <trkpt lat="62.640941515675" lon="17.88345671657">
        <ele>109.2</ele>
        <time>2017-12-24T10:43:56Z</time>
      </trkpt>
      <trkpt lat="62.640956770733" lon="17.883540284113">
        <ele>109</ele>
        <time>2017-12-24T10:43:57Z</time>
      </trkpt>
      <trkpt lat="62.64097462418" lon="17.883638017067">
        <ele>108.6</ele>
        <time>2017-12-24T10:43:58Z</time>
      </trkpt>
      <trkpt lat="62.640999350785" lon="17.883733822184">
        <ele>108.2</ele>
        <time>2017-12-24T10:43:59Z</time>
      </trkpt>
      <trkpt lat="62.641022317191" lon="17.883831052224">
        <ele>107.8</ele>
        <time>2017-12-24T10:44:00Z</time>
      </trkpt>
      <trkpt lat="62.641043774855" lon="17.883914535948">
        <ele>107.2</ele>
        <time>2017-12-24T10:44:01Z</time>
      </trkpt>
      <trkpt lat="62.641071099849" lon="17.884019644974">
        <ele>106.8</ele>
        <time>2017-12-24T10:44:02Z</time>
      </trkpt>
      <trkpt lat="62.641100520318" lon="17.88412726857">
        <ele>106.6</ele>
        <time>2017-12-24T10:44:03Z</time>
      </trkpt>
      <trkpt lat="62.64112717476" lon="17.884237658193">
        <ele>106.2</ele>
        <time>2017-12-24T10:44:04Z</time>
      </trkpt>
      <trkpt lat="62.641153326288" lon="17.884338995364">
        <ele>105.8</ele>
        <time>2017-12-24T10:44:05Z</time>
      </trkpt>
      <trkpt lat="62.641184926051" lon="17.884442008915">
        <ele>105.4</ele>
        <time>2017-12-24T10:44:06Z</time>
      </trkpt>
      <trkpt lat="62.641221135859" lon="17.884535634738">
        <ele>105.2</ele>
        <time>2017-12-24T10:44:07Z</time>
      </trkpt>
      <trkpt lat="62.641259273504" lon="17.884614592236">
        <ele>104.8</ele>
        <time>2017-12-24T10:44:08Z</time>
      </trkpt>
      <trkpt lat="62.641304368126" lon="17.884697992141">
        <ele>104.6</ele>
        <time>2017-12-24T10:44:09Z</time>
      </trkpt>
      <trkpt lat="62.641350217119" lon="17.884778290743">
        <ele>104.2</ele>
        <time>2017-12-24T10:44:10Z</time>
      </trkpt>
      <trkpt lat="62.641394473551" lon="17.884858337888">
        <ele>104</ele>
        <time>2017-12-24T10:44:11Z</time>
      </trkpt>
      <trkpt lat="62.641438729983" lon="17.884938552671">
        <ele>103.8</ele>
        <time>2017-12-24T10:44:12Z</time>
      </trkpt>
      <trkpt lat="62.641484327519" lon="17.885023880413">
        <ele>103.6</ele>
        <time>2017-12-24T10:44:13Z</time>
      </trkpt>
      <trkpt lat="62.641533026358" lon="17.8851138182">
        <ele>103.4</ele>
        <time>2017-12-24T10:44:14Z</time>
      </trkpt>
      <trkpt lat="62.641578875351" lon="17.88520015177">
        <ele>103</ele>
        <time>2017-12-24T10:44:15Z</time>
      </trkpt>
      <trkpt lat="62.641627155095" lon="17.885289754281">
        <ele>102.2</ele>
        <time>2017-12-24T10:44:16Z</time>
      </trkpt>
      <trkpt lat="62.641676608305" lon="17.885380530258">
        <ele>101.4</ele>
        <time>2017-12-24T10:44:17Z</time>
      </trkpt>
      <trkpt lat="62.641729078999" lon="17.885476419194">
        <ele>100.6</ele>
        <time>2017-12-24T10:44:18Z</time>
      </trkpt>
      <trkpt lat="62.641784650996" lon="17.885578007822">
        <ele>99.6</ele>
        <time>2017-12-24T10:44:19Z</time>
      </trkpt>
      <trkpt lat="62.64183795988" lon="17.885681105192">
        <ele>99</ele>
        <time>2017-12-24T10:44:20Z</time>
      </trkpt>
      <trkpt lat="62.641887077814" lon="17.885778754327">
        <ele>98.6</ele>
        <time>2017-12-24T10:44:21Z</time>
      </trkpt>
      <trkpt lat="62.64193099897" lon="17.885861567499">
        <ele>98</ele>
        <time>2017-12-24T10:44:22Z</time>
      </trkpt>
      <trkpt lat="62.641969136615" lon="17.885926359586">
        <ele>97.8</ele>
        <time>2017-12-24T10:44:23Z</time>
      </trkpt>
      <trkpt lat="62.642011213753" lon="17.886004227437">
        <ele>97.4</ele>
        <time>2017-12-24T10:44:24Z</time>
      </trkpt>
      <trkpt lat="62.642046417733" lon="17.886068684248">
        <ele>97</ele>
        <time>2017-12-24T10:44:25Z</time>
      </trkpt>
      <trkpt lat="62.64207768222" lon="17.88613054267">
        <ele>96.8</ele>
        <time>2017-12-24T10:44:26Z</time>
      </trkpt>
      <trkpt lat="62.642107102689" lon="17.886185611753">
        <ele>96.6</ele>
        <time>2017-12-24T10:44:27Z</time>
      </trkpt>
      <trkpt lat="62.642135014416" lon="17.886241099931">
        <ele>96.6</ele>
        <time>2017-12-24T10:44:28Z</time>
      </trkpt>
      <trkpt lat="62.642165440713" lon="17.886302287801">
        <ele>96.4</ele>
        <time>2017-12-24T10:44:29Z</time>
      </trkpt>
      <trkpt lat="62.642194945001" lon="17.886367415164">
        <ele>96.2</ele>
        <time>2017-12-24T10:44:30Z</time>
      </trkpt>
      <trkpt lat="62.64222939461" lon="17.886439248047">
        <ele>96.2</ele>
        <time>2017-12-24T10:44:31Z</time>
      </trkpt>
      <trkpt lat="62.642266526427" lon="17.886530778395">
        <ele>96</ele>
        <time>2017-12-24T10:44:32Z</time>
      </trkpt>
      <trkpt lat="62.64230147895" lon="17.886615770861">
        <ele>95.8</ele>
        <time>2017-12-24T10:44:33Z</time>
      </trkpt>
      <trkpt lat="62.642337437301" lon="17.886710737788">
        <ele>95.6</ele>
        <time>2017-12-24T10:44:34Z</time>
      </trkpt>
      <trkpt lat="62.64236518139" lon="17.886795646435">
        <ele>95</ele>
        <time>2017-12-24T10:44:35Z</time>
      </trkpt>
      <trkpt lat="62.642389740357" lon="17.886878627245">
        <ele>94.6</ele>
        <time>2017-12-24T10:44:36Z</time>
      </trkpt>
      <trkpt lat="62.642406336519" lon="17.886958087657">
        <ele>94</ele>
        <time>2017-12-24T10:44:37Z</time>
      </trkpt>
      <trkpt lat="62.642414802238" lon="17.887035033499">
        <ele>93.4</ele>
        <time>2017-12-24T10:44:38Z</time>
      </trkpt>
      <trkpt lat="62.642414550781" lon="17.887118852499">
        <ele>92.6</ele>
        <time>2017-12-24T10:44:39Z</time>
      </trkpt>
      <trkpt lat="62.642406839433" lon="17.887184901871">
        <ele>91.8</ele>
        <time>2017-12-24T10:44:40Z</time>
      </trkpt>
      <trkpt lat="62.642388231615" lon="17.887252711442">
        <ele>91</ele>
        <time>2017-12-24T10:44:41Z</time>
      </trkpt>
      <trkpt lat="62.642370545806" lon="17.88729981772">
        <ele>90.6</ele>
        <time>2017-12-24T10:44:42Z</time>
      </trkpt>
      <trkpt lat="62.642341041518" lon="17.887347091636">
        <ele>90.2</ele>
        <time>2017-12-24T10:44:43Z</time>
      </trkpt>
      <trkpt lat="62.642312626877" lon="17.887386570385">
        <ele>90</ele>
        <time>2017-12-24T10:44:44Z</time>
      </trkpt>
      <trkpt lat="62.642287648815" lon="17.887426216772">
        <ele>89.8</ele>
        <time>2017-12-24T10:44:45Z</time>
      </trkpt>
      <trkpt lat="62.642260826735" lon="17.887466366073">
        <ele>89.6</ele>
        <time>2017-12-24T10:44:46Z</time>
      </trkpt>
      <trkpt lat="62.64223358556" lon="17.887503665528">
        <ele>89.4</ele>
        <time>2017-12-24T10:44:47Z</time>
      </trkpt>
      <trkpt lat="62.642209864783" lon="17.887538198956">
        <ele>89.2</ele>
        <time>2017-12-24T10:44:48Z</time>
      </trkpt>
      <trkpt lat="62.642182791246" lon="17.887570385452">
        <ele>88.8</ele>
        <time>2017-12-24T10:44:49Z</time>
      </trkpt>
      <trkpt lat="62.642160243935" lon="17.887611289124">
        <ele>88.4</ele>
        <time>2017-12-24T10:44:50Z</time>
      </trkpt>
      <trkpt lat="62.642129817638" lon="17.88763593191">
        <ele>88</ele>
        <time>2017-12-24T10:44:51Z</time>
      </trkpt>
      <trkpt lat="62.642092350545" lon="17.887666358207">
        <ele>88</ele>
        <time>2017-12-24T10:44:52Z</time>
      </trkpt>
      <trkpt lat="62.642073155994" lon="17.887675913573">
        <ele>87.8</ele>
        <time>2017-12-24T10:44:53Z</time>
      </trkpt>
      <trkpt lat="62.64203325815" lon="17.887712291019">
        <ele>87.8</ele>
        <time>2017-12-24T10:44:54Z</time>
      </trkpt>
      <trkpt lat="62.642023283689" lon="17.887747075904">
        <ele>87.8</ele>
        <time>2017-12-24T10:44:55Z</time>
      </trkpt>
      <trkpt lat="62.641996210152" lon="17.887794852734">
        <ele>87.8</ele>
        <time>2017-12-24T10:44:56Z</time>
      </trkpt>
      <trkpt lat="62.641959832706" lon="17.887868361997">
        <ele>87.8</ele>
        <time>2017-12-24T10:44:57Z</time>
      </trkpt>
      <trkpt lat="62.641934184092" lon="17.88792594565">
        <ele>87.8</ele>
        <time>2017-12-24T10:44:58Z</time>
      </trkpt>
      <trkpt lat="62.641915492455" lon="17.887987804072">
        <ele>87.6</ele>
        <time>2017-12-24T10:44:59Z</time>
      </trkpt>
      <trkpt lat="62.641887748366" lon="17.888067515941">
        <ele>87.6</ele>
        <time>2017-12-24T10:45:00Z</time>
      </trkpt>
      <trkpt lat="62.641868553815" lon="17.888124512861">
        <ele>87.6</ele>
        <time>2017-12-24T10:45:01Z</time>
      </trkpt>
      <trkpt lat="62.641845335952" lon="17.88819249007">
        <ele>87.4</ele>
        <time>2017-12-24T10:45:02Z</time>
      </trkpt>
      <trkpt lat="62.641823291555" lon="17.888259964365">
        <ele>87.4</ele>
        <time>2017-12-24T10:45:03Z</time>
      </trkpt>
      <trkpt lat="62.641804935194" lon="17.888336826388">
        <ele>87.2</ele>
        <time>2017-12-24T10:45:04Z</time>
      </trkpt>
      <trkpt lat="62.641786411195" lon="17.888402791941">
        <ele>87.2</ele>
        <time>2017-12-24T10:45:05Z</time>
      </trkpt>
      <trkpt lat="62.641762690418" lon="17.888491640081">
        <ele>87</ele>
        <time>2017-12-24T10:45:06Z</time>
      </trkpt>
      <trkpt lat="62.641743412048" lon="17.88857805747">
        <ele>87</ele>
        <time>2017-12-24T10:45:07Z</time>
      </trkpt>
      <trkpt lat="62.641730923017" lon="17.888649135982">
        <ele>86.8</ele>
        <time>2017-12-24T10:45:08Z</time>
      </trkpt>
      <trkpt lat="62.641716003235" lon="17.888736140104">
        <ele>86.6</ele>
        <time>2017-12-24T10:45:09Z</time>
      </trkpt>
      <trkpt lat="62.641718266348" lon="17.888777630509">
        <ele>86.4</ele>
        <time>2017-12-24T10:45:10Z</time>
      </trkpt>
      <trkpt lat="62.641715248864" lon="17.888816606344">
        <ele>86.4</ele>
        <time>2017-12-24T10:45:11Z</time>
      </trkpt>
      <trkpt lat="62.641709800629" lon="17.888854324894">
        <ele>86.4</ele>
        <time>2017-12-24T10:45:12Z</time>
      </trkpt>
      <trkpt lat="62.641701251091" lon="17.888884332096">
        <ele>86.6</ele>
        <time>2017-12-24T10:45:13Z</time>
      </trkpt>
      <trkpt lat="62.641695970494" lon="17.888911489452">
        <ele>86.6</ele>
        <time>2017-12-24T10:45:14Z</time>
      </trkpt>
      <trkpt lat="62.641692701553" lon="17.888937473342">
        <ele>86.8</ele>
        <time>2017-12-24T10:45:15Z</time>
      </trkpt>
      <trkpt lat="62.641693958838" lon="17.888962116128">
        <ele>87</ele>
        <time>2017-12-24T10:45:16Z</time>
      </trkpt>
      <trkpt lat="62.641691444268" lon="17.88899128514">
        <ele>87.4</ele>
        <time>2017-12-24T10:45:17Z</time>
      </trkpt>
      <trkpt lat="62.641687504775" lon="17.889015425012">
        <ele>87.6</ele>
        <time>2017-12-24T10:45:18Z</time>
      </trkpt>
      <trkpt lat="62.641682978549" lon="17.889049874621">
        <ele>87.8</ele>
        <time>2017-12-24T10:45:19Z</time>
      </trkpt>
      <trkpt lat="62.641678619961" lon="17.889068063344">
        <ele>88.2</ele>
        <time>2017-12-24T10:45:20Z</time>
      </trkpt>
      <trkpt lat="62.641675602477" lon="17.889081390565">
        <ele>88.8</ele>
        <time>2017-12-24T10:45:21Z</time>
      </trkpt>
      <trkpt lat="62.641671914441" lon="17.889113577061">
        <ele>89.2</ele>
        <time>2017-12-24T10:45:22Z</time>
      </trkpt>
      <trkpt lat="62.641668896957" lon="17.889137465476">
        <ele>89.6</ele>
        <time>2017-12-24T10:45:23Z</time>
      </trkpt>
      <trkpt lat="62.641665963292" lon="17.889155318923">
        <ele>90</ele>
        <time>2017-12-24T10:45:24Z</time>
      </trkpt>
      <trkpt lat="62.641661604704" lon="17.889165796298">
        <ele>90.4</ele>
        <time>2017-12-24T10:45:25Z</time>
      </trkpt>
      <trkpt lat="62.641658922496" lon="17.889192953654">
        <ele>90.8</ele>
        <time>2017-12-24T10:45:26Z</time>
      </trkpt>
      <trkpt lat="62.641658251944" lon="17.889212818757">
        <ele>91</ele>
        <time>2017-12-24T10:45:27Z</time>
      </trkpt>
      <trkpt lat="62.64165691084" lon="17.889227319444">
        <ele>91.2</ele>
        <time>2017-12-24T10:45:28Z</time>
      </trkpt>
      <trkpt lat="62.641654228632" lon="17.889236958629">
        <ele>91.2</ele>
        <time>2017-12-24T10:45:29Z</time>
      </trkpt>
      <trkpt lat="62.641650959691" lon="17.889253806248">
        <ele>91.4</ele>
        <time>2017-12-24T10:45:30Z</time>
      </trkpt>
      <trkpt lat="62.641648948035" lon="17.889275180093">
        <ele>91.8</ele>
        <time>2017-12-24T10:45:31Z</time>
      </trkpt>
      <trkpt lat="62.641645427637" lon="17.8892880044">
        <ele>91.6</ele>
        <time>2017-12-24T10:45:32Z</time>
      </trkpt>
      <trkpt lat="62.641645679094" lon="17.889305019657">
        <ele>91.8</ele>
        <time>2017-12-24T10:45:33Z</time>
      </trkpt>
      <trkpt lat="62.641643583619" lon="17.889323711294">
        <ele>92</ele>
        <time>2017-12-24T10:45:34Z</time>
      </trkpt>
      <trkpt lat="62.641642996886" lon="17.889340642732">
        <ele>92.2</ele>
        <time>2017-12-24T10:45:35Z</time>
      </trkpt>
      <trkpt lat="62.641642829248" lon="17.889360507835">
        <ele>92.6</ele>
        <time>2017-12-24T10:45:36Z</time>
      </trkpt>
      <trkpt lat="62.641641404325" lon="17.889378445101">
        <ele>93</ele>
        <time>2017-12-24T10:45:37Z</time>
      </trkpt>
      <trkpt lat="62.641639727945" lon="17.889398142566">
        <ele>93.2</ele>
        <time>2017-12-24T10:45:38Z</time>
      </trkpt>
      <trkpt lat="62.641638219203" lon="17.889418091488">
        <ele>93.4</ele>
        <time>2017-12-24T10:45:39Z</time>
      </trkpt>
      <trkpt lat="62.641636542823" lon="17.889435022926">
        <ele>94</ele>
        <time>2017-12-24T10:45:40Z</time>
      </trkpt>
      <trkpt lat="62.641634866443" lon="17.889451702907">
        <ele>94.2</ele>
        <time>2017-12-24T10:45:41Z</time>
      </trkpt>
      <trkpt lat="62.641635201719" lon="17.889478105892">
        <ele>94.6</ele>
        <time>2017-12-24T10:45:42Z</time>
      </trkpt>
      <trkpt lat="62.641633525339" lon="17.889498473909">
        <ele>94.8</ele>
        <time>2017-12-24T10:45:43Z</time>
      </trkpt>
      <trkpt lat="62.641632351873" lon="17.889517500822">
        <ele>95.2</ele>
        <time>2017-12-24T10:45:44Z</time>
      </trkpt>
      <trkpt lat="62.64163344152" lon="17.889541305418">
        <ele>95.4</ele>
        <time>2017-12-24T10:45:45Z</time>
      </trkpt>
      <trkpt lat="62.641635201719" lon="17.889563601272">
        <ele>95.8</ele>
        <time>2017-12-24T10:45:46Z</time>
      </trkpt>
      <trkpt lat="62.641636459004" lon="17.889589668981">
        <ele>96</ele>
        <time>2017-12-24T10:45:47Z</time>
      </trkpt>
      <trkpt lat="62.641636878099" lon="17.889616239604">
        <ele>96.2</ele>
        <time>2017-12-24T10:45:48Z</time>
      </trkpt>
      <trkpt lat="62.641638722117" lon="17.889641636761">
        <ele>96.4</ele>
        <time>2017-12-24T10:45:49Z</time>
      </trkpt>
      <trkpt lat="62.641639560307" lon="17.889665441357">
        <ele>96.6</ele>
        <time>2017-12-24T10:45:50Z</time>
      </trkpt>
      <trkpt lat="62.641642326334" lon="17.889687904849">
        <ele>97</ele>
        <time>2017-12-24T10:45:51Z</time>
      </trkpt>
      <trkpt lat="62.641643415981" lon="17.889708021409">
        <ele>97</ele>
        <time>2017-12-24T10:45:52Z</time>
      </trkpt>
      <trkpt lat="62.641645343818" lon="17.889729898168">
        <ele>97.2</ele>
        <time>2017-12-24T10:45:53Z</time>
      </trkpt>
      <trkpt lat="62.641647271655" lon="17.889760408284">
        <ele>97.4</ele>
        <time>2017-12-24T10:45:54Z</time>
      </trkpt>
      <trkpt lat="62.641650037682" lon="17.889787481821">
        <ele>97.6</ele>
        <time>2017-12-24T10:45:55Z</time>
      </trkpt>
      <trkpt lat="62.641651127329" lon="17.889805838182">
        <ele>97.6</ele>
        <time>2017-12-24T10:45:56Z</time>
      </trkpt>
      <trkpt lat="62.641655150641" lon="17.889833079357">
        <ele>97.8</ele>
        <time>2017-12-24T10:45:57Z</time>
      </trkpt>
      <trkpt lat="62.641657916668" lon="17.889862583645">
        <ele>98.2</ele>
        <time>2017-12-24T10:45:58Z</time>
      </trkpt>
      <trkpt lat="62.641663364903" lon="17.889898039082">
        <ele>98.4</ele>
        <time>2017-12-24T10:45:59Z</time>
      </trkpt>
      <trkpt lat="62.641669735147" lon="17.889937685469">
        <ele>98.6</ele>
        <time>2017-12-24T10:46:00Z</time>
      </trkpt>
      <trkpt lat="62.641677195038" lon="17.889970039603">
        <ele>99</ele>
        <time>2017-12-24T10:46:01Z</time>
      </trkpt>
      <trkpt lat="62.641689516431" lon="17.890005578859">
        <ele>99.2</ele>
        <time>2017-12-24T10:46:02Z</time>
      </trkpt>
      <trkpt lat="62.641697060141" lon="17.890050924938">
        <ele>99.6</ele>
        <time>2017-12-24T10:46:03Z</time>
      </trkpt>
      <trkpt lat="62.641704268575" lon="17.890086212737">
        <ele>99.8</ele>
        <time>2017-12-24T10:46:04Z</time>
      </trkpt>
      <trkpt lat="62.641717009063" lon="17.890129966255">
        <ele>99.8</ele>
        <time>2017-12-24T10:46:05Z</time>
      </trkpt>
      <trkpt lat="62.641732850854" lon="17.890166511339">
        <ele>99.8</ele>
        <time>2017-12-24T10:46:06Z</time>
      </trkpt>
      <trkpt lat="62.641748357369" lon="17.890211438323">
        <ele>99.8</ele>
        <time>2017-12-24T10:46:07Z</time>
      </trkpt>
      <trkpt lat="62.641766797549" lon="17.89024940833">
        <ele>99.8</ele>
        <time>2017-12-24T10:46:08Z</time>
      </trkpt>
      <trkpt lat="62.641791775611" lon="17.8902938324">
        <ele>99.8</ele>
        <time>2017-12-24T10:46:09Z</time>
      </trkpt>
      <trkpt lat="62.641818932967" lon="17.890330209846">
        <ele>99.6</ele>
        <time>2017-12-24T10:46:10Z</time>
      </trkpt>
      <trkpt lat="62.64184885635" lon="17.8903608876">
        <ele>99.6</ele>
        <time>2017-12-24T10:46:11Z</time>
      </trkpt>
      <trkpt lat="62.641881881036" lon="17.890392487363">
        <ele>99.4</ele>
        <time>2017-12-24T10:46:12Z</time>
      </trkpt>
      <trkpt lat="62.641917755568" lon="17.890425260592">
        <ele>99.2</ele>
        <time>2017-12-24T10:46:13Z</time>
      </trkpt>
      <trkpt lat="62.641960922353" lon="17.890451663577">
        <ele>99</ele>
        <time>2017-12-24T10:46:14Z</time>
      </trkpt>
      <trkpt lat="62.642005262604" lon="17.89048242515">
        <ele>98.8</ele>
        <time>2017-12-24T10:46:15Z</time>
      </trkpt>
      <trkpt lat="62.642042226783" lon="17.890506984117">
        <ele>98.4</ele>
        <time>2017-12-24T10:46:16Z</time>
      </trkpt>
      <trkpt lat="62.642108862888" lon="17.89055199492">
        <ele>98</ele>
        <time>2017-12-24T10:46:17Z</time>
      </trkpt>
      <trkpt lat="62.642167284731" lon="17.890593401506">
        <ele>97.6</ele>
        <time>2017-12-24T10:46:18Z</time>
      </trkpt>
      <trkpt lat="62.642230065162" lon="17.890639501956">
        <ele>97</ele>
        <time>2017-12-24T10:46:19Z</time>
      </trkpt>
      <trkpt lat="62.642290666299" lon="17.890679986533">
        <ele>96.4</ele>
        <time>2017-12-24T10:46:20Z</time>
      </trkpt>
      <trkpt lat="62.642347160305" lon="17.89071879473">
        <ele>95.2</ele>
        <time>2017-12-24T10:46:21Z</time>
      </trkpt>
      <trkpt lat="62.642388063977" lon="17.890733630693">
        <ele>94.6</ele>
        <time>2017-12-24T10:46:22Z</time>
      </trkpt>
      <trkpt lat="62.642425782527" lon="17.89075567509">
        <ele>93.8</ele>
        <time>2017-12-24T10:46:23Z</time>
      </trkpt>
      <trkpt lat="62.642458304299" lon="17.890792806907">
        <ele>93.2</ele>
        <time>2017-12-24T10:46:24Z</time>
      </trkpt>
      <trkpt lat="62.642483449999" lon="17.890821305367">
        <ele>93</ele>
        <time>2017-12-24T10:46:25Z</time>
      </trkpt>
      <trkpt lat="62.642505578215" lon="17.890855587338">
        <ele>92.8</ele>
        <time>2017-12-24T10:46:26Z</time>
      </trkpt>
      <trkpt lat="62.642522006739" lon="17.890890456042">
        <ele>93</ele>
        <time>2017-12-24T10:46:27Z</time>
      </trkpt>
      <trkpt lat="62.642535585417" lon="17.890912835715">
        <ele>93.4</ele>
        <time>2017-12-24T10:46:28Z</time>
      </trkpt>
      <trkpt lat="62.64255545052" lon="17.890955667224">
        <ele>93.6</ele>
        <time>2017-12-24T10:46:29Z</time>
      </trkpt>
      <trkpt lat="62.642566933723" lon="17.891003192597">
        <ele>94.2</ele>
        <time>2017-12-24T10:46:30Z</time>
      </trkpt>
      <trkpt lat="62.642575315623" lon="17.891051639979">
        <ele>94.2</ele>
        <time>2017-12-24T10:46:31Z</time>
      </trkpt>
      <trkpt lat="62.642584368075" lon="17.891095644954">
        <ele>94.4</ele>
        <time>2017-12-24T10:46:32Z</time>
      </trkpt>
      <trkpt lat="62.642589648672" lon="17.891140907214">
        <ele>94.6</ele>
        <time>2017-12-24T10:46:33Z</time>
      </trkpt>
      <trkpt lat="62.642591911785" lon="17.891202262722">
        <ele>94.8</ele>
        <time>2017-12-24T10:46:34Z</time>
      </trkpt>
      <trkpt lat="62.642586547369" lon="17.891262696221">
        <ele>94.8</ele>
        <time>2017-12-24T10:46:35Z</time>
      </trkpt>
      <trkpt lat="62.642578333107" lon="17.891323548815">
        <ele>94.6</ele>
        <time>2017-12-24T10:46:36Z</time>
      </trkpt>
      <trkpt lat="62.642563078049" lon="17.891378953174">
        <ele>94.8</ele>
        <time>2017-12-24T10:46:37Z</time>
      </trkpt>
      <trkpt lat="62.642544470231" lon="17.891434860447">
        <ele>95</ele>
        <time>2017-12-24T10:46:38Z</time>
      </trkpt>
      <trkpt lat="62.642515468857" lon="17.891492947014">
        <ele>95</ele>
        <time>2017-12-24T10:46:39Z</time>
      </trkpt>
      <trkpt lat="62.642484288189" lon="17.891552123228">
        <ele>95</ele>
        <time>2017-12-24T10:46:40Z</time>
      </trkpt>
      <trkpt lat="62.642449084209" lon="17.891612808184">
        <ele>94.8</ele>
        <time>2017-12-24T10:46:41Z</time>
      </trkpt>
      <trkpt lat="62.642411449478" lon="17.891676259167">
        <ele>94.6</ele>
        <time>2017-12-24T10:46:42Z</time>
      </trkpt>
      <trkpt lat="62.642372892738" lon="17.891728310766">
        <ele>94.6</ele>
        <time>2017-12-24T10:46:43Z</time>
      </trkpt>
      <trkpt lat="62.6423391975" lon="17.89177323775">
        <ele>94.4</ele>
        <time>2017-12-24T10:46:44Z</time>
      </trkpt>
      <trkpt lat="62.642315057628" lon="17.891807352083">
        <ele>94</ele>
        <time>2017-12-24T10:46:45Z</time>
      </trkpt>
      <trkpt lat="62.642294354335" lon="17.891833503611">
        <ele>93.8</ele>
        <time>2017-12-24T10:46:46Z</time>
      </trkpt>
      <trkpt lat="62.642274153956" lon="17.891856972931">
        <ele>93.6</ele>
        <time>2017-12-24T10:46:47Z</time>
      </trkpt>
      <trkpt lat="62.64225789307" lon="17.891868204677">
        <ele>93.8</ele>
        <time>2017-12-24T10:46:48Z</time>
      </trkpt>
      <trkpt lat="62.642245990772" lon="17.891883962649">
        <ele>93.8</ele>
        <time>2017-12-24T10:46:49Z</time>
      </trkpt>
      <trkpt lat="62.64222771823" lon="17.891895110576">
        <ele>94.2</ele>
        <time>2017-12-24T10:46:50Z</time>
      </trkpt>
      <trkpt lat="62.64221430719" lon="17.891898379517">
        <ele>94.6</ele>
        <time>2017-12-24T10:46:51Z</time>
      </trkpt>
      <trkpt lat="62.642200812331" lon="17.891907934883">
        <ele>95</ele>
        <time>2017-12-24T10:46:52Z</time>
      </trkpt>
      <trkpt lat="62.642194777363" lon="17.891917071154">
        <ele>95</ele>
        <time>2017-12-24T10:46:53Z</time>
      </trkpt>
      <trkpt lat="62.642179019391" lon="17.891923189941">
        <ele>95.2</ele>
        <time>2017-12-24T10:46:54Z</time>
      </trkpt>
      <trkpt lat="62.642162255591" lon="17.891927716167">
        <ele>95.4</ele>
        <time>2017-12-24T10:46:55Z</time>
      </trkpt>
      <trkpt lat="62.642151359121" lon="17.891941211026">
        <ele>95.6</ele>
        <time>2017-12-24T10:46:56Z</time>
      </trkpt>
      <trkpt lat="62.642133924769" lon="17.891948503279">
        <ele>95.6</ele>
        <time>2017-12-24T10:46:57Z</time>
      </trkpt>
      <trkpt lat="62.642121100462" lon="17.891951353125">
        <ele>95.8</ele>
        <time>2017-12-24T10:46:58Z</time>
      </trkpt>
      <trkpt lat="62.642105426309" lon="17.891962165776">
        <ele>96</ele>
        <time>2017-12-24T10:46:59Z</time>
      </trkpt>
      <trkpt lat="62.642091260898" lon="17.891968452201">
        <ele>96.2</ele>
        <time>2017-12-24T10:47:00Z</time>
      </trkpt>
      <trkpt lat="62.642076508754" lon="17.891966524364">
        <ele>96.2</ele>
        <time>2017-12-24T10:47:01Z</time>
      </trkpt>
      <trkpt lat="62.642064606456" lon="17.89197356516">
        <ele>96.2</ele>
        <time>2017-12-24T10:47:02Z</time>
      </trkpt>
      <trkpt lat="62.642050273407" lon="17.891978510481">
        <ele>96.4</ele>
        <time>2017-12-24T10:47:03Z</time>
      </trkpt>
      <trkpt lat="62.642032252322" lon="17.89198278525">
        <ele>96.8</ele>
        <time>2017-12-24T10:47:04Z</time>
      </trkpt>
      <trkpt lat="62.642017081083" lon="17.891982366155">
        <ele>96.8</ele>
        <time>2017-12-24T10:47:05Z</time>
      </trkpt>
      <trkpt lat="62.642001071654" lon="17.891992340616">
        <ele>96.8</ele>
        <time>2017-12-24T10:47:06Z</time>
      </trkpt>
      <trkpt lat="62.641988498804" lon="17.892005164923">
        <ele>97</ele>
        <time>2017-12-24T10:47:07Z</time>
      </trkpt>
      <trkpt lat="62.64197123209" lon="17.892011451348">
        <ele>97.4</ele>
        <time>2017-12-24T10:47:08Z</time>
      </trkpt>
      <trkpt lat="62.641958491602" lon="17.892016983402">
        <ele>97.8</ele>
        <time>2017-12-24T10:47:09Z</time>
      </trkpt>
      <trkpt lat="62.641947008399" lon="17.892030813537">
        <ele>98</ele>
        <time>2017-12-24T10:47:10Z</time>
      </trkpt>
      <trkpt lat="62.641933010626" lon="17.892052103563">
        <ele>98.6</ele>
        <time>2017-12-24T10:47:11Z</time>
      </trkpt>
      <trkpt lat="62.641919431948" lon="17.892065598422">
        <ele>98.8</ele>
        <time>2017-12-24T10:47:12Z</time>
      </trkpt>
      <trkpt lat="62.641910379496" lon="17.892087726638">
        <ele>99</ele>
        <time>2017-12-24T10:47:13Z</time>
      </trkpt>
      <trkpt lat="62.641900488854" lon="17.892113459071">
        <ele>99.2</ele>
        <time>2017-12-24T10:47:14Z</time>
      </trkpt>
      <trkpt lat="62.641885485253" lon="17.892155368571">
        <ele>99.4</ele>
        <time>2017-12-24T10:47:15Z</time>
      </trkpt>
      <trkpt lat="62.641886658719" lon="17.892179173167">
        <ele>99.6</ele>
        <time>2017-12-24T10:47:16Z</time>
      </trkpt>
      <trkpt lat="62.641885317615" lon="17.892203061582">
        <ele>99.6</ele>
        <time>2017-12-24T10:47:17Z</time>
      </trkpt>
      <trkpt lat="62.641886742538" lon="17.892241618322">
        <ele>99.8</ele>
        <time>2017-12-24T10:47:18Z</time>
      </trkpt>
      <trkpt lat="62.641891939316" lon="17.892267853669">
        <ele>100</ele>
        <time>2017-12-24T10:47:19Z</time>
      </trkpt>
      <trkpt lat="62.641895459714" lon="17.892302051821">
        <ele>100.4</ele>
        <time>2017-12-24T10:47:20Z</time>
      </trkpt>
      <trkpt lat="62.641897890465" lon="17.892349325737">
        <ele>100.6</ele>
        <time>2017-12-24T10:47:21Z</time>
      </trkpt>
      <trkpt lat="62.641903506338" lon="17.892388720667">
        <ele>100.8</ele>
        <time>2017-12-24T10:47:22Z</time>
      </trkpt>
      <trkpt lat="62.64190585327" lon="17.892433815289">
        <ele>100.8</ele>
        <time>2017-12-24T10:47:23Z</time>
      </trkpt>
      <trkpt lat="62.641912139695" lon="17.892482849404">
        <ele>100.8</ele>
        <time>2017-12-24T10:47:24Z</time>
      </trkpt>
      <trkpt lat="62.641914989541" lon="17.89251922685">
        <ele>101</ele>
        <time>2017-12-24T10:47:25Z</time>
      </trkpt>
      <trkpt lat="62.641916414464" lon="17.892550072242">
        <ele>101.2</ele>
        <time>2017-12-24T10:47:26Z</time>
      </trkpt>
      <trkpt lat="62.641917671749" lon="17.892570188802">
        <ele>101.2</ele>
        <time>2017-12-24T10:47:27Z</time>
      </trkpt>
      <trkpt lat="62.641921192147" lon="17.892598519624">
        <ele>101.4</ele>
        <time>2017-12-24T10:47:28Z</time>
      </trkpt>
      <trkpt lat="62.641920186319" lon="17.892636070536">
        <ele>101.6</ele>
        <time>2017-12-24T10:47:29Z</time>
      </trkpt>
      <trkpt lat="62.641918342301" lon="17.892661802969">
        <ele>101.8</ele>
        <time>2017-12-24T10:47:30Z</time>
      </trkpt>
      <trkpt lat="62.641919934862" lon="17.892675297828">
        <ele>102</ele>
        <time>2017-12-24T10:47:31Z</time>
      </trkpt>
      <trkpt lat="62.641921024509" lon="17.892703712469">
        <ele>102.2</ele>
        <time>2017-12-24T10:47:32Z</time>
      </trkpt>
      <trkpt lat="62.641920186319" lon="17.892731037463">
        <ele>102.4</ele>
        <time>2017-12-24T10:47:33Z</time>
      </trkpt>
      <trkpt lat="62.641919096672" lon="17.892743945589">
        <ele>102.6</ele>
        <time>2017-12-24T10:47:34Z</time>
      </trkpt>
      <trkpt lat="62.641920437776" lon="17.892750902566">
        <ele>102.6</ele>
        <time>2017-12-24T10:47:35Z</time>
      </trkpt>
      <trkpt lat="62.641919348129" lon="17.892753333317">
        <ele>102.8</ele>
        <time>2017-12-24T10:47:36Z</time>
      </trkpt>
      <trkpt lat="62.641915827731" lon="17.892778311379">
        <ele>103</ele>
        <time>2017-12-24T10:47:37Z</time>
      </trkpt>
      <trkpt lat="62.641916498283" lon="17.892797338292">
        <ele>103.2</ele>
        <time>2017-12-24T10:47:38Z</time>
      </trkpt>
      <trkpt lat="62.641914989541" lon="17.892813850635">
        <ele>103.4</ele>
        <time>2017-12-24T10:47:39Z</time>
      </trkpt>
      <trkpt lat="62.641916163007" lon="17.89282013706">
        <ele>103.4</ele>
        <time>2017-12-24T10:47:40Z</time>
      </trkpt>
      <trkpt lat="62.641914067532" lon="17.89283019534">
        <ele>103.8</ele>
        <time>2017-12-24T10:47:41Z</time>
      </trkpt>
      <trkpt lat="62.641912474971" lon="17.892846456226">
        <ele>103.8</ele>
        <time>2017-12-24T10:47:42Z</time>
      </trkpt>
      <trkpt lat="62.641911133867" lon="17.892865734596">
        <ele>104</ele>
        <time>2017-12-24T10:47:43Z</time>
      </trkpt>
      <trkpt lat="62.641910630953" lon="17.892882414577">
        <ele>104.2</ele>
        <time>2017-12-24T10:47:44Z</time>
      </trkpt>
      <trkpt lat="62.641911888238" lon="17.892894903608">
        <ele>104.4</ele>
        <time>2017-12-24T10:47:45Z</time>
      </trkpt>
      <trkpt lat="62.641908954573" lon="17.892892891952">
        <ele>104.6</ele>
        <time>2017-12-24T10:47:46Z</time>
      </trkpt>
      <trkpt lat="62.64190752965" lon="17.892927006285">
        <ele>104.8</ele>
        <time>2017-12-24T10:47:47Z</time>
      </trkpt>
      <trkpt lat="62.641908032564" lon="17.892943518628">
        <ele>105</ele>
        <time>2017-12-24T10:47:48Z</time>
      </trkpt>
      <trkpt lat="62.641907781107" lon="17.892963048455">
        <ele>105.2</ele>
        <time>2017-12-24T10:47:49Z</time>
      </trkpt>
      <trkpt lat="62.641906775279" lon="17.892972855278">
        <ele>105.4</ele>
        <time>2017-12-24T10:47:50Z</time>
      </trkpt>
      <trkpt lat="62.641901746139" lon="17.892986517775">
        <ele>105.6</ele>
        <time>2017-12-24T10:47:51Z</time>
      </trkpt>
      <trkpt lat="62.641904763623" lon="17.893005963783">
        <ele>105.8</ele>
        <time>2017-12-24T10:47:52Z</time>
      </trkpt>
      <trkpt lat="62.641902165234" lon="17.893016944072">
        <ele>106</ele>
        <time>2017-12-24T10:47:53Z</time>
      </trkpt>
      <trkpt lat="62.641902165234" lon="17.893041000125">
        <ele>106.2</ele>
        <time>2017-12-24T10:47:54Z</time>
      </trkpt>
      <trkpt lat="62.641899650664" lon="17.89306153578">
        <ele>106.4</ele>
        <time>2017-12-24T10:47:55Z</time>
      </trkpt>
      <trkpt lat="62.641898896293" lon="17.893071510241">
        <ele>106.6</ele>
        <time>2017-12-24T10:47:56Z</time>
      </trkpt>
      <trkpt lat="62.641894872981" lon="17.893081149426">
        <ele>106.8</ele>
        <time>2017-12-24T10:47:57Z</time>
      </trkpt>
      <trkpt lat="62.641892358411" lon="17.893096572122">
        <ele>106.8</ele>
        <time>2017-12-24T10:47:58Z</time>
      </trkpt>
      <trkpt lat="62.641886910176" lon="17.893118867976">
        <ele>107</ele>
        <time>2017-12-24T10:47:59Z</time>
      </trkpt>
      <trkpt lat="62.641883892692" lon="17.893135547957">
        <ele>107.2</ele>
        <time>2017-12-24T10:48:00Z</time>
      </trkpt>
      <trkpt lat="62.641879282647" lon="17.893167902091">
        <ele>107.8</ele>
        <time>2017-12-24T10:48:01Z</time>
      </trkpt>
      <trkpt lat="62.641876600439" lon="17.893190784678">
        <ele>108.2</ele>
        <time>2017-12-24T10:48:02Z</time>
      </trkpt>
      <trkpt lat="62.641876432801" lon="17.893215343645">
        <ele>108.2</ele>
        <time>2017-12-24T10:48:03Z</time>
      </trkpt>
      <trkpt lat="62.641871319842" lon="17.893235460205">
        <ele>108.4</ele>
        <time>2017-12-24T10:48:04Z</time>
      </trkpt>
      <trkpt lat="62.641866123064" lon="17.893255576765">
        <ele>108.6</ele>
        <time>2017-12-24T10:48:05Z</time>
      </trkpt>
      <trkpt lat="62.641865033417" lon="17.893280890103">
        <ele>108.8</ele>
        <time>2017-12-24T10:48:06Z</time>
      </trkpt>
      <trkpt lat="62.641857573526" lon="17.893315674988">
        <ele>109</ele>
        <time>2017-12-24T10:48:07Z</time>
      </trkpt>
      <trkpt lat="62.641850951825" lon="17.893361523981">
        <ele>108.8</ele>
        <time>2017-12-24T10:48:08Z</time>
      </trkpt>
      <trkpt lat="62.641843156658" lon="17.893411647743">
        <ele>108.8</ele>
        <time>2017-12-24T10:48:09Z</time>
      </trkpt>
      <trkpt lat="62.641833685111" lon="17.893451210311">
        <ele>109.2</ele>
        <time>2017-12-24T10:48:10Z</time>
      </trkpt>
      <trkpt lat="62.641835277672" lon="17.893490269965">
        <ele>109.4</ele>
        <time>2017-12-24T10:48:11Z</time>
      </trkpt>
      <trkpt lat="62.641828236876" lon="17.893527737058">
        <ele>109.6</ele>
        <time>2017-12-24T10:48:12Z</time>
      </trkpt>
      <trkpt lat="62.641820190252" lon="17.893557241346">
        <ele>109.8</ele>
        <time>2017-12-24T10:48:13Z</time>
      </trkpt>
      <trkpt lat="62.641813568551" lon="17.893586661815">
        <ele>109.8</ele>
        <time>2017-12-24T10:48:14Z</time>
      </trkpt>
      <trkpt lat="62.641809796696" lon="17.893623039261">
        <ele>110.2</ele>
        <time>2017-12-24T10:48:15Z</time>
      </trkpt>
      <trkpt lat="62.641807114488" lon="17.893655644852">
        <ele>110.4</ele>
        <time>2017-12-24T10:48:16Z</time>
      </trkpt>
      <trkpt lat="62.641801833891" lon="17.893688166624">
        <ele>110.4</ele>
        <time>2017-12-24T10:48:17Z</time>
      </trkpt>
      <trkpt lat="62.641800073692" lon="17.893732339237">
        <ele>110.6</ele>
        <time>2017-12-24T10:48:18Z</time>
      </trkpt>
      <trkpt lat="62.64179688857" lon="17.893765699199">
        <ele>110.8</ele>
        <time>2017-12-24T10:48:19Z</time>
      </trkpt>
      <trkpt lat="62.641799989873" lon="17.893805513224">
        <ele>111</ele>
        <time>2017-12-24T10:48:20Z</time>
      </trkpt>
      <trkpt lat="62.641805102832" lon="17.893853206235">
        <ele>111.2</ele>
        <time>2017-12-24T10:48:21Z</time>
      </trkpt>
      <trkpt lat="62.641816250759" lon="17.893891595337">
        <ele>111.4</ele>
        <time>2017-12-24T10:48:22Z</time>
      </trkpt>
      <trkpt lat="62.641829997075" lon="17.893922692186">
        <ele>111.4</ele>
        <time>2017-12-24T10:48:23Z</time>
      </trkpt>
      <trkpt lat="62.641849945997" lon="17.893958985813">
        <ele>111.4</ele>
        <time>2017-12-24T10:48:24Z</time>
      </trkpt>
      <trkpt lat="62.641880204656" lon="17.89397181012">
        <ele>111.4</ele>
        <time>2017-12-24T10:48:25Z</time>
      </trkpt>
      <trkpt lat="62.641915324817" lon="17.893971558663">
        <ele>111.2</ele>
        <time>2017-12-24T10:48:26Z</time>
      </trkpt>
      <trkpt lat="62.641973243746" lon="17.893957477071">
        <ele>111.2</ele>
        <time>2017-12-24T10:48:28Z</time>
      </trkpt>
      <trkpt lat="62.642011297572" lon="17.893939707443">
        <ele>111</ele>
        <time>2017-12-24T10:48:29Z</time>
      </trkpt>
      <trkpt lat="62.642052620339" lon="17.893928056602">
        <ele>110.4</ele>
        <time>2017-12-24T10:48:30Z</time>
      </trkpt>
      <trkpt lat="62.642085896482" lon="17.893923362738">
        <ele>109.8</ele>
        <time>2017-12-24T10:48:31Z</time>
      </trkpt>
      <trkpt lat="62.642118921168" lon="17.893924536204">
        <ele>109.2</ele>
        <time>2017-12-24T10:48:32Z</time>
      </trkpt>
      <trkpt lat="62.642151945854" lon="17.893937276692">
        <ele>108.6</ele>
        <time>2017-12-24T10:48:33Z</time>
      </trkpt>
      <trkpt lat="62.642189832042" lon="17.893966529523">
        <ele>107.8</ele>
        <time>2017-12-24T10:48:34Z</time>
      </trkpt>
      <trkpt lat="62.642219671606" lon="17.89401120505">
        <ele>107.4</ele>
        <time>2017-12-24T10:48:35Z</time>
      </trkpt>
      <trkpt lat="62.642240039623" lon="17.894077254422">
        <ele>107</ele>
        <time>2017-12-24T10:48:36Z</time>
      </trkpt>
      <trkpt lat="62.642253115387" lon="17.894144644898">
        <ele>106.6</ele>
        <time>2017-12-24T10:48:37Z</time>
      </trkpt>
      <trkpt lat="62.642262670753" lon="17.894205329854">
        <ele>106.6</ele>
        <time>2017-12-24T10:48:38Z</time>
      </trkpt>
      <trkpt lat="62.642269124816" lon="17.89426852938">
        <ele>106.4</ele>
        <time>2017-12-24T10:48:39Z</time>
      </trkpt>
      <trkpt lat="62.642272477576" lon="17.89432804087">
        <ele>106.2</ele>
        <time>2017-12-24T10:48:40Z</time>
      </trkpt>
      <trkpt lat="62.642275327422" lon="17.894395766622">
        <ele>106</ele>
        <time>2017-12-24T10:48:41Z</time>
      </trkpt>
      <trkpt lat="62.642275997974" lon="17.894475059396">
        <ele>105.8</ele>
        <time>2017-12-24T10:48:42Z</time>
      </trkpt>
      <trkpt lat="62.64227130411" lon="17.894563236984">
        <ele>105.8</ele>
        <time>2017-12-24T10:48:43Z</time>
      </trkpt>
      <trkpt lat="62.642258144527" lon="17.894661389033">
        <ele>105.4</ele>
        <time>2017-12-24T10:48:44Z</time>
      </trkpt>
      <trkpt lat="62.642241464546" lon="17.8947613851">
        <ele>105</ele>
        <time>2017-12-24T10:48:45Z</time>
      </trkpt>
      <trkpt lat="62.642224616927" lon="17.894852580172">
        <ele>104.4</ele>
        <time>2017-12-24T10:48:46Z</time>
      </trkpt>
      <trkpt lat="62.642209110412" lon="17.894938075552">
        <ele>104</ele>
        <time>2017-12-24T10:48:47Z</time>
      </trkpt>
      <trkpt lat="62.642196118467" lon="17.89501368029">
        <ele>103.4</ele>
        <time>2017-12-24T10:48:48Z</time>
      </trkpt>
      <trkpt lat="62.642187233653" lon="17.895097918385">
        <ele>102.8</ele>
        <time>2017-12-24T10:48:49Z</time>
      </trkpt>
      <trkpt lat="62.642183126522" lon="17.895194561692">
        <ele>102.2</ele>
        <time>2017-12-24T10:48:50Z</time>
      </trkpt>
      <trkpt lat="62.642182120694" lon="17.895319787278">
        <ele>101.8</ele>
        <time>2017-12-24T10:48:51Z</time>
      </trkpt>
      <trkpt lat="62.642179438486" lon="17.895468230727">
        <ele>101</ele>
        <time>2017-12-24T10:48:52Z</time>
      </trkpt>
      <trkpt lat="62.642173319699" lon="17.895606532077">
        <ele>100.6</ele>
        <time>2017-12-24T10:48:53Z</time>
      </trkpt>
      <trkpt lat="62.642164937799" lon="17.895773499525">
        <ele>99.8</ele>
        <time>2017-12-24T10:48:54Z</time>
      </trkpt>
      <trkpt lat="62.642150185655" lon="17.895918254938">
        <ele>98.8</ele>
        <time>2017-12-24T10:48:55Z</time>
      </trkpt>
      <trkpt lat="62.642128141258" lon="17.896051527148">
        <ele>97.6</ele>
        <time>2017-12-24T10:48:56Z</time>
      </trkpt>
      <trkpt lat="62.642102911739" lon="17.896171136861">
        <ele>96.4</ele>
        <time>2017-12-24T10:48:57Z</time>
      </trkpt>
      <trkpt lat="62.642077430763" lon="17.896285130701">
        <ele>95.6</ele>
        <time>2017-12-24T10:48:58Z</time>
      </trkpt>
      <trkpt lat="62.642050105769" lon="17.89640591388">
        <ele>95.2</ele>
        <time>2017-12-24T10:48:59Z</time>
      </trkpt>
      <trkpt lat="62.642022613137" lon="17.896529546905">
        <ele>94.8</ele>
        <time>2017-12-24T10:49:00Z</time>
      </trkpt>
      <trkpt lat="62.641999311455" lon="17.89664144527">
        <ele>94.4</ele>
        <time>2017-12-24T10:49:01Z</time>
      </trkpt>
      <trkpt lat="62.641978943438" lon="17.896750074694">
        <ele>94.4</ele>
        <time>2017-12-24T10:49:02Z</time>
      </trkpt>
      <trkpt lat="62.641963939837" lon="17.896849232571">
        <ele>94.2</ele>
        <time>2017-12-24T10:49:03Z</time>
      </trkpt>
      <trkpt lat="62.641951199349" lon="17.896953503407">
        <ele>94.2</ele>
        <time>2017-12-24T10:49:04Z</time>
      </trkpt>
      <trkpt lat="62.641939967603" lon="17.897075376233">
        <ele>94</ele>
        <time>2017-12-24T10:49:05Z</time>
      </trkpt>
      <trkpt lat="62.641926640382" lon="17.897207977891">
        <ele>93.8</ele>
        <time>2017-12-24T10:49:06Z</time>
      </trkpt>
      <trkpt lat="62.641917839387" lon="17.897335885685">
        <ele>93.8</ele>
        <time>2017-12-24T10:49:07Z</time>
      </trkpt>
      <trkpt lat="62.641908535478" lon="17.897458512882">
        <ele>93.8</ele>
        <time>2017-12-24T10:49:08Z</time>
      </trkpt>
      <trkpt lat="62.641898058103" lon="17.897596646594">
        <ele>93.4</ele>
        <time>2017-12-24T10:49:09Z</time>
      </trkpt>
      <trkpt lat="62.641889760022" lon="17.897715250479">
        <ele>93</ele>
        <time>2017-12-24T10:49:10Z</time>
      </trkpt>
      <trkpt lat="62.641879785561" lon="17.897836536572">
        <ele>92.8</ele>
        <time>2017-12-24T10:49:11Z</time>
      </trkpt>
      <trkpt lat="62.641871571299" lon="17.897942064693">
        <ele>92.2</ele>
        <time>2017-12-24T10:49:12Z</time>
      </trkpt>
      <trkpt lat="62.641862183571" lon="17.8980303261">
        <ele>91.8</ele>
        <time>2017-12-24T10:49:13Z</time>
      </trkpt>
      <trkpt lat="62.641852628205" lon="17.898119006602">
        <ele>91.4</ele>
        <time>2017-12-24T10:49:14Z</time>
      </trkpt>
      <trkpt lat="62.641849275445" lon="17.898188827829">
        <ele>91.2</ele>
        <time>2017-12-24T10:49:15Z</time>
      </trkpt>
      <trkpt lat="62.64184801816" lon="17.898255212477">
        <ele>91.2</ele>
        <time>2017-12-24T10:49:16Z</time>
      </trkpt>
      <trkpt lat="62.641846593237" lon="17.898302989307">
        <ele>91.2</ele>
        <time>2017-12-24T10:49:17Z</time>
      </trkpt>
      <trkpt lat="62.641841983192" lon="17.898352610155">
        <ele>91.2</ele>
        <time>2017-12-24T10:49:18Z</time>
      </trkpt>
      <trkpt lat="62.641836451138" lon="17.898402985374">
        <ele>91.4</ele>
        <time>2017-12-24T10:49:19Z</time>
      </trkpt>
      <trkpt lat="62.641831421998" lon="17.89845109748">
        <ele>91.4</ele>
        <time>2017-12-24T10:49:20Z</time>
      </trkpt>
      <trkpt lat="62.641826644315" lon="17.898500466871">
        <ele>91.4</ele>
        <time>2017-12-24T10:49:21Z</time>
      </trkpt>
      <trkpt lat="62.641823543012" lon="17.898554278669">
        <ele>91.6</ele>
        <time>2017-12-24T10:49:22Z</time>
      </trkpt>
      <trkpt lat="62.64182287246" lon="17.898601804042">
        <ele>91.8</ele>
        <time>2017-12-24T10:49:23Z</time>
      </trkpt>
      <trkpt lat="62.641821698994" lon="17.898652598356">
        <ele>92</ele>
        <time>2017-12-24T10:49:24Z</time>
      </trkpt>
      <trkpt lat="62.641816837492" lon="17.898697944435">
        <ele>92</ele>
        <time>2017-12-24T10:49:25Z</time>
      </trkpt>
      <trkpt lat="62.64181281418" lon="17.898735914442">
        <ele>92.2</ele>
        <time>2017-12-24T10:49:26Z</time>
      </trkpt>
      <trkpt lat="62.641808874687" lon="17.898781679616">
        <ele>92.4</ele>
        <time>2017-12-24T10:49:27Z</time>
      </trkpt>
      <trkpt lat="62.641803929366" lon="17.898832641568">
        <ele>92.4</ele>
        <time>2017-12-24T10:49:28Z</time>
      </trkpt>
      <trkpt lat="62.641800492787" lon="17.898876646543">
        <ele>92.4</ele>
        <time>2017-12-24T10:49:29Z</time>
      </trkpt>
      <trkpt lat="62.641792949077" lon="17.898926686486">
        <ele>92.6</ele>
        <time>2017-12-24T10:49:30Z</time>
      </trkpt>
      <trkpt lat="62.641781130598" lon="17.898973876583">
        <ele>92.8</ele>
        <time>2017-12-24T10:49:31Z</time>
      </trkpt>
      <trkpt lat="62.64177006649" lon="17.899013439151">
        <ele>92.8</ele>
        <time>2017-12-24T10:49:32Z</time>
      </trkpt>
      <trkpt lat="62.641755062889" lon="17.899050990063">
        <ele>92.8</ele>
        <time>2017-12-24T10:49:33Z</time>
      </trkpt>
      <trkpt lat="62.641733521406" lon="17.89908728369">
        <ele>93</ele>
        <time>2017-12-24T10:49:34Z</time>
      </trkpt>
      <trkpt lat="62.641691192811" lon="17.899128438819">
        <ele>93.2</ele>
        <time>2017-12-24T10:49:36Z</time>
      </trkpt>
      <trkpt lat="62.641676524486" lon="17.899142939506">
        <ele>93.2</ele>
        <time>2017-12-24T10:49:37Z</time>
      </trkpt>
      <trkpt lat="62.641653725718" lon="17.899150734673">
        <ele>93.4</ele>
        <time>2017-12-24T10:49:38Z</time>
      </trkpt>
      <trkpt lat="62.64162589781" lon="17.899152159596">
        <ele>93.4</ele>
        <time>2017-12-24T10:49:39Z</time>
      </trkpt>
      <trkpt lat="62.641604021051" lon="17.899145621714">
        <ele>93.4</ele>
        <time>2017-12-24T10:49:40Z</time>
      </trkpt>
      <trkpt lat="62.641576193143" lon="17.899134809063">
        <ele>93.6</ele>
        <time>2017-12-24T10:49:41Z</time>
      </trkpt>
      <trkpt lat="62.641544761018" lon="17.899120140738">
        <ele>93.4</ele>
        <time>2017-12-24T10:49:42Z</time>
      </trkpt>
      <trkpt lat="62.641513328893" lon="17.899108825173">
        <ele>93.4</ele>
        <time>2017-12-24T10:49:43Z</time>
      </trkpt>
      <trkpt lat="62.641474939791" lon="17.8990864455">
        <ele>93.6</ele>
        <time>2017-12-24T10:49:44Z</time>
      </trkpt>
      <trkpt lat="62.641437053603" lon="17.899061886533">
        <ele>93.4</ele>
        <time>2017-12-24T10:49:45Z</time>
      </trkpt>
      <trkpt lat="62.641409058057" lon="17.899043865448">
        <ele>93.4</ele>
        <time>2017-12-24T10:49:46Z</time>
      </trkpt>
      <trkpt lat="62.641370836593" lon="17.899003297052">
        <ele>93.4</ele>
        <time>2017-12-24T10:49:47Z</time>
      </trkpt>
      <trkpt lat="62.641341416124" lon="17.898967506339">
        <ele>93.4</ele>
        <time>2017-12-24T10:49:48Z</time>
      </trkpt>
      <trkpt lat="62.641311828017" lon="17.898918136948">
        <ele>93.2</ele>
        <time>2017-12-24T10:49:49Z</time>
      </trkpt>
      <trkpt lat="62.641280144435" lon="17.898860301838">
        <ele>93.2</ele>
        <time>2017-12-24T10:49:50Z</time>
      </trkpt>
      <trkpt lat="62.641253992907" lon="17.898808250239">
        <ele>93.2</ele>
        <time>2017-12-24T10:49:51Z</time>
      </trkpt>
      <trkpt lat="62.641226584094" lon="17.898754773717">
        <ele>93</ele>
        <time>2017-12-24T10:49:52Z</time>
      </trkpt>
      <trkpt lat="62.641201186937" lon="17.898707835077">
        <ele>93</ele>
        <time>2017-12-24T10:49:53Z</time>
      </trkpt>
      <trkpt lat="62.641176041237" lon="17.898656873125">
        <ele>93</ele>
        <time>2017-12-24T10:49:54Z</time>
      </trkpt>
      <trkpt lat="62.641149889709" lon="17.898597529273">
        <ele>93</ele>
        <time>2017-12-24T10:49:55Z</time>
      </trkpt>
      <trkpt lat="62.641117787032" lon="17.898522595087">
        <ele>93</ele>
        <time>2017-12-24T10:49:56Z</time>
      </trkpt>
      <trkpt lat="62.641107142019" lon="17.898494515722">
        <ele>93</ele>
        <time>2017-12-24T10:49:57Z</time>
      </trkpt>
      <trkpt lat="62.64108777983" lon="17.898440536286">
        <ele>93</ele>
        <time>2017-12-24T10:49:58Z</time>
      </trkpt>
      <trkpt lat="62.641069591107" lon="17.898390831619">
        <ele>92.8</ele>
        <time>2017-12-24T10:49:59Z</time>
      </trkpt>
      <trkpt lat="62.641050815651" lon="17.898341462228">
        <ele>92.8</ele>
        <time>2017-12-24T10:50:00Z</time>
      </trkpt>
      <trkpt lat="62.641036231145" lon="17.898291925199">
        <ele>93</ele>
        <time>2017-12-24T10:50:01Z</time>
      </trkpt>
      <trkpt lat="62.641025334675" lon="17.898241717618">
        <ele>93</ele>
        <time>2017-12-24T10:50:02Z</time>
      </trkpt>
      <trkpt lat="62.641016701318" lon="17.898203915249">
        <ele>93</ele>
        <time>2017-12-24T10:50:03Z</time>
      </trkpt>
      <trkpt lat="62.641008319418" lon="17.898164771776">
        <ele>93.2</ele>
        <time>2017-12-24T10:50:04Z</time>
      </trkpt>
      <trkpt lat="62.641000272794" lon="17.898128142873">
        <ele>93.2</ele>
        <time>2017-12-24T10:50:05Z</time>
      </trkpt>
      <trkpt lat="62.640990801247" lon="17.898093693264">
        <ele>93.4</ele>
        <time>2017-12-24T10:50:06Z</time>
      </trkpt>
      <trkpt lat="62.640983257537" lon="17.898063602243">
        <ele>93.6</ele>
        <time>2017-12-24T10:50:07Z</time>
      </trkpt>
      <trkpt lat="62.640974205085" lon="17.898030493738">
        <ele>94</ele>
        <time>2017-12-24T10:50:08Z</time>
      </trkpt>
      <trkpt lat="62.640967834841" lon="17.897994535387">
        <ele>94.2</ele>
        <time>2017-12-24T10:50:09Z</time>
      </trkpt>
      <trkpt lat="62.640960877864" lon="17.897964276728">
        <ele>94.4</ele>
        <time>2017-12-24T10:50:10Z</time>
      </trkpt>
      <trkpt lat="62.640955597267" lon="17.897928402196">
        <ele>94.6</ele>
        <time>2017-12-24T10:50:11Z</time>
      </trkpt>
      <trkpt lat="62.640950484308" lon="17.897891940931">
        <ele>94.6</ele>
        <time>2017-12-24T10:50:12Z</time>
      </trkpt>
      <trkpt lat="62.640944784616" lon="17.897854054743">
        <ele>95</ele>
        <time>2017-12-24T10:50:13Z</time>
      </trkpt>
      <trkpt lat="62.640940342209" lon="17.897813067252">
        <ele>95.2</ele>
        <time>2017-12-24T10:50:14Z</time>
      </trkpt>
      <trkpt lat="62.640935061612" lon="17.897778533824">
        <ele>95</ele>
        <time>2017-12-24T10:50:15Z</time>
      </trkpt>
      <trkpt lat="62.640929026644" lon="17.897746934061">
        <ele>95.2</ele>
        <time>2017-12-24T10:50:16Z</time>
      </trkpt>
      <trkpt lat="62.640920393287" lon="17.89770846114">
        <ele>95.4</ele>
        <time>2017-12-24T10:50:17Z</time>
      </trkpt>
      <trkpt lat="62.640911508473" lon="17.897672670427">
        <ele>95.6</ele>
        <time>2017-12-24T10:50:18Z</time>
      </trkpt>
      <trkpt lat="62.640902707478" lon="17.897635287153">
        <ele>95.6</ele>
        <time>2017-12-24T10:50:19Z</time>
      </trkpt>
      <trkpt lat="62.640895079949" lon="17.897599412621">
        <ele>95.8</ele>
        <time>2017-12-24T10:50:20Z</time>
      </trkpt>
      <trkpt lat="62.640885524583" lon="17.897562867537">
        <ele>95.8</ele>
        <time>2017-12-24T10:50:21Z</time>
      </trkpt>
      <trkpt lat="62.64087655595" lon="17.897529507575">
        <ele>96.2</ele>
        <time>2017-12-24T10:50:22Z</time>
      </trkpt>
      <trkpt lat="62.640869096059" lon="17.897497991631">
        <ele>96.4</ele>
        <time>2017-12-24T10:50:23Z</time>
      </trkpt>
      <trkpt lat="62.64086063034" lon="17.897458764339">
        <ele>96.6</ele>
        <time>2017-12-24T10:50:24Z</time>
      </trkpt>
      <trkpt lat="62.640853841001" lon="17.897426913119">
        <ele>96.8</ele>
        <time>2017-12-24T10:50:25Z</time>
      </trkpt>
      <trkpt lat="62.640842860712" lon="17.897394223709">
        <ele>97</ele>
        <time>2017-12-24T10:50:26Z</time>
      </trkpt>
      <trkpt lat="62.640834814088" lon="17.897366563439">
        <ele>97.2</ele>
        <time>2017-12-24T10:50:27Z</time>
      </trkpt>
      <trkpt lat="62.640827689473" lon="17.897337394427">
        <ele>97.4</ele>
        <time>2017-12-24T10:50:28Z</time>
      </trkpt>
      <trkpt lat="62.640820145763" lon="17.897299089144">
        <ele>97.6</ele>
        <time>2017-12-24T10:50:29Z</time>
      </trkpt>
      <trkpt lat="62.640811847682" lon="17.897261202956">
        <ele>97.6</ele>
        <time>2017-12-24T10:50:30Z</time>
      </trkpt>
      <trkpt lat="62.640804052515" lon="17.897222646216">
        <ele>97.8</ele>
        <time>2017-12-24T10:50:31Z</time>
      </trkpt>
      <trkpt lat="62.640796341167" lon="17.897186017313">
        <ele>98</ele>
        <time>2017-12-24T10:50:32Z</time>
      </trkpt>
      <trkpt lat="62.640789216552" lon="17.897160620156">
        <ele>98</ele>
        <time>2017-12-24T10:50:33Z</time>
      </trkpt>
      <trkpt lat="62.640782427213" lon="17.897134552447">
        <ele>98</ele>
        <time>2017-12-24T10:50:34Z</time>
      </trkpt>
      <trkpt lat="62.640775889331" lon="17.897108568557">
        <ele>98.2</ele>
        <time>2017-12-24T10:50:35Z</time>
      </trkpt>
      <trkpt lat="62.640769602906" lon="17.897088535816">
        <ele>98.4</ele>
        <time>2017-12-24T10:50:36Z</time>
      </trkpt>
      <trkpt lat="62.640761221006" lon="17.89706724579">
        <ele>98.4</ele>
        <time>2017-12-24T10:50:37Z</time>
      </trkpt>
      <trkpt lat="62.64075166564" lon="17.897042016271">
        <ele>98.4</ele>
        <time>2017-12-24T10:50:38Z</time>
      </trkpt>
      <trkpt lat="62.640739679523" lon="17.897012847259">
        <ele>98.6</ele>
        <time>2017-12-24T10:50:39Z</time>
      </trkpt>
      <trkpt lat="62.640729453605" lon="17.896991221957">
        <ele>98.8</ele>
        <time>2017-12-24T10:50:40Z</time>
      </trkpt>
      <trkpt lat="62.640717718945" lon="17.896973200872">
        <ele>99</ele>
        <time>2017-12-24T10:50:41Z</time>
      </trkpt>
      <trkpt lat="62.64070556519" lon="17.896956520891">
        <ele>99</ele>
        <time>2017-12-24T10:50:42Z</time>
      </trkpt>
      <trkpt lat="62.64069215415" lon="17.896942690756">
        <ele>99.2</ele>
        <time>2017-12-24T10:50:43Z</time>
      </trkpt>
      <trkpt lat="62.640677234368" lon="17.896925759318">
        <ele>99.2</ele>
        <time>2017-12-24T10:50:44Z</time>
      </trkpt>
      <trkpt lat="62.640661560215" lon="17.896909917527">
        <ele>99.4</ele>
        <time>2017-12-24T10:50:45Z</time>
      </trkpt>
      <trkpt lat="62.640645383148" lon="17.896900110704">
        <ele>99.6</ele>
        <time>2017-12-24T10:50:46Z</time>
      </trkpt>
      <trkpt lat="62.640627529701" lon="17.896897847591">
        <ele>99.6</ele>
        <time>2017-12-24T10:50:47Z</time>
      </trkpt>
      <trkpt lat="62.640607664598" lon="17.896895500659">
        <ele>99.8</ele>
        <time>2017-12-24T10:50:48Z</time>
      </trkpt>
      <trkpt lat="62.640585452563" lon="17.89689960779">
        <ele>100</ele>
        <time>2017-12-24T10:50:49Z</time>
      </trkpt>
      <trkpt lat="62.640558965759" lon="17.896912096821">
        <ele>100.2</ele>
        <time>2017-12-24T10:50:50Z</time>
      </trkpt>
      <trkpt lat="62.640533820059" lon="17.896931626648">
        <ele>100.4</ele>
        <time>2017-12-24T10:50:51Z</time>
      </trkpt>
      <trkpt lat="62.640509847825" lon="17.896958197271">
        <ele>100.4</ele>
        <time>2017-12-24T10:50:52Z</time>
      </trkpt>
      <trkpt lat="62.640490066541" lon="17.896982756238">
        <ele>100.4</ele>
        <time>2017-12-24T10:50:53Z</time>
      </trkpt>
      <trkpt lat="62.640461232805" lon="17.89702868905">
        <ele>100.4</ele>
        <time>2017-12-24T10:50:54Z</time>
      </trkpt>
      <trkpt lat="62.640435332734" lon="17.89707981864">
        <ele>100.2</ele>
        <time>2017-12-24T10:50:55Z</time>
      </trkpt>
      <trkpt lat="62.640411276681" lon="17.897139162492">
        <ele>100.2</ele>
        <time>2017-12-24T10:50:56Z</time>
      </trkpt>
      <trkpt lat="62.640390573388" lon="17.897201523828">
        <ele>100</ele>
        <time>2017-12-24T10:50:57Z</time>
      </trkpt>
      <trkpt lat="62.640369534819" lon="17.897267824657">
        <ele>99.8</ele>
        <time>2017-12-24T10:50:58Z</time>
      </trkpt>
      <trkpt lat="62.64034765806" lon="17.897344267585">
        <ele>99.6</ele>
        <time>2017-12-24T10:50:59Z</time>
      </trkpt>
      <trkpt lat="62.640327625319" lon="17.897427080757">
        <ele>99.4</ele>
        <time>2017-12-24T10:51:00Z</time>
      </trkpt>
      <trkpt lat="62.640312118804" lon="17.89749807545">
        <ele>99.2</ele>
        <time>2017-12-24T10:51:01Z</time>
      </trkpt>
      <trkpt lat="62.640301473791" lon="17.897567309944">
        <ele>99</ele>
        <time>2017-12-24T10:51:02Z</time>
      </trkpt>
      <trkpt lat="62.640300048868" lon="17.897643249958">
        <ele>98.8</ele>
        <time>2017-12-24T10:51:03Z</time>
      </trkpt>
      <trkpt lat="62.640305497103" lon="17.897727907148">
        <ele>98.6</ele>
        <time>2017-12-24T10:51:04Z</time>
      </trkpt>
      <trkpt lat="62.640316309754" lon="17.897805104447">
        <ele>98.4</ele>
        <time>2017-12-24T10:51:05Z</time>
      </trkpt>
      <trkpt lat="62.640334079382" lon="17.897888923447">
        <ele>98.2</ele>
        <time>2017-12-24T10:51:06Z</time>
      </trkpt>
      <trkpt lat="62.640355956141" lon="17.897966707479">
        <ele>97.8</ele>
        <time>2017-12-24T10:51:07Z</time>
      </trkpt>
      <trkpt lat="62.640381688574" lon="17.898038372724">
        <ele>97.4</ele>
        <time>2017-12-24T10:51:08Z</time>
      </trkpt>
      <trkpt lat="62.640415383812" lon="17.89812168881">
        <ele>97</ele>
        <time>2017-12-24T10:51:09Z</time>
      </trkpt>
      <trkpt lat="62.640448073222" lon="17.898196539177">
        <ele>96.4</ele>
        <time>2017-12-24T10:51:10Z</time>
      </trkpt>
      <trkpt lat="62.640481684641" lon="17.898274155571">
        <ele>95.8</ele>
        <time>2017-12-24T10:51:11Z</time>
      </trkpt>
      <trkpt lat="62.640516888621" lon="17.898357890752">
        <ele>95.2</ele>
        <time>2017-12-24T10:51:12Z</time>
      </trkpt>
      <trkpt lat="62.640551757325" lon="17.898443386132">
        <ele>94.6</ele>
        <time>2017-12-24T10:51:13Z</time>
      </trkpt>
      <trkpt lat="62.640590984617" lon="17.898540699991">
        <ele>94.2</ele>
        <time>2017-12-24T10:51:14Z</time>
      </trkpt>
      <trkpt lat="62.640630295728" lon="17.898634409633">
        <ele>93.8</ele>
        <time>2017-12-24T10:51:15Z</time>
      </trkpt>
      <trkpt lat="62.640669942115" lon="17.898727532542">
        <ele>93.2</ele>
        <time>2017-12-24T10:51:16Z</time>
      </trkpt>
      <trkpt lat="62.640708415036" lon="17.898804562203">
        <ele>93</ele>
        <time>2017-12-24T10:51:17Z</time>
      </trkpt>
      <trkpt lat="62.640760131359" lon="17.898915203283">
        <ele>92.6</ele>
        <time>2017-12-24T10:51:18Z</time>
      </trkpt>
      <trkpt lat="62.640803717239" lon="17.899007404183">
        <ele>92</ele>
        <time>2017-12-24T10:51:19Z</time>
      </trkpt>
      <trkpt lat="62.640842022522" lon="17.899082673645">
        <ele>91.4</ele>
        <time>2017-12-24T10:51:20Z</time>
      </trkpt>
      <trkpt lat="62.640875047208" lon="17.899156769641">
        <ele>91</ele>
        <time>2017-12-24T10:51:21Z</time>
      </trkpt>
      <trkpt lat="62.640903880944" lon="17.899223741022">
        <ele>90.8</ele>
        <time>2017-12-24T10:51:22Z</time>
      </trkpt>
      <trkpt lat="62.640929697196" lon="17.899285264168">
        <ele>90.6</ele>
        <time>2017-12-24T10:51:23Z</time>
      </trkpt>
      <trkpt lat="62.640954926715" lon="17.89935550449">
        <ele>90.6</ele>
        <time>2017-12-24T10:51:24Z</time>
      </trkpt>
      <trkpt lat="62.640979401863" lon="17.899409651564">
        <ele>90.6</ele>
        <time>2017-12-24T10:51:25Z</time>
      </trkpt>
      <trkpt lat="62.641001613898" lon="17.899453907996">
        <ele>90.8</ele>
        <time>2017-12-24T10:51:26Z</time>
      </trkpt>
      <trkpt lat="62.641025334675" lon="17.899501601007">
        <ele>90.8</ele>
        <time>2017-12-24T10:51:27Z</time>
      </trkpt>
      <trkpt lat="62.64105425223" lon="17.899550551303">
        <ele>90.6</ele>
        <time>2017-12-24T10:51:28Z</time>
      </trkpt>
      <trkpt lat="62.641081577224" lon="17.899600339789">
        <ele>90.6</ele>
        <time>2017-12-24T10:51:29Z</time>
      </trkpt>
      <trkpt lat="62.641108902218" lon="17.899656247062">
        <ele>90.4</ele>
        <time>2017-12-24T10:51:30Z</time>
      </trkpt>
      <trkpt lat="62.641137149221" lon="17.899702347512">
        <ele>90.4</ele>
        <time>2017-12-24T10:51:31Z</time>
      </trkpt>
      <trkpt lat="62.641163049292" lon="17.899757248957">
        <ele>90.4</ele>
        <time>2017-12-24T10:51:32Z</time>
      </trkpt>
      <trkpt lat="62.641186267155" lon="17.899809635832">
        <ele>90.6</ele>
        <time>2017-12-24T10:51:33Z</time>
      </trkpt>
      <trkpt lat="62.641208395371" lon="17.899855568644">
        <ele>90.6</ele>
        <time>2017-12-24T10:51:34Z</time>
      </trkpt>
      <trkpt lat="62.641232702881" lon="17.899901417637">
        <ele>90.6</ele>
        <time>2017-12-24T10:51:35Z</time>
      </trkpt>
      <trkpt lat="62.641260195513" lon="17.899958749833">
        <ele>90.6</ele>
        <time>2017-12-24T10:51:36Z</time>
      </trkpt>
      <trkpt lat="62.641284670661" lon="17.900010801432">
        <ele>90.6</ele>
        <time>2017-12-24T10:51:37Z</time>
      </trkpt>
      <trkpt lat="62.641309564904" lon="17.900065283782">
        <ele>90.6</ele>
        <time>2017-12-24T10:51:38Z</time>
      </trkpt>
      <trkpt lat="62.64133588407" lon="17.900118927942">
        <ele>90.6</ele>
        <time>2017-12-24T10:51:39Z</time>
      </trkpt>
      <trkpt lat="62.641362622331" lon="17.900176763052">
        <ele>90.4</ele>
        <time>2017-12-24T10:51:40Z</time>
      </trkpt>
      <trkpt lat="62.641388941497" lon="17.900236190723">
        <ele>90.4</ele>
        <time>2017-12-24T10:51:41Z</time>
      </trkpt>
      <trkpt lat="62.641414841568" lon="17.900293774376">
        <ele>90.4</ele>
        <time>2017-12-24T10:51:42Z</time>
      </trkpt>
      <trkpt lat="62.64143898144" lon="17.900351106572">
        <ele>90.4</ele>
        <time>2017-12-24T10:51:43Z</time>
      </trkpt>
      <trkpt lat="62.641459517095" lon="17.90042168217">
        <ele>90.4</ele>
        <time>2017-12-24T10:51:44Z</time>
      </trkpt>
      <trkpt lat="62.641468821004" lon="17.900495526709">
        <ele>90.2</ele>
        <time>2017-12-24T10:51:45Z</time>
      </trkpt>
      <trkpt lat="62.641463372769" lon="17.900564509746">
        <ele>90.2</ele>
        <time>2017-12-24T10:51:46Z</time>
      </trkpt>
      <trkpt lat="62.641446692788" lon="17.90061530406">
        <ele>90</ele>
        <time>2017-12-24T10:51:47Z</time>
      </trkpt>
      <trkpt lat="62.641420876536" lon="17.900644808348">
        <ele>89.8</ele>
        <time>2017-12-24T10:51:48Z</time>
      </trkpt>
      <trkpt lat="62.641389947325" lon="17.900654866628">
        <ele>89.8</ele>
        <time>2017-12-24T10:51:49Z</time>
      </trkpt>
      <trkpt lat="62.641358850476" lon="17.900636677905">
        <ele>89.8</ele>
        <time>2017-12-24T10:51:50Z</time>
      </trkpt>
      <trkpt lat="62.641329849102" lon="17.900602312115">
        <ele>89.8</ele>
        <time>2017-12-24T10:51:51Z</time>
      </trkpt>
      <trkpt lat="62.641305206316" lon="17.900557552769">
        <ele>89.8</ele>
        <time>2017-12-24T10:51:52Z</time>
      </trkpt>
      <trkpt lat="62.6412830781" lon="17.90051053031">
        <ele>90</ele>
        <time>2017-12-24T10:51:53Z</time>
      </trkpt>
      <trkpt lat="62.641260279332" lon="17.900454036304">
        <ele>90.2</ele>
        <time>2017-12-24T10:51:54Z</time>
      </trkpt>
      <trkpt lat="62.641237983478" lon="17.900397877574">
        <ele>90.2</ele>
        <time>2017-12-24T10:51:55Z</time>
      </trkpt>
      <trkpt lat="62.641218034556" lon="17.900345071604">
        <ele>90.2</ele>
        <time>2017-12-24T10:51:56Z</time>
      </trkpt>
      <trkpt lat="62.641201689851" lon="17.900301569543">
        <ele>90.4</ele>
        <time>2017-12-24T10:51:57Z</time>
      </trkpt>
      <trkpt lat="62.641185093689" lon="17.900259408586">
        <ele>90.2</ele>
        <time>2017-12-24T10:51:58Z</time>
      </trkpt>
      <trkpt lat="62.641165982957" lon="17.900211464118">
        <ele>90</ele>
        <time>2017-12-24T10:51:59Z</time>
      </trkpt>
      <trkpt lat="62.641145782578" lon="17.900158071415">
        <ele>90</ele>
        <time>2017-12-24T10:52:00Z</time>
      </trkpt>
      <trkpt lat="62.641128180588" lon="17.900106271273">
        <ele>90</ele>
        <time>2017-12-24T10:52:01Z</time>
      </trkpt>
      <trkpt lat="62.641112841711" lon="17.90006377504">
        <ele>90</ele>
        <time>2017-12-24T10:52:02Z</time>
      </trkpt>
      <trkpt lat="62.641094652988" lon="17.900015327658">
        <ele>90.2</ele>
        <time>2017-12-24T10:52:03Z</time>
      </trkpt>
      <trkpt lat="62.641075458437" lon="17.899961683498">
        <ele>90.4</ele>
        <time>2017-12-24T10:52:04Z</time>
      </trkpt>
      <trkpt lat="62.641057521171" lon="17.899909715718">
        <ele>90.4</ele>
        <time>2017-12-24T10:52:05Z</time>
      </trkpt>
      <trkpt lat="62.641036482602" lon="17.899851461513">
        <ele>90.4</ele>
        <time>2017-12-24T10:52:06Z</time>
      </trkpt>
      <trkpt lat="62.641018964431" lon="17.899804019959">
        <ele>90.6</ele>
        <time>2017-12-24T10:52:07Z</time>
      </trkpt>
      <trkpt lat="62.640997925862" lon="17.899749789066">
        <ele>90.6</ele>
        <time>2017-12-24T10:52:08Z</time>
      </trkpt>
      <trkpt lat="62.640975797646" lon="17.899689690843">
        <ele>90.6</ele>
        <time>2017-12-24T10:52:09Z</time>
      </trkpt>
      <trkpt lat="62.640958195656" lon="17.899640321452">
        <ele>90.8</ele>
        <time>2017-12-24T10:52:10Z</time>
      </trkpt>
      <trkpt lat="62.640937911458" lon="17.899584833274">
        <ele>90.8</ele>
        <time>2017-12-24T10:52:11Z</time>
      </trkpt>
      <trkpt lat="62.640919219821" lon="17.899533033132">
        <ele>90.6</ele>
        <time>2017-12-24T10:52:12Z</time>
      </trkpt>
      <trkpt lat="62.640900109089" lon="17.899483496103">
        <ele>90.8</ele>
        <time>2017-12-24T10:52:13Z</time>
      </trkpt>
      <trkpt lat="62.640882339461" lon="17.899428762296">
        <ele>90.8</ele>
        <time>2017-12-24T10:52:14Z</time>
      </trkpt>
      <trkpt lat="62.640865156566" lon="17.899375201955">
        <ele>90.8</ele>
        <time>2017-12-24T10:52:15Z</time>
      </trkpt>
      <trkpt lat="62.640846884024" lon="17.899324156184">
        <ele>90.8</ele>
        <time>2017-12-24T10:52:16Z</time>
      </trkpt>
      <trkpt lat="62.640827773292" lon="17.899269757653">
        <ele>90.8</ele>
        <time>2017-12-24T10:52:17Z</time>
      </trkpt>
      <trkpt lat="62.640815032804" lon="17.899224495393">
        <ele>91</ele>
        <time>2017-12-24T10:52:18Z</time>
      </trkpt>
      <trkpt lat="62.640797095538" lon="17.899172695251">
        <ele>90.8</ele>
        <time>2017-12-24T10:52:19Z</time>
      </trkpt>
      <trkpt lat="62.640774548227" lon="17.899116033607">
        <ele>90.8</ele>
        <time>2017-12-24T10:52:20Z</time>
      </trkpt>
      <trkpt lat="62.640752839106" lon="17.899061048343">
        <ele>90.6</ele>
        <time>2017-12-24T10:52:21Z</time>
      </trkpt>
      <trkpt lat="62.640732638727" lon="17.899014444979">
        <ele>90.6</ele>
        <time>2017-12-24T10:52:22Z</time>
      </trkpt>
      <trkpt lat="62.640710929606" lon="17.898965578502">
        <ele>90.8</ele>
        <time>2017-12-24T10:52:23Z</time>
      </trkpt>
      <trkpt lat="62.64068628682" lon="17.89890455827">
        <ele>90.8</ele>
        <time>2017-12-24T10:52:24Z</time>
      </trkpt>
      <trkpt lat="62.640658794188" lon="17.898845549694">
        <ele>90.6</ele>
        <time>2017-12-24T10:52:25Z</time>
      </trkpt>
      <trkpt lat="62.640633061755" lon="17.898792743724">
        <ele>90.8</ele>
        <time>2017-12-24T10:52:26Z</time>
      </trkpt>
      <trkpt lat="62.64060917334" lon="17.898760892504">
        <ele>90.8</ele>
        <time>2017-12-24T10:52:27Z</time>
      </trkpt>
      <trkpt lat="62.640591487531" lon="17.898739267202">
        <ele>90.6</ele>
        <time>2017-12-24T10:52:28Z</time>
      </trkpt>
      <trkpt lat="62.640572041523" lon="17.898710014371">
        <ele>90.6</ele>
        <time>2017-12-24T10:52:29Z</time>
      </trkpt>
      <trkpt lat="62.640557037922" lon="17.898677073504">
        <ele>90.6</ele>
        <time>2017-12-24T10:52:30Z</time>
      </trkpt>
      <trkpt lat="62.64054379452" lon="17.898646563388">
        <ele>90.6</ele>
        <time>2017-12-24T10:52:31Z</time>
      </trkpt>
      <trkpt lat="62.640531724584" lon="17.89861873548">
        <ele>90.8</ele>
        <time>2017-12-24T10:52:32Z</time>
      </trkpt>
      <trkpt lat="62.640519235553" lon="17.898592081038">
        <ele>91.2</ele>
        <time>2017-12-24T10:52:33Z</time>
      </trkpt>
      <trkpt lat="62.640507919988" lon="17.89856341494">
        <ele>91.6</ele>
        <time>2017-12-24T10:52:34Z</time>
      </trkpt>
      <trkpt lat="62.640491910559" lon="17.898535167937">
        <ele>92</ele>
        <time>2017-12-24T10:52:35Z</time>
      </trkpt>
      <trkpt lat="62.640477242234" lon="17.898511028065">
        <ele>92.4</ele>
        <time>2017-12-24T10:52:36Z</time>
      </trkpt>
      <trkpt lat="62.640466178126" lon="17.898478171017">
        <ele>92.4</ele>
        <time>2017-12-24T10:52:37Z</time>
      </trkpt>
      <trkpt lat="62.640452850905" lon="17.898450678385">
        <ele>92.8</ele>
        <time>2017-12-24T10:52:38Z</time>
      </trkpt>
      <trkpt lat="62.640435248915" lon="17.898422515201">
        <ele>93</ele>
        <time>2017-12-24T10:52:39Z</time>
      </trkpt>
      <trkpt lat="62.640421083504" lon="17.898390831619">
        <ele>93.2</ele>
        <time>2017-12-24T10:52:40Z</time>
      </trkpt>
      <trkpt lat="62.640403146238" lon="17.898369541593">
        <ele>93.4</ele>
        <time>2017-12-24T10:52:41Z</time>
      </trkpt>
      <trkpt lat="62.640384957515" lon="17.898342803332">
        <ele>93.8</ele>
        <time>2017-12-24T10:52:42Z</time>
      </trkpt>
      <trkpt lat="62.64036693643" lon="17.898316232709">
        <ele>93.8</ele>
        <time>2017-12-24T10:52:43Z</time>
      </trkpt>
      <trkpt lat="62.640349082983" lon="17.898294272131">
        <ele>94</ele>
        <time>2017-12-24T10:52:44Z</time>
      </trkpt>
      <trkpt lat="62.640331816269" lon="17.898269042612">
        <ele>94.2</ele>
        <time>2017-12-24T10:52:45Z</time>
      </trkpt>
      <trkpt lat="62.640313208451" lon="17.898244986559">
        <ele>94.4</ele>
        <time>2017-12-24T10:52:46Z</time>
      </trkpt>
      <trkpt lat="62.640292505158" lon="17.898222020153">
        <ele>94.6</ele>
        <time>2017-12-24T10:52:47Z</time>
      </trkpt>
      <trkpt lat="62.640269622571" lon="17.898202071231">
        <ele>94.8</ele>
        <time>2017-12-24T10:52:48Z</time>
      </trkpt>
      <trkpt lat="62.640243303405" lon="17.898182457585">
        <ele>95</ele>
        <time>2017-12-24T10:52:49Z</time>
      </trkpt>
      <trkpt lat="62.6402185768" lon="17.898169884735">
        <ele>95</ele>
        <time>2017-12-24T10:52:50Z</time>
      </trkpt>
      <trkpt lat="62.640193347281" lon="17.898164352681">
        <ele>95.2</ele>
        <time>2017-12-24T10:52:51Z</time>
      </trkpt>
      <trkpt lat="62.640169542685" lon="17.898158820627">
        <ele>95.6</ele>
        <time>2017-12-24T10:52:52Z</time>
      </trkpt>
      <trkpt lat="62.640146911555" lon="17.898160497007">
        <ele>95.8</ele>
        <time>2017-12-24T10:52:53Z</time>
      </trkpt>
      <trkpt lat="62.640122771683" lon="17.898177596083">
        <ele>96</ele>
        <time>2017-12-24T10:52:54Z</time>
      </trkpt>
      <trkpt lat="62.640099050906" lon="17.898191342399">
        <ele>96</ele>
        <time>2017-12-24T10:52:55Z</time>
      </trkpt>
      <trkpt lat="62.640075581586" lon="17.898214895538">
        <ele>96.2</ele>
        <time>2017-12-24T10:52:56Z</time>
      </trkpt>
      <trkpt lat="62.640054040103" lon="17.898240963247">
        <ele>96.2</ele>
        <time>2017-12-24T10:52:57Z</time>
      </trkpt>
      <trkpt lat="62.640031911887" lon="17.898265522214">
        <ele>96.2</ele>
        <time>2017-12-24T10:52:58Z</time>
      </trkpt>
      <trkpt lat="62.640010538042" lon="17.898300390918">
        <ele>96.2</ele>
        <time>2017-12-24T10:52:59Z</time>
      </trkpt>
      <trkpt lat="62.639993690423" lon="17.898336181631">
        <ele>96.2</ele>
        <time>2017-12-24T10:53:00Z</time>
      </trkpt>
      <trkpt lat="62.639975920795" lon="17.898373313448">
        <ele>96.2</ele>
        <time>2017-12-24T10:53:01Z</time>
      </trkpt>
      <trkpt lat="62.639959073176" lon="17.898410361446">
        <ele>96.4</ele>
        <time>2017-12-24T10:53:02Z</time>
      </trkpt>
      <trkpt lat="62.639945829774" lon="17.898451768032">
        <ele>96.6</ele>
        <time>2017-12-24T10:53:03Z</time>
      </trkpt>
      <trkpt lat="62.639933843657" lon="17.898496443559">
        <ele>96.6</ele>
        <time>2017-12-24T10:53:04Z</time>
      </trkpt>
      <trkpt lat="62.639922276635" lon="17.898541370543">
        <ele>96.8</ele>
        <time>2017-12-24T10:53:05Z</time>
      </trkpt>
      <trkpt lat="62.639911380165" lon="17.898595517617">
        <ele>97</ele>
        <time>2017-12-24T10:53:06Z</time>
      </trkpt>
      <trkpt lat="62.639895538374" lon="17.898651089614">
        <ele>97</ele>
        <time>2017-12-24T10:53:07Z</time>
      </trkpt>
      <trkpt lat="62.639886402103" lon="17.898697944435">
        <ele>97</ele>
        <time>2017-12-24T10:53:08Z</time>
      </trkpt>
      <trkpt lat="62.639873493977" lon="17.898751504776">
        <ele>97</ele>
        <time>2017-12-24T10:53:09Z</time>
      </trkpt>
      <trkpt lat="62.639852539227" lon="17.898817805605">
        <ele>97</ele>
        <time>2017-12-24T10:53:10Z</time>
      </trkpt>
      <trkpt lat="62.639836026884" lon="17.89888025076">
        <ele>97</ele>
        <time>2017-12-24T10:53:11Z</time>
      </trkpt>
      <trkpt lat="62.639823537853" lon="17.898941270992">
        <ele>96.8</ele>
        <time>2017-12-24T10:53:12Z</time>
      </trkpt>
      <trkpt lat="62.639806438777" lon="17.898999441378">
        <ele>96.8</ele>
        <time>2017-12-24T10:53:13Z</time>
      </trkpt>
      <trkpt lat="62.639786406036" lon="17.899067418587">
        <ele>96.8</ele>
        <time>2017-12-24T10:53:14Z</time>
      </trkpt>
      <trkpt lat="62.639767043847" lon="17.899128271181">
        <ele>96.6</ele>
        <time>2017-12-24T10:53:15Z</time>
      </trkpt>
      <trkpt lat="62.639748268391" lon="17.899189123775">
        <ele>96.4</ele>
        <time>2017-12-24T10:53:16Z</time>
      </trkpt>
      <trkpt lat="62.639728319469" lon="17.899252742396">
        <ele>96</ele>
        <time>2017-12-24T10:53:17Z</time>
      </trkpt>
      <trkpt lat="62.639707951452" lon="17.899315355189">
        <ele>95.6</ele>
        <time>2017-12-24T10:53:18Z</time>
      </trkpt>
      <trkpt lat="62.639685236503" lon="17.899387774805">
        <ele>95.2</ele>
        <time>2017-12-24T10:53:19Z</time>
      </trkpt>
      <trkpt lat="62.639661348088" lon="17.899463798638">
        <ele>94.8</ele>
        <time>2017-12-24T10:53:20Z</time>
      </trkpt>
      <trkpt lat="62.639639890424" lon="17.899529428915">
        <ele>94.4</ele>
        <time>2017-12-24T10:53:21Z</time>
      </trkpt>
      <trkpt lat="62.639618935674" lon="17.899589862414">
        <ele>94.2</ele>
        <time>2017-12-24T10:53:22Z</time>
      </trkpt>
      <trkpt lat="62.639602171874" lon="17.899636801054">
        <ele>94</ele>
        <time>2017-12-24T10:53:23Z</time>
      </trkpt>
      <trkpt lat="62.639580630391" lon="17.899717183475">
        <ele>93.6</ele>
        <time>2017-12-24T10:53:24Z</time>
      </trkpt>
      <trkpt lat="62.639563363677" lon="17.899790189824">
        <ele>93.4</ele>
        <time>2017-12-24T10:53:25Z</time>
      </trkpt>
      <trkpt lat="62.639550455551" lon="17.899847773477">
        <ele>93.4</ele>
        <time>2017-12-24T10:53:26Z</time>
      </trkpt>
      <trkpt lat="62.639532518285" lon="17.899904099845">
        <ele>93.6</ele>
        <time>2017-12-24T10:53:27Z</time>
      </trkpt>
      <trkpt lat="62.63951952634" lon="17.899952798684">
        <ele>94</ele>
        <time>2017-12-24T10:53:28Z</time>
      </trkpt>
      <trkpt lat="62.639509803336" lon="17.900018931875">
        <ele>94.2</ele>
        <time>2017-12-24T10:53:29Z</time>
      </trkpt>
      <trkpt lat="62.63949940978" lon="17.900087579636">
        <ele>94.2</ele>
        <time>2017-12-24T10:53:30Z</time>
      </trkpt>
      <trkpt lat="62.639484154722" lon="17.900151282076">
        <ele>94.6</ele>
        <time>2017-12-24T10:53:31Z</time>
      </trkpt>
      <trkpt lat="62.639464708714" lon="17.900216577077">
        <ele>94.8</ele>
        <time>2017-12-24T10:53:32Z</time>
      </trkpt>
      <trkpt lat="62.639442329041" lon="17.900281285345">
        <ele>94.8</ele>
        <time>2017-12-24T10:53:33Z</time>
      </trkpt>
      <trkpt lat="62.639420033187" lon="17.900346412708">
        <ele>94.8</ele>
        <time>2017-12-24T10:53:34Z</time>
      </trkpt>
      <trkpt lat="62.639394133116" lon="17.900404247818">
        <ele>94.6</ele>
        <time>2017-12-24T10:53:35Z</time>
      </trkpt>
      <trkpt lat="62.639369406511" lon="17.900463759308">
        <ele>94.6</ele>
        <time>2017-12-24T10:53:36Z</time>
      </trkpt>
      <trkpt lat="62.639351385426" lon="17.900521091504">
        <ele>94.6</ele>
        <time>2017-12-24T10:53:37Z</time>
      </trkpt>
      <trkpt lat="62.63933512454" lon="17.900577082596">
        <ele>94.6</ele>
        <time>2017-12-24T10:53:38Z</time>
      </trkpt>
      <trkpt lat="62.639316181446" lon="17.900642293778">
        <ele>94.6</ele>
        <time>2017-12-24T10:53:39Z</time>
      </trkpt>
      <trkpt lat="62.639303021863" lon="17.90069325573">
        <ele>94.4</ele>
        <time>2017-12-24T10:53:40Z</time>
      </trkpt>
      <trkpt lat="62.639288940271" lon="17.900745558786">
        <ele>94.4</ele>
        <time>2017-12-24T10:53:41Z</time>
      </trkpt>
      <trkpt lat="62.63927645124" lon="17.900792916521">
        <ele>94.2</ele>
        <time>2017-12-24T10:53:42Z</time>
      </trkpt>
      <trkpt lat="62.639264800399" lon="17.900834993659">
        <ele>94.4</ele>
        <time>2017-12-24T10:53:43Z</time>
      </trkpt>
      <trkpt lat="62.639251221721" lon="17.900884530688">
        <ele>94.2</ele>
        <time>2017-12-24T10:53:44Z</time>
      </trkpt>
      <trkpt lat="62.639237559224" lon="17.900935995554">
        <ele>94.4</ele>
        <time>2017-12-24T10:53:45Z</time>
      </trkpt>
      <trkpt lat="62.639223142356" lon="17.900987963334">
        <ele>94.4</ele>
        <time>2017-12-24T10:53:46Z</time>
      </trkpt>
      <trkpt lat="62.639211491515" lon="17.901042194227">
        <ele>94.6</ele>
        <time>2017-12-24T10:53:47Z</time>
      </trkpt>
      <trkpt lat="62.639198164294" lon="17.901105142296">
        <ele>94.6</ele>
        <time>2017-12-24T10:53:48Z</time>
      </trkpt>
      <trkpt lat="62.639193051335" lon="17.901172113677">
        <ele>94.4</ele>
        <time>2017-12-24T10:53:49Z</time>
      </trkpt>
      <trkpt lat="62.639180646123" lon="17.901264398396">
        <ele>94.2</ele>
        <time>2017-12-24T10:53:50Z</time>
      </trkpt>
      <trkpt lat="62.639168492368" lon="17.901348552672">
        <ele>94</ele>
        <time>2017-12-24T10:53:51Z</time>
      </trkpt>
      <trkpt lat="62.63915910464" lon="17.901425749971">
        <ele>93.8</ele>
        <time>2017-12-24T10:53:52Z</time>
      </trkpt>
      <trkpt lat="62.639157595898" lon="17.901498253406">
        <ele>93.8</ele>
        <time>2017-12-24T10:53:53Z</time>
      </trkpt>
      <trkpt lat="62.639156841527" lon="17.901571427393">
        <ele>93.6</ele>
        <time>2017-12-24T10:53:54Z</time>
      </trkpt>
      <trkpt lat="62.639155332785" lon="17.901640326611">
        <ele>93.4</ele>
        <time>2017-12-24T10:53:55Z</time>
      </trkpt>
      <trkpt lat="62.639160697201" lon="17.901695814789">
        <ele>93.4</ele>
        <time>2017-12-24T10:53:56Z</time>
      </trkpt>
      <trkpt lat="62.6391624574" lon="17.901764043455">
        <ele>93.2</ele>
        <time>2017-12-24T10:53:57Z</time>
      </trkpt>
      <trkpt lat="62.63916748654" lon="17.901837720356">
        <ele>93.2</ele>
        <time>2017-12-24T10:53:58Z</time>
      </trkpt>
      <trkpt lat="62.639169582015" lon="17.901929837437">
        <ele>93.2</ele>
        <time>2017-12-24T10:53:59Z</time>
      </trkpt>
      <trkpt lat="62.639166815988" lon="17.902029414409">
        <ele>93</ele>
        <time>2017-12-24T10:54:00Z</time>
      </trkpt>
      <trkpt lat="62.639158434088" lon="17.902124213698">
        <ele>93</ele>
        <time>2017-12-24T10:54:01Z</time>
      </trkpt>
      <trkpt lat="62.6391456936" lon="17.90221708515">
        <ele>92.8</ele>
        <time>2017-12-24T10:54:02Z</time>
      </trkpt>
      <trkpt lat="62.639129097438" lon="17.902299563046">
        <ele>92.6</ele>
        <time>2017-12-24T10:54:03Z</time>
      </trkpt>
      <trkpt lat="62.639105628118" lon="17.902376760345">
        <ele>92.4</ele>
        <time>2017-12-24T10:54:04Z</time>
      </trkpt>
      <trkpt lat="62.639074782726" lon="17.90245261654">
        <ele>92.4</ele>
        <time>2017-12-24T10:54:05Z</time>
      </trkpt>
      <trkpt lat="62.639052822148" lon="17.902524868518">
        <ele>92.4</ele>
        <time>2017-12-24T10:54:06Z</time>
      </trkpt>
      <trkpt lat="62.639024491326" lon="17.902598293962">
        <ele>92.2</ele>
        <time>2017-12-24T10:54:07Z</time>
      </trkpt>
      <trkpt lat="62.639003536576" lon="17.902664762429">
        <ele>92.2</ele>
        <time>2017-12-24T10:54:08Z</time>
      </trkpt>
      <trkpt lat="62.638965734207" lon="17.902756292777">
        <ele>92</ele>
        <time>2017-12-24T10:54:09Z</time>
      </trkpt>
      <trkpt lat="62.638927931838" lon="17.902852600808">
        <ele>91.8</ele>
        <time>2017-12-24T10:54:10Z</time>
      </trkpt>
      <trkpt lat="62.638891470573" lon="17.902951423409">
        <ele>91.6</ele>
        <time>2017-12-24T10:54:11Z</time>
      </trkpt>
      <trkpt lat="62.638856266593" lon="17.903045300689">
        <ele>91.2</ele>
        <time>2017-12-24T10:54:12Z</time>
      </trkpt>
      <trkpt lat="62.63882550502" lon="17.90312400673">
        <ele>91</ele>
        <time>2017-12-24T10:54:13Z</time>
      </trkpt>
      <trkpt lat="62.638794575809" lon="17.903199862925">
        <ele>90.8</ele>
        <time>2017-12-24T10:54:14Z</time>
      </trkpt>
      <trkpt lat="62.63876347896" lon="17.90326398446">
        <ele>90.4</ele>
        <time>2017-12-24T10:54:15Z</time>
      </trkpt>
      <trkpt lat="62.638734896681" lon="17.903331710212">
        <ele>90</ele>
        <time>2017-12-24T10:54:16Z</time>
      </trkpt>
      <trkpt lat="62.638710924447" lon="17.903393987729">
        <ele>89.8</ele>
        <time>2017-12-24T10:54:17Z</time>
      </trkpt>
      <trkpt lat="62.63869055643" lon="17.90343748979">
        <ele>89.6</ele>
        <time>2017-12-24T10:54:18Z</time>
      </trkpt>
      <trkpt lat="62.638670523689" lon="17.903476717082">
        <ele>89.6</ele>
        <time>2017-12-24T10:54:19Z</time>
      </trkpt>
      <trkpt lat="62.638654598079" lon="17.903515692917">
        <ele>89.6</ele>
        <time>2017-12-24T10:54:20Z</time>
      </trkpt>
      <trkpt lat="62.638642360505" lon="17.903543520825">
        <ele>90</ele>
        <time>2017-12-24T10:54:21Z</time>
      </trkpt>
      <trkpt lat="62.638629200922" lon="17.903569756172">
        <ele>90.4</ele>
        <time>2017-12-24T10:54:22Z</time>
      </trkpt>
      <trkpt lat="62.638617214805" lon="17.903593057854">
        <ele>90.6</ele>
        <time>2017-12-24T10:54:23Z</time>
      </trkpt>
      <trkpt lat="62.63860338467" lon="17.903619544658">
        <ele>90.8</ele>
        <time>2017-12-24T10:54:24Z</time>
      </trkpt>
      <trkpt lat="62.638593410209" lon="17.903646618195">
        <ele>91.2</ele>
        <time>2017-12-24T10:54:25Z</time>
      </trkpt>
      <trkpt lat="62.638582178463" lon="17.903672518266">
        <ele>91.8</ele>
        <time>2017-12-24T10:54:26Z</time>
      </trkpt>
      <trkpt lat="62.638569521794" lon="17.903694227387">
        <ele>92</ele>
        <time>2017-12-24T10:54:27Z</time>
      </trkpt>
      <trkpt lat="62.638562397179" lon="17.903714679223">
        <ele>92.2</ele>
        <time>2017-12-24T10:54:28Z</time>
      </trkpt>
      <trkpt lat="62.638552925632" lon="17.903741501303">
        <ele>92.6</ele>
        <time>2017-12-24T10:54:29Z</time>
      </trkpt>
      <trkpt lat="62.638542029162" lon="17.903764300071">
        <ele>93</ele>
        <time>2017-12-24T10:54:30Z</time>
      </trkpt>
      <trkpt lat="62.638530378321" lon="17.903784416631">
        <ele>93</ele>
        <time>2017-12-24T10:54:31Z</time>
      </trkpt>
      <trkpt lat="62.638523421344" lon="17.903812328358">
        <ele>93.2</ele>
        <time>2017-12-24T10:54:32Z</time>
      </trkpt>
      <trkpt lat="62.63851369834" lon="17.903834372755">
        <ele>93.2</ele>
        <time>2017-12-24T10:54:33Z</time>
      </trkpt>
      <trkpt lat="62.638504394431" lon="17.903858931722">
        <ele>93.4</ele>
        <time>2017-12-24T10:54:34Z</time>
      </trkpt>
      <trkpt lat="62.638497185997" lon="17.903882903956">
        <ele>93.4</ele>
        <time>2017-12-24T10:54:35Z</time>
      </trkpt>
      <trkpt lat="62.638484026414" lon="17.903908133475">
        <ele>93.6</ele>
        <time>2017-12-24T10:54:36Z</time>
      </trkpt>
      <trkpt lat="62.638471621202" lon="17.903931686614">
        <ele>93.8</ele>
        <time>2017-12-24T10:54:37Z</time>
      </trkpt>
      <trkpt lat="62.638465334777" lon="17.903954569201">
        <ele>93.8</ele>
        <time>2017-12-24T10:54:38Z</time>
      </trkpt>
      <trkpt lat="62.638454438307" lon="17.903979547263">
        <ele>94</ele>
        <time>2017-12-24T10:54:39Z</time>
      </trkpt>
      <trkpt lat="62.638443625656" lon="17.904001759298">
        <ele>94.4</ele>
        <time>2017-12-24T10:54:40Z</time>
      </trkpt>
      <trkpt lat="62.638434992299" lon="17.904029000473">
        <ele>94.6</ele>
        <time>2017-12-24T10:54:41Z</time>
      </trkpt>
      <trkpt lat="62.63842401201" lon="17.90405607401">
        <ele>95</ele>
        <time>2017-12-24T10:54:42Z</time>
      </trkpt>
      <trkpt lat="62.63841311554" lon="17.904077950769">
        <ele>95.4</ele>
        <time>2017-12-24T10:54:43Z</time>
      </trkpt>
      <trkpt lat="62.638404146907" lon="17.904110053446">
        <ele>95.8</ele>
        <time>2017-12-24T10:54:44Z</time>
      </trkpt>
      <trkpt lat="62.638396016464" lon="17.904136037336">
        <ele>96.2</ele>
        <time>2017-12-24T10:54:45Z</time>
      </trkpt>
      <trkpt lat="62.638384952356" lon="17.904155148068">
        <ele>96.4</ele>
        <time>2017-12-24T10:54:46Z</time>
      </trkpt>
      <trkpt lat="62.638373552972" lon="17.904180712863">
        <ele>96.6</ele>
        <time>2017-12-24T10:54:47Z</time>
      </trkpt>
      <trkpt lat="62.638365003434" lon="17.904202589622">
        <ele>96.8</ele>
        <time>2017-12-24T10:54:48Z</time>
      </trkpt>
      <trkpt lat="62.638355196611" lon="17.904225053114">
        <ele>97</ele>
        <time>2017-12-24T10:54:49Z</time>
      </trkpt>
      <trkpt lat="62.638342875218" lon="17.904243409475">
        <ele>97.2</ele>
        <time>2017-12-24T10:54:50Z</time>
      </trkpt>
      <trkpt lat="62.638335247689" lon="17.90426059237">
        <ele>97.4</ele>
        <time>2017-12-24T10:54:51Z</time>
      </trkpt>
      <trkpt lat="62.638325273228" lon="17.904285989527">
        <ele>97.8</ele>
        <time>2017-12-24T10:54:52Z</time>
      </trkpt>
      <trkpt lat="62.638312700378" lon="17.904306189906">
        <ele>98</ele>
        <time>2017-12-24T10:54:53Z</time>
      </trkpt>
      <trkpt lat="62.638296858587" lon="17.904330078321">
        <ele>98.4</ele>
        <time>2017-12-24T10:54:54Z</time>
      </trkpt>
      <trkpt lat="62.638285626841" lon="17.90435279327">
        <ele>98.6</ele>
        <time>2017-12-24T10:54:55Z</time>
      </trkpt>
      <trkpt lat="62.638274646552" lon="17.904373328925">
        <ele>98.8</ele>
        <time>2017-12-24T10:54:56Z</time>
      </trkpt>
      <trkpt lat="62.638258553304" lon="17.904393361666">
        <ele>99</ele>
        <time>2017-12-24T10:54:57Z</time>
      </trkpt>
      <trkpt lat="62.638243717341" lon="17.904406940344">
        <ele>99.4</ele>
        <time>2017-12-24T10:54:58Z</time>
      </trkpt>
      <trkpt lat="62.638225696256" lon="17.904422446859">
        <ele>99.4</ele>
        <time>2017-12-24T10:54:59Z</time>
      </trkpt>
      <trkpt lat="62.638208764818" lon="17.904446167636">
        <ele>99.8</ele>
        <time>2017-12-24T10:55:00Z</time>
      </trkpt>
      <trkpt lat="62.638188983534" lon="17.904466368015">
        <ele>100</ele>
        <time>2017-12-24T10:55:01Z</time>
      </trkpt>
      <trkpt lat="62.638171884458" lon="17.904478354132">
        <ele>100.4</ele>
        <time>2017-12-24T10:55:02Z</time>
      </trkpt>
      <trkpt lat="62.638159479246" lon="17.904488747688">
        <ele>100.8</ele>
        <time>2017-12-24T10:55:03Z</time>
      </trkpt>
      <trkpt lat="62.638145062378" lon="17.904493525371">
        <ele>101.2</ele>
        <time>2017-12-24T10:55:04Z</time>
      </trkpt>
      <trkpt lat="62.638131064605" lon="17.904498973606">
        <ele>101.4</ele>
        <time>2017-12-24T10:55:05Z</time>
      </trkpt>
      <trkpt lat="62.638112624425" lon="17.904516407958">
        <ele>101.8</ele>
        <time>2017-12-24T10:55:06Z</time>
      </trkpt>
      <trkpt lat="62.638093178417" lon="17.904517832881">
        <ele>102</ele>
        <time>2017-12-24T10:55:07Z</time>
      </trkpt>
      <trkpt lat="62.638074738237" lon="17.904519425442">
        <ele>102.2</ele>
        <time>2017-12-24T10:55:08Z</time>
      </trkpt>
      <trkpt lat="62.638053783487" lon="17.90452713679">
        <ele>102.4</ele>
        <time>2017-12-24T10:55:09Z</time>
      </trkpt>
      <trkpt lat="62.638033164013" lon="17.90453216593">
        <ele>102.4</ele>
        <time>2017-12-24T10:55:10Z</time>
      </trkpt>
      <trkpt lat="62.63801665167" lon="17.90453970964">
        <ele>102.4</ele>
        <time>2017-12-24T10:55:11Z</time>
      </trkpt>
      <trkpt lat="62.63799485873" lon="17.90454725335">
        <ele>102.6</ele>
        <time>2017-12-24T10:55:12Z</time>
      </trkpt>
      <trkpt lat="62.637980274224" lon="17.904556389621">
        <ele>102.6</ele>
        <time>2017-12-24T10:55:13Z</time>
      </trkpt>
      <trkpt lat="62.637963929519" lon="17.904564100969">
        <ele>102.6</ele>
        <time>2017-12-24T10:55:14Z</time>
      </trkpt>
      <trkpt lat="62.637946830443" lon="17.904571644679">
        <ele>102.6</ele>
        <time>2017-12-24T10:55:15Z</time>
      </trkpt>
      <trkpt lat="62.637931491566" lon="17.90458664828">
        <ele>102.6</ele>
        <time>2017-12-24T10:55:16Z</time>
      </trkpt>
      <trkpt lat="62.637914979223" lon="17.904591761239">
        <ele>102.8</ele>
        <time>2017-12-24T10:55:17Z</time>
      </trkpt>
      <trkpt lat="62.637898299242" lon="17.904594862542">
        <ele>102.8</ele>
        <time>2017-12-24T10:55:18Z</time>
      </trkpt>
      <trkpt lat="62.63787499756" lon="17.904619170052">
        <ele>103</ele>
        <time>2017-12-24T10:55:19Z</time>
      </trkpt>
      <trkpt lat="62.637852450249" lon="17.904632832549">
        <ele>103</ele>
        <time>2017-12-24T10:55:20Z</time>
      </trkpt>
      <trkpt lat="62.637834596802" lon="17.904648087607">
        <ele>103.2</ele>
        <time>2017-12-24T10:55:21Z</time>
      </trkpt>
      <trkpt lat="62.63781632426" lon="17.904660744276">
        <ele>103.2</ele>
        <time>2017-12-24T10:55:22Z</time>
      </trkpt>
      <trkpt lat="62.637800650107" lon="17.904673987678">
        <ele>103.4</ele>
        <time>2017-12-24T10:55:23Z</time>
      </trkpt>
      <trkpt lat="62.637776761692" lon="17.90468806927">
        <ele>103.4</ele>
        <time>2017-12-24T10:55:24Z</time>
      </trkpt>
      <trkpt lat="62.637757315684" lon="17.904707431459">
        <ele>103.6</ele>
        <time>2017-12-24T10:55:25Z</time>
      </trkpt>
      <trkpt lat="62.637735774201" lon="17.904721093956">
        <ele>103.6</ele>
        <time>2017-12-24T10:55:26Z</time>
      </trkpt>
      <trkpt lat="62.6377207706" lon="17.904736516652">
        <ele>103.8</ele>
        <time>2017-12-24T10:55:27Z</time>
      </trkpt>
      <trkpt lat="62.637705264085" lon="17.904751352615">
        <ele>104</ele>
        <time>2017-12-24T10:55:28Z</time>
      </trkpt>
      <trkpt lat="62.637690511941" lon="17.904762332904">
        <ele>104</ele>
        <time>2017-12-24T10:55:29Z</time>
      </trkpt>
      <trkpt lat="62.637677436177" lon="17.904797788341">
        <ele>104.2</ele>
        <time>2017-12-24T10:55:30Z</time>
      </trkpt>
      <trkpt lat="62.637661175291" lon="17.904831148303">
        <ele>104.4</ele>
        <time>2017-12-24T10:55:31Z</time>
      </trkpt>
      <trkpt lat="62.637645584957" lon="17.904861071686">
        <ele>104.6</ele>
        <time>2017-12-24T10:55:32Z</time>
      </trkpt>
      <trkpt lat="62.637637454514" lon="17.904895353657">
        <ele>104.8</ele>
        <time>2017-12-24T10:55:33Z</time>
      </trkpt>
      <trkpt lat="62.637626306587" lon="17.904925612316">
        <ele>104.8</ele>
        <time>2017-12-24T10:55:34Z</time>
      </trkpt>
      <trkpt lat="62.637614571927" lon="17.904964001418">
        <ele>105</ele>
        <time>2017-12-24T10:55:35Z</time>
      </trkpt>
      <trkpt lat="62.637606106208" lon="17.905005072728">
        <ele>105</ele>
        <time>2017-12-24T10:55:36Z</time>
      </trkpt>
      <trkpt lat="62.637595964109" lon="17.90504094726">
        <ele>105.2</ele>
        <time>2017-12-24T10:55:37Z</time>
      </trkpt>
      <trkpt lat="62.637588252761" lon="17.905074642498">
        <ele>105.4</ele>
        <time>2017-12-24T10:55:38Z</time>
      </trkpt>
      <trkpt lat="62.637581211965" lon="17.905114121247">
        <ele>105.6</ele>
        <time>2017-12-24T10:55:39Z</time>
      </trkpt>
      <trkpt lat="62.637577104834" lon="17.905145469553">
        <ele>105.8</ele>
        <time>2017-12-24T10:55:40Z</time>
      </trkpt>
      <trkpt lat="62.637569393486" lon="17.905176817859">
        <ele>106</ele>
        <time>2017-12-24T10:55:41Z</time>
      </trkpt>
      <trkpt lat="62.637559670482" lon="17.905209255812">
        <ele>106</ele>
        <time>2017-12-24T10:55:42Z</time>
      </trkpt>
      <trkpt lat="62.637556904455" lon="17.905235994073">
        <ele>106.2</ele>
        <time>2017-12-24T10:55:43Z</time>
      </trkpt>
      <trkpt lat="62.637549612202" lon="17.905270527501">
        <ele>106.4</ele>
        <time>2017-12-24T10:55:44Z</time>
      </trkpt>
      <trkpt lat="62.637544415424" lon="17.905301959626">
        <ele>106.6</ele>
        <time>2017-12-24T10:55:45Z</time>
      </trkpt>
      <trkpt lat="62.637537793723" lon="17.90533682833">
        <ele>106.8</ele>
        <time>2017-12-24T10:55:46Z</time>
      </trkpt>
      <trkpt lat="62.637528322176" lon="17.905372451405">
        <ele>107.2</ele>
        <time>2017-12-24T10:55:47Z</time>
      </trkpt>
      <trkpt lat="62.637519940276" lon="17.905406984833">
        <ele>107.6</ele>
        <time>2017-12-24T10:55:48Z</time>
      </trkpt>
      <trkpt lat="62.637511139281" lon="17.905441350623">
        <ele>108</ele>
        <time>2017-12-24T10:55:49Z</time>
      </trkpt>
      <trkpt lat="62.637501583915" lon="17.905479404449">
        <ele>108</ele>
        <time>2017-12-24T10:55:50Z</time>
      </trkpt>
      <trkpt lat="62.637497225327" lon="17.905515865714">
        <ele>108.2</ele>
        <time>2017-12-24T10:55:51Z</time>
      </trkpt>
      <trkpt lat="62.637488927246" lon="17.905561714707">
        <ele>108.2</ele>
        <time>2017-12-24T10:55:52Z</time>
      </trkpt>
      <trkpt lat="62.637482389364" lon="17.905597924515">
        <ele>108.2</ele>
        <time>2017-12-24T10:55:53Z</time>
      </trkpt>
      <trkpt lat="62.637463278632" lon="17.905656011082">
        <ele>108.4</ele>
        <time>2017-12-24T10:55:54Z</time>
      </trkpt>
      <trkpt lat="62.637443245891" lon="17.905699513143">
        <ele>108.2</ele>
        <time>2017-12-24T10:55:55Z</time>
      </trkpt>
      <trkpt lat="62.637419525114" lon="17.905733711295">
        <ele>108.2</ele>
        <time>2017-12-24T10:55:56Z</time>
      </trkpt>
      <trkpt lat="62.637397564536" lon="17.905751816199">
        <ele>108.2</ele>
        <time>2017-12-24T10:55:57Z</time>
      </trkpt>
      <trkpt lat="62.637374346673" lon="17.905760868651">
        <ele>108</ele>
        <time>2017-12-24T10:55:58Z</time>
      </trkpt>
      <trkpt lat="62.637349955344" lon="17.90576598161">
        <ele>108</ele>
        <time>2017-12-24T10:55:59Z</time>
      </trkpt>
      <trkpt lat="62.637325647834" lon="17.905758856995">
        <ele>108</ele>
        <time>2017-12-24T10:56:00Z</time>
      </trkpt>
      <trkpt lat="62.637302849066" lon="17.90575257057">
        <ele>108</ele>
        <time>2017-12-24T10:56:01Z</time>
      </trkpt>
      <trkpt lat="62.637281642859" lon="17.905747206154">
        <ele>108</ele>
        <time>2017-12-24T10:56:02Z</time>
      </trkpt>
      <trkpt lat="62.637263370317" lon="17.905746787059">
        <ele>108</ele>
        <time>2017-12-24T10:56:03Z</time>
      </trkpt>
      <trkpt lat="62.637246857974" lon="17.905747206154">
        <ele>108.2</ele>
        <time>2017-12-24T10:56:04Z</time>
      </trkpt>
      <trkpt lat="62.637229004527" lon="17.905738237521">
        <ele>108.2</ele>
        <time>2017-12-24T10:56:05Z</time>
      </trkpt>
      <trkpt lat="62.637208720329" lon="17.905726754318">
        <ele>108.2</ele>
        <time>2017-12-24T10:56:06Z</time>
      </trkpt>
      <trkpt lat="62.637190615425" lon="17.905713594735">
        <ele>108.2</ele>
        <time>2017-12-24T10:56:07Z</time>
      </trkpt>
      <trkpt lat="62.637174354539" lon="17.905700183695">
        <ele>108.4</ele>
        <time>2017-12-24T10:56:08Z</time>
      </trkpt>
      <trkpt lat="62.637156165816" lon="17.905682497886">
        <ele>108.6</ele>
        <time>2017-12-24T10:56:09Z</time>
      </trkpt>
      <trkpt lat="62.637140910758" lon="17.905665566448">
        <ele>108.6</ele>
        <time>2017-12-24T10:56:10Z</time>
      </trkpt>
      <trkpt lat="62.63712230294" lon="17.905634804875">
        <ele>109</ele>
        <time>2017-12-24T10:56:11Z</time>
      </trkpt>
      <trkpt lat="62.637106796425" lon="17.905604713854">
        <ele>109.2</ele>
        <time>2017-12-24T10:56:12Z</time>
      </trkpt>
      <trkpt lat="62.637093469204" lon="17.905575461023">
        <ele>109.2</ele>
        <time>2017-12-24T10:56:13Z</time>
      </trkpt>
      <trkpt lat="62.637083997657" lon="17.905545705278">
        <ele>109.4</ele>
        <time>2017-12-24T10:56:14Z</time>
      </trkpt>
      <trkpt lat="62.637077962689" lon="17.905510836574">
        <ele>109.8</ele>
        <time>2017-12-24T10:56:15Z</time>
      </trkpt>
      <trkpt lat="62.637073185006" lon="17.905478147164">
        <ele>110</ele>
        <time>2017-12-24T10:56:16Z</time>
      </trkpt>
      <trkpt lat="62.637068323504" lon="17.905444871021">
        <ele>110</ele>
        <time>2017-12-24T10:56:17Z</time>
      </trkpt>
      <trkpt lat="62.637062875269" lon="17.905411343421">
        <ele>110.2</ele>
        <time>2017-12-24T10:56:18Z</time>
      </trkpt>
      <trkpt lat="62.637059941604" lon="17.90537538507">
        <ele>110.4</ele>
        <time>2017-12-24T10:56:19Z</time>
      </trkpt>
      <trkpt lat="62.637060695975" lon="17.905333140294">
        <ele>110.6</ele>
        <time>2017-12-24T10:56:20Z</time>
      </trkpt>
      <trkpt lat="62.637058935776" lon="17.905292236622">
        <ele>110.6</ele>
        <time>2017-12-24T10:56:21Z</time>
      </trkpt>
      <trkpt lat="62.637054493369" lon="17.905256697366">
        <ele>110.8</ele>
        <time>2017-12-24T10:56:22Z</time>
      </trkpt>
      <trkpt lat="62.637051140609" lon="17.905215206961">
        <ele>110.8</ele>
        <time>2017-12-24T10:56:23Z</time>
      </trkpt>
      <trkpt lat="62.63705357136" lon="17.905163909733">
        <ele>110.8</ele>
        <time>2017-12-24T10:56:24Z</time>
      </trkpt>
      <trkpt lat="62.637061701803" lon="17.905122419328">
        <ele>111</ele>
        <time>2017-12-24T10:56:25Z</time>
      </trkpt>
      <trkpt lat="62.637061366527" lon="17.905072714661">
        <ele>111</ele>
        <time>2017-12-24T10:56:26Z</time>
      </trkpt>
      <trkpt lat="62.637063545821" lon="17.905022087985">
        <ele>111</ele>
        <time>2017-12-24T10:56:27Z</time>
      </trkpt>
      <trkpt lat="62.63706362964" lon="17.904976741906">
        <ele>111.2</ele>
        <time>2017-12-24T10:56:28Z</time>
      </trkpt>
      <trkpt lat="62.637064886925" lon="17.904917649511">
        <ele>111.4</ele>
        <time>2017-12-24T10:56:29Z</time>
      </trkpt>
      <trkpt lat="62.637065808934" lon="17.904853360338">
        <ele>111.4</ele>
        <time>2017-12-24T10:56:30Z</time>
      </trkpt>
      <trkpt lat="62.637066479486" lon="17.90478949026">
        <ele>111.4</ele>
        <time>2017-12-24T10:56:31Z</time>
      </trkpt>
      <trkpt lat="62.637070167522" lon="17.90471824411">
        <ele>111.4</ele>
        <time>2017-12-24T10:56:32Z</time>
      </trkpt>
      <trkpt lat="62.637077375956" lon="17.904643142286">
        <ele>111.4</ele>
        <time>2017-12-24T10:56:33Z</time>
      </trkpt>
      <trkpt lat="62.637087266598" lon="17.904557479268">
        <ele>111.2</ele>
        <time>2017-12-24T10:56:34Z</time>
      </trkpt>
      <trkpt lat="62.637098079249" lon="17.904462679979">
        <ele>111</ele>
        <time>2017-12-24T10:56:35Z</time>
      </trkpt>
      <trkpt lat="62.637112328479" lon="17.904364863206">
        <ele>110.8</ele>
        <time>2017-12-24T10:56:36Z</time>
      </trkpt>
      <trkpt lat="62.637126745347" lon="17.904271572659">
        <ele>110.4</ele>
        <time>2017-12-24T10:56:37Z</time>
      </trkpt>
      <trkpt lat="62.637140659301" lon="17.904176605732">
        <ele>110</ele>
        <time>2017-12-24T10:56:38Z</time>
      </trkpt>
      <trkpt lat="62.6371591833" lon="17.904052637431">
        <ele>109.6</ele>
        <time>2017-12-24T10:56:39Z</time>
      </trkpt>
      <trkpt lat="62.637174354539" lon="17.90392531637">
        <ele>109</ele>
        <time>2017-12-24T10:56:40Z</time>
      </trkpt>
      <trkpt lat="62.63718935814" lon="17.903780980052">
        <ele>108.4</ele>
        <time>2017-12-24T10:56:41Z</time>
      </trkpt>
      <trkpt lat="62.637212911279" lon="17.903596829709">
        <ele>107.4</ele>
        <time>2017-12-24T10:56:42Z</time>
      </trkpt>
      <trkpt lat="62.637235626228" lon="17.903428688795">
        <ele>106.8</ele>
        <time>2017-12-24T10:56:43Z</time>
      </trkpt>
      <trkpt lat="62.637259095548" lon="17.903231797964">
        <ele>105.4</ele>
        <time>2017-12-24T10:56:44Z</time>
      </trkpt>
      <trkpt lat="62.637276697538" lon="17.90307539171">
        <ele>104</ele>
        <time>2017-12-24T10:56:45Z</time>
      </trkpt>
      <trkpt lat="62.637293461338" lon="17.902905155321">
        <ele>103</ele>
        <time>2017-12-24T10:56:46Z</time>
      </trkpt>
      <trkpt lat="62.637304357808" lon="17.902761238098">
        <ele>101.6</ele>
        <time>2017-12-24T10:56:47Z</time>
      </trkpt>
      <trkpt lat="62.637311230966" lon="17.902621008911">
        <ele>101</ele>
        <time>2017-12-24T10:56:48Z</time>
      </trkpt>
      <trkpt lat="62.637316343925" lon="17.902495615687">
        <ele>100.4</ele>
        <time>2017-12-24T10:56:49Z</time>
      </trkpt>
      <trkpt lat="62.637321540703" lon="17.902365696237">
        <ele>99.8</ele>
        <time>2017-12-24T10:56:50Z</time>
      </trkpt>
      <trkpt lat="62.637325312558" lon="17.902240470651">
        <ele>99.8</ele>
        <time>2017-12-24T10:56:51Z</time>
      </trkpt>
      <trkpt lat="62.637326234567" lon="17.902101750206">
        <ele>99.8</ele>
        <time>2017-12-24T10:56:52Z</time>
      </trkpt>
      <trkpt lat="62.637323049445" lon="17.901978284819">
        <ele>99.8</ele>
        <time>2017-12-24T10:56:53Z</time>
      </trkpt>
      <trkpt lat="62.6373268213" lon="17.90181810671">
        <ele>99.6</ele>
        <time>2017-12-24T10:56:54Z</time>
      </trkpt>
      <trkpt lat="62.63733185044" lon="17.901677206971">
        <ele>99.4</ele>
        <time>2017-12-24T10:56:55Z</time>
      </trkpt>
      <trkpt lat="62.637343920376" lon="17.901547706616">
        <ele>98.8</ele>
        <time>2017-12-24T10:56:56Z</time>
      </trkpt>
      <trkpt lat="62.637362360556" lon="17.901430443835">
        <ele>98.2</ele>
        <time>2017-12-24T10:56:57Z</time>
      </trkpt>
      <trkpt lat="62.63738298003" lon="17.901329274302">
        <ele>97.8</ele>
        <time>2017-12-24T10:56:58Z</time>
      </trkpt>
      <trkpt lat="62.63740477297" lon="17.901235229384">
        <ele>97.6</ele>
        <time>2017-12-24T10:56:59Z</time>
      </trkpt>
      <trkpt lat="62.637431008317" lon="17.901139927181">
        <ele>97.4</ele>
        <time>2017-12-24T10:57:00Z</time>
      </trkpt>
      <trkpt lat="62.637453974723" lon="17.901067256108">
        <ele>97.8</ele>
        <time>2017-12-24T10:57:01Z</time>
      </trkpt>
      <trkpt lat="62.637486999409" lon="17.90100170965">
        <ele>98.2</ele>
        <time>2017-12-24T10:57:02Z</time>
      </trkpt>
      <trkpt lat="62.637517006611" lon="17.900943539264">
        <ele>98.4</ele>
        <time>2017-12-24T10:57:03Z</time>
      </trkpt>
      <trkpt lat="62.637546091804" lon="17.900886207068">
        <ele>98.8</ele>
        <time>2017-12-24T10:57:04Z</time>
      </trkpt>
      <trkpt lat="62.637578026843" lon="17.900829293967">
        <ele>99</ele>
        <time>2017-12-24T10:57:05Z</time>
      </trkpt>
      <trkpt lat="62.63761096771" lon="17.900771626495">
        <ele>99.2</ele>
        <time>2017-12-24T10:57:06Z</time>
      </trkpt>
      <trkpt lat="62.637637370695" lon="17.900713707566">
        <ele>99.4</ele>
        <time>2017-12-24T10:57:07Z</time>
      </trkpt>
      <trkpt lat="62.637662181119" lon="17.900643718701">
        <ele>99.4</ele>
        <time>2017-12-24T10:57:08Z</time>
      </trkpt>
      <trkpt lat="62.637690763398" lon="17.90056585085">
        <ele>99.6</ele>
        <time>2017-12-24T10:57:09Z</time>
      </trkpt>
      <trkpt lat="62.63771155051" lon="17.900499550021">
        <ele>99.4</ele>
        <time>2017-12-24T10:57:10Z</time>
      </trkpt>
      <trkpt lat="62.637731918527" lon="17.900419335238">
        <ele>99.4</ele>
        <time>2017-12-24T10:57:11Z</time>
      </trkpt>
      <trkpt lat="62.637752873277" lon="17.900339455731">
        <ele>99.4</ele>
        <time>2017-12-24T10:57:12Z</time>
      </trkpt>
      <trkpt lat="62.637767206326" lon="17.900271478522">
        <ele>99.4</ele>
        <time>2017-12-24T10:57:13Z</time>
      </trkpt>
      <trkpt lat="62.637782964298" lon="17.900192101929">
        <ele>99.4</ele>
        <time>2017-12-24T10:57:14Z</time>
      </trkpt>
      <trkpt lat="62.637799392822" lon="17.900144660375">
        <ele>99.4</ele>
        <time>2017-12-24T10:57:15Z</time>
      </trkpt>
      <trkpt lat="62.637815988984" lon="17.900089423654">
        <ele>99.4</ele>
        <time>2017-12-24T10:57:16Z</time>
      </trkpt>
      <trkpt lat="62.637827304549" lon="17.900031504725">
        <ele>99.4</ele>
        <time>2017-12-24T10:57:17Z</time>
      </trkpt>
      <trkpt lat="62.637835434992" lon="17.899975262176">
        <ele>99.2</ele>
        <time>2017-12-24T10:57:18Z</time>
      </trkpt>
      <trkpt lat="62.637844235987" lon="17.899918181437">
        <ele>99.2</ele>
        <time>2017-12-24T10:57:19Z</time>
      </trkpt>
      <trkpt lat="62.637849097489" lon="17.899859089042">
        <ele>99.2</ele>
        <time>2017-12-24T10:57:20Z</time>
      </trkpt>
      <trkpt lat="62.637854713362" lon="17.899818604465">
        <ele>99.4</ele>
        <time>2017-12-24T10:57:21Z</time>
      </trkpt>
      <trkpt lat="62.637863514357" lon="17.899775186223">
        <ele>99.2</ele>
        <time>2017-12-24T10:57:22Z</time>
      </trkpt>
      <trkpt lat="62.637870052239" lon="17.899726487384">
        <ele>99.4</ele>
        <time>2017-12-24T10:57:23Z</time>
      </trkpt>
      <trkpt lat="62.637875249017" lon="17.899669741921">
        <ele>99.6</ele>
        <time>2017-12-24T10:57:24Z</time>
      </trkpt>
      <trkpt lat="62.637883128003" lon="17.899612745001">
        <ele>100</ele>
        <time>2017-12-24T10:57:25Z</time>
      </trkpt>
      <trkpt lat="62.637891845179" lon="17.899554490796">
        <ele>100</ele>
        <time>2017-12-24T10:57:26Z</time>
      </trkpt>
      <trkpt lat="62.637903160744" lon="17.899508390346">
        <ele>100</ele>
        <time>2017-12-24T10:57:27Z</time>
      </trkpt>
      <trkpt lat="62.637914224852" lon="17.899465223561">
        <ele>100.2</ele>
        <time>2017-12-24T10:57:28Z</time>
      </trkpt>
      <trkpt lat="62.637925205141" lon="17.89941920693">
        <ele>100.4</ele>
        <time>2017-12-24T10:57:29Z</time>
      </trkpt>
      <trkpt lat="62.637936520706" lon="17.899373274118">
        <ele>100.4</ele>
        <time>2017-12-24T10:57:30Z</time>
      </trkpt>
      <trkpt lat="62.637946998081" lon="17.899331029342">
        <ele>100.4</ele>
        <time>2017-12-24T10:57:31Z</time>
      </trkpt>
      <trkpt lat="62.63795965475" lon="17.89929431662">
        <ele>100.4</ele>
        <time>2017-12-24T10:57:32Z</time>
      </trkpt>
      <trkpt lat="62.637970467401" lon="17.899263974142">
        <ele>100.4</ele>
        <time>2017-12-24T10:57:33Z</time>
      </trkpt>
      <trkpt lat="62.637983459346" lon="17.899235391863">
        <ele>100.6</ele>
        <time>2017-12-24T10:57:34Z</time>
      </trkpt>
      <trkpt lat="62.637997121843" lon="17.899205803756">
        <ele>100.8</ele>
        <time>2017-12-24T10:57:35Z</time>
      </trkpt>
      <trkpt lat="62.638008772684" lon="17.899174120174">
        <ele>101</ele>
        <time>2017-12-24T10:57:36Z</time>
      </trkpt>
      <trkpt lat="62.638017825136" lon="17.899146711361">
        <ele>101.2</ele>
        <time>2017-12-24T10:57:37Z</time>
      </trkpt>
      <trkpt lat="62.638027799597" lon="17.899119805462">
        <ele>101.4</ele>
        <time>2017-12-24T10:57:38Z</time>
      </trkpt>
      <trkpt lat="62.638041294456" lon="17.899089462984">
        <ele>101.8</ele>
        <time>2017-12-24T10:57:39Z</time>
      </trkpt>
      <trkpt lat="62.638058393532" lon="17.899060042515">
        <ele>102</ele>
        <time>2017-12-24T10:57:40Z</time>
      </trkpt>
      <trkpt lat="62.638075241151" lon="17.899030035313">
        <ele>102</ele>
        <time>2017-12-24T10:57:41Z</time>
      </trkpt>
      <trkpt lat="62.638094519521" lon="17.898996340075">
        <ele>102.2</ele>
        <time>2017-12-24T10:57:42Z</time>
      </trkpt>
      <trkpt lat="62.638109523122" lon="17.89896993709">
        <ele>102.4</ele>
        <time>2017-12-24T10:57:43Z</time>
      </trkpt>
      <trkpt lat="62.638124023809" lon="17.89894562958">
        <ele>102.4</ele>
        <time>2017-12-24T10:57:44Z</time>
      </trkpt>
      <trkpt lat="62.638139362686" lon="17.898923082269">
        <ele>102.4</ele>
        <time>2017-12-24T10:57:45Z</time>
      </trkpt>
      <trkpt lat="62.638152857545" lon="17.898896092551">
        <ele>102.4</ele>
        <time>2017-12-24T10:57:46Z</time>
      </trkpt>
      <trkpt lat="62.638165765671" lon="17.898872958507">
        <ele>102.4</ele>
        <time>2017-12-24T10:57:47Z</time>
      </trkpt>
      <trkpt lat="62.638178003245" lon="17.898853009585">
        <ele>102.6</ele>
        <time>2017-12-24T10:57:48Z</time>
      </trkpt>
      <trkpt lat="62.638196946339" lon="17.898828366799">
        <ele>102.6</ele>
        <time>2017-12-24T10:57:49Z</time>
      </trkpt>
      <trkpt lat="62.638221589125" lon="17.898797521407">
        <ele>103</ele>
        <time>2017-12-24T10:57:50Z</time>
      </trkpt>
      <trkpt lat="62.638243214427" lon="17.898768855309">
        <ele>103.2</ele>
        <time>2017-12-24T10:57:51Z</time>
      </trkpt>
      <trkpt lat="62.638256541648" lon="17.898737423184">
        <ele>103.2</ele>
        <time>2017-12-24T10:57:52Z</time>
      </trkpt>
      <trkpt lat="62.638273640724" lon="17.898706577792">
        <ele>103.6</ele>
        <time>2017-12-24T10:57:53Z</time>
      </trkpt>
      <trkpt lat="62.63829995989" lon="17.898665087387">
        <ele>103.8</ele>
        <time>2017-12-24T10:57:54Z</time>
      </trkpt>
      <trkpt lat="62.638318316251" lon="17.898625776276">
        <ele>104</ele>
        <time>2017-12-24T10:57:55Z</time>
      </trkpt>
      <trkpt lat="62.63834019301" lon="17.898591242848">
        <ele>104</ele>
        <time>2017-12-24T10:57:56Z</time>
      </trkpt>
      <trkpt lat="62.638352095308" lon="17.898577328894">
        <ele>104</ele>
        <time>2017-12-24T10:57:57Z</time>
      </trkpt>
      <trkpt lat="62.638367601823" lon="17.898550506814">
        <ele>104</ele>
        <time>2017-12-24T10:57:58Z</time>
      </trkpt>
      <trkpt lat="62.63838964622" lon="17.898516308662">
        <ele>104</ele>
        <time>2017-12-24T10:57:59Z</time>
      </trkpt>
      <trkpt lat="62.638412528807" lon="17.898483367795">
        <ele>104.2</ele>
        <time>2017-12-24T10:58:00Z</time>
      </trkpt>
      <trkpt lat="62.638436501041" lon="17.898450007833">
        <ele>104.2</ele>
        <time>2017-12-24T10:58:01Z</time>
      </trkpt>
      <trkpt lat="62.638462065836" lon="17.898415725862">
        <ele>104.4</ele>
        <time>2017-12-24T10:58:02Z</time>
      </trkpt>
      <trkpt lat="62.638478829636" lon="17.898383958461">
        <ele>104.4</ele>
        <time>2017-12-24T10:58:03Z</time>
      </trkpt>
      <trkpt lat="62.63849861092" lon="17.898355711458">
        <ele>104.6</ele>
        <time>2017-12-24T10:58:04Z</time>
      </trkpt>
      <trkpt lat="62.638515961453" lon="17.898335175803">
        <ele>104.6</ele>
        <time>2017-12-24T10:58:05Z</time>
      </trkpt>
      <trkpt lat="62.638532641434" lon="17.898318160546">
        <ele>104.6</ele>
        <time>2017-12-24T10:58:06Z</time>
      </trkpt>
      <trkpt lat="62.63854890232" lon="17.898299552728">
        <ele>104.8</ele>
        <time>2017-12-24T10:58:07Z</time>
      </trkpt>
      <trkpt lat="62.638562229541" lon="17.898285806412">
        <ele>105</ele>
        <time>2017-12-24T10:58:08Z</time>
      </trkpt>
      <trkpt lat="62.63858913544" lon="17.898253955192">
        <ele>105.2</ele>
        <time>2017-12-24T10:58:09Z</time>
      </trkpt>
      <trkpt lat="62.638615370787" lon="17.898226378741">
        <ele>105.4</ele>
        <time>2017-12-24T10:58:10Z</time>
      </trkpt>
      <trkpt lat="62.63863272132" lon="17.898203244697">
        <ele>105.6</ele>
        <time>2017-12-24T10:58:11Z</time>
      </trkpt>
      <trkpt lat="62.638655855364" lon="17.898181367938">
        <ele>105.8</ele>
        <time>2017-12-24T10:58:12Z</time>
      </trkpt>
      <trkpt lat="62.638680414331" lon="17.898153791487">
        <ele>106</ele>
        <time>2017-12-24T10:58:13Z</time>
      </trkpt>
      <trkpt lat="62.638702207271" lon="17.898128981063">
        <ele>106</ele>
        <time>2017-12-24T10:58:14Z</time>
      </trkpt>
      <trkpt lat="62.638722994383" lon="17.898106769028">
        <ele>106</ele>
        <time>2017-12-24T10:58:15Z</time>
      </trkpt>
      <trkpt lat="62.638745206418" lon="17.898094447635">
        <ele>106</ele>
        <time>2017-12-24T10:58:16Z</time>
      </trkpt>
      <trkpt lat="62.638768340462" lon="17.898080030767">
        <ele>106.2</ele>
        <time>2017-12-24T10:58:17Z</time>
      </trkpt>
      <trkpt lat="62.63879113923" lon="17.898064524252">
        <ele>106.2</ele>
        <time>2017-12-24T10:58:18Z</time>
      </trkpt>
      <trkpt lat="62.638820224423" lon="17.898049772108">
        <ele>106.6</ele>
        <time>2017-12-24T10:58:19Z</time>
      </trkpt>
      <trkpt lat="62.638852997652" lon="17.898044156235">
        <ele>106.8</ele>
        <time>2017-12-24T10:58:20Z</time>
      </trkpt>
      <trkpt lat="62.638872611298" lon="17.898044491511">
        <ele>106.8</ele>
        <time>2017-12-24T10:58:21Z</time>
      </trkpt>
      <trkpt lat="62.638902534681" lon="17.898053879239">
        <ele>107</ele>
        <time>2017-12-24T10:58:22Z</time>
      </trkpt>
      <trkpt lat="62.638927931838" lon="17.898054465972">
        <ele>107</ele>
        <time>2017-12-24T10:58:23Z</time>
      </trkpt>
      <trkpt lat="62.638965231293" lon="17.898059998026">
        <ele>107</ele>
        <time>2017-12-24T10:58:24Z</time>
      </trkpt>
      <trkpt lat="62.63900403949" lon="17.898067038822">
        <ele>107</ele>
        <time>2017-12-24T10:58:25Z</time>
      </trkpt>
      <trkpt lat="62.639043015325" lon="17.898076258912">
        <ele>107.2</ele>
        <time>2017-12-24T10:58:26Z</time>
      </trkpt>
      <trkpt lat="62.639083835178" lon="17.898085981916">
        <ele>107</ele>
        <time>2017-12-24T10:58:27Z</time>
      </trkpt>
      <trkpt lat="62.639122056642" lon="17.898090927237">
        <ele>106.8</ele>
        <time>2017-12-24T10:58:28Z</time>
      </trkpt>
      <trkpt lat="62.639165474884" lon="17.898084221717">
        <ele>106.8</ele>
        <time>2017-12-24T10:58:29Z</time>
      </trkpt>
      <trkpt lat="62.639207132927" lon="17.898061422949">
        <ele>106.4</ele>
        <time>2017-12-24T10:58:30Z</time>
      </trkpt>
      <trkpt lat="62.639243175097" lon="17.898020435458">
        <ele>106</ele>
        <time>2017-12-24T10:58:31Z</time>
      </trkpt>
      <trkpt lat="62.639270751548" lon="17.89795907995">
        <ele>105.8</ele>
        <time>2017-12-24T10:58:32Z</time>
      </trkpt>
      <trkpt lat="62.639294388506" lon="17.897898897908">
        <ele>105.8</ele>
        <time>2017-12-24T10:58:33Z</time>
      </trkpt>
      <trkpt lat="62.639309811202" lon="17.897822538799">
        <ele>105.6</ele>
        <time>2017-12-24T10:58:34Z</time>
      </trkpt>
      <trkpt lat="62.639325820631" lon="17.897751963201">
        <ele>105.6</ele>
        <time>2017-12-24T10:58:35Z</time>
      </trkpt>
      <trkpt lat="62.639330514495" lon="17.897676190825">
        <ele>105.4</ele>
        <time>2017-12-24T10:58:36Z</time>
      </trkpt>
      <trkpt lat="62.639334537807" lon="17.897623636312">
        <ele>105.6</ele>
        <time>2017-12-24T10:58:37Z</time>
      </trkpt>
      <trkpt lat="62.639340908051" lon="17.897584660477">
        <ele>105.6</ele>
        <time>2017-12-24T10:58:38Z</time>
      </trkpt>
      <trkpt lat="62.639347194476" lon="17.897541158416">
        <ele>105.8</ele>
        <time>2017-12-24T10:58:39Z</time>
      </trkpt>
      <trkpt lat="62.639351217788" lon="17.897506289712">
        <ele>106</ele>
        <time>2017-12-24T10:58:40Z</time>
      </trkpt>
      <trkpt lat="62.639355744014" lon="17.897472259198">
        <ele>106.4</ele>
        <time>2017-12-24T10:58:41Z</time>
      </trkpt>
      <trkpt lat="62.639358761498" lon="17.897427080757">
        <ele>106.6</ele>
        <time>2017-12-24T10:58:42Z</time>
      </trkpt>
      <trkpt lat="62.639367478674" lon="17.897390284216">
        <ele>106.8</ele>
        <time>2017-12-24T10:58:43Z</time>
      </trkpt>
      <trkpt lat="62.639372423995" lon="17.897351643657">
        <ele>107</ele>
        <time>2017-12-24T10:58:44Z</time>
      </trkpt>
      <trkpt lat="62.639378207506" lon="17.897318367514">
        <ele>107</ele>
        <time>2017-12-24T10:58:45Z</time>
      </trkpt>
      <trkpt lat="62.639384326293" lon="17.897284085543">
        <ele>107</ele>
        <time>2017-12-24T10:58:46Z</time>
      </trkpt>
      <trkpt lat="62.639390193623" lon="17.897249803572">
        <ele>107.4</ele>
        <time>2017-12-24T10:58:47Z</time>
      </trkpt>
      <trkpt lat="62.639398072609" lon="17.897214683411">
        <ele>107.4</ele>
        <time>2017-12-24T10:58:48Z</time>
      </trkpt>
      <trkpt lat="62.639407963251" lon="17.89717369592">
        <ele>107.6</ele>
        <time>2017-12-24T10:58:49Z</time>
      </trkpt>
      <trkpt lat="62.639414668771" lon="17.897126924918">
        <ele>107.8</ele>
        <time>2017-12-24T10:58:50Z</time>
      </trkpt>
      <trkpt lat="62.639420117006" lon="17.897093062042">
        <ele>108</ele>
        <time>2017-12-24T10:58:51Z</time>
      </trkpt>
      <trkpt lat="62.639424475594" lon="17.897056936053">
        <ele>108.2</ele>
        <time>2017-12-24T10:58:52Z</time>
      </trkpt>
      <trkpt lat="62.63943235458" lon="17.897015948562">
        <ele>108.2</ele>
        <time>2017-12-24T10:58:53Z</time>
      </trkpt>
      <trkpt lat="62.639445346525" lon="17.896953335769">
        <ele>108.4</ele>
        <time>2017-12-24T10:58:54Z</time>
      </trkpt>
      <trkpt lat="62.639453728425" lon="17.896898601962">
        <ele>108.6</ele>
        <time>2017-12-24T10:58:55Z</time>
      </trkpt>
      <trkpt lat="62.639458422289" lon="17.896850741313">
        <ele>108.8</ele>
        <time>2017-12-24T10:58:56Z</time>
      </trkpt>
      <trkpt lat="62.639470995139" lon="17.896789553443">
        <ele>108.8</ele>
        <time>2017-12-24T10:58:57Z</time>
      </trkpt>
      <trkpt lat="62.639478957944" lon="17.896745967563">
        <ele>109.2</ele>
        <time>2017-12-24T10:58:58Z</time>
      </trkpt>
      <trkpt lat="62.639486166378" lon="17.896699783294">
        <ele>109.2</ele>
        <time>2017-12-24T10:58:59Z</time>
      </trkpt>
      <trkpt lat="62.639498906866" lon="17.896643289288">
        <ele>109.2</ele>
        <time>2017-12-24T10:59:00Z</time>
      </trkpt>
      <trkpt lat="62.639505780024" lon="17.896585202721">
        <ele>109.2</ele>
        <time>2017-12-24T10:59:01Z</time>
      </trkpt>
      <trkpt lat="62.639518855788" lon="17.896514794761">
        <ele>109.4</ele>
        <time>2017-12-24T10:59:02Z</time>
      </trkpt>
      <trkpt lat="62.639525980403" lon="17.896461988791">
        <ele>109.4</ele>
        <time>2017-12-24T10:59:03Z</time>
      </trkpt>
      <trkpt lat="62.639535200493" lon="17.896407171165">
        <ele>109.4</ele>
        <time>2017-12-24T10:59:04Z</time>
      </trkpt>
      <trkpt lat="62.639544169126" lon="17.89635562248">
        <ele>109.6</ele>
        <time>2017-12-24T10:59:05Z</time>
      </trkpt>
      <trkpt lat="62.639552048112" lon="17.896305498718">
        <ele>109.6</ele>
        <time>2017-12-24T10:59:06Z</time>
      </trkpt>
      <trkpt lat="62.639560010917" lon="17.896251603101">
        <ele>109.8</ele>
        <time>2017-12-24T10:59:07Z</time>
      </trkpt>
      <trkpt lat="62.639570236835" lon="17.896191923973">
        <ele>109.8</ele>
        <time>2017-12-24T10:59:08Z</time>
      </trkpt>
      <trkpt lat="62.639589347567" lon="17.89610919462">
        <ele>109.8</ele>
        <time>2017-12-24T10:59:09Z</time>
      </trkpt>
      <trkpt lat="62.639610972869" lon="17.896036607366">
        <ele>109.8</ele>
        <time>2017-12-24T10:59:10Z</time>
      </trkpt>
      <trkpt lat="62.639635615655" lon="17.895970557994">
        <ele>110</ele>
        <time>2017-12-24T10:59:11Z</time>
      </trkpt>
      <trkpt lat="62.639667969789" lon="17.895911884694">
        <ele>110</ele>
        <time>2017-12-24T10:59:12Z</time>
      </trkpt>
      <trkpt lat="62.639701581208" lon="17.895875171972">
        <ele>109.6</ele>
        <time>2017-12-24T10:59:13Z</time>
      </trkpt>
      <trkpt lat="62.639742987794" lon="17.895846254417">
        <ele>109.4</ele>
        <time>2017-12-24T10:59:14Z</time>
      </trkpt>
      <trkpt lat="62.639783137095" lon="17.895823790925">
        <ele>109</ele>
        <time>2017-12-24T10:59:15Z</time>
      </trkpt>
      <trkpt lat="62.639828064079" lon="17.895793029352">
        <ele>108.6</ele>
        <time>2017-12-24T10:59:16Z</time>
      </trkpt>
      <trkpt lat="62.639879193669" lon="17.895757657734">
        <ele>108</ele>
        <time>2017-12-24T10:59:17Z</time>
      </trkpt>
      <trkpt lat="62.639934011295" lon="17.895696386045">
        <ele>107.6</ele>
        <time>2017-12-24T10:59:18Z</time>
      </trkpt>
      <trkpt lat="62.639989667111" lon="17.895610136294">
        <ele>106.8</ele>
        <time>2017-12-24T10:59:19Z</time>
      </trkpt>
      <trkpt lat="62.6400425569" lon="17.895496561549">
        <ele>105.8</ele>
        <time>2017-12-24T10:59:20Z</time>
      </trkpt>
      <trkpt lat="62.64008111364" lon="17.895387261573">
        <ele>104.6</ele>
        <time>2017-12-24T10:59:21Z</time>
      </trkpt>
      <trkpt lat="62.640111120842" lon="17.895270753163">
        <ele>103.6</ele>
        <time>2017-12-24T10:59:22Z</time>
      </trkpt>
      <trkpt lat="62.640124112787" lon="17.895172684933">
        <ele>102.8</ele>
        <time>2017-12-24T10:59:23Z</time>
      </trkpt>
      <trkpt lat="62.640139116388" lon="17.895046704976">
        <ele>102</ele>
        <time>2017-12-24T10:59:24Z</time>
      </trkpt>
      <trkpt lat="62.640144061709" lon="17.894946876547">
        <ele>101.8</ele>
        <time>2017-12-24T10:59:25Z</time>
      </trkpt>
      <trkpt lat="62.640151856876" lon="17.894849981783">
        <ele>101.8</ele>
        <time>2017-12-24T10:59:26Z</time>
      </trkpt>
      <trkpt lat="62.640158394758" lon="17.894756439779">
        <ele>102.2</ele>
        <time>2017-12-24T10:59:27Z</time>
      </trkpt>
      <trkpt lat="62.640163926812" lon="17.894693659348">
        <ele>102.4</ele>
        <time>2017-12-24T10:59:28Z</time>
      </trkpt>
      <trkpt lat="62.640170632332" lon="17.894617803153">
        <ele>102.8</ele>
        <time>2017-12-24T10:59:29Z</time>
      </trkpt>
      <trkpt lat="62.640171386703" lon="17.894559213672">
        <ele>103.4</ele>
        <time>2017-12-24T10:59:30Z</time>
      </trkpt>
      <trkpt lat="62.640172895445" lon="17.894511520661">
        <ele>103.8</ele>
        <time>2017-12-24T10:59:31Z</time>
      </trkpt>
      <trkpt lat="62.640178511318" lon="17.894459049967">
        <ele>104</ele>
        <time>2017-12-24T10:59:32Z</time>
      </trkpt>
      <trkpt lat="62.64018924015" lon="17.894410434947">
        <ele>104.2</ele>
        <time>2017-12-24T10:59:33Z</time>
      </trkpt>
      <trkpt lat="62.640208015606" lon="17.894377410261">
        <ele>104.4</ele>
        <time>2017-12-24T10:59:34Z</time>
      </trkpt>
      <trkpt lat="62.64023450241" lon="17.894369028361">
        <ele>104.4</ele>
        <time>2017-12-24T10:59:35Z</time>
      </trkpt>
      <trkpt lat="62.640264761069" lon="17.894390318387">
        <ele>104.6</ele>
        <time>2017-12-24T10:59:36Z</time>
      </trkpt>
      <trkpt lat="62.640289487674" lon="17.894440023054">
        <ele>104.8</ele>
        <time>2017-12-24T10:59:37Z</time>
      </trkpt>
      <trkpt lat="62.640305916198" lon="17.894500624191">
        <ele>105</ele>
        <time>2017-12-24T10:59:38Z</time>
      </trkpt>
      <trkpt lat="62.640322596179" lon="17.894574971644">
        <ele>105.2</ele>
        <time>2017-12-24T10:59:39Z</time>
      </trkpt>
      <trkpt lat="62.640335001391" lon="17.894645044328">
        <ele>105</ele>
        <time>2017-12-24T10:59:40Z</time>
      </trkpt>
      <trkpt lat="62.640349250621" lon="17.894716541935">
        <ele>105</ele>
        <time>2017-12-24T10:59:41Z</time>
      </trkpt>
      <trkpt lat="62.640368864267" lon="17.894781753117">
        <ele>104.8</ele>
        <time>2017-12-24T10:59:42Z</time>
      </trkpt>
      <trkpt lat="62.640388813189" lon="17.894843276263">
        <ele>104.4</ele>
        <time>2017-12-24T10:59:43Z</time>
      </trkpt>
      <trkpt lat="62.640407840102" lon="17.894904464133">
        <ele>104.4</ele>
        <time>2017-12-24T10:59:45Z</time>
      </trkpt>
      <trkpt lat="62.640438350218" lon="17.895011752453">
        <ele>104.4</ele>
        <time>2017-12-24T10:59:46Z</time>
      </trkpt>
      <trkpt lat="62.640467016316" lon="17.895097918385">
        <ele>104.4</ele>
        <time>2017-12-24T10:59:47Z</time>
      </trkpt>
      <trkpt lat="62.640485372677" lon="17.895148545061">
        <ele>104.2</ele>
        <time>2017-12-24T10:59:48Z</time>
      </trkpt>
      <trkpt lat="62.640501549744" lon="17.895224820351">
        <ele>104</ele>
        <time>2017-12-24T10:59:49Z</time>
      </trkpt>
      <trkpt lat="62.640520241381" lon="17.895284583298">
        <ele>103.8</ele>
        <time>2017-12-24T10:59:50Z</time>
      </trkpt>
      <trkpt lat="62.640534239154" lon="17.895346357901">
        <ele>103.8</ele>
        <time>2017-12-24T10:59:51Z</time>
      </trkpt>
      <trkpt lat="62.640546057633" lon="17.895408635418">
        <ele>103.8</ele>
        <time>2017-12-24T10:59:52Z</time>
      </trkpt>
      <trkpt lat="62.640558630483" lon="17.895444593769">
        <ele>103.6</ele>
        <time>2017-12-24T10:59:53Z</time>
      </trkpt>
      <trkpt lat="62.640563324347" lon="17.895497567377">
        <ele>103.8</ele>
        <time>2017-12-24T10:59:54Z</time>
      </trkpt>
      <trkpt lat="62.640568772582" lon="17.895559090523">
        <ele>104</ele>
        <time>2017-12-24T10:59:55Z</time>
      </trkpt>
      <trkpt lat="62.640575813378" lon="17.895608711371">
        <ele>103.8</ele>
        <time>2017-12-24T10:59:56Z</time>
      </trkpt>
      <trkpt lat="62.64058235126" lon="17.895666797938">
        <ele>104</ele>
        <time>2017-12-24T10:59:57Z</time>
      </trkpt>
      <trkpt lat="62.640587799495" lon="17.895734858966">
        <ele>104</ele>
        <time>2017-12-24T10:59:58Z</time>
      </trkpt>
      <trkpt lat="62.640593163911" lon="17.895798896682">
        <ele>104.2</ele>
        <time>2017-12-24T10:59:59Z</time>
      </trkpt>
      <trkpt lat="62.640602300182" lon="17.895903251337">
        <ele>104.2</ele>
        <time>2017-12-24T11:00:00Z</time>
      </trkpt>
      <trkpt lat="62.640614621575" lon="17.895992770029">
        <ele>104.2</ele>
        <time>2017-12-24T11:00:01Z</time>
      </trkpt>
      <trkpt lat="62.640631469194" lon="17.896083378368">
        <ele>104.2</ele>
        <time>2017-12-24T11:00:02Z</time>
      </trkpt>
      <trkpt lat="62.640648652089" lon="17.896166526816">
        <ele>104.2</ele>
        <time>2017-12-24T11:00:03Z</time>
      </trkpt>
      <trkpt lat="62.640661895491" lon="17.896263673037">
        <ele>104</ele>
        <time>2017-12-24T11:00:04Z</time>
      </trkpt>
      <trkpt lat="62.640680754766" lon="17.896362328">
        <ele>103.8</ele>
        <time>2017-12-24T11:00:05Z</time>
      </trkpt>
      <trkpt lat="62.640703637353" lon="17.896464251904">
        <ele>103.6</ele>
        <time>2017-12-24T11:00:06Z</time>
      </trkpt>
      <trkpt lat="62.64072568175" lon="17.896551172207">
        <ele>103.2</ele>
        <time>2017-12-24T11:00:07Z</time>
      </trkpt>
      <trkpt lat="62.640747977604" lon="17.896635242664">
        <ele>103.2</ele>
        <time>2017-12-24T11:00:08Z</time>
      </trkpt>
      <trkpt lat="62.640775470236" lon="17.896721743872">
        <ele>102.8</ele>
        <time>2017-12-24T11:00:09Z</time>
      </trkpt>
      <trkpt lat="62.640802040859" lon="17.896805814329">
        <ele>102.4</ele>
        <time>2017-12-24T11:00:10Z</time>
      </trkpt>
      <trkpt lat="62.640824923446" lon="17.896898601962">
        <ele>102</ele>
        <time>2017-12-24T11:00:11Z</time>
      </trkpt>
      <trkpt lat="62.640854427734" lon="17.897023827548">
        <ele>101.6</ele>
        <time>2017-12-24T11:00:12Z</time>
      </trkpt>
      <trkpt lat="62.64087907052" lon="17.897137569931">
        <ele>101.2</ele>
        <time>2017-12-24T11:00:13Z</time>
      </trkpt>
      <trkpt lat="62.640899019442" lon="17.897264136621">
        <ele>100.8</ele>
        <time>2017-12-24T11:00:14Z</time>
      </trkpt>
      <trkpt lat="62.640921315296" lon="17.897387099094">
        <ele>100.2</ele>
        <time>2017-12-24T11:00:15Z</time>
      </trkpt>
      <trkpt lat="62.640941599494" lon="17.897506876445">
        <ele>99.6</ele>
        <time>2017-12-24T11:00:16Z</time>
      </trkpt>
      <trkpt lat="62.640962638063" lon="17.897624977416">
        <ele>99.2</ele>
        <time>2017-12-24T11:00:17Z</time>
      </trkpt>
      <trkpt lat="62.640983508994" lon="17.897739893265">
        <ele>98.8</ele>
        <time>2017-12-24T11:00:18Z</time>
      </trkpt>
      <trkpt lat="62.641007145952" lon="17.897857407503">
        <ele>98.6</ele>
        <time>2017-12-24T11:00:19Z</time>
      </trkpt>
      <trkpt lat="62.641032710747" lon="17.897975759931">
        <ele>98.2</ele>
        <time>2017-12-24T11:00:20Z</time>
      </trkpt>
      <trkpt lat="62.641065651614" lon="17.898100147327">
        <ele>97.8</ele>
        <time>2017-12-24T11:00:21Z</time>
      </trkpt>
      <trkpt lat="62.641099179214" lon="17.898212380968">
        <ele>97.6</ele>
        <time>2017-12-24T11:00:22Z</time>
      </trkpt>
      <trkpt lat="62.641135305203" lon="17.898321010392">
        <ele>97.4</ele>
        <time>2017-12-24T11:00:23Z</time>
      </trkpt>
      <trkpt lat="62.641173694305" lon="17.898424191581">
        <ele>97</ele>
        <time>2017-12-24T11:00:24Z</time>
      </trkpt>
      <trkpt lat="62.641210407027" lon="17.898521337802">
        <ele>96.8</ele>
        <time>2017-12-24T11:00:25Z</time>
      </trkpt>
      <trkpt lat="62.641245694826" lon="17.898586632803">
        <ele>96.2</ele>
        <time>2017-12-24T11:00:26Z</time>
      </trkpt>
      <trkpt lat="62.641280060616" lon="17.898651592528">
        <ele>95.8</ele>
        <time>2017-12-24T11:00:27Z</time>
      </trkpt>
      <trkpt lat="62.641314594044" lon="17.898718144814">
        <ele>95.4</ele>
        <time>2017-12-24T11:00:28Z</time>
      </trkpt>
      <trkpt lat="62.641341080848" lon="17.898765921644">
        <ele>94.4</ele>
        <time>2017-12-24T11:00:29Z</time>
      </trkpt>
      <trkpt lat="62.641376368647" lon="17.898826690419">
        <ele>93.6</ele>
        <time>2017-12-24T11:00:30Z</time>
      </trkpt>
      <trkpt lat="62.64140713022" lon="17.898873209964">
        <ele>93.2</ele>
        <time>2017-12-24T11:00:31Z</time>
      </trkpt>
      <trkpt lat="62.641436550689" lon="17.898908413944">
        <ele>92.8</ele>
        <time>2017-12-24T11:00:32Z</time>
      </trkpt>
      <trkpt lat="62.641468737185" lon="17.898942695915">
        <ele>93</ele>
        <time>2017-12-24T11:00:33Z</time>
      </trkpt>
      <trkpt lat="62.641499666396" lon="17.898965662321">
        <ele>93</ele>
        <time>2017-12-24T11:00:34Z</time>
      </trkpt>
      <trkpt lat="62.641532774901" lon="17.898993741686">
        <ele>93</ele>
        <time>2017-12-24T11:00:35Z</time>
      </trkpt>
      <trkpt lat="62.641527661942" lon="17.898966165235">
        <ele>93</ele>
        <time>2017-12-24T11:00:36Z</time>
      </trkpt>
      <trkpt lat="62.641582982482" lon="17.898982342302">
        <ele>93</ele>
        <time>2017-12-24T11:00:37Z</time>
      </trkpt>
      <trkpt lat="62.641614330788" lon="17.89898502451">
        <ele>93</ele>
        <time>2017-12-24T11:00:38Z</time>
      </trkpt>
      <trkpt lat="62.641635034081" lon="17.898983180492">
        <ele>93.2</ele>
        <time>2017-12-24T11:00:39Z</time>
      </trkpt>
      <trkpt lat="62.641664706007" lon="17.89897496623">
        <ele>93</ele>
        <time>2017-12-24T11:00:40Z</time>
      </trkpt>
      <trkpt lat="62.641681721264" lon="17.898957028964">
        <ele>93.2</ele>
        <time>2017-12-24T11:00:41Z</time>
      </trkpt>
      <trkpt lat="62.641704855308" lon="17.898916628206">
        <ele>93.2</ele>
        <time>2017-12-24T11:00:42Z</time>
      </trkpt>
      <trkpt lat="62.641725726239" lon="17.898880753674">
        <ele>93.4</ele>
        <time>2017-12-24T11:00:43Z</time>
      </trkpt>
      <trkpt lat="62.641737544718" lon="17.898825684591">
        <ele>93.4</ele>
        <time>2017-12-24T11:00:44Z</time>
      </trkpt>
      <trkpt lat="62.641752799776" lon="17.89877296244">
        <ele>93.6</ele>
        <time>2017-12-24T11:00:45Z</time>
      </trkpt>
      <trkpt lat="62.641767216644" lon="17.898719066823">
        <ele>93.6</ele>
        <time>2017-12-24T11:00:46Z</time>
      </trkpt>
      <trkpt lat="62.641776688191" lon="17.898655699659">
        <ele>93.8</ele>
        <time>2017-12-24T11:00:47Z</time>
      </trkpt>
      <trkpt lat="62.641784567177" lon="17.898584704966">
        <ele>93.6</ele>
        <time>2017-12-24T11:00:48Z</time>
      </trkpt>
      <trkpt lat="62.641789596317" lon="17.898511028065">
        <ele>93.6</ele>
        <time>2017-12-24T11:00:49Z</time>
      </trkpt>
      <trkpt lat="62.641793871086" lon="17.898449002005">
        <ele>93.6</ele>
        <time>2017-12-24T11:00:50Z</time>
      </trkpt>
      <trkpt lat="62.641796553294" lon="17.89836727848">
        <ele>93.4</ele>
        <time>2017-12-24T11:00:51Z</time>
      </trkpt>
      <trkpt lat="62.64180107952" lon="17.898284716765">
        <ele>93.4</ele>
        <time>2017-12-24T11:00:52Z</time>
      </trkpt>
      <trkpt lat="62.641810718705" lon="17.898206513638">
        <ele>93.2</ele>
        <time>2017-12-24T11:00:53Z</time>
      </trkpt>
      <trkpt lat="62.641817172768" lon="17.898119593335">
        <ele>92.8</ele>
        <time>2017-12-24T11:00:54Z</time>
      </trkpt>
      <trkpt lat="62.64182538703" lon="17.89802948791">
        <ele>91.8</ele>
        <time>2017-12-24T11:00:55Z</time>
      </trkpt>
      <trkpt lat="62.641832763102" lon="17.897941310322">
        <ele>91.2</ele>
        <time>2017-12-24T11:00:56Z</time>
      </trkpt>
      <trkpt lat="62.641838546613" lon="17.897850534345">
        <ele>90.2</ele>
        <time>2017-12-24T11:00:57Z</time>
      </trkpt>
      <trkpt lat="62.641843324296" lon="17.89776378168">
        <ele>89.8</ele>
        <time>2017-12-24T11:00:58Z</time>
      </trkpt>
      <trkpt lat="62.641839887717" lon="17.897690775331">
        <ele>89.2</ele>
        <time>2017-12-24T11:00:59Z</time>
      </trkpt>
      <trkpt lat="62.641823543012" lon="17.897620199733">
        <ele>88.8</ele>
        <time>2017-12-24T11:01:00Z</time>
      </trkpt>
      <trkpt lat="62.641806443936" lon="17.897573009636">
        <ele>88.6</ele>
        <time>2017-12-24T11:01:01Z</time>
      </trkpt>
      <trkpt lat="62.641782052607" lon="17.897544762633">
        <ele>88.8</ele>
        <time>2017-12-24T11:01:02Z</time>
      </trkpt>
      <trkpt lat="62.641757242183" lon="17.897525903358">
        <ele>89</ele>
        <time>2017-12-24T11:01:03Z</time>
      </trkpt>
      <trkpt lat="62.641737628537" lon="17.897539230579">
        <ele>89.2</ele>
        <time>2017-12-24T11:01:04Z</time>
      </trkpt>
      <trkpt lat="62.641707286059" lon="17.8975944673">
        <ele>89.4</ele>
        <time>2017-12-24T11:01:05Z</time>
      </trkpt>
      <trkpt lat="62.641682643273" lon="17.897642914682">
        <ele>89.8</ele>
        <time>2017-12-24T11:01:06Z</time>
      </trkpt>
      <trkpt lat="62.641654647727" lon="17.897678621576">
        <ele>90</ele>
        <time>2017-12-24T11:01:07Z</time>
      </trkpt>
      <trkpt lat="62.641631848959" lon="17.897733523021">
        <ele>90.2</ele>
        <time>2017-12-24T11:01:08Z</time>
      </trkpt>
      <trkpt lat="62.641597986083" lon="17.897765290422">
        <ele>90.2</ele>
        <time>2017-12-24T11:01:09Z</time>
      </trkpt>
      <trkpt lat="62.641562614465" lon="17.89780317661">
        <ele>90.2</ele>
        <time>2017-12-24T11:01:10Z</time>
      </trkpt>
      <trkpt lat="62.641535792385" lon="17.897832932355">
        <ele>90</ele>
        <time>2017-12-24T11:01:11Z</time>
      </trkpt>
      <trkpt lat="62.64151525673" lon="17.897872327285">
        <ele>90</ele>
        <time>2017-12-24T11:01:12Z</time>
      </trkpt>
      <trkpt lat="62.641489691935" lon="17.897906693075">
        <ele>90</ele>
        <time>2017-12-24T11:01:13Z</time>
      </trkpt>
      <trkpt lat="62.641469659194" lon="17.89792471416">
        <ele>90</ele>
        <time>2017-12-24T11:01:14Z</time>
      </trkpt>
      <trkpt lat="62.641451386652" lon="17.897947429109">
        <ele>90.4</ele>
        <time>2017-12-24T11:01:15Z</time>
      </trkpt>
      <trkpt lat="62.641434622852" lon="17.897968383859">
        <ele>90.6</ele>
        <time>2017-12-24T11:01:16Z</time>
      </trkpt>
      <trkpt lat="62.641415763577" lon="17.897983303641">
        <ele>90.8</ele>
        <time>2017-12-24T11:01:17Z</time>
      </trkpt>
      <trkpt lat="62.641399251234" lon="17.898000654174">
        <ele>91</ele>
        <time>2017-12-24T11:01:18Z</time>
      </trkpt>
      <trkpt lat="62.641377290656" lon="17.898023452942">
        <ele>91</ele>
        <time>2017-12-24T11:01:19Z</time>
      </trkpt>
      <trkpt lat="62.641352899327" lon="17.898041976941">
        <ele>91.2</ele>
        <time>2017-12-24T11:01:20Z</time>
      </trkpt>
      <trkpt lat="62.641333034224" lon="17.898055723257">
        <ele>91.2</ele>
        <time>2017-12-24T11:01:21Z</time>
      </trkpt>
      <trkpt lat="62.641316186605" lon="17.898064188976">
        <ele>91.4</ele>
        <time>2017-12-24T11:01:22Z</time>
      </trkpt>
      <trkpt lat="62.64129816552" lon="17.898088245029">
        <ele>91.4</ele>
        <time>2017-12-24T11:01:23Z</time>
      </trkpt>
      <trkpt lat="62.64127385801" lon="17.898104841191">
        <ele>91.6</ele>
        <time>2017-12-24T11:01:24Z</time>
      </trkpt>
      <trkpt lat="62.641254160545" lon="17.898121353534">
        <ele>91.8</ele>
        <time>2017-12-24T11:01:25Z</time>
      </trkpt>
      <trkpt lat="62.641230523587" lon="17.898132250004">
        <ele>92</ele>
        <time>2017-12-24T11:01:26Z</time>
      </trkpt>
      <trkpt lat="62.641203114774" lon="17.898139709895">
        <ele>92</ele>
        <time>2017-12-24T11:01:27Z</time>
      </trkpt>
      <trkpt lat="62.641177214703" lon="17.898147924157">
        <ele>92.2</ele>
        <time>2017-12-24T11:01:28Z</time>
      </trkpt>
      <trkpt lat="62.64116656969" lon="17.898159239722">
        <ele>92.2</ele>
        <time>2017-12-24T11:01:29Z</time>
      </trkpt>
      <trkpt lat="62.64113136571" lon="17.898152115107">
        <ele>92.4</ele>
        <time>2017-12-24T11:01:30Z</time>
      </trkpt>
      <trkpt lat="62.641111668245" lon="17.898141386275">
        <ele>92.4</ele>
        <time>2017-12-24T11:01:31Z</time>
      </trkpt>
      <trkpt lat="62.641093311884" lon="17.898123784285">
        <ele>92.6</ele>
        <time>2017-12-24T11:01:32Z</time>
      </trkpt>
      <trkpt lat="62.641076715722" lon="17.898105930838">
        <ele>92.8</ele>
        <time>2017-12-24T11:01:33Z</time>
      </trkpt>
      <trkpt lat="62.641055174239" lon="17.898076929464">
        <ele>92.8</ele>
        <time>2017-12-24T11:01:34Z</time>
      </trkpt>
      <trkpt lat="62.641048133443" lon="17.898039965285">
        <ele>93</ele>
        <time>2017-12-24T11:01:35Z</time>
      </trkpt>
      <trkpt lat="62.64104167938" lon="17.898022111838">
        <ele>93</ele>
        <time>2017-12-24T11:01:36Z</time>
      </trkpt>
      <trkpt lat="62.641029777082" lon="17.897972826266">
        <ele>93.2</ele>
        <time>2017-12-24T11:01:37Z</time>
      </trkpt>
      <trkpt lat="62.641025334675" lon="17.897929994757">
        <ele>93.4</ele>
        <time>2017-12-24T11:01:38Z</time>
      </trkpt>
      <trkpt lat="62.641019383526" lon="17.897896970071">
        <ele>93.8</ele>
        <time>2017-12-24T11:01:39Z</time>
      </trkpt>
      <trkpt lat="62.641014102929" lon="17.897866124679">
        <ele>93.8</ele>
        <time>2017-12-24T11:01:40Z</time>
      </trkpt>
      <trkpt lat="62.64101569549" lon="17.897832094165">
        <ele>94.2</ele>
        <time>2017-12-24T11:01:41Z</time>
      </trkpt>
      <trkpt lat="62.641004463744" lon="17.897797560737">
        <ele>94.4</ele>
        <time>2017-12-24T11:01:42Z</time>
      </trkpt>
      <trkpt lat="62.641000440432" lon="17.897770906295">
        <ele>94.6</ele>
        <time>2017-12-24T11:01:43Z</time>
      </trkpt>
      <trkpt lat="62.640999015509" lon="17.897739809446">
        <ele>94.6</ele>
        <time>2017-12-24T11:01:44Z</time>
      </trkpt>
      <trkpt lat="62.640997171491" lon="17.897710724253">
        <ele>94.8</ele>
        <time>2017-12-24T11:01:45Z</time>
      </trkpt>
      <trkpt lat="62.640997339129" lon="17.897681471422">
        <ele>94.8</ele>
        <time>2017-12-24T11:01:46Z</time>
      </trkpt>
      <trkpt lat="62.640990382152" lon="17.897652972962">
        <ele>95</ele>
        <time>2017-12-24T11:01:47Z</time>
      </trkpt>
      <trkpt lat="62.640984347184" lon="17.897620618828">
        <ele>95.2</ele>
        <time>2017-12-24T11:01:48Z</time>
      </trkpt>
      <trkpt lat="62.640978731311" lon="17.897590863083">
        <ele>95.2</ele>
        <time>2017-12-24T11:01:49Z</time>
      </trkpt>
      <trkpt lat="62.640973869809" lon="17.897559514777">
        <ele>95.4</ele>
        <time>2017-12-24T11:01:50Z</time>
      </trkpt>
      <trkpt lat="62.640969343583" lon="17.897533195611">
        <ele>95.6</ele>
        <time>2017-12-24T11:01:51Z</time>
      </trkpt>
      <trkpt lat="62.640966326099" lon="17.897509726291">
        <ele>95.6</ele>
        <time>2017-12-24T11:01:52Z</time>
      </trkpt>
      <trkpt lat="62.640963057158" lon="17.897479802908">
        <ele>95.6</ele>
        <time>2017-12-24T11:01:53Z</time>
      </trkpt>
      <trkpt lat="62.640951741593" lon="17.897441832901">
        <ele>95.8</ele>
        <time>2017-12-24T11:01:54Z</time>
      </trkpt>
      <trkpt lat="62.640943108236" lon="17.897403276161">
        <ele>96</ele>
        <time>2017-12-24T11:01:55Z</time>
      </trkpt>
      <trkpt lat="62.640936737992" lon="17.897363378317">
        <ele>96.2</ele>
        <time>2017-12-24T11:01:56Z</time>
      </trkpt>
      <trkpt lat="62.640927853178" lon="17.897324653939">
        <ele>96.4</ele>
        <time>2017-12-24T11:01:57Z</time>
      </trkpt>
      <trkpt lat="62.640925422427" lon="17.897289114683">
        <ele>96.6</ele>
        <time>2017-12-24T11:01:58Z</time>
      </trkpt>
      <trkpt lat="62.640922991676" lon="17.897253659246">
        <ele>96.6</ele>
        <time>2017-12-24T11:01:59Z</time>
      </trkpt>
      <trkpt lat="62.640916956708" lon="17.8972508094">
        <ele>96.6</ele>
        <time>2017-12-24T11:02:00Z</time>
      </trkpt>
      <trkpt lat="62.640904048582" lon="17.897190794996">
        <ele>96.8</ele>
        <time>2017-12-24T11:02:01Z</time>
      </trkpt>
      <trkpt lat="62.640896085777" lon="17.897159362871">
        <ele>96.8</ele>
        <time>2017-12-24T11:02:02Z</time>
      </trkpt>
      <trkpt lat="62.640891811008" lon="17.897128014565">
        <ele>97</ele>
        <time>2017-12-24T11:02:03Z</time>
      </trkpt>
      <trkpt lat="62.640886446592" lon="17.897101443942">
        <ele>97.2</ele>
        <time>2017-12-24T11:02:04Z</time>
      </trkpt>
      <trkpt lat="62.640880076348" lon="17.897062719564">
        <ele>97.2</ele>
        <time>2017-12-24T11:02:05Z</time>
      </trkpt>
      <trkpt lat="62.640871945905" lon="17.897030533068">
        <ele>97.4</ele>
        <time>2017-12-24T11:02:06Z</time>
      </trkpt>
      <trkpt lat="62.640864234557" lon="17.896998095115">
        <ele>97.6</ele>
        <time>2017-12-24T11:02:07Z</time>
      </trkpt>
      <trkpt lat="62.640857026123" lon="17.896963729325">
        <ele>97.8</ele>
        <time>2017-12-24T11:02:08Z</time>
      </trkpt>
      <trkpt lat="62.640844620911" lon="17.896937829254">
        <ele>98</ele>
        <time>2017-12-24T11:02:09Z</time>
      </trkpt>
      <trkpt lat="62.640840597599" lon="17.89691218064">
        <ele>98</ele>
        <time>2017-12-24T11:02:10Z</time>
      </trkpt>
      <trkpt lat="62.640833640622" lon="17.896886532026">
        <ele>98.2</ele>
        <time>2017-12-24T11:02:11Z</time>
      </trkpt>
      <trkpt lat="62.640826348369" lon="17.89685769829">
        <ele>98.4</ele>
        <time>2017-12-24T11:02:12Z</time>
      </trkpt>
      <trkpt lat="62.640820061944" lon="17.896828780735">
        <ele>98.4</ele>
        <time>2017-12-24T11:02:13Z</time>
      </trkpt>
      <trkpt lat="62.640809081655" lon="17.896798438257">
        <ele>98.6</ele>
        <time>2017-12-24T11:02:14Z</time>
      </trkpt>
      <trkpt lat="62.640798269004" lon="17.89677220291">
        <ele>98.8</ele>
        <time>2017-12-24T11:02:15Z</time>
      </trkpt>
      <trkpt lat="62.640790054742" lon="17.896745213192">
        <ele>99</ele>
        <time>2017-12-24T11:02:16Z</time>
      </trkpt>
      <trkpt lat="62.64078100229" lon="17.896720318949">
        <ele>99.2</ele>
        <time>2017-12-24T11:02:17Z</time>
      </trkpt>
      <trkpt lat="62.640771279286" lon="17.8966892221">
        <ele>99.6</ele>
        <time>2017-12-24T11:02:18Z</time>
      </trkpt>
      <trkpt lat="62.640765579594" lon="17.896665082228">
        <ele>99.8</ele>
        <time>2017-12-24T11:02:19Z</time>
      </trkpt>
      <trkpt lat="62.640753844934" lon="17.896628956239">
        <ele>100.2</ele>
        <time>2017-12-24T11:02:20Z</time>
      </trkpt>
      <trkpt lat="62.640746049767" lon="17.89659534482">
        <ele>100.4</ele>
        <time>2017-12-24T11:02:21Z</time>
      </trkpt>
      <trkpt lat="62.640739344247" lon="17.896560224659">
        <ele>100.4</ele>
        <time>2017-12-24T11:02:22Z</time>
      </trkpt>
      <trkpt lat="62.640734985659" lon="17.896553519139">
        <ele>100.6</ele>
        <time>2017-12-24T11:02:23Z</time>
      </trkpt>
      <trkpt lat="62.640720317334" lon="17.896497947142">
        <ele>100.6</ele>
        <time>2017-12-24T11:02:24Z</time>
      </trkpt>
      <trkpt lat="62.640711348701" lon="17.896464670999">
        <ele>100.8</ele>
        <time>2017-12-24T11:02:25Z</time>
      </trkpt>
      <trkpt lat="62.640703134439" lon="17.896432065408">
        <ele>101</ele>
        <time>2017-12-24T11:02:26Z</time>
      </trkpt>
      <trkpt lat="62.640696680376" lon="17.896392921935">
        <ele>101</ele>
        <time>2017-12-24T11:02:27Z</time>
      </trkpt>
      <trkpt lat="62.640690729227" lon="17.896357131222">
        <ele>101.4</ele>
        <time>2017-12-24T11:02:28Z</time>
      </trkpt>
      <trkpt lat="62.640686873553" lon="17.896347408218">
        <ele>101.4</ele>
        <time>2017-12-24T11:02:29Z</time>
      </trkpt>
      <trkpt lat="62.640666924631" lon="17.89627934719">
        <ele>101.6</ele>
        <time>2017-12-24T11:02:30Z</time>
      </trkpt>
      <trkpt lat="62.640654687057" lon="17.896232660007">
        <ele>101.6</ele>
        <time>2017-12-24T11:02:31Z</time>
      </trkpt>
      <trkpt lat="62.640645047872" lon="17.896185972824">
        <ele>101.8</ele>
        <time>2017-12-24T11:02:32Z</time>
      </trkpt>
      <trkpt lat="62.640637755619" lon="17.896141464935">
        <ele>101.8</ele>
        <time>2017-12-24T11:02:33Z</time>
      </trkpt>
      <trkpt lat="62.640632810298" lon="17.896098633426">
        <ele>101.8</ele>
        <time>2017-12-24T11:02:34Z</time>
      </trkpt>
      <trkpt lat="62.640633564669" lon="17.896056137193">
        <ele>102</ele>
        <time>2017-12-24T11:02:35Z</time>
      </trkpt>
      <trkpt lat="62.64061587886" lon="17.896019592109">
        <ele>102.2</ele>
        <time>2017-12-24T11:02:36Z</time>
      </trkpt>
      <trkpt lat="62.640609676254" lon="17.895986148328">
        <ele>102.2</ele>
        <time>2017-12-24T11:02:37Z</time>
      </trkpt>
      <trkpt lat="62.640607245503" lon="17.895951195805">
        <ele>102.2</ele>
        <time>2017-12-24T11:02:38Z</time>
      </trkpt>
      <trkpt lat="62.640603557467" lon="17.895911465599">
        <ele>102.6</ele>
        <time>2017-12-24T11:02:39Z</time>
      </trkpt>
      <trkpt lat="62.640603222191" lon="17.895871316298">
        <ele>102.6</ele>
        <time>2017-12-24T11:02:40Z</time>
      </trkpt>
      <trkpt lat="62.64059995325" lon="17.895828568608">
        <ele>102.8</ele>
        <time>2017-12-24T11:02:41Z</time>
      </trkpt>
      <trkpt lat="62.640600037069" lon="17.895778696303">
        <ele>103.2</ele>
        <time>2017-12-24T11:02:42Z</time>
      </trkpt>
      <trkpt lat="62.640602300182" lon="17.895726477066">
        <ele>103.2</ele>
        <time>2017-12-24T11:02:43Z</time>
      </trkpt>
      <trkpt lat="62.64058989497" lon="17.89567249763">
        <ele>103.4</ele>
        <time>2017-12-24T11:02:44Z</time>
      </trkpt>
      <trkpt lat="62.640582937993" lon="17.895626816275">
        <ele>103.6</ele>
        <time>2017-12-24T11:02:45Z</time>
      </trkpt>
      <trkpt lat="62.640577154482" lon="17.895585996422">
        <ele>103.6</ele>
        <time>2017-12-24T11:02:46Z</time>
      </trkpt>
      <trkpt lat="62.640583357088" lon="17.895528999502">
        <ele>104</ele>
        <time>2017-12-24T11:02:47Z</time>
      </trkpt>
      <trkpt lat="62.640578076491" lon="17.895475439161">
        <ele>104</ele>
        <time>2017-12-24T11:02:48Z</time>
      </trkpt>
      <trkpt lat="62.640576064835" lon="17.895427662331">
        <ele>104</ele>
        <time>2017-12-24T11:02:49Z</time>
      </trkpt>
      <trkpt lat="62.640571538609" lon="17.895369324307">
        <ele>104.2</ele>
        <time>2017-12-24T11:02:50Z</time>
      </trkpt>
      <trkpt lat="62.64056391108" lon="17.895304783677">
        <ele>104.2</ele>
        <time>2017-12-24T11:02:51Z</time>
      </trkpt>
      <trkpt lat="62.640553768981" lon="17.895231022957">
        <ele>104.4</ele>
        <time>2017-12-24T11:02:52Z</time>
      </trkpt>
      <trkpt lat="62.640545219443" lon="17.895182072661">
        <ele>104.2</ele>
        <time>2017-12-24T11:02:53Z</time>
      </trkpt>
      <trkpt lat="62.640542621054" lon="17.895093475978">
        <ele>104.2</ele>
        <time>2017-12-24T11:02:54Z</time>
      </trkpt>
      <trkpt lat="62.640537005181" lon="17.895025917864">
        <ele>104.2</ele>
        <time>2017-12-24T11:02:55Z</time>
      </trkpt>
      <trkpt lat="62.6405287071" lon="17.894958192112">
        <ele>104.2</ele>
        <time>2017-12-24T11:02:56Z</time>
      </trkpt>
      <trkpt lat="62.640517978268" lon="17.894888454704">
        <ele>104.2</ele>
        <time>2017-12-24T11:02:57Z</time>
      </trkpt>
      <trkpt lat="62.640508255264" lon="17.894826847739">
        <ele>104.2</ele>
        <time>2017-12-24T11:02:58Z</time>
      </trkpt>
      <trkpt lat="62.640505824513" lon="17.894772868303">
        <ele>104</ele>
        <time>2017-12-24T11:02:59Z</time>
      </trkpt>
      <trkpt lat="62.640500041002" lon="17.894713440632">
        <ele>104</ele>
        <time>2017-12-24T11:03:00Z</time>
      </trkpt>
      <trkpt lat="62.640496101509" lon="17.89465744954">
        <ele>104</ele>
        <time>2017-12-24T11:03:01Z</time>
      </trkpt>
      <trkpt lat="62.640491659102" lon="17.894608750701">
        <ele>104</ele>
        <time>2017-12-24T11:03:02Z</time>
      </trkpt>
      <trkpt lat="62.640486462324" lon="17.894567176477">
        <ele>104.2</ele>
        <time>2017-12-24T11:03:03Z</time>
      </trkpt>
      <trkpt lat="62.64048344484" lon="17.894498696354">
        <ele>104.2</ele>
        <time>2017-12-24T11:03:04Z</time>
      </trkpt>
      <trkpt lat="62.640479421528" lon="17.894436754113">
        <ele>104.2</ele>
        <time>2017-12-24T11:03:05Z</time>
      </trkpt>
      <trkpt lat="62.640482355193" lon="17.894433149896">
        <ele>104.4</ele>
        <time>2017-12-24T11:03:06Z</time>
      </trkpt>
      <trkpt lat="62.640477493691" lon="17.894350588181">
        <ele>104.4</ele>
        <time>2017-12-24T11:03:07Z</time>
      </trkpt>
      <trkpt lat="62.640473889474" lon="17.894308427224">
        <ele>104.4</ele>
        <time>2017-12-24T11:03:08Z</time>
      </trkpt>
      <trkpt lat="62.640468525058" lon="17.894260482756">
        <ele>104.4</ele>
        <time>2017-12-24T11:03:09Z</time>
      </trkpt>
      <trkpt lat="62.640463747375" lon="17.894216058686">
        <ele>104.4</ele>
        <time>2017-12-24T11:03:10Z</time>
      </trkpt>
      <trkpt lat="62.640454862561" lon="17.894163923268">
        <ele>104.4</ele>
        <time>2017-12-24T11:03:11Z</time>
      </trkpt>
      <trkpt lat="62.640446396842" lon="17.894124612157">
        <ele>104.6</ele>
        <time>2017-12-24T11:03:12Z</time>
      </trkpt>
      <trkpt lat="62.64043902077" lon="17.894089072901">
        <ele>104.8</ele>
        <time>2017-12-24T11:03:13Z</time>
      </trkpt>
      <trkpt lat="62.640423178979" lon="17.89402629247">
        <ele>105</ele>
        <time>2017-12-24T11:03:14Z</time>
      </trkpt>
      <trkpt lat="62.640413539794" lon="17.893982874228">
        <ele>105</ele>
        <time>2017-12-24T11:03:15Z</time>
      </trkpt>
      <trkpt lat="62.640405576989" lon="17.893942808746">
        <ele>105.2</ele>
        <time>2017-12-24T11:03:16Z</time>
      </trkpt>
      <trkpt lat="62.640385460429" lon="17.893910203155">
        <ele>105.2</ele>
        <time>2017-12-24T11:03:17Z</time>
      </trkpt>
      <trkpt lat="62.640374563959" lon="17.893863013058">
        <ele>105.2</ele>
        <time>2017-12-24T11:03:18Z</time>
      </trkpt>
      <trkpt lat="62.640352603381" lon="17.893831664752">
        <ele>105.4</ele>
        <time>2017-12-24T11:03:19Z</time>
      </trkpt>
      <trkpt lat="62.640341706911" lon="17.89379495203">
        <ele>105.4</ele>
        <time>2017-12-24T11:03:20Z</time>
      </trkpt>
      <trkpt lat="62.64033173245" lon="17.893756143833">
        <ele>105.2</ele>
        <time>2017-12-24T11:03:21Z</time>
      </trkpt>
      <trkpt lat="62.640322428541" lon="17.89371197122">
        <ele>105.2</ele>
        <time>2017-12-24T11:03:22Z</time>
      </trkpt>
      <trkpt lat="62.640316980306" lon="17.893679449448">
        <ele>105.4</ele>
        <time>2017-12-24T11:03:23Z</time>
      </trkpt>
      <trkpt lat="62.640313040813" lon="17.893651956816">
        <ele>105.8</ele>
        <time>2017-12-24T11:03:24Z</time>
      </trkpt>
      <trkpt lat="62.640309017501" lon="17.893625805288">
        <ele>106</ele>
        <time>2017-12-24T11:03:25Z</time>
      </trkpt>
      <trkpt lat="62.640306000017" lon="17.893596468638">
        <ele>106.2</ele>
        <time>2017-12-24T11:03:26Z</time>
      </trkpt>
      <trkpt lat="62.640309185139" lon="17.893561264658">
        <ele>106.6</ele>
        <time>2017-12-24T11:03:27Z</time>
      </trkpt>
      <trkpt lat="62.640310107148" lon="17.893526228316">
        <ele>106.6</ele>
        <time>2017-12-24T11:03:28Z</time>
      </trkpt>
      <trkpt lat="62.640307005845" lon="17.893506111756">
        <ele>106.8</ele>
        <time>2017-12-24T11:03:29Z</time>
      </trkpt>
      <trkpt lat="62.640303066352" lon="17.893472332699">
        <ele>107</ele>
        <time>2017-12-24T11:03:30Z</time>
      </trkpt>
      <trkpt lat="62.640304239818" lon="17.893440565298">
        <ele>107</ele>
        <time>2017-12-24T11:03:31Z</time>
      </trkpt>
      <trkpt lat="62.640307005845" lon="17.893411312467">
        <ele>107.2</ele>
        <time>2017-12-24T11:03:32Z</time>
      </trkpt>
      <trkpt lat="62.640309688053" lon="17.893382143455">
        <ele>107.2</ele>
        <time>2017-12-24T11:03:33Z</time>
      </trkpt>
      <trkpt lat="62.640312537899" lon="17.893354231728">
        <ele>107.4</ele>
        <time>2017-12-24T11:03:34Z</time>
      </trkpt>
      <trkpt lat="62.640315555383" lon="17.893324308345">
        <ele>107.6</ele>
        <time>2017-12-24T11:03:35Z</time>
      </trkpt>
      <trkpt lat="62.64032335055" lon="17.893284661958">
        <ele>107.8</ele>
        <time>2017-12-24T11:03:36Z</time>
      </trkpt>
      <trkpt lat="62.640327960595" lon="17.893248368331">
        <ele>108</ele>
        <time>2017-12-24T11:03:37Z</time>
      </trkpt>
      <trkpt lat="62.640332738278" lon="17.893213667265">
        <ele>108.2</ele>
        <time>2017-12-24T11:03:38Z</time>
      </trkpt>
      <trkpt lat="62.640332738278" lon="17.89317972057">
        <ele>108.4</ele>
        <time>2017-12-24T11:03:39Z</time>
      </trkpt>
      <trkpt lat="62.6403359234" lon="17.893148875178">
        <ele>108.4</ele>
        <time>2017-12-24T11:03:40Z</time>
      </trkpt>
      <trkpt lat="62.640334749934" lon="17.893123897116">
        <ele>108.6</ele>
        <time>2017-12-24T11:03:41Z</time>
      </trkpt>
      <trkpt lat="62.640335420486" lon="17.893099841063">
        <ele>108.8</ele>
        <time>2017-12-24T11:03:42Z</time>
      </trkpt>
      <trkpt lat="62.640339192341" lon="17.89307578501">
        <ele>108.8</ele>
        <time>2017-12-24T11:03:43Z</time>
      </trkpt>
      <trkpt lat="62.640339695255" lon="17.893059775581">
        <ele>109</ele>
        <time>2017-12-24T11:03:44Z</time>
      </trkpt>
      <trkpt lat="62.640343048015" lon="17.893034043148">
        <ele>109.2</ele>
        <time>2017-12-24T11:03:45Z</time>
      </trkpt>
      <trkpt lat="62.640346065499" lon="17.893006550516">
        <ele>109.4</ele>
        <time>2017-12-24T11:03:46Z</time>
      </trkpt>
      <trkpt lat="62.640346316956" lon="17.892979979893">
        <ele>109.6</ele>
        <time>2017-12-24T11:03:47Z</time>
      </trkpt>
      <trkpt lat="62.640346149318" lon="17.89295676203">
        <ele>109.6</ele>
        <time>2017-12-24T11:03:48Z</time>
      </trkpt>
      <trkpt lat="62.640343383291" lon="17.89294083642">
        <ele>109.8</ele>
        <time>2017-12-24T11:03:49Z</time>
      </trkpt>
      <trkpt lat="62.640343131834" lon="17.892911248313">
        <ele>110.2</ele>
        <time>2017-12-24T11:03:50Z</time>
      </trkpt>
      <trkpt lat="62.640341455454" lon="17.892883923319">
        <ele>110.4</ele>
        <time>2017-12-24T11:03:51Z</time>
      </trkpt>
      <trkpt lat="62.64034095254" lon="17.892856849782">
        <ele>110.6</ele>
        <time>2017-12-24T11:03:52Z</time>
      </trkpt>
      <trkpt lat="62.640342880377" lon="17.892831368806">
        <ele>110.8</ele>
        <time>2017-12-24T11:03:53Z</time>
      </trkpt>
      <trkpt lat="62.64033759978" lon="17.892799014672">
        <ele>111</ele>
        <time>2017-12-24T11:03:54Z</time>
      </trkpt>
      <trkpt lat="62.64033508521" lon="17.892763894511">
        <ele>111.2</ele>
        <time>2017-12-24T11:03:55Z</time>
      </trkpt>
      <trkpt lat="62.640335588124" lon="17.892724667219">
        <ele>111.2</ele>
        <time>2017-12-24T11:03:56Z</time>
      </trkpt>
      <trkpt lat="62.640326787129" lon="17.892691977809">
        <ele>111.4</ele>
        <time>2017-12-24T11:03:57Z</time>
      </trkpt>
      <trkpt lat="62.640321925627" lon="17.892659958951">
        <ele>111.4</ele>
        <time>2017-12-24T11:03:58Z</time>
      </trkpt>
      <trkpt lat="62.640316393573" lon="17.892625593161">
        <ele>111.6</ele>
        <time>2017-12-24T11:03:59Z</time>
      </trkpt>
      <trkpt lat="62.640309268958" lon="17.892568763879">
        <ele>111.6</ele>
        <time>2017-12-24T11:04:00Z</time>
      </trkpt>
      <trkpt lat="62.640305916198" lon="17.892530290958">
        <ele>111.8</ele>
        <time>2017-12-24T11:04:01Z</time>
      </trkpt>
      <trkpt lat="62.640302814895" lon="17.89249575753">
        <ele>111.8</ele>
        <time>2017-12-24T11:04:02Z</time>
      </trkpt>
      <trkpt lat="62.640301892886" lon="17.892462062292">
        <ele>111.8</ele>
        <time>2017-12-24T11:04:03Z</time>
      </trkpt>
      <trkpt lat="62.640298372488" lon="17.892430294891">
        <ele>112</ele>
        <time>2017-12-24T11:04:04Z</time>
      </trkpt>
      <trkpt lat="62.640299545954" lon="17.892396683472">
        <ele>112</ele>
        <time>2017-12-24T11:04:05Z</time>
      </trkpt>
      <trkpt lat="62.64029233752" lon="17.892347314081">
        <ele>112.4</ele>
        <time>2017-12-24T11:04:06Z</time>
      </trkpt>
      <trkpt lat="62.640287727475" lon="17.892297357957">
        <ele>112.6</ele>
        <time>2017-12-24T11:04:07Z</time>
      </trkpt>
      <trkpt lat="62.640284123258" lon="17.892247737109">
        <ele>112.6</ele>
        <time>2017-12-24T11:04:08Z</time>
      </trkpt>
      <trkpt lat="62.640280519041" lon="17.892196691338">
        <ele>112.8</ele>
        <time>2017-12-24T11:04:09Z</time>
      </trkpt>
      <trkpt lat="62.640281608688" lon="17.892130474328">
        <ele>112.6</ele>
        <time>2017-12-24T11:04:10Z</time>
      </trkpt>
      <trkpt lat="62.640284542353" lon="17.892094935072">
        <ele>112.6</ele>
        <time>2017-12-24T11:04:11Z</time>
      </trkpt>
      <trkpt lat="62.640290158226" lon="17.892061239834">
        <ele>112.6</ele>
        <time>2017-12-24T11:04:12Z</time>
      </trkpt>
      <trkpt lat="62.640305580922" lon="17.891990496598">
        <ele>112.6</ele>
        <time>2017-12-24T11:04:13Z</time>
      </trkpt>
      <trkpt lat="62.640313459908" lon="17.891947078356">
        <ele>112.6</ele>
        <time>2017-12-24T11:04:14Z</time>
      </trkpt>
      <trkpt lat="62.640332319183" lon="17.891903324838">
        <ele>112.6</ele>
        <time>2017-12-24T11:04:15Z</time>
      </trkpt>
      <trkpt lat="62.640352938657" lon="17.89185370399">
        <ele>112.6</ele>
        <time>2017-12-24T11:04:16Z</time>
      </trkpt>
      <trkpt lat="62.640384286963" lon="17.891819924933">
        <ele>112.8</ele>
        <time>2017-12-24T11:04:17Z</time>
      </trkpt>
      <trkpt lat="62.640411695776" lon="17.891778853623">
        <ele>112.8</ele>
        <time>2017-12-24T11:04:18Z</time>
      </trkpt>
      <trkpt lat="62.640438936951" lon="17.891774327397">
        <ele>112.8</ele>
        <time>2017-12-24T11:04:19Z</time>
      </trkpt>
      <trkpt lat="62.64046332828" lon="17.891767538058">
        <ele>112.6</ele>
        <time>2017-12-24T11:04:20Z</time>
      </trkpt>
      <trkpt lat="62.640490234179" lon="17.89175731214">
        <ele>112.6</ele>
        <time>2017-12-24T11:04:21Z</time>
      </trkpt>
      <trkpt lat="62.640518062087" lon="17.891752785914">
        <ele>112.6</ele>
        <time>2017-12-24T11:04:22Z</time>
      </trkpt>
      <trkpt lat="62.640553685162" lon="17.891755049027">
        <ele>112.4</ele>
        <time>2017-12-24T11:04:23Z</time>
      </trkpt>
      <trkpt lat="62.640597354861" lon="17.891755468122">
        <ele>112.2</ele>
        <time>2017-12-24T11:04:24Z</time>
      </trkpt>
      <trkpt lat="62.640678910748" lon="17.891747672955">
        <ele>112</ele>
        <time>2017-12-24T11:04:25Z</time>
      </trkpt>
      <trkpt lat="62.640741355903" lon="17.891758569425">
        <ele>111.6</ele>
        <time>2017-12-24T11:04:26Z</time>
      </trkpt>
      <trkpt lat="62.640791814941" lon="17.891787067885">
        <ele>111</ele>
        <time>2017-12-24T11:04:27Z</time>
      </trkpt>
      <trkpt lat="62.640851326431" lon="17.891844064805">
        <ele>110.2</ele>
        <time>2017-12-24T11:04:28Z</time>
      </trkpt>
      <trkpt lat="62.640896253415" lon="17.89192495014">
        <ele>109.2</ele>
        <time>2017-12-24T11:04:29Z</time>
      </trkpt>
      <trkpt lat="62.640940845123" lon="17.892017402497">
        <ele>108.4</ele>
        <time>2017-12-24T11:04:30Z</time>
      </trkpt>
      <trkpt lat="62.640988705772" lon="17.892110693044">
        <ele>107.6</ele>
        <time>2017-12-24T11:04:31Z</time>
      </trkpt>
      <trkpt lat="62.641033884213" lon="17.892182693565">
        <ele>106.8</ele>
        <time>2017-12-24T11:04:32Z</time>
      </trkpt>
      <trkpt lat="62.641078140645" lon="17.892243629978">
        <ele>106.6</ele>
        <time>2017-12-24T11:04:33Z</time>
      </trkpt>
      <trkpt lat="62.641118960498" lon="17.892286796763">
        <ele>106.6</ele>
        <time>2017-12-24T11:04:34Z</time>
      </trkpt>
      <trkpt lat="62.641161372912" lon="17.892294424292">
        <ele>106.6</ele>
        <time>2017-12-24T11:04:35Z</time>
      </trkpt>
      <trkpt lat="62.641192637399" lon="17.892291658265">
        <ele>106.4</ele>
        <time>2017-12-24T11:04:36Z</time>
      </trkpt>
      <trkpt lat="62.641235049813" lon="17.892282521994">
        <ele>106.4</ele>
        <time>2017-12-24T11:04:37Z</time>
      </trkpt>
      <trkpt lat="62.641265559929" lon="17.892261986339">
        <ele>106.2</ele>
        <time>2017-12-24T11:04:38Z</time>
      </trkpt>
      <trkpt lat="62.641292382009" lon="17.892237678829">
        <ele>106.2</ele>
        <time>2017-12-24T11:04:39Z</time>
      </trkpt>
      <trkpt lat="62.641322724487" lon="17.892211108206">
        <ele>106.4</ele>
        <time>2017-12-24T11:04:40Z</time>
      </trkpt>
      <trkpt lat="62.641360107761" lon="17.892180262814">
        <ele>106.4</ele>
        <time>2017-12-24T11:04:41Z</time>
      </trkpt>
      <trkpt lat="62.641404196555" lon="17.89214539411">
        <ele>106.4</ele>
        <time>2017-12-24T11:04:42Z</time>
      </trkpt>
      <trkpt lat="62.641438562345" lon="17.892123517351">
        <ele>106.6</ele>
        <time>2017-12-24T11:04:43Z</time>
      </trkpt>
      <trkpt lat="62.641472928135" lon="17.892103149334">
        <ele>106.6</ele>
        <time>2017-12-24T11:04:44Z</time>
      </trkpt>
      <trkpt lat="62.641498912025" lon="17.892087642819">
        <ele>106.6</ele>
        <time>2017-12-24T11:04:45Z</time>
      </trkpt>
      <trkpt lat="62.641527410485" lon="17.892069286458">
        <ele>106.4</ele>
        <time>2017-12-24T11:04:46Z</time>
      </trkpt>
      <trkpt lat="62.641560351352" lon="17.89204732588">
        <ele>106.4</ele>
        <time>2017-12-24T11:04:47Z</time>
      </trkpt>
      <trkpt lat="62.641598153721" lon="17.892027879872">
        <ele>106</ele>
        <time>2017-12-24T11:04:48Z</time>
      </trkpt>
      <trkpt lat="62.641642074877" lon="17.892016983402">
        <ele>105.4</ele>
        <time>2017-12-24T11:04:49Z</time>
      </trkpt>
      <trkpt lat="62.64169043844" lon="17.892019581791">
        <ele>104.8</ele>
        <time>2017-12-24T11:04:50Z</time>
      </trkpt>
      <trkpt lat="62.641737041804" lon="17.892032825193">
        <ele>104</ele>
        <time>2017-12-24T11:04:51Z</time>
      </trkpt>
      <trkpt lat="62.641781298236" lon="17.89206576606">
        <ele>103.2</ele>
        <time>2017-12-24T11:04:52Z</time>
      </trkpt>
      <trkpt lat="62.641821363718" lon="17.892114632537">
        <ele>102.4</ele>
        <time>2017-12-24T11:04:53Z</time>
      </trkpt>
      <trkpt lat="62.641863273218" lon="17.892190572551">
        <ele>101.6</ele>
        <time>2017-12-24T11:04:54Z</time>
      </trkpt>
      <trkpt lat="62.64189076585" lon="17.892274559189">
        <ele>101</ele>
        <time>2017-12-24T11:04:55Z</time>
      </trkpt>
      <trkpt lat="62.641907110555" lon="17.892361982406">
        <ele>100.6</ele>
        <time>2017-12-24T11:04:56Z</time>
      </trkpt>
      <trkpt lat="62.641918174663" lon="17.892451836374">
        <ele>100.4</ele>
        <time>2017-12-24T11:04:57Z</time>
      </trkpt>
      <trkpt lat="62.641922030337" lon="17.892522495791">
        <ele>100.4</ele>
        <time>2017-12-24T11:04:58Z</time>
      </trkpt>
      <trkpt lat="62.641923371441" lon="17.892597094701">
        <ele>100.4</ele>
        <time>2017-12-24T11:04:59Z</time>
      </trkpt>
      <trkpt lat="62.641922784708" lon="17.892662808797">
        <ele>100.6</ele>
        <time>2017-12-24T11:05:00Z</time>
      </trkpt>
      <trkpt lat="62.641921275966" lon="17.892716285319">
        <ele>100.8</ele>
        <time>2017-12-24T11:05:01Z</time>
      </trkpt>
      <trkpt lat="62.641918929034" lon="17.892759703561">
        <ele>101</ele>
        <time>2017-12-24T11:05:02Z</time>
      </trkpt>
      <trkpt lat="62.641919431948" lon="17.892799266129">
        <ele>101</ele>
        <time>2017-12-24T11:05:03Z</time>
      </trkpt>
      <trkpt lat="62.641918007025" lon="17.89284109181">
        <ele>101.2</ele>
        <time>2017-12-24T11:05:04Z</time>
      </trkpt>
      <trkpt lat="62.641915995369" lon="17.892874870867">
        <ele>101.6</ele>
        <time>2017-12-24T11:05:05Z</time>
      </trkpt>
      <trkpt lat="62.641913983713" lon="17.892906554449">
        <ele>101.8</ele>
        <time>2017-12-24T11:05:06Z</time>
      </trkpt>
      <trkpt lat="62.641915240998" lon="17.892933544167">
        <ele>102.2</ele>
        <time>2017-12-24T11:05:07Z</time>
      </trkpt>
      <trkpt lat="62.641913732256" lon="17.892962461722">
        <ele>102.4</ele>
        <time>2017-12-24T11:05:08Z</time>
      </trkpt>
      <trkpt lat="62.641909373668" lon="17.892994983494">
        <ele>103</ele>
        <time>2017-12-24T11:05:09Z</time>
      </trkpt>
      <trkpt lat="62.641902584329" lon="17.893027002352">
        <ele>103.6</ele>
        <time>2017-12-24T11:05:10Z</time>
      </trkpt>
      <trkpt lat="62.641901159406" lon="17.893045107256">
        <ele>104</ele>
        <time>2017-12-24T11:05:11Z</time>
      </trkpt>
      <trkpt lat="62.641896549361" lon="17.893078551037">
        <ele>104.8</ele>
        <time>2017-12-24T11:05:12Z</time>
      </trkpt>
      <trkpt lat="62.641891017307" lon="17.893098332321">
        <ele>105.2</ele>
        <time>2017-12-24T11:05:13Z</time>
      </trkpt>
      <trkpt lat="62.641885569072" lon="17.893117107777">
        <ele>105.6</ele>
        <time>2017-12-24T11:05:14Z</time>
      </trkpt>
      <trkpt lat="62.641881042846" lon="17.893136553785">
        <ele>106</ele>
        <time>2017-12-24T11:05:15Z</time>
      </trkpt>
      <trkpt lat="62.641878528276" lon="17.8931604422">
        <ele>106.2</ele>
        <time>2017-12-24T11:05:16Z</time>
      </trkpt>
      <trkpt lat="62.641875259335" lon="17.893181061674">
        <ele>106.6</ele>
        <time>2017-12-24T11:05:17Z</time>
      </trkpt>
      <trkpt lat="62.641869224367" lon="17.893207464659">
        <ele>106.8</ele>
        <time>2017-12-24T11:05:18Z</time>
      </trkpt>
      <trkpt lat="62.64186478196" lon="17.893232023626">
        <ele>107</ele>
        <time>2017-12-24T11:05:19Z</time>
      </trkpt>
      <trkpt lat="62.641861345381" lon="17.893257504602">
        <ele>107.4</ele>
        <time>2017-12-24T11:05:20Z</time>
      </trkpt>
      <trkpt lat="62.641859417544" lon="17.893283404673">
        <ele>107.6</ele>
        <time>2017-12-24T11:05:21Z</time>
      </trkpt>
      <trkpt lat="62.641851957653" lon="17.893310059115">
        <ele>108</ele>
        <time>2017-12-24T11:05:22Z</time>
      </trkpt>
      <trkpt lat="62.641843659572" lon="17.893346604199">
        <ele>108.2</ele>
        <time>2017-12-24T11:05:23Z</time>
      </trkpt>
      <trkpt lat="62.641838881889" lon="17.893396727961">
        <ele>108.4</ele>
        <time>2017-12-24T11:05:24Z</time>
      </trkpt>
      <trkpt lat="62.641829410342" lon="17.893440900574">
        <ele>108.6</ele>
        <time>2017-12-24T11:05:25Z</time>
      </trkpt>
      <trkpt lat="62.641820609347" lon="17.893487420119">
        <ele>108.8</ele>
        <time>2017-12-24T11:05:26Z</time>
      </trkpt>
      <trkpt lat="62.641815999302" lon="17.893530335447">
        <ele>108.8</ele>
        <time>2017-12-24T11:05:27Z</time>
      </trkpt>
      <trkpt lat="62.641810467248" lon="17.893562354305">
        <ele>109</ele>
        <time>2017-12-24T11:05:28Z</time>
      </trkpt>
      <trkpt lat="62.641803929366" lon="17.893600743407">
        <ele>109.2</ele>
        <time>2017-12-24T11:05:29Z</time>
      </trkpt>
      <trkpt lat="62.641802336805" lon="17.893644748382">
        <ele>109.2</ele>
        <time>2017-12-24T11:05:30Z</time>
      </trkpt>
      <trkpt lat="62.641798900226" lon="17.893683137484">
        <ele>109.6</ele>
        <time>2017-12-24T11:05:31Z</time>
      </trkpt>
      <trkpt lat="62.641794793095" lon="17.893725214622">
        <ele>109.8</ele>
        <time>2017-12-24T11:05:32Z</time>
      </trkpt>
      <trkpt lat="62.641790518326" lon="17.893767375579">
        <ele>110</ele>
        <time>2017-12-24T11:05:33Z</time>
      </trkpt>
      <trkpt lat="62.641788255213" lon="17.893814062762">
        <ele>110.2</ele>
        <time>2017-12-24T11:05:34Z</time>
      </trkpt>
      <trkpt lat="62.641791272697" lon="17.893861001402">
        <ele>110.4</ele>
        <time>2017-12-24T11:05:35Z</time>
      </trkpt>
      <trkpt lat="62.641799319321" lon="17.893918333598">
        <ele>110.6</ele>
        <time>2017-12-24T11:05:36Z</time>
      </trkpt>
      <trkpt lat="62.641813149456" lon="17.893968289722">
        <ele>110.8</ele>
        <time>2017-12-24T11:05:37Z</time>
      </trkpt>
      <trkpt lat="62.641834774758" lon="17.894001062951">
        <ele>111</ele>
        <time>2017-12-24T11:05:38Z</time>
      </trkpt>
      <trkpt lat="62.641869224367" lon="17.894016066552">
        <ele>110.8</ele>
        <time>2017-12-24T11:05:39Z</time>
      </trkpt>
      <trkpt lat="62.641908703116" lon="17.894019251674">
        <ele>110.8</ele>
        <time>2017-12-24T11:05:40Z</time>
      </trkpt>
      <trkpt lat="62.641951031711" lon="17.894009696308">
        <ele>110.6</ele>
        <time>2017-12-24T11:05:41Z</time>
      </trkpt>
      <trkpt lat="62.641999479093" lon="17.893993183965">
        <ele>110.2</ele>
        <time>2017-12-24T11:05:42Z</time>
      </trkpt>
      <trkpt lat="62.642036946186" lon="17.893982119857">
        <ele>110</ele>
        <time>2017-12-24T11:05:43Z</time>
      </trkpt>
      <trkpt lat="62.642080615885" lon="17.893973654138">
        <ele>109.6</ele>
        <time>2017-12-24T11:05:44Z</time>
      </trkpt>
      <trkpt lat="62.642122609204" lon="17.893972480672">
        <ele>109</ele>
        <time>2017-12-24T11:05:45Z</time>
      </trkpt>
      <trkpt lat="62.642162087953" lon="17.893987903368">
        <ele>108.6</ele>
        <time>2017-12-24T11:05:46Z</time>
      </trkpt>
      <trkpt lat="62.642194358268" lon="17.894025789556">
        <ele>107.8</ele>
        <time>2017-12-24T11:05:47Z</time>
      </trkpt>
      <trkpt lat="62.642218079045" lon="17.894089575815">
        <ele>107.2</ele>
        <time>2017-12-24T11:05:48Z</time>
      </trkpt>
      <trkpt lat="62.642234759026" lon="17.894166102562">
        <ele>106.8</ele>
        <time>2017-12-24T11:05:49Z</time>
      </trkpt>
      <trkpt lat="62.642243560021" lon="17.89423751635">
        <ele>106.2</ele>
        <time>2017-12-24T11:05:50Z</time>
      </trkpt>
      <trkpt lat="62.642250516998" lon="17.894314462192">
        <ele>105.8</ele>
        <time>2017-12-24T11:05:51Z</time>
      </trkpt>
      <trkpt lat="62.642256132871" lon="17.894393838785">
        <ele>105.4</ele>
        <time>2017-12-24T11:05:52Z</time>
      </trkpt>
      <trkpt lat="62.642259904726" lon="17.894476568138">
        <ele>105</ele>
        <time>2017-12-24T11:05:53Z</time>
      </trkpt>
      <trkpt lat="62.642255629957" lon="17.894589639969">
        <ele>104.6</ele>
        <time>2017-12-24T11:05:54Z</time>
      </trkpt>
      <trkpt lat="62.642241883641" lon="17.894699778135">
        <ele>104</ele>
        <time>2017-12-24T11:05:55Z</time>
      </trkpt>
      <trkpt lat="62.642224114013" lon="17.89479994184">
        <ele>103.4</ele>
        <time>2017-12-24T11:05:56Z</time>
      </trkpt>
      <trkpt lat="62.642202153435" lon="17.894900776097">
        <ele>102.8</ele>
        <time>2017-12-24T11:05:57Z</time>
      </trkpt>
      <trkpt lat="62.642185892549" lon="17.894985014192">
        <ele>101.8</ele>
        <time>2017-12-24T11:05:58Z</time>
      </trkpt>
      <trkpt lat="62.642174325527" lon="17.89506732445">
        <ele>101</ele>
        <time>2017-12-24T11:05:59Z</time>
      </trkpt>
      <trkpt lat="62.642167033274" lon="17.895138822057">
        <ele>100.4</ele>
        <time>2017-12-24T11:06:00Z</time>
      </trkpt>
      <trkpt lat="62.642162926143" lon="17.895228173111">
        <ele>99.8</ele>
        <time>2017-12-24T11:06:01Z</time>
      </trkpt>
      <trkpt lat="62.642160327754" lon="17.89532464878">
        <ele>99.6</ele>
        <time>2017-12-24T11:06:02Z</time>
      </trkpt>
      <trkpt lat="62.642159489564" lon="17.895435373679">
        <ele>99.4</ele>
        <time>2017-12-24T11:06:03Z</time>
      </trkpt>
      <trkpt lat="62.642155885347" lon="17.895571160459">
        <ele>99</ele>
        <time>2017-12-24T11:06:04Z</time>
      </trkpt>
      <trkpt lat="62.642151191483" lon="17.895702756289">
        <ele>99</ele>
        <time>2017-12-24T11:06:05Z</time>
      </trkpt>
      <trkpt lat="62.642138367176" lon="17.895862347665">
        <ele>98.8</ele>
        <time>2017-12-24T11:06:06Z</time>
      </trkpt>
      <trkpt lat="62.642121519557" lon="17.896005510517">
        <ele>98</ele>
        <time>2017-12-24T11:06:07Z</time>
      </trkpt>
      <trkpt lat="62.642099558979" lon="17.896115648683">
        <ele>97.6</ele>
        <time>2017-12-24T11:06:08Z</time>
      </trkpt>
      <trkpt lat="62.642070473786" lon="17.896232743826">
        <ele>96.8</ele>
        <time>2017-12-24T11:06:09Z</time>
      </trkpt>
      <trkpt lat="62.642040634222" lon="17.896345648019">
        <ele>96</ele>
        <time>2017-12-24T11:06:10Z</time>
      </trkpt>
      <trkpt lat="62.642014650332" lon="17.896445560267">
        <ele>95</ele>
        <time>2017-12-24T11:06:11Z</time>
      </trkpt>
      <trkpt lat="62.641980703637" lon="17.896565756713">
        <ele>94.2</ele>
        <time>2017-12-24T11:06:12Z</time>
      </trkpt>
      <trkpt lat="62.641951199349" lon="17.896673547947">
        <ele>93.4</ele>
        <time>2017-12-24T11:06:13Z</time>
      </trkpt>
      <trkpt lat="62.641924964002" lon="17.896791816556">
        <ele>93</ele>
        <time>2017-12-24T11:06:14Z</time>
      </trkpt>
      <trkpt lat="62.641899483026" lon="17.896901451808">
        <ele>93.2</ele>
        <time>2017-12-24T11:06:15Z</time>
      </trkpt>
      <trkpt lat="62.641883305959" lon="17.897023324634">
        <ele>93.4</ele>
        <time>2017-12-24T11:06:16Z</time>
      </trkpt>
      <trkpt lat="62.641872744765" lon="17.897144526908">
        <ele>93</ele>
        <time>2017-12-24T11:06:17Z</time>
      </trkpt>
      <trkpt lat="62.641864698141" lon="17.897278553489">
        <ele>92.6</ele>
        <time>2017-12-24T11:06:18Z</time>
      </trkpt>
      <trkpt lat="62.64185640006" lon="17.897429008594">
        <ele>92</ele>
        <time>2017-12-24T11:06:19Z</time>
      </trkpt>
      <trkpt lat="62.641847096151" lon="17.897569992152">
        <ele>91.2</ele>
        <time>2017-12-24T11:06:20Z</time>
      </trkpt>
      <trkpt lat="62.641836032043" lon="17.897705695113">
        <ele>90.2</ele>
        <time>2017-12-24T11:06:21Z</time>
      </trkpt>
      <trkpt lat="62.641827650143" lon="17.897824801912">
        <ele>89.6</ele>
        <time>2017-12-24T11:06:22Z</time>
      </trkpt>
      <trkpt lat="62.641818597691" lon="17.89793477244">
        <ele>89.4</ele>
        <time>2017-12-24T11:06:23Z</time>
      </trkpt>
      <trkpt lat="62.641807198307" lon="17.898057064361">
        <ele>88.8</ele>
        <time>2017-12-24T11:06:24Z</time>
      </trkpt>
      <trkpt lat="62.641798145855" lon="17.898178098997">
        <ele>88.8</ele>
        <time>2017-12-24T11:06:25Z</time>
      </trkpt>
      <trkpt lat="62.641790518326" lon="17.898284381489">
        <ele>89.2</ele>
        <time>2017-12-24T11:06:26Z</time>
      </trkpt>
      <trkpt lat="62.641787836118" lon="17.898377169122">
        <ele>89.4</ele>
        <time>2017-12-24T11:06:27Z</time>
      </trkpt>
      <trkpt lat="62.641785321548" lon="17.898447325625">
        <ele>89.8</ele>
        <time>2017-12-24T11:06:28Z</time>
      </trkpt>
      <trkpt lat="62.64178180115" lon="17.898529552064">
        <ele>90.4</ele>
        <time>2017-12-24T11:06:29Z</time>
      </trkpt>
      <trkpt lat="62.641777945476" lon="17.898602306956">
        <ele>90.8</ele>
        <time>2017-12-24T11:06:30Z</time>
      </trkpt>
      <trkpt lat="62.641774844173" lon="17.898668607785">
        <ele>91</ele>
        <time>2017-12-24T11:06:31Z</time>
      </trkpt>
      <trkpt lat="62.641771826689" lon="17.898731723492">
        <ele>91.2</ele>
        <time>2017-12-24T11:06:32Z</time>
      </trkpt>
      <trkpt lat="62.641772245784" lon="17.898780673788">
        <ele>91.4</ele>
        <time>2017-12-24T11:06:33Z</time>
      </trkpt>
      <trkpt lat="62.641770653223" lon="17.898835239957">
        <ele>91.6</ele>
        <time>2017-12-24T11:06:34Z</time>
      </trkpt>
      <trkpt lat="62.641765707902" lon="17.898896679284">
        <ele>91.8</ele>
        <time>2017-12-24T11:06:35Z</time>
      </trkpt>
      <trkpt lat="62.641762438961" lon="17.898944120838">
        <ele>92</ele>
        <time>2017-12-24T11:06:36Z</time>
      </trkpt>
      <trkpt lat="62.641753470328" lon="17.899000614844">
        <ele>92.2</ele>
        <time>2017-12-24T11:06:37Z</time>
      </trkpt>
      <trkpt lat="62.641744417876" lon="17.899059791058">
        <ele>92.2</ele>
        <time>2017-12-24T11:06:38Z</time>
      </trkpt>
      <trkpt lat="62.64173402432" lon="17.899117374711">
        <ele>92.4</ele>
        <time>2017-12-24T11:06:39Z</time>
      </trkpt>
      <trkpt lat="62.641721200013" lon="17.899161379686">
        <ele>92.4</ele>
        <time>2017-12-24T11:06:40Z</time>
      </trkpt>
      <trkpt lat="62.641705693498" lon="17.899200355521">
        <ele>92.4</ele>
        <time>2017-12-24T11:06:41Z</time>
      </trkpt>
      <trkpt lat="62.641689935526" lon="17.899226758506">
        <ele>92.4</ele>
        <time>2017-12-24T11:06:42Z</time>
      </trkpt>
    </trkseg>
  </trk>
</gpx>